ECMWFFLT1_sfc_thetae_000.txt.gz
Theta_e
314 314 315 316 316 316 315 317 317 318 319 320 320 320 321 322 323 323 324 325 324 326 328 330 331 333 334 335 335 334 334 334 331 326 328 333 328 325 324 324 327 329 330 328 328 324 321 320 321 326 327 328 329 330 329 329 328 328 330 328 326 326 326
314 313 314 314 314 315 315 315 317 317 318 319 319 319 320 321 321 322 323 323 323 325 324 326 330 331 333 333 335 330 330 331 330 328 328 329 330 327 326 324 325 326 327 327 327 326 322 321 319 321 323 327 329 329 329 331 331 331 331 330 328 327 326
314 314 314 314 314 314 313 314 315 315 316 317 318 319 319 319 320 322 321 322 323 324 324 325 327 329 330 333 333 334 333 332 332 330 328 328 330 332 332 327 324 324 326 325 325 325 324 324 318 318 323 323 321 325 329 330 331 332 332 333 331 328 329
313 313 313 312 313 313 312 312 313 314 315 315 316 317 317 318 319 320 321 321 322 322 322 323 325 326 329 331 332 333 333 332 331 330 327 330 330 328 329 329 328 326 324 324 325 324 324 322 320 320 323 322 323 324 327 329 329 330 330 332 332 331 334
312 312 312 311 312 311 311 310 312 313 313 314 316 316 317 317 317 318 320 321 320 322 321 323 326 327 328 330 331 333 332 333 332 329 328 327 328 329 330 329 328 330 328 325 327 328 325 323 323 321 321 322 322 323 325 329 330 329 330 330 331 330 333
313 313 312 312 312 311 311 311 310 310 312 312 314 313 315 316 316 316 317 317 318 320 322 322 323 325 326 327 329 331 331 331 331 331 328 327 329 329 328 330 329 330 331 331 328 329 329 327 325 321 321 323 320 320 322 326 325 327 329 328 329 330 332
312 312 312 311 312 312 311 311 310 310 309 310 311 312 313 314 315 315 316 316 317 319 320 320 322 324 325 325 326 327 330 330 331 330 330 329 329 329 329 329 329 330 330 329 329 329 327 326 324 322 322 321 322 319 321 323 324 322 326 328 331 330 331
312 312 312 311 311 311 312 311 310 310 309 310 310 311 311 312 312 313 314 314 315 317 317 319 320 322 324 323 324 326 327 329 330 330 331 331 328 327 329 329 328 330 331 331 331 329 330 328 326 325 323 320 320 321 320 322 322 322 323 326 329 330 331
310 311 310 310 311 312 311 311 311 311 311 311 311 311 311 310 310 311 311 312 314 315 316 317 319 320 321 322 323 323 324 327 328 331 329 327 328 330 330 331 329 328 328 330 331 331 330 330 330 327 326 323 318 316 319 318 320 320 324 323 326 328 329
311 310 310 311 311 311 311 311 311 311 312 311 311 311 310 310 310 310 310 311 313 314 314 316 317 318 320 321 321 323 323 325 326 327 332 332 332 333 331 331 329 329 328 328 330 331 332 330 329 330 327 324 323 318 315 316 319 319 321 324 320 325 328
311 311 310 310 311 310 311 310 310 310 311 312 311 310 309 309 309 309 309 309 310 311 312 312 314 316 319 319 320 321 322 324 324 326 329 332 332 331 330 330 330 329 329 329 329 331 332 332 333 332 328 327 325 321 319 316 318 323 321 325 324 322 325
312 311 310 310 310 309 309 309 310 310 310 310 309 309 308 308 308 308 309 308 308 308 310 311 312 313 315 317 318 319 322 323 322 323 326 327 329 330 333 331 331 329 330 330 330 330 330 332 332 333 333 328 326 326 323 320 315 322 325 323 325 324 322
310 310 310 310 309 308 308 308 308 308 308 308 309 308 307 307 307 307 307 307 307 308 308 310 311 312 314 315 317 318 320 321 321 321 322 325 326 328 329 329 330 330 330 331 330 330 331 331 332 332 334 330 326 327 325 322 319 319 325 326 326 324 323
310 310 310 309 309 308 308 307 307 307 307 307 307 306 306 305 305 306 306 306 306 306 306 307 309 310 311 313 316 317 318 319 319 320 320 322 324 326 327 328 328 332 333 332 329 330 330 333 332 332 333 333 326 327 325 323 321 320 326 329 328 323 323
310 310 310 309 308 307 307 307 307 306 305 305 306 305 305 305 305 305 304 304 305 305 306 306 307 308 309 310 311 315 317 318 318 319 321 320 321 321 325 325 326 327 328 327 332 330 329 332 331 331 330 330 329 326 327 323 322 320 323 326 325 324 321
309 309 309 309 308 307 307 307 307 306 305 305 305 305 304 304 304 304 304 303 303 304 304 305 306 306 307 307 308 311 314 316 317 318 319 320 320 321 322 323 327 327 329 330 332 332 331 331 331 329 328 330 328 327 327 325 322 320 324 322 323 318 318
309 308 308 308 308 307 306 306 307 306 305 305 304 305 305 304 303 303 302 302 303 303 303 304 304 305 306 306 306 307 309 312 315 316 317 319 320 320 320 320 323 328 326 326 329 329 331 331 331 329 328 327 328 329 328 327 325 323 324 322 322 317 318
308 308 307 307 307 307 307 306 306 305 305 304 304 304 304 304 303 302 302 302 302 302 302 303 303 303 304 305 306 307 308 309 312 314 316 317 318 320 321 321 322 323 326 328 329 328 328 330 329 330 330 328 328 329 328 326 324 323 325 322 320 319 317
307 307 306 306 306 306 306 306 305 305 305 304 304 305 303 302 302 301 301 300 300 301 301 301 302 302 303 304 304 305 307 308 310 312 314 316 318 320 321 322 323 323 323 326 329 331 330 329 330 329 330 327 327 328 328 327 328 325 325 323 319 316 317
306 306 305 305 306 306 305 305 305 305 305 304 303 303 303 302 302 301 301 301 301 300 301 301 301 301 302 303 303 304 305 307 309 311 313 316 317 319 321 322 322 323 323 324 327 327 328 326 327 330 331 331 328 329 330 329 324 323 323 322 318 318 315
306 305 304 305 305 305 305 304 304 304 304 303 303 302 301 301 301 301 300 300 300 300 300 300 301 301 301 302 303 303 305 306 307 310 313 315 317 318 320 321 322 323 323 323 328 329 330 331 332 331 331 330 328 328 329 328 326 325 323 321 319 317 316
305 305 304 304 304 303 303 303 303 303 303 302 302 302 301 301 300 300 300 300 300 300 300 300 300 301 301 301 302 303 304 305 306 308 311 314 316 318 320 321 322 322 322 317 314 318 320 319 328 330 332 331 327 328 331 329 326 323 322 321 319 318 315
304 304 303 302 302 303 302 302 302 302 302 302 302 301 301 301 300 299 298 299 299 299 299 300 299 298 298 301 302 303 304 305 305 307 309 312 315 317 319 321 321 314 312 310 308 308 310 311 312 326 333 331 329 328 330 327 325 323 322 320 317 315 313
304 303 302 302 302 302 302 302 302 302 302 301 301 301 301 300 299 299 298 298 298 298 299 299 297 295 295 295 299 301 303 305 306 306 308 311 314 316 318 320 322 318 314 311 313 305 306 306 308 309 310 316 318 326 326 328 326 326 322 321 317 315 314
303 302 302 301 301 301 302 301 301 301 301 300 300 301 300 299 299 299 298 298 298 298 298 297 294 294 294 294 296 300 301 302 305 307 308 310 313 316 317 319 321 323 323 322 323 323 312 305 304 305 306 307 308 310 312 325 326 325 324 320 317 317 316
302 301 301 301 301 301 301 301 300 299 299 300 300 299 298 298 298 298 298 297 297 298 298 296 294 294 294 293 293 296 299 300 302 304 307 310 313 315 317 318 320 322 323 313 317 322 327 324 305 301 305 307 307 306 305 306 309 323 325 322 318 316 317
301 300 301 300 300 300 300 299 299 299 299 298 298 297 297 297 297 297 297 297 297 297 298 296 294 294 294 293 293 294 299 299 300 303 306 308 311 315 317 318 318 320 322 323 323 322 324 326 325 318 317 318 321 313 303 302 302 304 313 323 321 318 318
300 300 300 300 299 299 298 298 298 297 297 297 296 295 295 295 295 296 296 296 296 296 297 295 293 293 293 293 293 293 298 299 299 301 304 307 308 311 316 318 319 320 322 322 322 320 323 324 326 323 321 321 324 322 322 320 320 320 319 325 325 325 322
300 299 299 299 298 298 298 297 297 297 297 296 296 295 295 295 294 295 296 296 296 295 297 294 293 293 293 293 292 296 298 298 299 300 303 306 309 310 313 317 319 320 321 322 313 306 312 322 324 323 320 318 315 309 303 297 298 303 317 323 323 322 319
299 299 299 298 298 298 297 296 297 297 296 295 295 294 294 294 294 294 295 295 295 295 296 295 293 293 293 292 293 297 298 298 299 300 301 304 307 309 311 315 318 319 321 321 310 302 304 310 322 321 319 314 310 306 301 300 293 292 292 292 292 293 294
299 298 298 298 297 297 297 297 297 297 296 294 294 294 294 294 294 294 294 294 294 294 295 295 293 293 293 292 294 297 298 298 299 300 301 304 306 308 310 307 313 319 320 321 303 300 300 313 322 321 316 309 305 302 300 300 297 294 291 291 291 291 292
299 299 298 297 297 296 297 297 297 297 296 295 294 294 294 293 293 293 294 294 295 294 294 295 294 293 292 293 294 297 298 298 298 300 302 303 306 308 310 309 307 311 316 314 297 299 299 312 322 319 314 310 306 303 301 301 297 295 295 295 297 296 294
299 299 298 297 297 297 297 297 296 296 295 294 293 293 293 292 292 292 293 294 294 294 294 296 297 293 293 293 293 297 298 299 299 300 302 304 306 308 309 313 312 302 301 298 296 297 299 305 320 317 314 311 309 305 302 302 299 297 296 296 295 295 295
300 299 298 297 297 297 297 297 296 295 294 293 293 292 292 292 292 292 293 294 294 294 295 296 298 294 293 293 293 294 298 300 301 301 303 303 306 308 310 313 318 305 300 295 295 295 298 300 304 316 314 312 311 303 299 299 296 293 295 295 294 294 294
300 299 299 298 297 296 297 296 295 294 294 293 292 291 291 291 291 291 292 293 293 293 294 295 297 295 294 293 293 293 297 300 302 303 304 306 307 309 310 313 316 302 293 294 294 295 296 298 299 313 313 300 293 292 298 296 296 295 294 294 294 294 295
299 299 298 298 296 294 295 294 294 294 293 292 290 289 289 290 290 291 292 292 293 293 293 294 293 294 294 294 294 293 294 298 298 304 306 307 309 310 312 313 310 294 292 292 293 294 295 295 299 307 291 290 291 291 293 295 293 294 294 294 293 292 293
299 299 298 297 296 294 294 294 293 293 292 291 289 288 288 289 290 290 290 291 291 293 293 294 293 293 294 294 294 294 293 294 297 304 307 309 310 311 311 314 303 291 292 292 292 292 293 296 299 289 290 290 290 292 295 294 295 295 292 294 293 293 292

ECMWFFLT1_sfc_thetae_003.txt.gz
Theta_e
317 317 319 320 320 320 319 321 321 321 322 321 321 321 322 323 323 323 324 324 324 325 325 326 328 330 331 333 334 335 334 335 333 329 328 330 327 329 333 331 330 328 326 324 324 322 320 319 322 328 329 330 330 330 329 328 328 328 330 330 327 328 330
319 319 319 318 319 319 319 320 320 320 320 321 321 321 321 322 323 322 323 322 322 323 322 324 326 327 330 331 333 334 336 335 336 333 329 330 331 329 331 330 330 327 326 323 323 325 321 319 319 322 324 328 330 330 328 329 328 330 329 328 327 327 330
318 319 318 317 318 318 318 319 319 319 319 320 321 320 320 320 321 322 322 322 322 323 323 322 324 325 328 330 331 331 335 335 337 336 332 333 332 334 333 332 328 326 324 323 324 323 323 324 319 320 324 323 322 324 330 329 329 328 329 329 329 326 328
318 318 318 318 317 318 317 318 318 317 318 319 319 321 320 319 320 321 321 322 322 323 322 322 322 324 326 327 329 331 332 333 334 335 334 334 333 333 334 332 328 326 324 322 322 323 323 322 321 320 322 322 322 324 327 329 329 328 328 329 328 327 328
319 319 318 317 317 317 316 316 316 317 318 318 319 318 319 320 320 319 320 321 321 321 321 323 323 323 325 326 327 328 329 331 334 334 332 330 330 330 330 332 330 330 330 328 328 328 327 327 326 323 321 322 322 324 326 329 328 327 327 327 327 327 327
319 319 318 318 318 316 317 316 315 314 315 315 316 317 317 319 319 319 319 318 319 320 321 322 323 323 324 323 325 326 327 329 330 332 330 332 330 329 328 332 332 330 330 333 331 329 329 329 328 324 324 323 320 320 322 326 325 326 327 326 327 327 327
319 319 318 317 318 317 316 315 315 314 314 315 315 316 317 317 318 319 319 319 319 319 319 320 321 322 323 322 322 323 325 327 328 331 332 333 332 331 331 328 329 331 331 332 331 329 327 326 325 324 324 323 323 320 321 322 325 323 324 326 326 327 326
317 316 316 316 317 318 316 316 316 315 315 315 315 316 317 317 316 317 317 316 317 317 317 318 318 320 321 321 322 322 324 326 326 327 330 332 331 331 330 328 328 329 330 331 330 328 329 328 328 327 326 320 322 322 321 320 322 323 322 324 325 326 327
316 317 315 315 316 317 317 316 316 317 316 316 316 316 316 316 315 315 315 315 315 315 316 316 317 318 320 320 320 322 323 324 325 327 327 330 331 332 331 330 329 327 329 330 330 329 328 328 329 330 328 325 320 316 320 317 319 321 323 321 324 326 327
316 315 314 315 316 317 317 316 315 316 317 317 316 316 316 316 315 315 314 314 314 314 315 315 316 317 318 318 318 320 321 323 323 324 325 326 329 331 332 330 328 327 328 330 330 329 329 329 330 330 330 326 325 319 316 314 317 318 320 322 319 324 328
316 316 315 316 317 316 315 316 315 314 315 316 316 316 316 315 314 313 312 312 312 312 312 313 314 314 316 315 317 318 320 322 322 323 324 325 326 327 329 330 330 328 328 329 329 330 329 329 330 330 330 330 329 323 321 316 316 321 320 323 323 322 328
315 316 315 315 315 315 314 314 314 314 314 314 313 313 313 313 312 312 311 310 310 310 311 311 312 312 313 314 315 315 318 320 320 322 323 323 325 326 326 327 328 328 330 329 329 330 330 332 331 332 331 331 329 327 324 323 317 321 325 323 324 326 327
315 315 315 315 314 313 313 313 313 313 312 312 312 311 310 310 311 310 310 309 308 309 309 310 311 311 311 312 313 315 316 318 318 319 321 323 322 324 325 325 328 328 329 329 328 329 329 332 332 331 331 331 331 329 327 324 321 320 324 324 324 324 326
314 314 314 314 313 313 313 313 312 312 311 310 310 309 309 308 309 309 308 308 308 308 308 308 309 309 309 309 311 313 314 315 316 318 320 321 322 322 322 323 324 328 329 327 327 328 329 329 330 330 330 332 330 332 328 324 320 321 323 329 327 324 325
315 314 314 314 313 312 313 312 312 311 310 310 309 308 307 308 308 307 307 307 307 306 307 307 308 308 308 308 309 311 312 313 314 315 317 318 320 321 322 321 322 324 326 326 328 327 328 328 328 328 327 329 329 330 331 327 324 322 319 322 326 326 325
314 314 313 313 312 312 312 312 312 310 309 309 309 308 308 308 307 306 306 306 306 306 306 306 307 307 307 307 307 308 310 311 311 312 314 316 318 320 320 321 320 322 324 324 326 329 329 327 328 328 327 329 328 329 330 330 327 322 321 321 326 322 323
313 313 313 312 312 313 312 312 311 310 309 308 307 308 308 307 306 306 306 305 305 305 305 305 305 306 306 307 307 307 308 309 311 311 312 313 315 318 320 319 320 321 322 322 324 325 327 329 327 327 328 327 330 330 331 332 329 325 324 320 325 321 321
312 312 312 312 312 312 312 311 310 309 309 308 307 307 306 307 306 306 305 305 305 305 305 305 305 305 306 306 306 306 307 308 309 311 312 313 313 315 317 319 320 321 320 320 322 322 326 329 328 328 329 329 329 330 330 330 328 327 325 323 324 323 322
312 312 312 312 311 311 310 310 309 309 308 306 306 307 306 306 306 305 305 305 305 305 305 305 304 304 304 305 305 306 306 307 308 309 310 312 313 313 315 317 319 321 321 320 320 322 323 325 327 327 328 328 329 329 329 329 328 326 325 325 323 321 321
312 312 311 311 310 310 309 309 308 307 307 306 306 306 306 305 306 306 306 306 305 305 304 304 304 304 304 304 304 304 305 306 306 307 309 310 311 312 313 315 317 319 320 321 321 321 322 324 324 328 330 328 327 326 328 327 327 326 324 323 323 323 320
311 311 310 310 309 309 308 307 307 307 306 305 305 305 305 305 305 305 305 304 304 304 304 304 304 304 304 304 303 303 304 304 304 305 307 308 310 312 313 315 316 318 319 320 321 322 323 321 324 327 329 328 327 327 329 328 327 325 323 322 322 319 318
310 310 309 308 308 307 307 306 306 305 305 305 305 305 305 305 304 304 304 304 304 304 303 303 303 304 304 303 304 303 303 303 303 304 305 306 308 310 313 315 316 317 318 315 311 311 313 314 324 323 328 332 332 330 327 327 327 325 324 323 322 320 315
309 309 308 307 307 306 305 305 305 305 304 304 304 304 304 304 304 304 303 303 303 304 303 303 302 299 299 302 303 303 303 303 303 303 304 305 306 308 310 313 315 311 309 309 307 305 303 303 305 317 326 330 330 330 328 328 325 326 324 321 319 317 314
308 307 307 307 306 305 304 304 304 303 303 303 303 303 303 303 303 303 303 303 302 303 303 303 298 296 295 296 300 301 301 302 303 304 304 304 304 306 309 311 313 313 312 309 312 304 303 302 302 302 305 311 317 330 327 322 327 325 323 322 320 317 314
307 306 306 305 304 304 304 303 303 303 302 302 302 303 302 302 302 302 302 302 301 302 302 300 296 295 295 294 296 300 300 300 300 301 302 303 305 306 307 309 311 314 316 317 319 319 312 306 302 301 301 304 306 307 308 323 329 325 324 322 321 320 315
306 306 305 304 304 303 303 302 302 301 301 301 301 300 300 301 300 301 300 300 300 301 301 298 296 295 295 294 294 296 299 299 299 299 300 301 303 305 307 308 310 313 316 310 315 319 320 320 308 301 303 303 304 303 305 303 306 326 327 324 322 321 318
304 304 304 304 303 302 302 301 301 301 301 301 300 299 300 299 299 299 299 299 299 299 300 298 295 295 294 293 293 294 298 298 298 299 299 300 301 302 305 307 309 311 314 317 318 318 319 320 322 319 315 318 322 316 303 303 302 304 314 328 326 322 321
304 303 303 303 302 302 301 301 301 300 300 299 299 298 298 298 298 298 298 298 298 298 299 296 294 293 293 293 292 293 298 298 298 298 298 299 300 301 303 305 308 310 313 315 317 317 320 320 320 322 322 322 324 327 326 323 324 324 323 326 325 324 323
304 303 302 302 301 301 301 300 300 300 299 299 299 299 299 298 298 297 298 297 297 296 298 294 293 293 293 293 292 296 297 297 297 297 298 298 299 300 301 303 305 307 311 313 310 303 307 319 321 320 322 324 324 326 327 316 313 317 324 328 328 326 325
303 303 302 301 301 300 300 299 299 299 298 298 298 298 298 298 298 297 297 297 296 296 297 295 293 293 292 292 293 296 296 296 296 297 297 298 299 299 300 302 303 306 308 311 307 302 300 302 320 319 318 322 323 325 320 304 296 296 300 305 311 310 307
302 302 301 300 300 300 300 299 299 299 298 298 297 297 297 297 297 297 296 296 296 295 296 296 293 293 292 292 293 295 296 295 295 296 296 298 298 299 300 300 302 304 307 310 304 300 299 304 318 319 319 320 321 317 309 307 305 299 294 294 294 297 299
303 302 301 300 300 300 299 299 299 299 298 297 297 297 297 296 296 296 296 296 296 295 295 295 293 292 292 292 294 296 295 295 294 295 296 296 298 298 299 300 300 301 303 306 301 300 299 303 318 319 319 320 317 315 309 309 307 306 306 305 304 304 302
303 302 301 300 300 299 299 298 298 297 297 297 296 296 296 295 295 295 296 295 295 295 294 295 295 292 292 292 292 295 295 294 294 294 295 296 297 298 299 300 300 296 295 296 296 296 296 295 311 319 320 319 317 315 311 312 312 310 308 307 305 306 306
302 302 302 300 300 299 298 298 297 297 296 296 295 295 294 294 294 294 294 294 294 294 294 294 295 292 292 292 292 292 294 294 294 295 295 296 297 297 298 300 302 299 296 296 296 296 296 296 297 314 321 322 319 315 306 310 306 300 306 303 303 302 302
303 302 302 301 299 298 298 298 297 296 295 295 294 293 293 293 292 292 293 293 293 293 295 295 295 294 292 292 292 292 293 295 296 296 295 296 297 298 299 300 302 300 296 295 296 296 297 297 296 308 320 307 297 296 309 307 306 305 303 301 299 298 299
302 302 301 301 299 297 297 297 296 296 295 294 293 292 292 292 291 291 291 292 292 293 294 294 293 294 293 292 291 291 291 292 292 296 296 296 297 298 300 301 302 299 297 296 296 296 297 297 297 308 302 294 295 296 300 306 303 303 301 299 298 298 298
302 301 301 300 298 297 296 296 295 295 294 293 291 291 291 291 290 290 289 290 290 291 292 293 293 292 293 292 291 291 291 290 291 294 296 296 297 299 300 302 302 299 298 297 297 296 296 296 305 297 292 294 294 297 305 303 302 302 299 297 297 297 297

ECMWFFLT1_sfc_thetae_006.txt.gz
Theta_e
323 319 322 323 326 326 325 325 326 328 327 325 325 323 325 326 325 324 325 326 325 322 323 322 323 325 328 330 332 332 333 332 331 329 328 329 326 325 328 328 329 329 328 326 324 319 317 318 319 325 326 325 324 325 325 325 324 324 327 326 326 326 326
321 321 320 320 322 322 323 324 325 323 324 325 325 324 324 325 325 324 324 322 322 323 321 321 322 323 324 324 328 331 331 331 331 331 329 328 328 326 326 326 327 327 327 327 326 323 317 317 319 320 321 325 326 327 326 326 326 327 328 327 326 324 325
319 320 321 319 322 321 322 322 324 322 325 323 324 324 324 323 323 324 323 323 322 321 323 320 321 321 321 322 323 325 328 331 331 330 329 329 329 328 327 327 325 326 325 325 324 323 319 319 317 318 323 321 321 323 327 326 326 326 327 327 326 324 323
320 320 321 317 321 320 320 320 322 323 326 327 326 323 322 323 322 323 322 322 322 322 321 320 320 320 321 323 324 325 325 326 327 330 329 329 330 329 329 328 327 327 324 322 321 321 320 321 320 319 321 321 321 322 325 327 325 326 326 325 326 323 323
320 319 319 318 319 318 320 320 321 323 320 323 323 322 322 322 323 322 322 321 320 320 320 321 321 320 321 322 321 322 323 325 327 327 329 328 329 328 328 329 329 329 328 326 324 323 323 322 324 322 322 324 323 323 324 327 328 326 324 323 325 324 324
320 320 319 320 319 320 319 318 320 320 321 319 320 321 323 321 322 320 320 320 320 320 320 320 320 320 320 320 320 320 322 323 323 325 326 328 329 328 329 330 330 330 328 329 327 325 327 329 326 321 322 328 322 321 324 324 324 324 324 323 324 325 324
320 320 320 319 320 320 319 319 319 318 318 317 319 318 320 321 320 321 320 319 318 318 318 318 318 318 318 317 318 318 319 320 322 323 323 326 328 329 328 329 329 329 329 329 328 326 325 324 323 322 320 321 325 321 323 323 324 322 323 324 324 324 324
319 319 319 319 319 319 321 320 319 320 318 318 318 320 320 320 319 319 318 317 316 316 315 316 317 316 317 317 316 317 318 319 320 320 321 323 326 328 328 327 327 329 329 329 329 327 326 325 323 322 321 317 318 322 321 325 326 323 322 323 324 324 323
318 318 317 319 320 321 321 320 319 320 319 319 319 319 319 319 318 317 316 315 315 315 314 314 314 314 315 315 315 316 316 319 318 320 320 321 321 324 328 328 327 326 327 329 329 328 328 327 325 325 324 320 315 313 320 319 323 323 326 323 323 324 323
318 317 317 317 318 319 320 319 319 319 320 319 319 318 318 318 318 317 315 314 314 314 313 313 313 313 313 313 313 314 315 316 317 317 319 320 321 322 325 327 325 325 327 327 328 328 328 328 327 326 326 322 321 316 314 315 318 319 322 323 321 322 324
317 317 318 318 318 318 317 317 317 316 316 317 317 319 318 317 315 314 313 312 312 312 311 310 310 310 311 311 311 312 313 314 314 316 317 318 319 321 322 325 328 328 328 327 327 327 327 327 327 326 326 326 325 320 318 315 316 322 322 325 324 322 322
316 316 317 318 317 316 315 315 316 316 318 317 316 315 314 313 313 313 312 311 311 310 310 310 310 309 310 309 310 310 311 312 312 313 315 316 318 319 320 320 324 326 327 327 327 327 327 327 327 327 325 326 325 323 321 319 315 320 326 322 324 325 328
315 315 316 315 315 314 314 315 315 315 315 315 314 313 311 310 310 310 310 309 309 309 308 308 308 308 308 308 308 308 309 310 310 312 313 315 316 318 318 319 320 322 326 327 327 327 327 327 328 327 326 325 325 325 324 321 318 317 325 326 325 326 332
315 315 315 315 314 314 315 315 314 315 315 312 312 311 310 309 308 308 307 307 307 307 307 307 308 308 307 307 307 308 308 308 308 309 311 313 315 316 317 318 319 320 322 324 325 326 326 326 327 327 327 326 324 326 325 322 319 318 322 326 327 325 329
315 314 315 314 314 313 314 314 314 313 311 311 311 310 308 308 308 308 306 306 306 306 306 305 306 306 305 305 306 308 308 307 307 307 309 310 312 314 315 316 317 319 320 321 324 325 326 325 325 325 325 326 325 325 326 323 321 319 318 323 325 328 326
314 314 314 314 313 313 313 313 313 312 311 310 310 310 309 308 308 307 306 306 305 305 305 305 306 306 305 305 305 305 306 306 306 306 307 308 310 311 312 314 315 317 320 320 321 324 325 325 326 325 325 326 325 325 326 326 323 320 319 320 324 323 324
314 314 313 313 313 313 313 313 313 312 311 311 309 310 309 308 307 306 306 305 305 305 305 305 305 305 305 305 304 304 305 305 305 306 306 307 308 309 310 311 313 315 316 317 319 320 324 325 324 324 324 324 324 323 324 324 325 323 322 320 322 323 324
313 313 313 313 313 313 313 313 313 311 311 310 309 309 308 308 307 306 305 304 304 304 305 305 305 305 305 305 305 305 305 304 305 305 306 306 308 308 309 310 312 313 314 315 316 318 319 321 324 324 323 323 322 324 325 325 325 325 322 321 321 322 324
313 312 312 312 313 313 313 312 311 312 310 308 308 308 307 306 306 305 305 305 305 305 305 305 305 305 305 305 305 305 305 305 305 305 305 305 306 307 308 309 311 312 313 313 314 316 318 319 320 322 323 323 323 323 324 325 324 323 323 321 321 318 321
312 312 312 312 313 312 311 312 310 308 309 308 306 305 305 305 305 305 305 305 305 305 305 306 305 305 305 305 304 304 303 304 304 304 304 305 306 306 307 308 309 310 311 313 314 315 316 317 319 319 322 323 323 323 322 323 323 322 322 320 320 320 318
312 312 313 312 312 312 311 310 309 310 309 306 305 304 304 304 304 304 304 304 305 305 305 304 304 304 304 304 304 304 303 303 303 303 303 304 305 305 306 307 307 308 310 311 313 314 316 316 317 317 319 322 324 323 322 321 320 320 321 320 319 318 317
312 312 311 310 310 309 309 310 310 308 306 305 306 305 304 304 303 303 304 304 304 305 305 304 304 304 304 303 303 303 303 303 303 303 303 303 304 304 304 305 306 307 309 309 307 307 309 310 315 315 316 318 319 321 322 321 321 320 318 319 319 320 317
311 310 310 309 308 309 309 309 308 306 305 304 304 304 304 304 303 303 302 303 303 304 304 305 303 300 300 303 303 302 303 303 302 302 302 302 303 303 304 304 305 306 304 304 303 302 301 302 304 308 312 313 314 316 319 320 320 320 320 320 320 319 316
309 308 308 308 309 308 306 306 305 304 304 304 304 304 303 302 301 302 301 301 301 302 303 303 299 296 295 296 299 301 301 301 301 301 300 300 301 302 303 304 304 305 305 304 305 301 300 300 300 301 302 303 305 311 312 316 318 320 320 320 319 319 317
308 307 307 306 306 305 307 307 304 303 303 303 303 304 302 301 301 300 301 301 300 301 301 299 296 295 295 295 296 299 300 300 300 300 300 299 299 300 300 302 303 305 305 306 307 307 306 302 300 300 300 300 299 299 301 309 313 317 320 319 318 319 318
306 306 306 306 306 307 306 304 302 302 302 302 304 303 301 301 300 300 300 299 299 299 300 297 295 295 294 293 293 295 298 299 299 299 299 299 299 299 299 300 300 302 304 305 307 307 307 308 304 300 301 302 301 300 298 296 300 313 320 321 320 320 317
306 306 307 306 305 304 303 302 303 302 302 302 302 302 301 299 299 299 299 299 299 299 299 297 295 294 294 293 293 293 296 297 298 298 298 299 299 299 299 298 298 299 301 303 305 307 308 308 309 311 309 309 310 309 303 300 298 298 307 319 320 320 320
305 305 305 305 306 304 302 302 302 301 302 302 300 299 298 298 299 299 299 299 298 298 299 296 294 294 294 293 293 293 296 296 297 297 297 298 298 299 299 299 298 298 299 300 302 304 306 308 310 312 313 314 313 313 314 313 312 309 309 316 321 321 322
306 305 304 304 303 302 302 302 301 302 302 301 301 299 299 299 298 298 298 298 298 297 298 295 293 293 292 292 292 295 296 296 296 296 296 297 297 298 298 298 298 298 298 299 299 296 298 302 305 307 311 313 314 316 316 311 309 309 313 317 321 323 323
305 304 304 303 301 302 301 302 302 302 300 299 298 298 297 298 298 297 297 297 297 296 297 296 293 293 292 292 292 294 295 295 295 295 295 296 297 297 298 298 298 298 298 298 297 295 295 296 301 303 305 307 312 315 316 318 308 304 304 306 308 310 309
303 303 303 302 302 303 303 302 301 302 299 298 297 297 297 297 297 297 297 296 296 296 296 296 293 293 292 292 293 294 294 294 294 294 294 295 296 296 297 298 299 298 297 298 296 294 294 296 299 301 302 304 307 310 314 313 310 306 302 304 305 305 305
304 305 303 303 304 302 301 301 301 301 300 298 297 297 297 296 296 296 296 296 297 295 295 295 294 292 292 292 293 294 294 293 292 292 293 293 294 295 296 297 298 298 298 297 294 294 293 295 298 300 302 304 306 307 312 310 311 308 309 309 310 311 307
304 304 304 304 303 302 302 301 300 299 299 298 296 296 296 295 294 294 295 295 295 295 294 294 295 292 292 292 292 293 293 292 291 292 292 293 293 294 295 295 296 294 293 293 293 293 293 293 296 298 299 300 305 308 312 310 311 313 312 314 314 313 314
307 306 305 304 303 302 301 300 299 298 297 297 296 295 295 294 294 294 294 294 293 294 294 294 294 292 292 291 291 291 292 292 292 292 292 292 293 293 294 295 296 295 293 292 292 292 293 293 294 297 297 298 299 303 304 311 308 303 313 312 311 311 309
306 306 306 304 302 300 301 300 298 298 297 296 295 294 294 294 293 292 293 293 293 293 294 294 293 292 291 291 291 291 291 292 293 293 292 292 293 293 294 294 295 295 293 293 292 292 292 293 293 296 297 295 294 294 300 308 310 309 309 307 304 305 305
305 306 305 303 301 300 300 299 299 298 297 296 294 293 292 292 292 291 291 292 292 292 292 292 292 292 291 291 291 290 290 290 291 292 292 292 292 293 294 295 295 294 293 293 292 292 292 292 293 295 293 293 293 294 296 306 307 309 307 305 303 302 302
307 305 304 303 300 299 298 299 298 297 296 294 292 291 291 291 291 290 290 290 291 291 291 291 291 291 291 290 290 290 290 289 290 291 292 292 292 293 293 294 294 293 293 293 292 292 292 292 294 293 293 293 293 294 301 305 304 306 301 300 300 300 300

ECMWFFLT1_sfc_thetae_009.txt.gz
Theta_e
310 311 312 313 315 316 313 313 315 316 317 316 316 315 316 317 318 316 316 316 316 317 320 318 316 317 319 321 322 326 326 327 326 325 324 325 325 326 328 326 325 327 327 326 325 321 318 315 316 321 322 322 322 323 323 322 322 322 322 324 324 325 325
312 313 315 314 312 314 313 313 314 314 313 314 315 315 315 315 319 316 314 314 315 316 319 318 316 317 317 316 317 318 321 325 326 326 324 324 325 325 326 324 325 324 326 327 327 325 320 317 315 317 318 321 322 321 322 323 322 322 323 324 325 325 325
314 313 312 311 312 311 312 312 312 312 313 312 313 314 314 315 315 315 315 314 314 315 319 316 316 316 316 316 317 317 318 319 323 325 325 326 326 326 326 326 324 324 323 323 323 323 322 321 317 315 318 318 317 319 322 321 322 323 323 324 324 324 324
312 311 310 310 311 309 311 310 312 312 314 313 314 312 311 314 313 316 314 314 315 316 317 315 315 315 316 316 317 317 316 316 317 321 324 325 326 326 327 326 325 324 323 321 320 322 321 319 318 318 318 319 319 319 321 324 323 324 324 324 324 323 323
312 311 310 308 311 309 311 311 310 312 309 314 313 312 312 313 314 313 315 314 314 313 313 314 315 316 315 315 315 315 316 316 317 319 320 322 324 324 324 325 325 325 325 324 324 324 322 320 318 317 317 318 320 321 322 323 325 324 323 323 324 324 322
312 311 311 308 312 310 310 310 310 308 310 312 310 310 313 312 313 311 312 312 312 313 314 313 313 314 314 313 313 313 314 314 315 315 315 317 321 323 324 325 326 326 325 326 326 324 323 322 321 318 319 324 318 319 322 324 321 323 323 323 323 324 323
312 312 311 312 311 311 310 309 310 308 309 309 311 309 311 312 312 313 312 311 311 311 312 311 311 311 312 313 313 312 312 313 314 314 315 315 316 319 323 324 325 327 326 326 326 325 323 320 320 320 319 319 322 319 322 323 326 321 321 322 323 323 323
312 312 311 313 312 311 311 311 310 309 308 308 308 309 312 309 310 310 311 311 310 310 310 309 311 309 310 311 312 312 313 313 314 314 314 315 316 316 317 321 323 324 325 327 327 326 326 323 322 321 319 316 315 316 316 320 324 322 321 323 326 321 322
314 313 312 312 312 311 310 310 309 309 309 309 309 309 311 310 309 309 311 310 310 309 309 309 309 309 309 309 309 310 309 313 312 312 313 313 314 314 315 317 320 323 325 326 326 327 327 326 324 322 321 319 315 312 314 314 317 319 324 321 324 325 322
312 311 310 309 311 311 310 309 309 309 309 308 310 310 309 309 309 309 308 308 308 308 307 308 308 307 307 307 307 307 307 309 310 310 311 311 312 313 314 315 317 320 323 324 325 325 326 325 325 324 323 320 318 314 312 312 313 314 320 323 320 324 326
311 311 310 309 310 310 309 309 308 308 307 308 309 311 309 309 308 313 308 307 307 307 307 306 306 306 306 306 305 306 307 307 307 308 309 310 310 311 312 313 315 316 321 323 323 324 324 325 325 325 324 323 321 317 316 313 313 317 318 321 323 322 324
310 310 310 310 310 309 309 308 307 308 307 308 308 307 307 307 306 307 306 305 305 305 305 305 305 305 305 304 304 306 305 305 305 306 307 309 310 311 311 312 313 314 317 321 323 323 323 324 324 324 324 323 321 321 318 316 313 317 321 318 320 323 325
310 310 309 310 309 309 309 309 308 307 307 308 306 307 306 306 306 304 305 304 304 304 304 304 304 303 303 303 303 305 304 304 304 304 305 306 307 308 309 310 312 313 315 317 321 323 324 324 323 323 323 323 323 323 321 319 316 316 320 320 320 322 326
309 309 309 309 309 308 308 309 308 307 307 306 305 305 305 305 305 304 303 304 303 302 302 302 302 302 302 302 302 302 302 303 303 304 305 305 306 306 307 308 310 312 314 314 316 320 322 323 323 323 323 323 322 323 322 320 318 317 319 321 321 321 325
309 309 308 308 308 308 307 307 306 306 305 305 305 305 305 304 304 304 302 302 301 301 302 301 301 301 301 301 300 303 303 302 302 303 303 303 304 306 306 306 307 309 311 312 313 315 318 322 322 321 322 323 323 323 324 321 319 318 317 318 320 321 322
309 308 308 307 307 308 307 306 307 305 304 304 305 305 304 304 304 303 302 302 301 300 301 300 300 301 301 300 300 300 302 301 302 302 302 303 304 305 304 304 305 306 309 309 310 312 314 315 320 321 321 322 322 323 323 323 321 319 318 318 320 319 320
308 308 307 307 307 307 307 306 307 306 306 305 305 305 304 303 303 302 302 301 300 300 300 300 300 300 301 300 300 301 301 302 302 302 302 302 303 304 304 304 304 305 306 307 308 310 312 313 315 319 320 321 321 322 322 323 322 321 320 319 319 320 319
308 307 307 307 307 307 306 306 306 305 305 304 304 303 303 304 302 302 301 301 300 299 300 300 300 300 300 301 302 302 303 303 303 303 303 303 304 304 304 304 304 304 305 305 306 308 309 310 312 313 316 320 319 320 322 322 322 322 320 319 319 319 320
307 307 307 306 306 306 306 306 305 305 305 303 302 302 302 301 302 301 300 300 300 300 300 300 300 300 301 302 303 304 304 303 304 303 303 303 303 304 304 304 305 305 305 304 305 307 308 309 311 312 313 315 319 319 318 320 321 321 321 319 319 318 319
307 307 307 306 307 306 306 305 304 303 303 302 301 301 300 300 300 300 300 300 300 300 300 301 301 301 302 302 302 302 302 303 303 303 303 303 303 303 303 304 304 305 305 305 305 305 306 307 308 310 311 313 315 318 318 317 318 318 319 319 319 320 318
307 307 307 306 306 306 305 304 303 302 303 300 300 300 299 299 298 300 299 300 300 300 300 299 299 300 301 301 301 301 301 301 301 302 303 303 303 303 303 303 303 303 303 304 304 305 305 305 306 306 307 310 312 313 315 317 316 317 317 318 318 318 317
307 307 307 306 305 304 303 302 302 301 300 300 301 300 299 299 298 298 298 299 298 299 300 301 302 302 302 302 303 302 302 302 302 302 302 302 303 303 303 303 304 304 305 305 303 302 302 302 303 302 303 304 305 306 308 312 316 316 316 316 316 317 315
307 306 305 304 303 302 302 301 300 299 299 299 298 299 298 298 298 298 297 297 297 298 299 299 301 299 298 300 300 300 301 301 301 301 301 301 301 301 302 302 303 304 302 302 301 299 298 298 300 302 302 302 302 302 304 306 309 313 315 314 314 315 314
305 305 303 302 301 301 301 301 299 299 299 298 298 297 298 297 296 296 296 296 295 297 298 299 297 294 294 295 297 298 298 298 298 298 299 299 299 300 300 301 301 302 302 301 301 299 297 297 297 297 298 299 301 302 301 302 304 308 311 314 316 315 313
303 303 302 301 301 301 300 299 298 297 297 297 297 297 297 296 295 295 296 295 294 295 296 298 295 295 294 294 295 297 296 296 296 296 296 297 297 298 298 299 300 301 301 301 301 301 300 298 297 296 296 296 296 296 297 301 303 304 306 309 311 313 316
302 302 301 301 301 300 299 297 296 296 296 296 296 296 295 295 295 294 295 294 293 295 295 296 294 294 294 294 294 295 295 295 295 295 295 295 296 296 297 297 298 299 301 301 303 301 300 300 298 297 298 298 298 297 296 295 296 303 306 307 308 310 313
301 300 300 300 299 298 296 295 294 295 296 296 295 294 294 294 293 293 293 293 294 294 295 296 294 294 294 293 293 293 296 296 296 296 295 295 295 295 295 296 296 297 298 300 300 300 300 300 299 299 300 301 304 304 299 298 296 295 299 305 307 307 311
299 299 299 298 297 295 295 293 294 294 295 293 292 293 293 292 292 294 292 292 292 294 296 295 293 293 293 292 292 292 294 295 295 295 295 295 295 295 295 296 296 296 297 298 299 299 299 299 299 298 298 298 299 300 302 305 308 306 301 302 305 307 310
299 298 297 296 295 294 294 294 294 294 293 291 292 291 291 292 292 291 292 291 292 292 293 293 292 292 292 291 292 293 294 293 293 293 293 293 294 295 295 296 295 295 296 296 296 295 296 298 298 297 297 297 297 298 300 301 300 302 306 307 305 306 309
298 297 296 295 294 294 293 294 293 292 290 290 290 290 290 291 291 290 290 291 291 292 292 293 292 292 292 292 292 293 292 292 291 291 291 292 293 293 294 294 294 294 295 295 295 293 293 294 296 296 296 296 296 297 297 300 299 299 299 298 299 300 300
297 297 295 295 294 293 293 292 292 292 291 289 289 290 291 290 290 290 290 291 292 292 292 293 293 292 292 291 292 291 291 290 290 290 291 292 292 292 293 296 297 295 294 295 294 293 292 294 295 296 296 295 295 295 296 298 301 303 301 301 300 297 298
296 295 294 293 293 292 292 292 291 291 290 289 289 289 291 289 289 289 290 291 296 294 292 293 293 291 291 291 292 291 291 290 289 289 290 290 291 291 292 294 295 295 295 295 293 292 292 294 295 296 296 295 295 294 295 297 298 301 306 308 310 308 302
295 295 294 293 292 293 292 291 290 290 289 289 288 288 289 288 288 289 290 291 292 292 292 292 293 292 292 291 292 292 291 289 289 289 290 290 290 291 292 292 294 292 291 291 291 291 292 292 294 296 296 295 295 294 297 298 299 301 302 302 303 307 309
296 295 294 293 293 293 292 291 290 289 289 288 288 288 287 288 288 289 290 290 290 291 292 291 292 292 291 291 291 291 290 290 290 290 289 289 289 290 290 291 293 293 292 291 291 291 291 291 292 295 295 295 296 296 296 296 297 296 299 299 300 302 305
297 297 294 294 293 291 291 291 291 289 289 288 287 287 286 287 287 288 288 289 289 290 292 293 291 292 291 291 291 291 290 290 290 290 289 288 289 289 290 291 291 292 291 291 291 291 291 291 291 294 295 293 293 292 295 296 296 296 297 298 298 300 302
296 298 295 294 292 290 291 290 290 289 288 287 287 286 285 286 286 287 287 288 288 289 289 290 292 291 291 290 290 290 290 289 289 289 288 287 288 289 290 290 292 292 290 291 291 291 291 291 291 293 292 292 292 291 292 295 294 294 295 295 296 297 299
296 295 293 292 292 289 289 289 290 290 287 286 285 285 285 287 285 285 287 287 288 288 288 289 290 290 290 289 289 289 289 288 288 289 289 288 289 289 289 290 290 290 290 290 290 290 291 291 292 291 291 291 291 291 294 294 293 294 293 294 294 296 298

ECMWFFLT1_sfc_thetae_012.txt.gz
Theta_e
308 307 308 309 308 311 309 310 311 311 313 313 313 312 312 314 313 312 312 312 313 315 317 314 314 314 315 316 317 316 317 320 321 322 322 324 322 322 326 326 327 328 328 326 324 320 316 313 316 319 320 320 320 321 321 321 320 321 321 323 325 325 325
308 310 310 312 311 311 308 310 311 311 309 312 313 312 312 312 318 311 309 310 310 312 316 315 313 314 313 313 314 315 315 316 319 320 323 324 325 323 323 322 323 323 325 325 325 325 320 317 316 317 318 320 319 320 320 321 322 321 322 322 324 325 326
310 309 309 309 309 308 308 308 308 309 309 309 310 311 311 312 311 312 310 310 309 313 316 311 311 312 313 312 312 314 314 314 316 316 317 320 323 325 324 323 322 322 323 323 323 322 323 322 317 317 317 316 315 317 321 321 321 321 321 322 323 324 325
309 310 307 306 307 307 308 307 307 307 309 308 309 310 310 311 310 315 310 310 313 313 312 310 310 310 311 311 311 311 312 312 312 314 315 317 320 322 323 324 323 323 321 320 321 322 320 318 318 318 319 320 319 318 321 322 322 322 321 321 321 323 323
310 310 308 307 308 308 308 308 307 308 308 310 309 308 308 309 311 310 313 310 311 309 310 309 311 311 310 310 310 310 309 310 311 313 312 312 313 315 318 322 322 324 324 323 324 323 321 321 320 319 319 320 319 319 321 322 323 323 321 321 321 322 323
310 310 309 308 308 307 308 307 306 308 306 308 308 308 308 308 311 308 309 308 307 310 309 308 308 308 308 308 309 308 308 308 309 309 309 310 311 312 314 317 320 321 322 323 323 323 323 323 321 318 319 320 317 317 319 321 320 321 322 321 322 322 322
310 309 309 308 309 307 309 309 308 307 306 307 308 307 309 309 309 310 309 307 308 308 309 308 308 308 308 308 308 307 306 307 307 307 308 309 311 312 313 313 315 317 319 322 323 323 322 322 320 319 318 319 320 319 321 321 323 320 320 322 322 322 322
309 309 309 308 310 308 308 309 308 307 306 307 307 307 308 307 307 306 306 306 307 307 307 306 308 306 306 307 307 307 307 306 306 307 306 307 309 309 310 310 312 314 316 318 321 323 324 323 321 321 319 316 317 318 317 318 319 320 320 321 323 321 321
311 310 309 310 310 310 309 308 308 307 306 306 305 306 307 306 306 306 308 306 306 306 307 308 306 306 306 306 305 305 304 309 306 305 305 305 305 306 307 309 310 310 313 315 318 320 322 323 323 323 321 319 315 313 316 314 314 317 321 319 321 323 324
310 310 309 309 309 309 309 308 308 307 306 307 308 307 306 305 305 304 306 306 306 306 306 306 306 305 304 304 304 303 304 304 305 304 305 305 305 305 306 307 309 310 311 313 315 317 319 321 322 323 323 320 319 315 314 313 313 313 316 321 319 320 323
311 310 310 309 309 309 307 308 307 307 307 308 309 308 305 305 306 313 304 305 304 305 305 304 304 304 303 303 303 303 303 303 304 303 304 305 305 305 306 306 306 307 309 311 312 314 317 319 320 321 322 322 321 317 316 313 313 315 314 316 321 319 321
311 310 310 309 309 309 308 307 307 307 306 306 309 306 303 304 303 304 303 303 303 304 303 302 303 302 302 302 302 302 302 302 302 302 303 304 304 305 304 304 304 305 307 308 310 311 314 317 319 320 321 322 321 320 317 316 312 317 318 316 318 322 322
310 310 309 308 308 308 308 307 307 305 306 308 304 304 304 303 303 302 302 302 302 301 301 301 301 301 300 301 301 302 301 301 301 301 302 302 304 304 303 303 303 304 306 306 306 308 309 312 315 318 319 320 321 320 319 317 315 315 319 318 318 319 321
309 309 308 308 308 307 307 308 307 306 305 305 304 304 303 303 302 303 302 303 302 301 300 300 300 300 300 300 299 300 300 300 300 300 301 302 302 302 302 302 302 304 304 304 304 306 307 308 311 313 315 318 320 321 319 318 315 315 319 321 320 319 320
309 308 307 307 307 307 307 306 306 305 305 304 304 304 303 302 302 302 301 301 301 300 300 299 299 299 299 298 298 301 301 299 299 300 300 300 300 302 301 301 302 302 303 303 304 305 306 306 307 309 311 313 315 318 322 319 317 315 315 319 319 320 319
308 307 307 306 306 306 306 305 306 305 304 303 303 303 303 301 302 301 300 300 299 298 299 298 298 298 298 298 298 298 300 299 299 299 299 299 300 301 301 301 301 302 304 303 303 303 304 304 306 306 308 310 312 315 318 320 318 316 317 317 320 319 318
307 307 306 306 306 306 306 305 306 304 304 302 303 302 301 301 301 300 300 299 299 298 298 298 298 298 298 298 298 298 298 298 299 299 300 300 301 301 302 301 302 303 303 302 302 302 302 303 303 305 306 309 310 311 314 317 319 317 317 316 317 317 317
307 306 306 305 305 305 305 305 305 304 303 302 302 301 302 301 299 299 299 298 298 297 297 297 297 297 298 298 298 299 299 299 300 300 301 302 304 303 303 303 303 303 303 302 302 302 302 302 303 304 304 306 307 309 311 313 316 317 316 315 317 319 317
307 306 306 305 305 305 305 304 304 303 303 303 300 300 299 298 300 297 297 297 297 297 297 297 297 297 298 298 298 299 299 300 301 301 301 301 302 302 302 302 303 303 302 301 301 301 302 303 303 303 303 304 306 307 307 307 309 311 313 315 316 317 318
307 306 306 305 305 305 305 304 304 303 303 302 300 298 297 297 299 298 297 297 297 297 297 297 297 297 297 297 297 297 298 298 299 300 301 301 302 302 302 302 303 303 302 302 302 301 301 301 302 302 303 303 303 303 302 303 305 306 306 308 311 315 317
307 306 306 305 305 305 304 303 303 302 301 299 298 297 296 297 296 297 296 296 297 297 297 297 296 296 297 297 297 297 297 298 299 300 301 302 302 303 303 303 303 303 303 303 302 302 302 302 302 302 302 302 301 300 300 301 302 303 304 305 306 309 314
306 306 306 305 304 304 303 303 302 301 300 298 299 296 296 297 296 296 296 296 296 297 297 297 297 297 296 296 296 296 296 296 296 297 298 299 299 300 301 301 302 302 304 304 302 302 301 301 301 300 300 301 301 300 299 299 300 301 301 302 303 306 308
306 305 305 304 304 303 302 301 300 299 298 297 297 297 296 296 296 295 295 295 294 296 295 296 299 299 298 297 295 296 296 295 295 295 296 295 296 297 298 299 301 302 302 301 300 298 297 297 298 300 300 300 300 299 299 299 299 299 300 300 301 303 304
305 305 304 304 302 302 301 300 299 297 296 296 296 296 297 295 295 293 294 294 293 294 295 296 297 294 294 295 296 295 294 294 294 294 294 294 294 295 295 296 297 299 300 300 300 297 296 296 296 296 296 297 298 298 298 297 298 299 299 299 301 302 303
305 304 304 303 302 301 300 299 297 295 295 295 295 295 295 294 292 293 293 293 292 293 294 297 294 294 294 293 295 296 295 294 294 294 294 293 294 294 294 294 295 297 297 297 298 298 298 297 295 295 294 294 294 294 295 297 297 296 297 298 299 301 302
304 303 303 302 301 300 299 297 295 294 294 294 294 294 291 291 292 292 293 292 291 292 292 295 293 294 293 293 293 294 294 294 294 294 294 294 293 294 294 294 294 295 296 298 300 297 297 297 297 296 296 296 295 295 293 293 293 297 297 297 298 299 301
303 303 302 301 300 299 297 297 295 294 294 293 291 291 290 290 290 291 291 292 291 291 292 294 293 293 293 292 292 292 293 293 293 294 294 294 294 294 294 293 293 293 294 295 295 296 296 296 296 297 298 298 298 298 295 294 293 293 295 298 299 299 302
303 302 301 301 299 298 297 293 293 292 293 291 291 291 290 289 290 292 290 290 289 290 292 293 292 292 292 292 292 292 292 293 292 292 293 293 293 293 292 293 293 292 293 293 295 295 295 295 295 296 296 296 297 297 298 298 298 298 298 299 300 301 302
301 300 300 299 298 296 294 293 293 293 291 290 290 290 288 289 289 288 288 287 288 288 290 292 292 292 292 291 292 292 291 291 291 291 291 291 291 291 292 292 291 291 292 292 293 293 293 295 294 294 294 294 294 295 296 297 297 297 298 299 299 300 301
300 298 297 296 295 294 293 292 292 292 291 290 289 288 288 288 288 288 288 289 288 289 289 291 291 292 291 291 291 291 290 290 290 289 290 290 290 290 291 291 291 291 291 291 292 291 291 292 292 292 292 292 293 294 294 296 296 294 294 294 294 294 294
300 298 296 295 293 293 292 292 292 292 291 289 288 288 287 287 287 288 288 289 289 289 289 291 292 292 292 291 292 291 290 289 289 289 289 289 289 290 291 294 295 292 291 291 291 291 291 292 292 293 293 292 292 292 293 295 296 297 295 294 294 294 293
298 296 295 294 294 293 292 293 292 290 289 289 288 287 290 286 287 286 287 288 294 292 290 292 292 291 291 291 292 291 290 289 289 288 288 288 289 289 289 292 293 293 292 292 291 290 290 291 292 292 292 292 292 291 293 294 295 295 296 296 296 297 297
298 297 295 293 293 293 292 291 290 290 288 288 288 285 288 287 286 287 287 287 289 289 289 290 291 291 291 291 291 291 290 289 288 288 288 289 288 289 289 290 291 290 290 290 290 289 290 290 290 291 292 291 291 291 294 295 296 296 296 296 295 296 297
296 295 295 294 294 293 291 290 289 288 288 286 286 286 286 286 286 286 286 286 287 288 290 290 290 291 291 291 291 290 289 289 289 288 288 289 289 289 289 289 290 291 290 290 289 289 290 290 290 291 291 291 292 293 294 294 295 294 296 296 296 295 296
296 295 294 293 292 290 289 289 289 288 286 286 285 285 284 286 284 284 285 285 286 287 290 292 290 290 290 290 290 290 289 289 289 289 288 288 288 288 288 288 289 290 289 289 289 289 290 290 290 291 291 291 291 290 292 294 294 294 295 295 294 294 294
296 296 294 293 292 290 288 288 287 286 286 285 285 284 283 283 283 283 284 285 286 286 287 288 290 289 290 290 290 290 289 289 289 289 287 286 287 287 288 288 289 290 289 289 288 289 289 289 289 290 289 289 290 290 291 292 293 293 293 293 293 292 292
296 295 294 293 291 289 286 286 287 288 287 287 285 284 282 283 282 282 283 284 285 285 286 286 288 289 289 289 289 289 289 288 288 288 289 288 288 288 288 288 289 289 289 289 289 289 289 289 289 289 289 289 289 290 291 292 292 292 291 292 291 292 292

ECMWFFLT1_sfc_thetae_015.txt.gz
Theta_e
309 309 305 305 305 309 306 308 309 308 307 310 309 309 309 312 310 309 309 310 312 315 315 313 312 312 313 315 315 314 315 316 316 315 316 319 318 320 324 323 324 326 327 326 324 319 317 314 317 322 322 321 320 320 319 319 319 320 320 322 325 324 324
309 308 307 310 308 310 306 308 308 307 306 306 310 310 308 311 314 308 306 308 309 312 314 312 311 312 311 311 312 312 312 313 314 314 313 314 316 316 318 321 323 323 324 325 325 324 319 316 316 318 319 321 320 320 320 321 321 320 320 321 323 324 324
308 306 307 307 307 305 306 305 306 306 306 305 306 308 308 308 308 309 307 307 308 312 312 309 309 309 309 310 309 310 310 311 312 313 312 311 313 314 316 317 316 317 320 322 323 322 322 321 315 317 319 318 317 320 320 321 321 322 321 320 321 323 324
307 307 306 305 305 305 304 305 305 304 305 306 305 306 306 308 309 313 307 308 309 313 310 308 307 307 307 308 308 308 308 308 308 310 311 312 311 311 312 314 314 315 315 314 316 319 319 318 318 318 319 321 320 319 322 324 323 324 323 320 320 321 323
308 308 307 307 307 307 305 306 305 305 305 306 305 306 305 306 309 306 308 307 309 306 307 306 307 308 307 307 307 307 306 306 306 308 305 307 308 309 310 312 312 314 316 316 317 318 317 317 317 317 318 320 321 321 323 322 323 323 323 321 320 320 322
308 308 307 306 307 307 306 305 303 304 304 306 306 306 305 305 309 305 306 306 306 308 306 306 305 305 306 306 306 304 304 305 305 305 305 304 305 307 307 309 310 310 311 314 316 317 318 319 318 315 317 319 316 318 320 320 319 321 322 322 322 321 321
309 308 307 307 307 307 307 307 306 306 305 305 305 306 306 306 307 308 307 305 305 306 307 305 305 306 304 306 304 304 303 304 304 304 304 305 304 305 305 305 307 308 309 311 313 314 315 315 314 314 314 316 317 317 319 319 320 320 321 322 323 322 321
309 309 308 307 307 306 306 307 307 305 305 305 306 306 307 306 305 304 305 305 304 303 305 304 306 304 305 304 306 305 305 303 303 304 303 302 304 303 303 304 305 307 307 309 311 311 313 314 315 315 314 310 312 315 314 316 318 319 320 322 322 321 320
310 309 308 308 308 307 307 308 307 306 306 304 303 305 305 305 304 305 306 302 303 304 305 304 303 303 303 303 303 302 301 308 303 302 302 302 302 302 303 303 304 304 305 307 309 310 311 313 313 315 315 314 310 308 313 313 314 317 320 320 321 323 323
308 308 308 307 307 307 307 307 307 306 304 304 305 305 305 302 303 303 303 303 302 302 302 303 303 302 302 302 301 301 301 301 304 302 302 301 302 302 302 302 303 303 304 305 306 309 310 311 312 314 316 314 314 310 309 310 313 313 314 318 317 318 321
309 309 308 308 307 307 306 306 304 305 305 306 307 308 305 303 304 309 302 303 301 302 303 302 302 302 302 301 301 300 301 301 301 301 302 302 301 301 303 302 301 301 302 303 304 305 306 307 308 310 312 314 316 312 312 309 311 317 316 314 317 318 319
308 308 308 308 308 307 307 306 306 306 304 305 308 306 303 303 303 301 300 301 302 302 301 300 302 301 301 300 301 301 300 300 300 299 299 301 301 302 301 300 300 301 301 302 302 303 304 305 306 307 309 311 311 312 312 312 309 316 319 316 315 318 319
309 309 308 308 308 307 307 307 306 304 305 307 305 304 303 302 302 300 300 301 301 300 300 300 299 299 298 298 298 300 299 299 299 299 298 299 301 301 300 299 299 300 300 301 300 301 302 303 305 306 307 307 309 310 312 311 310 310 318 318 319 319 320
308 309 308 308 308 307 307 307 306 307 305 305 304 303 303 302 300 301 300 302 301 300 299 299 298 298 297 298 297 297 297 298 298 298 299 299 299 299 299 299 299 300 300 299 300 301 302 302 302 304 305 306 307 309 311 310 308 309 313 318 318 318 320
309 308 308 307 308 307 307 306 306 305 306 305 304 304 303 301 300 300 300 299 299 299 299 298 297 297 297 297 296 298 298 297 297 297 297 298 298 300 298 298 299 299 299 299 299 301 301 301 300 300 301 303 303 306 310 310 309 308 307 312 314 317 318
308 308 308 307 307 307 306 306 306 305 305 304 303 304 303 302 302 299 299 299 298 298 297 297 296 297 296 296 296 296 297 296 297 298 298 298 298 298 298 299 298 299 301 299 299 299 300 300 300 299 300 302 303 304 307 310 310 308 309 309 313 314 315
307 307 307 307 306 306 306 305 306 305 305 303 303 303 302 302 300 299 299 298 297 297 297 296 296 296 296 296 296 296 296 296 296 297 297 298 298 298 299 298 298 299 299 299 298 299 299 300 300 300 300 301 302 302 304 307 309 306 305 304 307 310 313
307 307 307 306 306 305 305 305 305 305 303 303 303 302 300 299 299 298 299 297 296 295 295 295 296 296 295 296 296 296 295 296 296 297 298 298 301 300 300 300 300 299 298 298 298 298 299 300 301 301 300 301 300 301 302 303 303 303 303 302 303 307 310
307 307 307 306 305 305 305 305 304 304 304 303 301 301 301 299 300 297 296 296 296 295 294 294 294 295 295 296 296 295 295 296 297 297 297 298 298 299 299 299 299 300 300 300 300 300 300 300 301 300 300 300 300 300 299 298 299 300 301 301 302 302 305
308 307 307 305 305 305 305 304 304 303 303 302 301 299 298 298 298 297 296 296 296 296 295 295 294 294 294 294 294 295 294 294 295 295 296 297 297 298 299 299 300 300 301 301 301 301 301 301 301 301 301 301 302 301 300 299 299 298 298 298 299 300 301
308 307 306 305 305 304 304 304 304 303 302 300 300 299 298 297 297 296 296 296 295 295 294 294 293 293 293 293 294 294 294 295 296 295 296 296 297 297 297 298 298 298 299 300 301 301 302 301 301 301 301 301 300 299 298 299 299 298 297 297 297 297 299
305 305 305 304 304 304 303 303 302 302 302 300 300 298 297 296 296 294 293 294 295 295 294 295 294 294 294 293 293 293 294 294 295 295 294 294 295 295 296 296 296 297 300 302 300 300 300 300 300 299 299 298 298 297 297 297 298 297 297 297 297 298 298
303 304 305 304 304 304 303 302 301 300 300 299 298 297 296 295 294 294 294 292 292 294 293 293 299 298 297 295 293 294 294 294 294 293 294 294 294 294 295 295 297 300 300 300 299 297 296 296 298 298 298 298 297 296 296 295 295 295 296 295 295 296 296
304 303 303 303 302 303 303 302 301 299 298 297 297 297 295 293 292 293 293 292 291 292 293 294 296 293 293 294 294 292 293 293 293 293 293 292 292 293 293 294 294 297 298 298 298 296 295 294 294 294 295 296 297 297 295 295 295 295 294 294 294 294 295
305 305 304 304 304 303 303 301 299 297 296 295 295 294 293 292 292 292 292 291 290 292 292 296 293 293 293 292 294 294 292 292 292 292 292 292 292 292 292 293 293 295 295 295 296 295 296 295 294 294 294 293 293 293 294 296 295 295 294 294 293 294 294
306 306 305 304 303 303 302 301 298 296 296 296 293 293 292 293 292 291 291 290 290 291 291 294 293 293 292 292 292 293 291 291 291 291 291 291 291 291 292 292 293 293 294 297 298 295 295 295 295 294 294 294 294 294 292 292 293 296 297 295 294 294 294
305 304 304 303 302 301 300 299 297 297 296 294 292 292 292 292 291 291 290 290 289 289 289 293 292 292 292 292 291 291 291 291 291 291 291 291 291 291 291 291 291 292 292 293 294 293 293 293 293 293 293 294 294 295 294 293 292 292 294 296 296 294 295
303 302 302 302 301 301 300 297 296 295 295 293 292 291 291 291 290 291 290 288 287 288 290 293 292 291 291 291 291 291 290 291 290 290 290 290 291 291 291 291 291 291 291 291 292 293 292 292 292 292 292 292 292 293 294 294 295 296 296 296 296 296 297
301 302 302 301 301 299 297 296 294 293 291 290 290 291 289 290 290 289 288 287 288 287 288 291 290 291 291 291 291 291 290 289 289 289 289 290 290 290 290 290 290 290 290 290 292 292 292 293 291 291 290 290 291 291 292 295 295 295 296 297 297 297 298
302 302 302 301 298 296 294 293 293 293 291 290 290 290 290 289 290 288 287 287 286 286 286 289 290 290 291 291 291 290 289 289 289 288 288 289 289 289 290 290 290 289 289 289 291 290 290 291 290 289 289 289 290 290 291 293 294 293 293 293 293 293 294
301 301 300 298 296 294 293 293 292 293 292 290 290 291 290 290 288 288 287 286 287 286 286 289 291 291 291 291 291 289 289 288 288 288 288 288 289 289 290 293 294 291 290 290 291 290 290 290 289 289 289 289 289 289 290 292 293 294 294 293 293 293 292
301 299 298 296 294 293 293 293 293 292 291 291 292 290 291 290 288 287 287 287 293 290 287 289 291 290 290 290 291 289 288 287 287 287 287 287 288 288 289 291 292 292 292 292 290 290 290 290 289 289 288 288 288 288 290 291 292 292 293 293 294 294 294
299 297 295 294 294 293 293 292 290 290 289 290 290 289 291 289 288 288 287 287 287 287 286 286 289 290 290 290 290 290 288 287 286 286 287 287 288 288 289 289 290 290 289 289 289 289 289 289 289 289 289 288 287 287 290 291 292 292 292 293 293 293 294
296 295 294 294 294 293 292 291 290 289 288 287 287 287 288 287 287 286 285 285 285 284 286 286 287 289 289 290 290 289 287 287 287 287 287 287 287 287 287 288 289 290 289 289 289 289 289 289 289 289 288 288 289 290 291 291 291 292 292 292 293 293 294
297 295 294 294 292 290 289 290 290 289 286 286 286 286 285 286 285 283 281 282 284 283 286 290 287 289 289 289 289 289 288 287 288 288 287 287 287 287 287 288 288 289 289 288 288 288 289 288 288 289 289 289 289 289 289 291 291 291 291 291 291 291 292
295 295 294 293 292 289 287 288 286 286 285 285 285 285 283 282 282 282 280 281 281 282 283 285 289 287 288 289 289 289 289 288 288 289 287 286 287 287 288 288 289 289 288 288 288 288 288 288 288 288 288 288 288 288 288 289 289 289 289 289 290 290 291
295 294 293 292 291 289 287 286 286 287 285 286 285 283 281 282 281 282 281 281 283 282 283 282 286 288 288 288 288 288 288 288 288 288 288 287 287 288 287 288 288 288 288 288 288 288 288 288 288 288 288 288 288 288 288 288 288 288 288 288 287 288 289

ECMWFFLT1_sfc_thetae_018.txt.gz
Theta_e
305 307 305 304 305 309 308 307 307 307 308 309 309 309 311 313 311 310 311 312 313 314 314 312 312 312 312 314 314 314 315 315 315 314 314 316 315 315 320 321 322 324 327 326 325 319 317 315 319 324 325 324 323 323 322 322 322 323 324 326 327 328 328
306 307 308 310 308 310 306 306 307 306 306 307 308 308 309 314 315 309 310 311 311 312 314 311 310 311 310 310 311 311 312 313 314 314 313 312 314 313 315 315 318 318 321 325 324 324 318 315 315 317 319 323 325 325 325 325 325 324 324 324 325 326 328
308 305 306 307 306 305 306 305 306 306 305 306 305 307 308 310 310 310 310 310 310 312 313 308 308 309 309 309 310 310 310 310 311 312 312 312 313 313 314 314 313 314 315 318 318 316 319 321 315 315 318 318 317 322 325 326 327 327 326 324 324 324 326
306 306 306 305 305 304 305 305 305 305 305 305 304 305 307 308 311 312 309 310 312 314 310 308 308 308 308 308 308 308 308 308 308 309 310 311 311 311 311 312 312 312 312 312 312 314 314 313 314 315 316 318 318 318 323 326 326 326 326 327 325 324 324
307 307 307 306 306 307 305 305 304 304 305 306 305 306 306 308 310 309 311 309 309 307 307 308 308 308 308 308 308 308 307 307 308 309 307 308 308 308 309 311 311 312 312 311 313 314 313 313 313 312 314 316 317 318 321 323 325 325 325 325 325 325 325
308 308 307 307 306 307 305 305 304 306 304 306 306 307 306 306 309 307 307 308 308 309 307 307 307 307 307 307 306 306 306 307 307 307 307 306 307 307 307 308 309 309 310 312 313 312 313 314 314 311 313 316 313 315 318 321 321 323 325 325 326 325 324
307 308 307 307 307 307 307 306 306 306 306 307 306 307 307 306 308 310 309 307 308 308 308 306 306 306 305 306 305 305 306 306 306 306 306 307 306 306 307 306 307 308 309 310 311 311 310 311 310 309 309 312 314 313 316 320 321 319 322 324 325 326 326
308 307 307 307 307 307 306 307 306 305 306 306 307 307 307 307 307 307 307 307 307 308 308 308 307 306 306 307 307 307 307 305 306 306 305 305 305 305 305 306 308 307 307 308 309 309 311 311 310 310 310 307 309 312 312 316 317 318 318 323 326 326 326
310 309 307 307 306 307 307 307 307 306 306 306 305 307 306 307 307 306 308 305 305 306 306 305 305 305 305 305 304 303 304 308 304 304 304 303 304 304 305 305 305 305 307 307 308 309 310 310 310 311 311 310 307 305 310 310 313 314 320 320 323 325 326
308 308 308 307 306 306 306 307 307 307 306 305 305 306 306 305 307 307 306 305 305 304 304 305 304 304 304 304 303 302 303 305 306 304 304 304 304 304 304 304 304 305 306 307 307 308 308 308 309 309 311 309 308 306 305 306 309 310 316 321 318 321 323
308 309 308 308 307 306 305 306 305 306 305 306 306 307 306 305 306 310 305 305 304 303 304 304 304 303 303 303 302 303 303 303 305 304 303 304 303 304 306 304 304 304 305 305 306 307 307 306 307 307 308 309 311 306 306 304 306 311 312 318 319 319 323
308 308 308 308 307 306 306 306 306 307 305 305 308 307 304 305 306 304 304 304 303 303 302 303 303 302 302 301 303 303 302 301 301 302 301 304 304 305 303 303 302 303 304 304 305 305 305 305 306 307 308 308 308 308 307 306 303 309 316 315 319 321 321
308 308 308 307 306 306 307 306 306 305 305 307 306 306 305 305 306 304 303 303 302 301 302 301 301 300 300 300 300 300 301 300 300 301 301 301 302 303 302 302 302 302 303 303 303 304 304 305 306 306 307 306 306 307 308 306 305 305 312 313 314 316 321
308 308 308 307 307 307 307 307 307 307 306 306 305 305 305 305 304 304 302 304 302 301 300 300 300 299 300 298 299 299 299 300 300 299 303 301 301 301 302 301 301 302 302 302 302 303 303 304 305 305 306 305 304 305 305 304 303 304 308 314 315 315 319
309 308 308 307 307 307 307 307 307 306 306 306 305 305 305 304 304 302 302 302 300 300 299 299 298 299 299 298 298 300 299 299 299 299 299 299 300 300 301 300 300 301 301 301 302 301 303 303 303 303 303 303 302 303 305 304 304 304 302 308 311 315 315
309 308 308 307 307 307 307 306 306 306 306 305 305 305 304 304 303 302 302 300 299 298 299 298 298 298 298 298 298 297 299 298 299 299 298 299 299 300 299 300 300 300 301 301 301 302 302 302 303 302 302 303 303 303 304 306 304 302 303 304 306 306 309
308 308 308 308 307 307 307 306 306 306 306 304 304 304 303 303 302 301 301 300 298 298 298 298 298 298 298 298 298 298 297 298 298 298 298 299 299 299 300 299 300 301 301 301 301 301 301 302 302 302 302 302 304 304 305 305 304 302 301 299 302 302 305
308 308 308 308 307 307 306 306 306 306 304 304 304 303 303 302 301 301 301 299 298 298 298 297 297 297 297 297 298 298 297 297 298 298 299 299 301 301 300 300 300 300 300 300 300 300 301 301 301 302 301 301 301 302 303 303 303 302 300 299 300 302 303
308 308 308 307 307 306 306 306 306 305 305 304 303 303 302 301 302 300 299 298 298 298 297 297 297 297 297 298 297 297 298 298 299 298 298 299 298 299 300 299 300 300 300 300 300 301 301 301 301 301 301 300 301 301 301 302 303 302 300 299 299 299 301
308 307 307 308 308 307 306 306 306 305 305 304 303 302 301 301 301 300 298 298 298 298 297 297 296 296 296 296 296 297 296 296 297 297 298 298 298 298 299 299 299 299 299 299 299 299 299 300 301 300 301 302 301 301 300 300 300 299 299 299 299 299 299
308 308 308 307 306 306 306 305 305 305 304 303 303 302 301 301 299 299 298 298 297 298 296 296 295 295 296 296 297 296 296 297 297 296 297 297 297 297 297 298 298 298 298 299 299 299 299 299 300 299 300 300 300 300 299 299 299 298 297 297 297 297 298
309 308 308 306 305 303 303 303 303 304 303 303 303 302 301 299 298 297 296 296 297 297 297 296 296 296 296 295 295 295 295 295 295 295 295 295 296 296 296 297 297 297 299 300 300 299 299 299 299 298 298 299 298 298 297 297 297 297 296 296 295 296 297
308 308 306 304 303 302 303 304 304 304 303 303 302 300 299 298 298 297 296 295 296 296 296 296 300 297 298 298 295 294 295 295 294 294 294 294 294 295 295 296 297 298 299 299 298 296 295 296 297 298 298 298 297 297 296 295 295 295 295 294 294 295 294
307 306 304 304 303 303 304 305 304 303 301 301 300 299 298 297 296 296 296 296 295 295 295 296 296 293 293 294 295 294 294 294 293 293 293 293 293 294 294 295 295 296 297 297 298 295 294 294 294 294 295 296 297 297 296 295 294 295 294 294 295 295 294
304 304 303 304 304 304 304 304 303 302 301 299 299 299 298 297 295 295 295 294 294 295 294 297 293 292 292 292 294 296 293 293 293 292 292 292 292 293 293 293 294 295 295 296 296 296 296 294 293 293 293 293 293 293 294 296 295 294 294 293 293 294 294
303 303 303 304 305 305 304 304 302 301 300 300 298 297 296 296 295 295 294 293 293 295 294 295 292 292 292 292 292 293 292 292 292 292 292 292 292 292 292 292 293 293 294 296 297 296 296 296 295 294 294 294 293 293 291 291 292 296 296 294 293 293 294
303 302 303 304 304 305 304 303 302 302 300 298 297 296 295 295 294 294 294 294 294 294 293 294 292 292 292 291 290 291 292 291 291 291 291 291 291 292 292 292 292 292 293 294 294 294 294 294 294 294 294 294 295 295 293 292 291 291 293 295 295 293 295
303 302 302 303 303 303 303 302 301 300 299 297 296 295 294 294 294 294 294 293 292 292 292 293 291 291 291 291 290 291 291 291 291 291 291 291 291 291 291 291 292 291 292 292 293 293 293 293 293 293 293 293 293 294 294 295 295 296 296 296 296 296 296
302 301 301 302 302 302 302 301 299 298 297 296 296 295 293 294 293 292 292 291 291 291 290 290 290 290 290 290 290 292 290 290 289 290 290 290 290 291 291 291 291 291 291 291 292 291 292 293 292 291 291 291 292 292 293 294 294 294 295 296 296 296 297
301 301 301 301 301 301 300 298 296 297 295 294 293 293 292 293 293 292 291 290 290 290 288 290 290 290 290 290 290 290 289 289 289 288 288 289 290 290 290 291 291 290 290 290 291 289 290 291 291 290 290 290 291 291 291 293 293 292 292 292 292 292 292
301 300 300 300 300 300 298 296 296 296 295 293 293 293 293 292 291 291 291 290 290 289 289 289 291 290 290 290 290 289 289 288 287 288 288 289 289 289 290 292 293 291 291 291 290 289 289 291 290 290 290 290 289 289 290 292 293 293 292 292 292 291 291
301 301 300 299 298 296 295 295 295 295 295 294 293 292 293 292 290 290 290 289 294 290 288 290 291 289 290 289 291 290 289 288 287 287 287 287 288 288 289 290 291 291 291 290 289 289 288 289 289 289 289 288 288 288 289 291 290 291 291 291 292 293 293
301 300 299 296 296 295 294 293 293 293 293 293 292 291 292 291 291 290 291 292 293 290 288 287 290 289 290 290 290 290 289 287 287 287 287 287 287 288 289 289 290 289 288 288 288 288 288 288 288 288 288 287 286 286 290 290 290 290 290 290 290 291 291
298 297 297 296 296 295 295 294 293 293 291 290 290 290 290 289 289 288 287 287 287 287 288 287 289 289 289 289 289 289 288 287 287 287 287 287 287 287 287 288 289 289 288 288 288 288 288 288 288 289 288 287 288 288 289 288 288 289 288 289 289 290 291
298 296 296 296 295 293 292 293 292 291 290 290 289 289 288 289 288 287 285 284 286 285 288 291 288 289 289 289 289 289 288 288 289 288 287 287 287 287 287 288 288 289 288 288 288 288 288 288 288 289 289 288 288 288 288 289 289 288 288 288 288 289 289
297 297 296 296 293 291 292 292 290 289 289 288 288 287 287 287 286 286 285 284 283 283 284 286 289 289 288 288 288 288 288 288 288 289 287 286 286 287 288 288 288 289 288 288 288 288 288 288 288 288 288 288 288 288 288 288 288 288 287 287 287 287 287
297 296 295 294 292 291 290 289 289 288 288 288 287 286 284 284 285 286 286 285 285 284 284 284 285 287 287 287 288 288 288 287 288 288 288 287 287 287 287 287 288 287 287 287 287 287 287 287 287 287 287 287 287 287 288 287 287 286 286 286 285 285 285

ECMWFFLT1_sfc_thetae_021.txt.gz
Theta_e
321 321 321 323 325 323 321 321 322 322 323 323 323 323 323 323 324 324 324 324 321 321 319 319 318 319 319 319 321 322 322 322 323 321 319 320 320 319 322 323 324 326 328 327 325 322 320 318 323 330 329 330 330 330 331 331 330 331 332 333 332 332 334
320 321 321 322 322 322 321 321 322 321 322 323 322 322 322 321 322 322 322 321 320 318 317 316 317 316 317 317 317 317 318 318 320 321 320 317 318 317 319 320 322 322 324 325 323 323 320 317 318 321 323 327 330 330 331 331 332 333 333 332 332 331 333
319 319 321 321 322 321 321 321 321 321 321 321 322 321 321 320 321 322 321 320 320 318 316 315 316 316 316 316 316 316 317 316 317 317 317 316 317 317 318 318 317 318 319 319 320 319 320 322 316 316 320 319 319 325 328 331 329 329 330 332 332 331 332
320 320 320 320 320 321 320 320 320 320 321 321 321 322 321 321 322 322 321 320 320 318 316 315 315 314 315 315 315 315 314 314 313 314 314 314 314 314 314 315 314 315 314 314 314 316 317 316 316 316 317 317 317 317 324 327 327 327 328 331 332 332 332
321 320 320 320 321 320 321 319 320 320 320 321 321 320 321 322 322 321 321 320 318 318 317 317 316 315 315 315 314 314 313 314 314 312 312 312 312 311 311 312 312 314 314 313 314 315 315 314 314 313 314 317 317 318 321 325 326 326 327 327 329 330 332
322 321 322 321 322 321 320 320 319 318 319 319 320 320 321 322 322 320 319 318 318 318 318 316 316 316 315 314 314 314 313 312 311 312 310 311 311 309 309 311 311 310 311 312 312 313 314 315 314 312 314 316 312 315 319 321 321 324 325 325 328 329 329
321 322 322 321 322 322 321 320 319 319 318 319 320 320 321 322 321 321 321 320 318 318 317 317 316 315 315 312 314 313 313 313 312 312 311 311 311 311 311 309 310 309 310 311 311 311 311 312 311 311 311 312 314 313 315 316 319 318 321 326 328 328 329
322 321 321 322 322 321 321 321 321 321 320 321 320 322 322 322 322 322 320 319 318 318 317 317 316 316 315 313 313 314 313 313 312 311 311 310 309 309 310 309 309 309 309 309 310 310 309 310 310 310 309 307 308 310 311 313 314 316 316 319 323 325 328
321 322 322 321 321 322 322 321 321 321 321 322 323 323 322 322 321 320 320 319 318 318 317 316 315 313 314 313 312 313 312 313 312 311 311 311 310 310 310 310 309 308 309 309 310 309 309 310 310 309 309 309 306 304 308 309 311 312 317 316 319 323 326
320 321 321 321 321 321 322 322 322 321 322 322 321 323 322 322 321 320 319 318 318 317 316 315 314 313 313 312 312 311 311 312 311 310 310 310 310 310 310 309 308 308 308 310 309 309 310 310 310 309 309 308 308 305 304 304 307 309 314 317 316 321 324
320 321 322 322 322 320 320 321 322 320 319 320 321 321 322 321 321 320 319 318 318 317 316 315 314 313 313 312 312 311 311 312 311 311 310 310 310 310 309 309 309 308 309 309 308 310 310 309 309 309 308 309 309 306 305 303 304 310 311 314 315 314 320
319 320 321 322 322 320 319 320 320 320 321 320 319 320 320 320 320 319 319 318 317 316 316 315 315 313 312 311 312 310 312 312 310 309 310 310 310 309 309 308 309 308 309 308 309 309 310 309 309 309 308 308 308 308 305 305 301 308 314 313 317 320 318
318 318 320 321 320 319 320 319 319 320 320 319 320 320 320 319 319 318 318 317 316 315 315 314 314 313 313 312 311 310 311 311 309 308 309 309 308 309 308 307 307 307 308 308 308 308 307 308 308 307 308 307 307 307 306 304 303 303 309 310 311 314 315
318 318 319 320 320 321 321 320 319 320 319 319 320 319 319 319 318 317 317 315 314 314 314 313 314 313 312 311 311 310 310 309 307 308 308 308 308 307 306 305 306 306 308 307 307 307 307 307 307 306 307 306 306 307 306 305 303 303 308 312 311 311 314
319 319 319 319 319 319 320 320 320 318 318 319 319 319 318 319 318 317 315 314 313 313 313 312 312 312 310 310 310 311 310 308 307 307 307 305 306 307 307 305 304 305 306 305 307 306 306 306 305 305 305 305 304 305 307 304 303 303 304 309 309 311 311
319 319 319 319 319 319 319 320 319 318 318 318 318 319 318 318 317 316 315 314 313 312 312 311 312 311 310 309 308 309 309 307 307 306 306 305 304 305 305 305 304 304 305 305 306 306 307 306 306 305 305 305 305 305 305 305 304 302 303 304 307 306 308
319 319 318 319 319 319 319 319 318 318 318 318 316 318 318 317 316 316 314 313 312 312 311 311 310 310 309 308 308 307 307 307 307 306 305 304 304 304 304 303 304 304 304 303 304 304 305 306 306 305 306 306 305 304 305 305 305 303 302 301 305 305 307
320 318 318 318 319 319 319 319 318 317 318 317 317 317 317 317 316 315 314 312 312 311 311 310 309 309 309 309 308 307 307 306 306 305 305 304 303 304 303 303 303 303 303 303 303 303 303 304 304 305 305 305 305 305 305 304 304 303 302 301 302 305 306
320 319 319 319 319 319 319 318 318 317 317 316 316 316 316 315 315 314 313 312 312 311 310 310 309 308 308 308 308 307 306 305 305 304 304 304 303 303 303 302 302 303 303 302 302 303 303 303 302 302 303 303 304 304 304 304 304 303 302 302 302 302 304
321 320 320 319 319 319 318 318 317 316 316 315 315 314 315 314 315 314 313 313 311 310 309 309 309 308 308 307 306 305 305 305 304 305 303 302 302 302 302 302 302 302 302 302 302 302 303 303 303 303 303 303 303 303 302 302 302 302 301 301 301 302 302
322 322 320 319 318 319 318 317 316 315 314 313 312 312 313 313 314 314 313 312 311 310 309 309 308 308 307 306 306 305 304 304 303 302 302 301 301 300 300 300 301 301 301 302 302 303 303 302 302 302 302 302 302 301 301 301 301 300 300 300 300 300 301
321 321 320 319 317 316 315 314 314 313 313 313 314 313 313 312 311 311 311 311 310 310 309 308 308 307 306 305 305 304 303 301 300 300 299 299 299 299 299 300 300 300 300 299 299 299 299 300 300 300 301 302 301 300 300 300 300 299 299 299 299 300 300
319 320 319 318 316 316 314 313 313 313 313 313 311 311 308 310 310 308 308 307 306 307 308 308 304 299 301 304 303 301 300 300 299 299 298 298 298 299 299 299 300 299 299 298 298 296 295 295 297 299 300 301 301 300 299 299 298 299 298 298 298 298 298
316 317 318 318 316 315 314 313 313 313 312 311 309 308 309 307 307 306 306 306 306 306 307 305 295 294 295 297 300 300 299 299 298 298 298 297 297 297 298 298 299 299 299 298 299 295 294 294 294 294 294 296 297 299 298 298 298 298 298 297 298 298 297
313 315 317 316 315 314 314 313 313 313 312 309 309 309 308 307 307 307 306 306 305 305 305 298 293 293 293 294 296 299 299 298 298 297 297 297 297 297 297 298 299 299 299 299 298 298 296 294 293 293 292 292 292 293 294 298 298 297 298 297 297 297 298
312 313 314 315 315 314 313 313 313 313 311 311 310 308 307 307 305 305 305 305 304 304 303 294 293 293 292 292 293 297 298 298 297 297 297 297 297 297 297 297 297 298 299 297 298 299 299 299 295 294 293 293 293 292 291 291 292 298 298 297 297 296 297
310 312 313 314 314 314 313 312 313 314 312 311 308 308 309 307 305 304 304 304 304 303 303 295 292 292 292 291 290 293 297 297 297 296 296 296 297 297 296 296 296 296 297 298 298 298 298 298 298 298 298 298 298 297 293 292 291 291 294 297 297 295 298
310 311 312 312 312 312 313 313 313 312 311 309 306 307 307 306 305 305 304 304 303 303 303 292 291 291 291 291 289 292 298 297 297 297 297 297 296 296 296 296 296 296 296 297 297 296 296 296 296 295 295 296 297 297 298 299 299 299 298 298 297 297 298
310 310 311 311 310 311 312 313 312 312 310 309 307 305 305 304 303 304 304 303 302 301 299 291 291 291 290 290 290 297 297 297 296 296 296 296 296 296 296 296 296 296 296 296 294 291 292 294 294 293 293 294 294 295 296 296 295 295 297 298 298 298 299
308 309 310 310 310 310 311 312 312 311 309 307 306 304 303 303 302 301 301 302 301 299 298 293 290 290 290 289 292 297 296 295 295 295 295 295 295 295 296 296 295 295 295 295 293 290 290 291 293 292 292 292 292 293 294 296 294 292 292 292 292 292 291
307 308 309 309 309 310 311 312 312 309 308 305 303 302 301 301 301 300 300 300 300 298 298 294 290 290 290 289 292 295 295 294 294 294 294 295 295 295 295 294 294 294 294 295 291 289 289 291 292 291 291 290 290 290 291 293 295 295 293 292 291 291 291
307 308 308 309 309 310 310 310 309 306 305 304 302 300 298 297 297 299 299 298 298 298 296 294 290 290 290 289 293 296 295 294 293 293 294 293 295 295 295 295 293 293 293 293 289 289 288 290 291 290 290 289 288 288 290 292 291 292 293 293 294 294 294
307 308 308 308 309 309 309 305 304 303 301 299 297 297 298 297 296 295 297 298 298 297 296 295 295 289 290 290 290 294 295 293 292 292 293 293 293 294 294 294 294 290 289 288 288 288 288 288 290 290 290 289 288 287 291 291 291 291 291 291 292 292 293
307 308 309 309 309 306 304 303 301 299 297 296 295 294 295 296 295 295 295 296 297 297 297 295 295 289 290 290 289 290 294 294 294 293 293 292 292 292 293 293 294 291 289 289 288 288 288 288 288 290 289 289 289 290 290 290 290 289 290 290 290 290 290
307 308 308 307 303 301 301 301 299 298 297 297 297 296 295 295 294 292 293 295 296 297 295 293 295 291 289 289 289 289 293 294 293 292 292 292 292 292 292 292 292 291 289 288 288 288 288 288 288 289 288 287 287 287 288 289 289 289 289 289 289 289 289
306 306 305 303 300 298 298 298 297 297 297 297 296 295 295 295 295 293 293 294 295 294 294 294 291 293 290 289 288 288 288 290 289 292 292 291 291 291 292 292 291 290 288 288 287 287 287 287 288 288 287 287 287 287 288 288 288 287 287 287 287 287 288
305 304 302 299 298 297 296 296 295 295 296 296 295 294 294 295 294 293 293 293 294 294 293 292 291 289 290 288 288 288 288 287 288 291 291 291 291 291 291 291 290 288 287 287 287 287 287 287 288 287 287 287 287 287 288 288 288 287 287 287 286 287 287

ECMWFFLT1_sfc_thetae_024.txt.gz
Theta_e
319 322 324 325 327 325 323 324 325 326 327 326 326 326 327 326 327 326 327 326 323 323 322 322 322 323 324 325 326 327 326 325 325 323 323 324 322 323 327 326 326 326 326 327 325 321 322 318 321 329 330 330 332 332 332 332 334 336 337 338 336 335 336
323 322 322 324 323 325 324 323 323 324 325 326 325 324 323 323 324 323 322 320 319 318 318 317 318 319 320 322 322 323 324 325 325 324 321 319 322 321 322 322 323 323 325 326 323 323 321 317 319 321 323 328 328 333 332 333 334 336 336 335 334 334 334
321 322 321 321 323 324 323 323 322 322 322 324 324 321 321 320 321 321 320 320 320 318 318 317 318 319 319 320 320 321 321 320 321 323 322 320 320 321 320 320 319 319 320 321 321 320 321 323 317 319 323 319 319 327 332 332 333 332 331 331 332 332 333
321 321 320 322 322 323 322 322 321 321 322 321 321 321 321 321 322 322 321 320 320 320 319 319 319 318 319 319 319 320 320 319 318 318 318 319 319 319 319 319 318 317 317 315 316 317 318 318 317 315 318 317 317 319 329 331 331 332 332 335 332 333 332
323 321 320 321 322 322 322 320 320 321 322 321 321 320 322 322 323 322 322 322 320 320 319 320 320 319 320 319 319 318 318 318 318 317 317 316 315 314 315 316 317 318 318 317 317 317 317 317 316 315 314 316 316 317 319 324 326 325 326 326 331 335 337
324 322 321 321 323 321 321 321 320 318 320 320 320 320 321 323 323 323 322 321 320 320 320 319 319 319 320 319 319 318 318 318 317 317 316 316 316 315 313 314 314 314 316 316 316 316 317 317 316 312 314 315 313 315 317 318 318 321 322 323 325 327 329
325 323 321 321 323 321 321 321 320 318 319 320 321 321 323 323 323 323 323 323 321 320 320 320 320 319 320 317 319 318 318 318 318 317 316 316 316 316 316 314 315 313 314 315 315 314 314 313 311 313 314 313 314 311 313 314 317 314 317 321 322 323 325
326 322 321 321 324 322 322 323 321 319 320 320 320 323 324 324 324 324 324 323 321 321 320 319 319 319 319 317 318 319 318 318 318 317 316 316 315 315 315 314 314 314 313 313 314 315 313 313 311 311 310 307 308 312 312 313 313 314 314 318 320 320 322
325 325 323 322 324 324 324 323 322 321 321 321 322 323 325 324 325 324 324 323 322 321 320 319 319 318 318 318 317 318 317 317 317 317 316 316 316 315 315 315 314 313 314 313 314 313 313 314 313 312 311 310 307 305 309 309 312 312 317 315 319 321 321
327 325 324 325 326 327 326 325 322 323 323 322 323 325 324 324 325 325 323 323 322 321 319 318 318 318 318 318 317 317 317 318 317 316 316 316 316 316 315 314 313 314 313 315 314 313 314 315 315 314 312 309 309 306 304 305 309 311 315 317 315 320 322
328 327 326 327 329 327 326 326 325 325 323 323 325 325 324 324 325 324 324 323 323 321 319 318 318 317 317 317 317 317 316 317 317 316 316 316 315 315 315 315 314 313 313 314 313 314 314 313 313 314 314 314 312 308 307 305 306 312 311 315 315 314 319
328 328 327 327 329 327 326 325 325 325 326 325 324 323 323 323 324 323 324 323 322 320 319 319 318 317 317 317 316 315 316 317 316 315 316 316 315 315 314 314 314 314 314 314 313 314 315 313 313 312 313 314 314 313 310 308 304 310 315 313 316 318 318
327 326 327 328 327 327 326 326 325 326 327 326 323 323 322 322 323 323 323 322 321 320 318 318 318 318 317 317 316 316 315 315 314 314 314 315 313 314 313 312 311 311 312 311 312 313 312 313 313 310 312 312 312 313 312 309 307 307 312 312 313 314 315
327 327 327 327 328 327 327 326 326 327 327 326 324 323 321 322 322 322 322 321 320 320 318 318 318 318 316 316 315 316 315 314 313 313 314 313 312 312 311 310 310 311 312 311 311 312 311 311 312 311 311 310 310 312 311 309 307 308 312 315 314 314 316
326 326 327 327 327 326 327 326 327 327 326 327 325 324 321 322 322 322 321 321 320 319 318 317 317 317 316 315 315 315 315 314 313 313 312 311 312 311 311 310 308 310 310 308 310 308 309 310 309 309 309 310 308 310 312 309 307 306 307 312 311 315 314
325 326 326 325 326 326 326 327 327 327 326 326 326 325 323 323 322 322 321 321 320 319 318 317 317 316 316 315 314 315 315 313 313 312 311 311 309 310 310 310 310 310 311 310 310 310 310 309 310 309 309 310 309 310 310 310 307 305 306 307 311 310 311
325 326 325 325 325 326 326 326 327 327 325 325 325 325 324 323 322 322 321 320 320 318 317 317 316 316 315 315 314 313 313 313 312 312 311 310 309 309 310 309 310 309 309 308 308 308 308 309 309 309 310 311 311 310 311 311 310 308 307 306 309 308 310
326 325 326 325 326 326 327 326 326 325 325 324 325 325 323 323 323 322 321 320 319 318 317 317 316 315 316 315 314 314 313 312 312 311 311 310 310 309 309 308 307 308 307 307 308 308 308 308 307 307 307 307 308 309 310 311 310 309 307 306 307 309 310
325 325 326 325 325 326 327 327 326 326 325 324 324 323 322 321 321 320 320 320 319 318 318 317 316 315 315 315 314 314 313 312 311 310 310 309 309 309 308 307 307 306 306 306 306 307 308 308 307 307 307 306 306 307 308 309 309 309 308 307 307 307 310
326 326 326 326 326 326 326 326 326 326 326 325 324 322 321 319 320 319 319 320 319 318 317 317 316 316 315 314 313 313 312 311 311 310 310 308 308 307 306 305 306 306 305 306 305 306 306 306 307 307 307 308 307 308 307 307 307 307 307 307 307 307 307
325 325 325 326 325 325 325 325 325 326 325 324 323 322 321 319 320 319 320 318 318 318 317 316 316 315 315 314 313 312 311 311 310 310 309 307 307 306 305 304 304 304 304 304 305 305 305 304 305 306 307 307 307 307 306 306 306 305 305 305 304 304 306
320 321 322 324 324 324 325 325 325 324 323 324 324 323 322 320 320 319 319 319 317 316 316 316 314 315 312 312 313 312 311 310 309 308 307 306 305 305 304 304 304 304 304 301 300 299 300 300 301 300 302 303 304 304 305 305 305 304 304 304 303 305 304
315 316 317 319 321 323 323 324 324 323 323 322 322 322 322 322 320 319 319 318 317 316 315 315 310 304 305 312 312 310 310 309 307 306 305 304 304 304 304 304 305 304 301 300 298 296 294 295 296 299 300 302 302 303 303 303 303 303 303 302 302 303 303
313 313 315 317 319 319 321 323 322 322 321 321 321 321 321 321 320 320 318 318 317 316 314 312 299 297 298 300 309 309 307 306 305 305 304 303 303 303 304 303 304 303 303 301 301 295 294 294 294 294 295 296 297 300 300 300 301 303 302 302 303 303 302
311 312 313 313 316 318 319 321 322 322 322 321 321 321 320 319 319 319 318 318 317 315 314 299 295 294 295 295 299 306 306 305 304 303 303 303 303 303 302 302 303 304 304 304 303 303 299 294 293 293 292 293 293 293 294 298 298 299 301 301 301 302 302
310 311 312 314 315 318 318 319 319 320 321 322 321 320 320 319 319 319 318 316 315 314 311 294 293 293 293 293 294 300 304 304 303 302 302 302 302 302 301 301 301 302 303 303 301 302 303 304 296 293 293 293 293 292 291 290 292 298 299 299 300 300 302
310 311 312 314 315 315 316 317 319 320 321 321 320 319 320 319 319 318 317 315 313 311 304 294 292 292 292 291 291 296 304 302 302 301 301 301 301 301 301 301 300 301 302 303 303 303 303 303 303 303 303 302 302 299 293 291 291 291 295 298 298 297 300
311 311 312 313 315 314 315 316 317 318 319 319 318 317 317 318 318 317 316 314 312 308 301 292 292 291 291 291 289 294 303 302 301 302 302 301 301 301 301 301 302 301 302 302 303 301 301 300 300 300 300 300 301 301 302 302 302 301 300 299 299 300 300
310 311 311 313 313 314 315 315 316 318 318 318 318 317 317 318 317 315 314 311 309 303 297 291 291 291 291 290 289 300 302 302 301 301 301 301 300 300 301 301 301 301 301 301 298 292 294 298 298 298 297 298 299 300 301 298 297 297 300 301 302 302 302
310 310 311 311 311 313 314 315 316 317 316 316 315 315 316 317 316 313 310 308 303 298 296 292 291 290 290 289 293 302 302 301 301 300 300 300 300 301 301 301 301 300 300 300 296 290 290 291 296 296 296 297 297 298 297 299 296 293 293 292 292 291 291
310 310 310 310 311 312 314 315 316 316 315 314 313 314 316 315 313 309 306 303 299 296 295 292 290 290 290 289 294 300 300 300 299 299 299 300 301 300 301 299 298 298 299 300 293 289 289 293 295 295 295 295 295 295 296 298 298 298 294 292 292 291 291
310 310 310 310 311 312 313 314 314 315 314 314 313 315 315 313 309 306 302 299 298 297 295 293 290 290 290 289 294 299 298 297 297 297 298 298 300 300 300 299 297 297 298 296 291 290 289 292 294 294 294 293 292 293 294 297 296 295 296 296 297 297 297
310 310 310 310 311 311 313 313 313 313 313 313 313 313 311 308 303 301 300 298 298 296 294 294 293 289 290 289 290 297 296 295 295 296 297 297 297 298 299 300 298 291 290 290 289 288 288 288 293 294 293 292 291 291 294 295 295 295 294 294 295 295 295
309 309 309 310 310 311 311 312 311 311 310 311 310 308 305 303 301 299 299 299 298 297 296 295 294 289 290 290 288 290 295 295 295 296 296 295 296 297 298 299 300 294 289 289 288 288 288 288 289 292 292 291 291 292 291 292 292 290 292 292 292 292 293
309 309 309 309 309 309 310 311 311 310 308 307 305 303 301 300 300 299 299 299 299 298 298 296 294 290 289 289 289 288 294 295 295 295 294 295 296 297 298 298 299 294 288 289 288 288 288 288 288 291 291 288 288 287 289 291 290 290 290 290 290 290 291
307 308 308 309 308 308 309 309 309 307 304 302 300 299 298 297 297 296 297 297 298 297 296 295 293 294 289 289 289 289 288 292 290 294 295 295 296 296 298 298 297 291 287 288 288 288 288 287 288 290 287 287 287 287 288 289 289 289 289 289 289 289 290
307 308 308 307 308 308 308 307 305 304 301 299 298 297 297 296 296 295 295 295 296 296 297 297 292 290 293 288 289 288 288 287 288 294 295 295 296 296 296 297 295 288 288 288 288 288 288 288 289 288 287 287 287 287 289 288 288 288 288 288 288 289 289

ECMWFFLT1_sfc_thetae_027.txt.gz
Theta_e
321 323 324 325 326 324 324 325 327 326 327 327 326 326 326 327 327 326 326 325 323 322 321 321 322 322 325 325 325 327 325 325 325 323 323 324 322 323 326 325 325 324 326 327 326 322 319 318 322 330 332 332 332 333 333 332 332 333 335 335 333 334 335
324 324 323 324 323 324 324 324 325 324 325 326 326 324 325 324 324 323 322 321 321 320 318 317 319 320 321 323 323 323 324 324 324 323 323 321 321 319 322 324 323 324 326 326 326 324 319 316 319 322 324 329 331 332 333 333 333 333 333 334 334 333 334
324 321 322 322 323 323 323 324 323 323 323 324 324 323 323 322 321 321 320 320 320 318 317 317 320 321 321 322 322 321 322 322 323 324 322 321 322 322 321 320 319 319 320 322 323 321 320 320 315 318 321 322 321 327 331 332 332 333 334 333 332 331 332
324 321 321 322 322 323 322 322 321 322 322 321 321 322 322 322 323 322 321 319 321 321 321 319 320 320 321 321 321 321 321 321 320 320 320 320 321 320 319 320 318 318 318 317 317 318 317 317 316 317 320 323 321 322 329 330 329 331 333 331 331 331 332
324 322 323 320 323 322 323 321 321 322 322 321 321 321 322 323 323 322 322 322 321 321 320 321 322 321 321 321 321 321 320 320 321 320 320 318 318 316 316 316 317 316 318 317 318 318 316 316 316 315 313 314 314 316 321 328 328 326 327 329 330 330 330
324 322 323 323 324 321 323 321 321 320 321 320 320 320 322 323 324 322 323 322 321 320 321 320 320 321 322 320 321 321 321 320 319 320 318 319 318 318 315 315 316 315 317 318 316 316 316 316 315 310 311 313 312 313 315 318 321 323 323 322 322 324 329
324 324 322 323 324 322 323 322 321 321 321 321 321 321 322 323 323 323 324 323 322 321 321 321 322 321 322 319 320 320 320 320 320 320 319 319 319 319 319 316 316 315 314 315 316 317 315 313 310 311 312 312 312 308 311 312 313 312 316 320 321 321 321
325 323 322 323 324 323 322 323 323 321 321 322 322 323 324 323 324 324 324 323 321 322 321 321 321 321 321 319 319 320 320 320 320 320 319 319 318 316 318 317 316 315 314 314 315 315 315 316 312 311 309 306 307 310 310 312 313 313 313 316 319 320 323
325 324 322 322 324 324 324 324 323 322 322 322 324 324 325 323 324 323 324 323 322 321 321 321 320 320 320 320 319 320 318 318 318 318 319 318 317 318 317 317 317 314 315 314 315 315 314 315 315 315 313 310 307 305 309 308 309 310 315 314 316 319 319
327 325 323 323 324 326 326 325 324 323 323 324 323 324 325 324 324 324 323 323 323 321 321 320 320 320 319 321 320 319 319 320 320 319 319 319 319 319 317 316 316 316 313 317 316 314 315 316 315 314 314 312 310 306 304 305 308 310 314 315 312 316 317
327 326 325 324 324 325 325 325 325 324 323 323 323 325 326 324 324 324 323 324 324 322 321 320 319 319 319 319 319 319 319 320 319 318 319 318 318 318 316 317 316 315 315 316 314 315 315 315 314 315 313 314 314 310 308 305 306 310 310 313 314 313 318
328 327 326 326 327 326 325 324 324 323 325 324 323 325 325 323 324 324 323 323 323 322 321 320 320 320 318 318 317 318 319 318 318 318 318 318 317 318 316 316 316 315 315 315 315 316 316 315 314 312 312 314 313 313 311 310 305 310 313 311 314 315 314
328 327 327 326 325 326 326 325 324 324 325 324 323 325 324 322 323 324 322 322 323 322 320 320 319 319 319 319 317 317 317 317 317 316 317 317 315 316 315 315 313 313 314 312 313 314 313 314 315 313 312 312 311 313 312 310 308 307 312 312 312 313 314
328 327 327 326 326 326 326 327 326 326 325 325 323 325 324 322 322 323 322 322 322 322 321 320 320 319 318 318 318 318 318 315 315 315 316 316 314 314 314 313 312 314 314 312 313 312 312 312 313 313 313 312 311 312 311 310 308 308 311 315 314 312 314
323 327 326 326 326 326 326 326 328 326 326 326 325 323 323 323 323 323 322 322 322 322 321 319 319 319 317 317 318 319 319 316 315 315 316 314 315 314 314 312 311 312 312 311 311 309 309 310 310 309 309 310 309 311 312 309 307 307 307 311 310 312 312
327 325 325 324 324 325 323 326 327 327 326 326 327 325 323 323 323 323 323 322 322 322 321 320 320 319 318 317 316 317 317 316 315 315 315 314 313 314 313 313 312 313 313 312 312 312 312 311 310 309 310 310 309 310 310 310 309 307 307 307 310 309 311
324 324 324 325 325 324 322 323 323 326 327 328 326 327 325 323 323 323 322 322 322 322 321 321 320 319 318 317 317 317 316 316 315 315 314 313 312 313 312 312 312 312 312 311 311 310 310 310 310 309 309 309 310 309 312 313 313 310 309 307 310 309 310
325 324 325 326 326 327 325 323 324 323 324 325 326 326 326 324 323 323 323 322 322 322 322 321 319 319 319 318 317 317 316 315 315 315 314 314 314 313 312 311 311 311 310 309 309 310 310 310 309 308 308 308 307 308 309 309 310 310 309 308 309 310 311
326 326 325 326 328 328 328 327 327 326 324 324 325 325 324 324 322 322 323 322 323 322 322 321 320 319 318 318 318 317 317 316 315 314 314 313 312 311 311 311 311 310 309 309 308 309 309 308 308 308 308 307 307 308 308 308 308 307 306 306 306 307 310
326 326 327 326 326 326 326 325 325 324 325 326 325 325 324 324 324 324 324 323 323 323 323 321 320 319 319 318 317 316 316 316 315 315 314 313 312 312 312 311 310 309 309 308 308 307 308 308 308 308 308 308 308 309 308 308 308 307 307 306 306 307 306
321 324 326 325 325 326 326 326 326 326 326 326 326 325 324 324 323 323 323 323 323 324 323 321 320 319 319 318 318 317 316 315 314 314 314 313 312 312 311 309 309 308 307 308 308 308 306 304 304 304 304 305 306 306 306 306 306 306 306 306 305 305 306
316 317 317 319 322 324 325 323 323 323 322 325 326 325 325 324 324 323 323 324 323 323 322 321 319 320 319 318 318 317 316 315 314 313 312 312 311 310 309 308 308 308 308 308 298 300 299 299 298 297 299 301 301 302 302 303 303 304 305 305 304 305 304
311 313 315 316 317 319 321 323 325 324 323 323 323 324 324 324 323 323 323 323 322 323 321 321 316 308 309 317 317 316 316 315 313 313 312 311 309 309 308 308 308 306 304 302 299 296 294 295 297 299 299 300 300 300 301 302 302 302 303 302 302 303 303
312 311 311 312 314 316 317 319 321 322 322 322 323 323 323 323 323 323 323 322 322 321 322 321 305 300 302 305 315 316 315 314 313 312 310 308 307 307 307 307 308 308 304 302 302 295 295 294 293 294 294 296 298 300 299 298 300 301 300 301 301 302 301
309 310 311 311 312 312 314 315 317 320 321 321 321 322 322 322 321 321 322 321 322 321 319 307 297 298 299 299 305 315 314 312 311 309 307 306 306 306 306 306 306 307 306 305 305 306 300 295 293 293 292 293 293 292 294 297 297 297 298 298 299 300 301
310 310 310 311 313 314 313 313 314 316 318 320 321 320 320 320 321 321 321 321 320 319 319 297 297 296 296 297 299 307 311 310 308 307 306 306 305 305 305 304 304 305 304 308 303 303 304 305 297 293 294 294 293 293 291 291 292 299 299 297 297 297 298
309 310 311 312 312 312 312 313 314 315 316 317 318 318 319 320 320 320 321 320 320 319 319 297 295 295 295 294 295 302 310 308 307 306 305 305 305 305 305 304 303 303 303 304 304 304 304 304 305 305 304 303 303 300 293 291 291 291 294 298 299 298 300
309 310 310 310 311 312 312 313 314 315 315 316 316 316 317 317 318 319 319 319 319 320 312 294 294 294 293 294 294 299 308 306 305 305 305 305 305 305 304 304 303 302 303 303 304 303 304 303 303 302 301 301 302 302 303 304 301 300 299 299 300 300 301
310 310 310 310 311 311 312 313 314 314 314 314 316 316 316 317 317 318 319 319 319 315 302 292 292 293 293 292 293 305 304 304 303 303 304 305 305 305 304 304 303 302 303 303 296 290 295 301 301 300 299 299 300 301 302 300 298 299 302 303 303 302 303
310 311 311 310 310 310 311 312 313 314 314 314 314 314 315 316 316 317 317 317 316 304 300 293 291 291 291 291 296 303 303 303 303 303 304 305 304 304 304 303 303 302 302 303 294 290 289 293 299 298 298 298 298 299 299 301 297 294 294 294 293 292 292
309 309 310 310 310 312 312 313 313 315 314 313 313 314 314 314 315 316 315 316 309 303 299 294 290 290 290 291 295 302 303 303 303 303 303 303 303 302 303 304 303 301 300 301 290 289 288 295 298 297 297 296 296 296 297 299 300 301 295 293 292 292 293
309 309 309 310 311 311 312 312 313 314 314 314 314 314 313 313 314 315 314 309 300 300 298 293 290 289 290 289 296 301 300 300 300 300 300 299 301 301 301 302 299 299 300 299 289 290 289 293 296 296 296 295 294 294 295 297 297 297 298 299 299 300 298
310 310 310 311 311 311 312 312 313 313 314 313 312 313 313 313 312 309 306 304 300 298 295 294 293 289 290 289 289 298 299 298 296 296 297 297 298 299 298 299 299 293 292 292 291 289 289 289 294 295 295 294 293 292 295 296 296 295 295 294 295 296 296
309 310 311 310 311 311 312 312 312 312 311 312 312 311 312 308 306 304 302 300 298 296 295 294 293 290 290 290 288 292 296 295 296 296 296 295 295 295 296 298 300 291 289 289 289 288 289 288 289 293 294 293 294 294 291 292 292 291 292 293 293 293 293
311 311 311 311 310 310 311 311 311 312 311 311 311 311 307 306 305 301 299 297 296 295 295 294 292 290 289 290 289 288 294 296 295 294 292 293 294 296 298 298 300 291 288 288 288 288 288 288 288 291 292 290 289 288 291 291 291 290 290 290 290 290 291
309 311 311 311 309 308 309 310 310 311 311 311 310 309 305 303 302 299 297 297 296 296 295 294 292 292 289 289 289 289 288 292 290 294 293 294 296 297 299 299 298 290 289 288 288 288 288 288 289 291 288 288 288 287 288 290 289 289 289 289 289 289 290
309 310 309 308 308 308 308 308 309 310 310 308 307 305 303 301 299 298 296 296 296 296 295 294 292 291 291 289 289 289 288 288 289 293 295 295 296 297 298 300 297 290 289 289 288 288 289 289 290 288 288 288 288 288 290 290 289 289 288 288 288 288 289

ECMWFFLT1_sfc_thetae_030.txt.gz
Theta_e
325 324 326 328 328 327 327 327 326 331 329 328 329 326 325 324 326 326 328 323 324 323 319 318 318 319 323 323 323 325 325 323 323 325 325 324 322 321 326 324 322 324 325 324 324 320 316 314 318 328 330 329 329 331 331 331 332 334 332 334 333 334 334
325 324 325 325 326 327 327 329 329 324 327 329 324 325 323 324 324 324 323 322 319 318 318 317 319 320 320 320 322 322 320 322 322 323 322 319 321 319 323 324 323 322 322 323 321 321 319 314 315 318 321 328 329 329 330 332 332 332 332 333 333 331 335
324 323 324 324 325 327 327 328 326 327 324 325 327 324 324 321 324 323 322 323 323 322 321 321 320 320 320 321 322 321 321 321 320 319 319 319 320 318 319 321 320 323 322 321 321 321 321 320 314 316 319 319 318 323 329 329 331 330 331 332 332 331 330
324 324 323 323 323 325 323 325 326 327 325 324 324 325 325 323 324 324 324 322 325 325 322 320 321 321 323 322 321 320 320 319 319 320 319 318 319 315 315 315 314 314 315 315 316 317 316 315 315 315 318 321 318 319 326 328 328 327 328 329 329 329 329
324 323 322 322 322 323 323 323 327 325 324 323 325 325 324 325 324 324 326 325 324 325 324 325 325 323 322 320 321 322 321 321 321 320 318 317 318 317 315 315 316 318 315 313 314 314 313 312 311 309 309 309 314 316 327 326 325 324 326 326 327 327 327
325 324 323 324 323 324 322 323 323 322 322 321 324 322 325 326 325 325 326 324 322 322 324 321 321 323 320 321 321 319 318 318 317 317 316 316 316 316 317 316 315 313 312 315 316 314 314 314 313 309 310 310 308 308 312 324 320 323 324 325 327 328 328
327 326 325 323 325 325 325 324 324 323 322 322 322 323 323 325 325 325 327 325 323 323 321 323 324 323 325 318 321 321 319 320 321 319 318 318 317 317 318 313 313 313 315 318 316 318 318 313 309 307 306 308 308 307 308 308 313 317 321 323 323 321 322
327 326 327 326 326 326 326 325 325 327 324 323 322 325 323 324 326 325 327 323 323 323 323 323 324 323 323 318 318 321 320 321 319 318 317 317 317 316 315 316 318 313 314 311 314 312 312 313 313 310 308 304 305 307 307 308 308 310 312 321 320 319 318
325 326 326 326 327 329 328 326 326 329 327 325 324 325 323 323 326 325 325 323 323 323 323 323 322 321 321 321 319 321 318 319 319 318 317 317 317 316 315 316 315 312 314 313 312 312 313 313 313 318 314 308 303 301 304 305 307 308 311 309 315 315 315
326 326 324 327 327 328 331 330 327 329 330 327 326 326 323 324 325 324 323 323 323 322 322 322 323 321 320 322 319 319 319 320 320 319 320 318 317 319 316 316 317 313 311 316 313 313 314 314 313 312 312 312 310 304 302 302 303 305 308 310 308 311 314
328 328 327 328 329 326 330 331 331 327 328 330 327 326 325 324 325 325 324 323 322 322 321 320 320 320 320 321 319 319 319 320 319 318 320 318 317 317 316 314 315 313 313 315 315 316 316 313 314 313 311 311 312 308 306 303 303 307 307 310 310 309 312
331 331 331 332 329 327 327 329 329 329 327 328 327 325 325 323 324 324 324 323 322 321 321 320 321 319 318 320 317 319 319 318 318 317 318 317 318 318 315 316 315 315 315 315 316 316 316 317 312 310 310 311 311 310 308 307 302 307 311 308 310 312 311
328 330 332 332 330 328 329 330 330 330 327 325 325 326 324 323 323 323 322 322 323 321 320 319 319 320 318 319 315 317 316 316 317 316 315 317 315 317 313 313 312 312 312 311 312 314 315 314 314 313 312 311 310 311 310 308 304 304 310 309 310 311 311
331 332 328 329 331 330 327 328 329 329 329 327 325 325 324 323 321 322 322 321 321 321 320 319 319 319 316 318 316 317 316 314 315 315 315 314 316 315 313 314 312 313 313 311 313 312 311 311 312 312 311 310 309 310 308 307 304 304 307 311 309 309 311
332 330 330 330 327 326 327 327 327 328 327 328 327 324 323 324 323 322 321 320 320 321 320 319 318 318 317 316 317 318 318 314 313 313 314 312 312 315 315 311 312 312 312 311 310 307 308 307 306 305 308 310 307 310 310 308 305 303 302 306 307 309 308
328 329 327 326 326 326 327 326 326 327 328 326 325 324 323 324 323 321 321 321 320 320 320 319 319 318 317 316 316 316 318 314 313 314 314 313 312 311 312 311 311 311 313 311 311 311 311 310 309 306 306 307 307 308 307 307 305 303 303 304 307 307 307
327 326 325 327 328 325 324 324 324 325 325 325 322 324 324 323 322 321 320 320 320 320 320 321 320 318 317 316 316 316 316 315 315 314 314 312 311 312 311 311 311 312 311 310 310 310 310 310 310 309 307 306 306 307 308 310 310 307 306 305 306 307 308
326 327 326 325 327 329 327 327 327 325 325 324 324 324 324 323 321 320 321 320 320 320 320 320 319 318 318 318 317 316 316 314 314 314 314 313 315 312 312 311 311 310 310 309 308 308 309 310 307 307 306 305 305 307 308 307 306 304 303 302 303 306 307
324 322 322 322 320 320 322 324 324 329 329 324 322 324 323 323 321 320 320 320 320 319 320 320 319 318 318 318 317 317 316 315 315 314 314 314 312 313 311 311 312 311 310 308 309 308 308 307 307 306 305 305 304 304 305 305 305 304 304 302 302 302 304
325 323 322 321 321 323 323 323 321 322 324 324 324 323 322 321 323 321 321 321 321 320 320 321 321 319 318 318 317 316 317 316 315 315 314 313 313 312 311 311 311 311 310 309 308 308 307 307 308 306 306 305 304 304 304 303 304 303 303 303 303 303 303
324 324 323 323 323 322 322 320 319 320 323 322 323 322 319 320 320 321 321 321 322 321 322 321 321 319 319 318 317 316 316 316 314 314 314 313 313 311 311 311 311 309 309 308 308 307 306 303 300 299 300 299 299 299 298 299 299 299 299 300 300 300 301
323 324 323 323 323 322 320 320 321 321 321 321 321 321 322 321 320 319 320 320 320 322 321 319 319 319 320 319 319 317 316 315 315 313 313 313 312 311 310 310 309 309 311 308 301 301 300 300 301 297 297 298 298 298 298 298 299 298 298 299 298 300 299
319 320 320 320 322 325 323 322 322 321 320 321 320 321 321 320 320 320 319 319 319 321 318 319 316 310 309 317 318 317 317 316 315 313 311 311 311 310 310 309 310 311 305 304 299 296 295 295 297 299 297 298 298 297 297 296 296 297 297 296 296 297 297
319 317 317 318 319 317 317 322 323 322 322 322 321 321 320 320 320 319 318 319 319 320 320 318 308 304 301 300 311 318 316 315 314 313 312 310 309 308 308 307 308 306 304 302 301 296 295 295 294 294 295 297 299 298 296 295 295 295 295 295 295 295 295
315 315 316 315 316 317 318 316 317 320 323 322 322 323 322 321 321 320 321 321 320 320 320 312 306 303 301 302 306 317 315 314 313 312 311 310 308 307 306 307 307 309 305 304 304 303 298 295 293 293 293 293 293 293 294 296 295 294 294 293 293 293 294
314 315 316 316 317 316 314 316 317 315 315 322 320 319 319 319 320 321 320 319 319 320 321 306 303 301 298 299 301 309 314 314 312 310 309 308 307 307 306 307 307 309 309 308 305 304 302 301 296 294 294 294 293 292 290 290 292 297 296 295 294 294 294
311 313 315 315 316 314 314 314 316 317 317 315 316 318 318 318 319 318 318 318 318 319 320 303 299 298 297 297 298 306 312 311 309 309 307 307 307 307 307 305 305 306 305 304 304 304 303 303 303 302 299 297 296 297 294 292 291 291 293 295 296 295 297
314 314 312 311 312 310 312 313 313 313 314 315 315 314 314 316 317 317 318 318 317 318 320 298 297 296 296 296 298 304 311 309 307 308 307 307 307 307 307 308 306 304 303 303 305 302 302 302 300 300 299 299 299 299 299 299 298 296 295 295 295 296 297
315 314 314 314 312 311 313 314 314 315 314 314 313 313 313 315 315 316 317 316 317 312 302 294 294 294 295 295 298 305 305 305 304 304 305 305 307 307 307 306 304 303 302 302 295 293 296 300 298 298 297 296 297 297 298 299 297 297 299 299 299 299 299
312 312 312 310 310 311 311 312 313 315 313 313 313 313 312 312 314 314 314 316 312 302 300 294 292 293 294 296 300 304 304 302 303 304 304 305 305 305 306 304 303 302 303 301 293 290 291 295 298 296 296 295 296 296 296 299 297 295 294 293 293 293 293
308 311 311 309 310 312 313 313 312 314 312 311 311 312 313 312 313 313 313 313 305 302 297 293 291 292 293 295 300 303 303 303 304 302 303 305 305 304 304 308 304 302 301 300 289 290 290 295 297 296 295 294 293 293 294 296 297 298 295 294 294 293 292
308 308 308 308 311 310 311 311 311 313 312 312 311 312 311 310 310 305 305 303 301 298 294 292 291 290 291 292 299 304 303 302 301 301 299 299 301 302 302 303 301 300 300 294 288 289 289 293 295 295 294 293 292 292 293 294 293 292 292 292 292 293 293
308 308 307 309 311 311 312 312 312 311 312 311 310 311 311 307 305 303 301 301 299 296 294 293 292 290 291 292 294 298 298 297 295 296 297 297 297 297 297 297 296 290 289 288 289 288 288 289 292 292 292 291 290 291 293 291 291 291 290 291 290 291 291
309 309 309 310 312 311 311 311 312 312 311 311 310 310 308 306 302 301 300 298 297 296 295 292 292 290 290 291 292 294 296 296 295 294 293 293 293 293 293 294 294 290 288 288 288 289 289 289 289 291 290 289 290 292 290 289 289 290 289 289 289 289 289
309 311 311 311 311 311 312 312 311 311 310 309 309 309 306 302 300 298 298 296 294 294 295 294 291 289 289 290 290 292 295 294 293 292 292 291 291 293 294 297 293 290 289 289 288 289 289 288 288 290 290 289 289 288 289 289 289 288 288 288 288 288 288
308 310 309 309 309 309 309 308 309 310 309 308 309 307 305 301 299 297 296 295 294 294 293 293 292 291 289 289 289 288 289 293 289 294 292 292 293 294 295 297 293 290 288 288 288 288 288 288 288 289 288 288 288 288 288 288 288 288 288 288 288 287 288
308 309 309 309 308 307 306 307 307 308 307 307 307 304 302 301 299 296 294 293 294 294 293 292 291 290 291 289 289 289 288 288 289 294 296 295 294 294 295 298 295 289 289 289 288 288 288 289 289 289 289 288 288 288 288 288 288 288 288 288 287 287 287

ECMWFFLT1_sfc_thetae_033.txt.gz
Theta_e
316 316 316 315 318 318 318 319 319 319 320 321 319 316 316 318 316 315 314 312 313 315 316 313 313 314 315 318 318 317 318 318 318 318 317 318 316 316 321 319 320 322 321 322 321 315 311 311 314 320 325 325 326 329 331 330 332 331 330 331 331 331 330
317 317 317 318 317 319 316 316 317 316 316 317 317 317 316 315 317 315 314 314 312 312 315 314 315 316 314 313 314 315 313 313 315 315 314 313 316 316 318 317 318 317 318 320 319 319 314 311 310 314 316 322 325 327 326 329 330 330 330 331 332 331 330
317 316 316 315 315 316 317 316 315 314 314 315 314 314 313 315 315 315 314 314 315 316 315 312 312 312 313 313 313 313 313 313 313 313 312 311 311 311 313 315 315 315 316 317 318 318 318 316 310 312 313 314 313 317 323 326 326 328 329 329 329 330 329
316 315 314 314 315 315 314 315 314 315 315 314 315 314 314 314 314 316 313 315 316 318 316 314 313 314 314 313 314 314 314 313 313 312 312 312 310 309 310 310 309 311 309 308 308 311 311 308 307 308 309 309 316 314 318 323 324 327 327 326 325 326 327
316 316 314 314 315 314 313 314 315 314 312 314 315 314 314 314 314 314 316 314 316 314 313 314 315 315 313 315 314 314 312 312 312 312 310 310 311 310 309 310 309 310 310 309 309 309 307 307 307 306 305 306 307 308 320 320 322 321 321 322 323 324 325
317 316 315 314 315 314 313 314 313 312 312 314 313 314 313 313 314 312 312 311 311 313 313 312 313 314 314 313 312 312 311 311 310 310 309 308 309 309 308 309 309 310 310 310 311 309 308 308 305 301 304 306 305 305 306 319 315 320 321 320 322 324 324
317 316 316 315 316 315 315 315 314 313 312 313 313 313 315 316 314 315 316 313 312 312 313 313 314 315 313 313 313 312 312 311 312 310 309 309 308 308 309 307 307 308 306 309 308 308 308 307 304 303 303 304 305 304 306 305 307 309 310 316 322 320 317
318 316 317 317 317 315 315 316 315 314 313 313 315 315 317 316 314 315 313 312 313 313 312 312 315 313 314 314 315 313 313 312 311 311 309 309 311 309 307 309 308 307 307 307 308 309 308 308 307 305 304 301 300 301 302 304 305 306 306 308 312 310 311
319 317 317 318 317 317 316 317 316 315 315 314 316 316 315 317 316 316 315 313 313 312 312 313 313 312 313 313 313 311 311 316 310 310 309 309 307 307 307 308 306 306 308 307 308 308 308 308 309 309 307 302 300 298 301 301 303 304 309 307 308 310 311
318 317 317 317 316 318 317 316 317 317 316 315 317 316 315 316 317 316 315 314 314 313 313 313 313 313 312 312 311 309 309 311 312 311 310 309 310 309 309 308 305 305 307 307 307 309 308 307 309 307 307 306 303 300 300 298 300 302 306 309 306 307 310
317 316 318 318 317 318 318 316 317 318 317 317 318 317 315 316 317 322 315 314 314 313 313 313 313 312 311 312 311 311 312 311 309 310 310 310 309 309 308 308 307 307 307 307 308 308 307 307 306 306 305 306 306 303 302 299 299 303 304 306 308 307 309
319 317 318 320 317 317 318 317 317 315 319 318 318 316 314 316 317 317 316 315 314 314 313 311 312 311 311 311 310 311 312 310 309 308 310 309 309 308 308 309 308 307 308 307 307 309 308 307 306 306 305 306 306 305 303 302 298 300 306 304 306 309 307
321 320 319 320 317 317 317 319 318 315 316 318 318 317 315 316 317 316 316 316 315 314 313 312 311 311 309 310 310 312 310 310 310 309 310 309 313 310 307 306 306 306 305 305 306 309 309 307 306 306 306 306 305 305 304 302 300 300 304 305 305 305 307
321 320 319 320 319 318 317 317 318 318 317 316 318 318 316 316 316 317 316 316 316 314 313 312 312 311 309 310 309 310 309 309 310 310 309 308 310 308 307 307 305 306 305 305 305 304 305 306 308 306 306 305 304 304 303 302 300 301 302 305 305 306 307
321 320 318 319 318 318 317 317 317 317 317 318 317 318 318 317 316 317 316 315 315 315 314 313 312 311 310 309 309 311 310 308 308 309 308 307 307 311 307 306 307 307 307 306 304 305 305 304 303 303 305 306 304 305 305 302 300 300 299 302 303 306 306
322 321 320 320 318 317 318 317 317 316 317 318 318 318 317 317 316 316 317 316 314 315 315 314 313 312 311 310 310 310 311 307 307 307 307 307 307 307 307 305 305 306 307 304 305 305 305 305 304 302 303 302 302 302 303 304 301 299 299 301 303 304 305
318 318 317 317 320 320 319 317 318 317 319 320 318 318 318 318 316 317 318 317 316 316 316 315 314 313 313 311 311 311 311 309 308 307 308 308 307 307 305 304 305 306 306 304 305 304 304 304 304 303 301 301 301 302 303 302 304 302 300 300 300 303 304
319 319 319 318 316 316 316 317 318 317 316 318 320 319 318 317 316 318 318 318 318 317 317 318 317 317 314 313 312 312 312 311 310 309 309 309 311 307 306 305 305 306 305 304 304 303 303 302 303 302 301 301 301 302 303 302 301 301 299 298 299 300 301
317 317 317 315 313 314 314 315 316 318 318 317 317 318 318 316 317 317 318 318 318 318 318 318 318 318 317 315 313 312 312 312 311 310 309 309 309 308 307 306 307 306 305 303 302 303 302 302 303 301 301 301 301 300 299 300 301 300 300 299 298 299 299
316 315 315 314 314 315 315 315 316 317 318 318 316 316 314 316 316 317 318 318 319 319 319 318 318 317 318 317 314 313 312 311 311 310 309 310 309 308 308 307 306 305 304 303 303 302 302 301 301 297 298 296 296 295 295 296 297 296 296 296 296 297 298
318 317 315 313 314 315 315 315 315 315 316 317 316 315 315 316 316 316 316 317 317 317 317 317 317 317 318 318 317 314 313 312 312 311 310 309 308 307 308 307 306 305 304 303 303 302 300 296 296 294 294 295 295 294 294 295 295 295 295 295 294 294 295
314 315 315 314 313 314 313 312 312 313 313 313 315 315 315 315 315 315 315 315 315 315 316 316 317 317 317 317 316 314 314 313 312 311 310 310 308 307 307 306 305 305 310 310 305 303 301 300 296 293 293 294 296 294 293 293 294 293 293 293 293 294 293
312 313 312 313 314 314 313 312 311 311 313 313 314 313 313 314 315 315 315 314 314 314 315 316 315 309 310 316 315 316 314 312 312 311 310 309 308 308 306 305 310 315 308 305 300 296 295 296 298 297 293 294 294 293 292 292 291 292 293 291 290 291 291
306 305 304 306 311 314 314 314 312 313 311 312 313 312 313 312 313 314 315 314 313 314 316 316 307 303 301 302 312 313 312 312 312 311 309 308 307 306 306 306 307 307 305 303 299 294 294 294 294 295 296 297 298 294 292 291 291 292 292 292 292 291 290
302 304 305 304 306 306 308 311 313 313 312 311 313 311 312 314 314 313 314 314 314 315 315 310 303 302 301 300 303 312 312 313 311 309 309 308 306 305 304 305 305 306 303 302 302 300 298 296 294 293 293 293 293 293 295 294 293 291 291 291 291 291 291
303 303 305 306 306 305 304 304 304 306 309 313 311 311 313 313 313 313 313 312 313 314 314 307 302 301 301 299 298 305 312 312 310 309 309 308 306 304 303 304 305 306 305 308 307 302 301 299 297 294 294 294 293 292 290 290 291 295 293 292 291 291 292
301 302 303 304 305 304 304 304 306 307 307 307 306 306 307 310 311 310 312 313 313 313 313 308 302 301 300 298 297 302 308 309 308 308 307 307 306 304 304 304 303 304 304 305 303 301 301 298 298 298 295 292 292 294 293 292 291 291 292 293 292 291 293
302 303 303 302 301 301 301 301 301 302 303 305 304 304 305 304 304 306 307 308 309 308 310 304 300 300 299 297 297 302 306 306 305 304 304 304 304 303 303 303 302 302 302 302 304 302 301 298 296 297 295 294 294 294 295 295 294 293 293 293 292 292 293
302 303 303 303 303 303 302 302 302 303 303 303 304 304 304 303 302 302 304 305 307 299 297 296 298 298 296 294 299 304 304 303 303 302 300 300 301 302 302 301 300 301 302 301 297 296 297 299 297 295 294 293 292 292 293 297 296 295 296 295 294 294 294
300 301 301 302 302 302 302 301 302 303 303 301 302 302 302 303 302 302 302 303 299 295 292 292 293 293 294 295 298 301 300 300 300 299 300 301 302 303 303 302 301 301 301 300 295 292 293 295 296 294 292 291 292 292 292 294 295 294 292 292 291 291 291
300 301 300 301 301 300 301 301 301 302 303 301 301 301 302 300 299 299 298 298 296 293 290 292 293 294 295 296 298 299 298 299 299 299 301 301 302 303 304 309 305 302 300 298 290 289 290 295 292 290 290 289 289 288 289 291 293 292 292 292 291 291 291
300 300 299 299 300 300 300 301 300 302 302 302 301 300 299 298 296 296 295 295 297 292 290 292 292 293 294 295 298 299 299 298 295 294 295 294 294 294 295 295 297 296 295 291 289 289 290 292 290 289 288 287 287 286 287 287 287 288 288 288 288 289 289
299 299 299 299 299 300 300 301 302 302 301 301 300 298 298 297 295 294 293 292 292 290 290 290 292 292 293 293 294 296 295 293 293 292 291 291 291 289 291 292 292 289 289 289 288 288 289 290 289 289 288 286 285 286 288 287 288 288 286 286 286 287 288
299 299 300 300 300 300 301 301 300 302 302 300 299 298 296 295 293 292 291 290 290 289 290 289 290 291 292 292 292 293 292 291 290 289 288 289 289 290 291 291 290 289 289 289 288 288 289 289 289 289 287 286 287 289 289 286 287 290 286 286 287 287 287
299 302 301 301 299 298 299 300 300 300 299 298 298 296 294 293 291 289 289 289 289 289 291 292 289 291 291 292 291 291 291 291 290 289 288 289 290 292 293 292 290 290 288 288 288 288 288 289 288 290 288 288 288 288 288 287 287 286 285 285 284 285 285
299 303 302 301 299 299 299 300 299 298 299 298 298 295 293 291 290 289 288 288 288 288 288 291 291 290 290 290 291 290 290 289 289 291 290 291 292 293 293 293 292 290 289 288 288 288 288 288 289 288 288 288 288 288 288 286 286 285 284 284 285 284 285
300 300 300 299 299 298 298 299 299 300 299 298 297 294 292 291 290 288 287 287 289 288 289 289 290 290 289 289 289 289 289 289 291 293 294 293 293 293 293 292 292 289 289 289 289 288 288 288 288 288 288 288 288 288 286 286 284 285 284 284 284 285 286

ECMWFFLT1_sfc_thetae_036.txt.gz
Theta_e
312 312 312 312 312 314 314 314 314 314 315 314 313 313 313 314 313 311 312 312 313 314 315 312 311 312 314 315 315 313 314 316 316 317 317 318 313 315 321 317 319 320 318 318 316 311 307 309 312 314 319 321 322 324 328 327 329 328 327 328 330 330 329
314 313 314 315 314 314 312 312 313 313 313 313 313 311 311 314 316 312 310 310 311 312 315 314 312 313 312 311 312 312 311 312 313 312 312 311 312 315 319 318 319 317 316 317 318 317 311 306 307 310 313 316 317 320 323 326 329 329 329 329 330 331 328
314 313 314 313 312 311 311 310 310 311 310 310 310 311 311 312 311 313 312 311 310 312 313 310 310 311 311 311 310 311 311 311 310 310 309 307 308 309 314 316 314 312 315 315 316 316 315 312 309 310 310 310 310 313 318 322 323 326 328 328 329 327 327
313 313 312 312 311 310 311 309 310 310 310 310 310 310 310 311 313 315 313 313 314 316 313 310 309 311 310 311 311 311 310 310 309 309 309 307 307 308 309 309 309 309 308 305 305 307 308 305 303 304 305 304 307 310 312 319 321 325 326 325 324 323 325
314 313 312 312 312 312 310 309 310 310 309 310 309 309 309 310 312 311 312 310 311 310 311 311 311 312 312 311 310 309 308 308 309 310 308 307 306 306 306 306 307 307 307 306 307 306 306 306 305 303 303 304 304 304 307 316 318 321 320 320 320 320 320
314 313 313 312 312 312 311 310 309 308 310 310 308 309 308 309 310 309 309 309 309 311 310 311 310 311 310 310 310 308 308 308 307 307 307 305 305 306 305 305 306 306 306 306 307 306 305 304 303 300 303 304 303 303 304 306 305 310 312 318 317 311 310
313 313 312 313 312 312 312 311 309 309 310 310 309 309 310 310 310 311 309 308 308 309 310 310 310 310 310 310 309 309 308 307 307 306 306 305 305 304 304 304 305 305 305 306 305 306 305 303 301 301 301 300 301 302 303 303 305 305 306 309 308 309 309
314 313 313 314 312 311 312 311 310 310 310 311 311 311 312 311 311 311 310 309 309 308 308 309 312 311 311 312 311 309 307 306 307 308 305 306 307 305 304 304 305 304 304 305 306 306 306 305 303 302 300 299 298 298 301 302 303 304 305 306 307 308 309
316 315 314 315 313 313 313 311 310 310 311 311 311 312 312 311 312 311 311 309 308 308 309 308 308 310 309 310 308 307 307 311 307 306 305 304 304 303 303 302 305 303 304 304 305 305 305 306 307 303 301 299 296 296 298 299 301 302 305 305 305 308 308
316 315 315 315 314 313 314 313 311 311 311 312 313 313 313 310 312 311 310 310 309 308 309 309 309 308 308 309 307 305 305 307 308 306 306 306 305 304 303 302 303 303 303 303 304 305 305 304 305 304 303 302 300 298 296 295 298 300 303 305 304 305 307
317 316 316 316 316 314 314 314 313 312 311 313 314 314 313 313 313 317 310 310 309 309 309 309 309 308 308 307 306 306 306 307 307 307 308 306 306 305 305 304 303 304 304 303 304 304 303 302 303 304 303 303 303 300 297 295 296 299 302 302 305 304 305
317 317 317 317 316 315 315 314 314 313 313 313 315 312 312 314 314 312 311 311 310 310 309 308 308 308 308 307 307 307 307 305 305 305 307 306 307 306 304 305 304 304 304 304 304 303 304 303 302 302 302 302 303 301 299 296 294 297 303 302 302 305 304
317 318 318 316 315 316 316 314 315 313 313 315 314 313 312 314 314 313 312 312 311 311 311 309 309 307 306 307 308 308 307 306 306 306 307 306 309 305 303 303 304 303 303 302 303 304 303 303 303 303 303 302 301 300 299 297 296 298 300 302 302 303 304
318 318 317 318 315 315 316 315 315 315 315 315 315 313 313 315 314 314 313 313 312 311 311 310 310 308 307 307 306 307 306 307 307 306 307 306 307 305 304 303 303 304 303 302 301 301 302 302 303 303 303 301 302 301 301 299 298 298 298 299 302 303 305
318 318 317 317 316 315 315 316 315 313 315 315 315 314 313 315 315 315 314 313 312 312 311 310 310 310 308 308 307 309 308 307 307 306 305 304 305 307 303 303 305 304 304 302 301 303 302 302 301 300 301 303 300 301 301 300 298 297 297 299 301 303 304
318 317 316 316 317 317 317 316 315 314 314 314 315 314 313 314 316 315 314 314 312 312 312 311 311 310 309 308 308 307 309 307 306 306 306 305 306 306 304 304 303 303 305 302 302 301 302 302 301 300 300 300 299 300 301 300 299 297 297 298 298 300 301
315 314 314 314 315 318 318 317 317 316 316 315 315 313 314 314 315 315 315 313 312 312 312 311 310 310 310 309 308 308 308 307 306 306 307 307 306 305 305 302 302 303 303 302 302 300 300 300 300 300 299 299 299 299 300 299 300 298 296 297 296 299 300
313 313 314 314 315 317 317 318 317 317 317 316 316 315 315 314 314 314 315 315 314 313 313 313 312 312 311 310 309 309 309 309 307 307 307 308 309 306 306 304 303 304 302 302 302 300 299 299 300 299 297 297 296 296 296 297 296 296 294 293 295 296 298
313 313 313 314 315 315 316 316 317 316 316 316 316 316 315 314 315 314 314 314 315 315 315 315 315 314 313 311 310 310 310 310 309 308 307 308 309 306 306 305 304 305 303 303 301 300 300 299 299 295 294 293 293 293 293 293 295 294 294 293 293 294 294
312 311 312 311 311 312 313 312 313 315 315 315 314 314 311 313 312 313 314 315 315 316 316 316 315 315 315 315 314 312 310 310 310 309 307 308 308 307 306 306 304 305 304 303 302 301 301 301 299 296 296 294 293 292 293 293 294 293 292 292 292 293 293
314 314 313 312 312 313 312 311 313 313 312 312 313 313 313 313 313 313 314 314 314 315 315 315 314 314 314 313 314 314 313 311 310 310 309 309 308 307 307 306 305 305 305 303 303 303 302 299 298 295 296 296 295 293 292 293 292 291 291 291 290 290 290
311 312 312 312 312 311 312 312 311 311 310 310 311 312 312 312 312 312 312 312 314 314 314 314 315 314 314 314 314 313 313 312 311 310 309 309 309 309 308 307 306 304 307 309 306 305 304 301 299 296 296 297 296 292 291 291 291 290 290 290 290 290 289
310 310 309 311 312 310 309 309 308 308 309 308 308 308 309 310 311 311 311 310 311 312 313 315 313 308 309 314 314 314 314 312 311 310 309 309 309 308 308 307 307 312 310 308 303 299 297 298 300 300 296 295 296 293 291 291 290 290 291 290 289 289 290
304 308 309 306 306 308 309 307 308 308 307 307 307 307 308 307 307 309 310 309 310 311 313 315 307 302 302 304 313 313 313 312 311 310 309 308 307 307 307 307 307 310 308 305 300 295 295 295 295 295 296 297 298 295 292 291 290 290 291 291 290 289 289
299 301 302 301 302 304 305 306 307 307 307 307 307 306 307 308 308 306 307 307 308 310 311 309 303 301 300 300 304 313 312 311 310 309 309 308 308 307 306 306 307 307 303 301 299 297 296 294 293 293 293 293 293 293 295 293 292 291 290 290 289 290 289
298 298 300 301 301 300 300 302 303 304 305 306 307 307 306 306 308 307 306 306 308 310 310 305 301 300 300 299 298 304 310 311 311 309 308 308 307 306 305 305 304 304 304 307 304 299 299 298 295 294 294 294 293 292 290 290 292 294 291 289 289 289 289
298 300 300 299 299 298 298 298 299 300 302 303 305 304 303 304 305 306 306 308 309 310 309 306 301 300 299 297 296 298 308 308 309 309 309 308 306 305 304 303 303 302 303 304 302 301 300 299 298 299 297 295 294 295 293 292 290 290 293 292 290 290 291
298 299 299 298 298 298 298 297 298 298 299 298 298 299 299 299 298 300 301 302 306 307 310 303 299 298 297 297 296 296 306 307 306 306 306 305 304 303 303 303 302 301 300 300 301 300 299 297 296 297 296 296 294 293 295 296 294 291 291 290 290 290 290
297 298 299 299 300 301 299 298 299 297 299 297 296 297 298 296 297 297 297 297 299 300 296 291 292 296 299 296 294 301 301 300 299 299 299 300 301 301 301 300 299 298 298 299 298 295 297 298 296 296 295 293 292 293 293 295 293 293 292 290 290 290 290
297 297 298 298 297 297 297 297 296 297 299 296 296 296 296 295 294 294 294 294 294 292 289 291 291 295 294 293 298 300 299 299 298 297 297 299 299 300 299 299 300 300 301 299 293 291 293 295 293 293 293 291 290 288 288 291 292 291 291 291 291 291 290
297 297 296 297 297 296 295 295 295 296 300 299 298 296 294 292 293 293 291 292 292 289 288 291 293 292 293 295 298 299 297 297 297 298 298 298 299 298 300 305 302 299 296 293 290 291 291 293 290 288 287 286 286 285 286 287 290 290 291 291 290 290 290
296 296 296 295 295 295 295 296 296 296 297 296 295 293 293 292 291 291 290 290 296 289 288 291 292 293 293 295 297 297 298 297 296 293 292 291 292 293 293 295 296 295 293 291 289 290 290 291 288 287 286 285 286 286 287 285 285 286 286 287 286 287 287
296 296 296 295 295 296 296 295 295 296 296 294 293 292 292 291 290 288 288 288 289 288 288 289 291 291 293 294 295 295 295 294 292 290 290 290 290 290 291 291 292 289 289 289 288 289 289 290 289 288 287 287 288 286 285 285 287 285 284 285 284 284 286
297 296 296 297 295 296 296 297 296 297 295 292 293 291 290 289 289 287 287 287 287 288 289 288 290 291 292 292 292 292 290 290 289 289 290 291 291 290 290 290 291 290 289 288 289 288 289 289 290 291 290 289 288 288 288 284 285 290 284 284 285 285 285
296 298 296 296 296 295 294 294 295 297 292 292 292 291 288 288 287 286 286 286 286 286 291 293 289 290 291 291 291 291 290 290 290 291 291 292 292 291 290 289 289 289 288 288 288 288 288 288 288 293 290 288 288 288 285 286 284 284 284 285 282 283 284
295 298 298 296 296 295 294 293 294 294 292 290 291 289 287 287 286 285 285 286 285 285 286 289 291 290 290 289 289 289 289 290 290 293 292 291 292 291 291 290 291 290 288 288 288 288 288 288 289 288 288 288 287 287 287 284 284 283 282 282 283 283 283
296 295 295 296 296 295 293 292 293 293 293 291 291 289 286 287 286 285 285 285 285 285 286 286 290 290 289 289 289 289 289 290 291 292 292 291 291 292 291 290 291 289 289 288 288 288 288 288 287 288 287 288 287 288 286 284 283 283 283 282 282 282 283

ECMWFFLT1_sfc_thetae_039.txt.gz
Theta_e
309 309 309 310 310 312 311 311 312 311 311 311 311 311 311 312 311 311 311 311 312 312 313 310 310 310 312 312 312 312 314 315 317 318 318 318 314 315 321 318 319 318 317 316 312 310 306 306 311 312 316 319 320 322 325 326 327 325 325 327 327 327 325
309 311 311 313 311 311 311 309 310 309 309 309 309 310 310 312 313 309 309 309 309 311 313 311 309 309 308 308 308 309 311 311 314 316 315 312 312 315 317 317 317 316 316 317 317 315 308 304 306 307 309 312 315 317 320 323 326 326 327 327 328 329 326
311 311 310 310 309 309 310 307 307 308 307 307 308 308 308 310 310 310 309 308 308 310 311 307 307 308 308 309 307 307 307 308 307 308 306 305 310 315 318 315 312 310 309 307 310 313 313 308 307 306 307 306 309 312 314 319 323 324 325 324 324 326 326
310 311 310 308 308 308 309 307 307 307 306 307 308 307 308 310 310 312 310 310 311 314 310 308 308 308 307 307 307 308 308 307 306 306 307 305 307 308 308 309 308 305 305 304 305 306 307 303 302 302 303 306 307 306 308 313 318 322 322 320 318 315 315
312 312 311 310 309 308 307 307 306 306 306 307 306 306 307 308 310 309 310 308 309 307 308 307 307 308 307 307 307 307 306 305 306 307 305 304 304 304 304 304 304 305 304 304 304 304 305 304 303 301 301 303 303 303 305 307 312 314 312 310 309 309 308
313 312 311 310 308 308 306 306 305 306 305 306 306 306 306 306 309 307 307 307 307 308 308 308 306 306 308 307 307 306 306 305 304 305 304 302 303 304 303 302 303 304 304 304 304 303 302 302 301 298 302 303 301 303 304 302 304 306 308 307 307 307 307
313 313 312 312 310 309 308 307 307 307 307 307 306 306 308 307 307 308 308 306 306 307 308 306 306 307 307 308 306 307 306 304 305 305 304 303 303 302 301 303 303 303 303 304 302 303 301 300 299 298 298 299 300 301 302 303 304 304 304 305 306 307 307
314 313 313 313 312 310 308 307 306 307 307 308 307 308 307 306 307 307 307 307 307 308 308 308 309 307 308 309 308 306 305 304 305 305 303 304 305 302 302 302 304 302 302 303 303 304 303 302 301 299 295 296 297 298 300 301 302 303 303 304 305 306 306
315 314 314 314 312 311 310 309 307 307 308 308 307 307 307 307 308 307 308 306 306 306 306 307 307 308 306 307 305 304 305 309 306 305 302 303 302 301 301 300 303 301 301 302 304 303 303 303 303 300 299 294 293 296 297 297 299 301 303 303 303 305 305
314 313 314 314 313 312 311 309 308 308 307 307 309 309 307 307 307 307 306 306 306 307 307 308 308 306 306 307 306 304 304 304 307 304 303 305 301 300 300 300 300 302 301 301 302 303 302 301 302 301 300 301 296 294 293 292 296 298 301 303 301 303 305
314 314 314 314 314 313 312 311 308 308 308 310 310 311 308 308 308 314 306 306 305 306 306 307 308 307 306 306 304 304 305 304 305 303 305 304 302 303 303 301 300 302 302 300 301 302 301 300 300 302 301 299 299 298 294 291 293 296 301 300 302 302 304
315 314 315 315 314 313 313 312 310 310 309 308 310 309 308 308 308 309 307 307 306 307 306 306 305 306 306 305 304 305 304 304 304 304 305 304 303 304 301 302 300 300 300 301 302 302 301 302 300 300 299 301 301 299 296 294 292 294 300 299 300 302 302
315 315 315 314 314 313 314 313 312 310 310 311 310 310 309 309 309 308 307 307 307 306 306 306 305 305 304 305 307 307 305 304 304 304 304 303 305 302 300 301 301 300 300 300 301 301 300 301 301 301 301 301 300 298 297 294 294 296 297 300 300 301 303
315 315 315 315 315 315 314 314 313 313 310 311 312 312 311 311 311 311 309 310 309 307 307 306 305 304 305 304 304 305 303 303 305 303 305 304 304 301 301 301 301 301 301 300 299 301 301 300 299 300 301 299 299 300 299 296 295 295 296 297 299 300 302
316 316 315 315 315 314 314 313 313 312 311 311 312 312 311 312 312 312 311 310 310 309 309 308 306 305 305 304 304 306 306 304 303 303 303 304 303 304 302 301 302 301 300 300 299 301 300 299 299 299 299 299 298 299 298 297 295 294 294 296 298 299 299
316 315 315 314 314 314 314 314 313 313 313 311 311 311 311 311 314 314 313 312 310 309 309 309 307 306 305 305 305 304 306 305 305 304 304 304 304 303 301 302 301 301 302 300 298 298 299 299 299 299 298 298 297 297 297 297 296 294 294 294 295 296 297
313 312 312 312 313 314 316 314 315 313 313 313 313 313 314 312 311 311 313 313 312 311 310 309 307 307 307 305 305 306 306 305 305 305 306 305 303 304 304 301 301 301 301 300 298 298 298 298 298 298 296 296 295 295 295 295 295 293 293 291 292 295 297
311 311 310 311 312 313 314 314 314 314 314 314 315 315 315 314 312 312 313 313 312 312 311 310 309 308 307 306 306 306 306 306 306 305 305 306 308 305 305 305 303 302 301 301 298 298 298 298 297 296 294 293 293 294 295 294 293 292 291 290 291 292 294
309 310 311 312 312 312 312 313 313 313 315 314 314 314 314 313 314 314 314 314 313 312 311 312 312 311 310 308 307 306 306 306 306 306 305 306 307 306 306 305 303 303 302 302 301 299 298 297 294 293 292 291 292 292 292 292 292 292 291 290 290 292 291
309 308 308 310 311 312 311 311 312 312 312 313 313 312 311 313 313 313 314 314 314 314 313 314 313 313 313 311 310 308 307 307 306 306 305 306 306 306 306 306 304 305 304 304 303 302 299 297 297 295 295 293 292 292 292 292 291 291 290 290 289 290 290
309 310 309 310 310 310 311 311 310 311 312 312 312 311 310 311 312 312 313 313 314 314 313 313 313 313 312 312 311 311 310 309 307 306 306 306 307 307 306 305 305 305 306 306 305 304 303 301 298 296 296 295 294 292 292 291 290 290 290 289 289 288 288
310 310 311 310 309 309 310 312 312 311 310 309 309 310 310 311 311 311 311 311 312 312 312 312 313 313 312 312 311 311 311 310 309 309 308 308 307 306 306 306 305 305 307 311 307 305 304 303 298 295 295 295 294 292 291 292 291 289 289 290 290 289 288
308 309 309 309 310 309 310 309 309 309 309 308 308 308 309 310 311 311 311 311 310 309 310 312 312 307 308 312 311 312 311 310 310 309 309 309 308 307 307 306 307 312 309 309 305 300 299 299 301 299 296 296 295 292 291 290 290 289 290 290 289 288 289
302 304 305 305 305 306 306 306 307 307 307 307 307 308 308 308 308 309 310 309 308 308 309 311 306 302 300 301 309 309 310 311 310 310 308 308 308 308 307 307 306 309 308 307 305 298 297 296 296 296 296 297 297 295 292 290 289 289 291 290 289 288 287
297 298 299 299 299 300 302 304 305 306 305 306 306 305 305 307 306 305 306 306 306 307 308 307 301 300 299 298 301 309 310 309 309 308 309 308 308 307 306 306 306 308 308 308 304 298 296 295 294 294 293 294 294 295 295 293 291 289 288 288 288 288 287
297 297 298 298 298 298 299 299 298 299 298 301 303 304 302 302 303 303 304 304 304 305 306 303 297 296 297 296 296 300 306 308 306 306 306 307 307 306 305 305 305 306 307 308 303 298 297 296 294 293 293 293 292 292 292 293 294 293 290 289 288 287 288
296 296 296 297 296 296 297 298 298 298 298 298 298 298 298 299 298 299 300 301 302 302 304 303 297 297 296 295 295 296 305 305 306 306 306 306 305 304 304 303 303 303 303 303 300 299 299 298 297 297 297 296 296 295 292 291 290 291 292 291 289 288 288
295 295 295 295 295 295 295 295 296 296 295 297 297 299 297 297 296 296 294 295 297 301 301 294 291 292 294 294 294 294 303 303 304 303 304 302 301 301 300 301 300 300 300 300 301 301 300 299 299 298 296 295 294 293 292 292 290 289 290 289 288 289 288
294 294 295 294 295 295 294 294 295 294 294 292 293 293 293 293 292 292 292 292 295 295 294 292 291 292 294 295 293 298 299 300 300 299 295 296 298 297 298 299 299 299 299 300 298 295 297 299 298 296 294 293 293 292 292 292 292 293 292 288 287 288 288
296 295 294 295 295 295 295 296 294 294 295 293 292 293 291 291 291 290 290 290 290 290 290 292 291 292 292 294 294 296 296 295 294 293 294 295 295 296 296 296 297 298 297 295 292 291 293 295 295 294 293 292 291 290 289 289 291 291 291 291 291 291 290
296 295 294 295 295 294 293 293 293 293 295 295 294 292 290 289 288 289 288 289 291 289 287 291 292 292 292 294 297 295 295 295 294 294 292 292 292 294 299 304 300 294 293 292 290 291 291 294 293 292 291 290 289 288 287 286 287 289 290 290 290 289 289
293 293 294 295 294 296 295 296 294 292 291 291 291 290 291 288 287 287 287 288 296 287 286 290 292 292 293 294 295 294 295 295 292 290 290 289 289 290 291 295 297 294 293 291 289 290 290 292 291 291 290 289 288 286 285 284 284 284 284 285 284 286 286
294 293 294 293 292 294 294 293 292 291 289 289 290 289 289 287 286 286 285 285 287 286 287 287 289 291 293 293 295 296 294 293 290 288 289 290 290 289 290 291 292 289 289 289 289 289 289 290 291 290 289 287 286 283 283 284 287 285 284 284 283 283 284
295 294 294 294 293 293 292 293 291 291 289 289 288 287 287 286 286 285 284 284 285 287 289 287 288 290 291 292 292 292 290 290 289 289 290 291 291 290 290 290 290 290 289 289 289 289 289 290 290 289 287 285 284 286 286 284 285 290 284 284 284 284 284
294 295 293 293 292 292 291 291 291 289 289 288 287 286 286 285 284 284 284 284 286 285 290 292 287 290 290 291 291 291 290 289 291 292 291 291 290 290 290 290 290 289 288 288 288 288 289 289 289 291 288 288 288 287 286 287 285 284 283 283 282 282 283
293 295 295 293 293 293 291 290 290 289 288 287 287 286 285 284 284 284 284 284 283 284 285 289 291 288 290 290 290 290 290 290 291 294 292 290 289 289 290 291 292 290 288 288 288 288 288 288 289 288 288 287 287 287 287 285 284 283 282 282 282 282 281
293 293 294 293 292 291 290 289 290 292 288 289 287 286 284 284 284 284 285 285 285 284 284 284 289 289 289 289 290 290 290 290 291 293 292 290 290 290 290 291 291 288 288 288 288 288 288 288 286 287 288 287 287 288 286 284 283 282 283 282 281 281 282

ECMWFFLT1_sfc_thetae_042.txt.gz
Theta_e
311 310 308 309 310 312 311 310 310 309 310 311 311 311 312 314 312 311 311 312 312 314 315 311 311 312 313 314 316 318 318 319 321 321 319 321 319 318 321 320 319 318 317 317 315 315 312 313 316 318 319 318 322 320 322 326 327 327 328 328 328 328 328
309 311 312 313 311 311 310 308 309 308 308 309 310 311 311 313 316 311 310 311 311 313 315 311 310 310 309 310 312 314 316 316 319 319 318 315 315 318 319 319 318 316 316 316 316 316 311 310 310 310 311 316 316 314 317 324 326 326 326 327 327 325 323
312 310 310 309 309 308 309 307 307 307 308 308 308 309 310 310 310 311 309 310 310 313 314 309 309 310 309 310 309 310 310 310 310 313 314 311 316 318 318 316 315 312 311 312 311 313 312 311 310 307 309 310 308 311 316 321 321 321 319 318 316 316 316
310 311 310 308 307 308 308 306 306 306 306 307 309 309 309 310 311 314 310 311 314 316 312 309 309 309 308 309 308 309 308 308 308 308 310 312 313 314 312 312 312 309 310 310 308 310 313 311 309 308 307 307 307 306 309 313 312 310 310 311 311 310 312
312 312 311 310 308 308 307 306 305 306 306 306 306 308 309 310 311 310 312 310 311 309 309 309 309 309 309 308 308 308 307 307 308 308 306 306 306 306 306 306 306 307 307 307 308 307 309 310 309 306 307 308 305 306 307 310 310 308 308 308 309 310 310
313 313 312 310 308 308 307 306 305 306 305 307 306 307 308 307 309 308 309 310 310 311 309 308 308 308 308 308 308 307 307 306 306 306 306 305 306 307 306 305 306 306 306 305 305 305 304 305 305 304 304 305 305 305 306 306 306 308 308 308 308 309 309
313 313 312 311 309 308 307 307 306 307 306 306 306 307 307 308 308 309 309 308 309 309 309 308 308 309 308 308 308 307 307 306 306 306 305 305 305 304 306 306 306 306 306 306 306 306 305 305 304 303 303 302 304 304 305 305 306 306 307 308 308 309 309
314 314 313 313 311 309 307 307 306 305 307 306 306 307 309 307 308 307 309 308 308 309 309 310 310 309 310 309 308 307 307 306 306 306 305 306 305 305 305 306 306 306 306 306 306 306 306 306 306 303 301 302 302 302 303 303 304 305 305 308 308 308 309
315 314 313 314 312 311 309 308 306 305 306 307 306 308 308 308 307 307 308 306 307 307 309 309 308 308 308 308 307 308 308 309 306 305 304 304 303 303 303 304 305 304 305 305 306 306 306 306 305 303 301 300 301 299 300 301 303 303 305 305 306 308 308
314 313 313 313 313 311 310 309 307 306 306 306 308 309 307 307 307 307 307 307 306 307 308 309 308 307 307 308 307 307 307 307 308 306 305 305 303 303 304 304 305 305 305 306 306 305 305 305 305 305 305 304 300 300 298 298 300 302 304 304 303 305 307
314 314 314 314 313 312 311 311 309 308 308 309 310 311 308 308 308 315 307 308 306 307 308 308 308 307 307 306 306 307 307 308 308 306 305 305 305 306 306 304 305 305 304 305 306 306 305 305 305 305 304 303 304 301 298 297 299 303 304 305 305 303 305
315 315 315 315 314 313 312 311 311 310 309 309 311 310 308 309 309 309 307 308 307 308 307 307 308 307 306 306 308 307 306 307 307 306 304 306 306 307 306 304 303 304 304 304 304 304 305 305 304 304 304 304 303 304 301 298 298 300 305 303 304 304 304
315 315 315 315 314 313 313 313 312 311 310 311 310 309 309 309 309 309 308 308 308 307 307 307 307 307 306 306 307 307 307 306 307 307 307 306 306 305 305 304 304 304 303 304 304 303 304 304 305 304 304 304 302 302 303 300 300 300 303 304 303 303 304
313 314 315 315 315 314 314 314 313 313 311 310 310 310 310 310 310 310 309 310 310 309 309 308 307 307 307 307 307 307 306 306 307 306 307 307 306 305 305 304 303 304 303 304 303 303 302 302 303 303 303 303 302 303 303 301 300 300 302 302 304 302 303
313 314 314 314 314 312 313 313 313 312 311 311 311 311 311 311 312 312 311 311 310 309 309 308 307 307 308 307 307 307 306 305 306 305 306 306 306 305 304 304 303 304 302 303 303 302 301 301 301 301 301 302 301 301 302 302 300 299 297 301 301 301 300
313 314 314 314 313 313 313 313 314 313 312 311 312 312 312 312 313 313 313 312 311 310 311 311 310 310 308 307 307 307 308 306 306 306 306 306 306 304 303 305 304 304 303 303 303 302 302 301 301 300 300 300 299 300 300 300 299 296 295 296 299 298 299
312 312 312 312 313 313 314 313 314 314 314 313 313 313 314 315 314 313 313 312 312 311 310 312 312 311 310 308 307 308 307 307 307 307 307 307 306 306 305 304 304 304 304 303 302 301 301 301 301 300 299 299 299 298 299 299 299 299 297 295 296 297 298
311 310 311 312 312 313 314 313 314 314 315 315 315 314 315 315 314 313 313 313 313 312 312 313 313 313 312 310 309 308 307 308 308 308 308 308 308 307 307 306 306 305 304 304 302 301 301 300 299 299 298 297 297 298 299 298 297 296 295 295 297 298 297
310 310 310 311 311 313 313 314 314 314 315 314 314 314 314 314 314 314 314 314 313 313 313 313 314 314 314 313 311 309 308 308 308 308 308 308 309 308 308 308 306 306 304 304 303 302 301 300 297 297 296 296 296 297 297 297 297 296 296 295 297 298 297
310 310 310 310 311 311 311 310 312 312 312 313 313 312 313 313 312 313 314 314 314 314 314 314 314 314 314 313 313 311 309 308 308 308 308 307 308 308 308 308 307 306 305 305 305 303 302 301 299 297 297 296 295 297 296 296 296 296 296 296 295 295 296
308 309 309 311 311 310 310 310 311 311 311 311 313 312 312 313 312 312 313 313 313 313 313 313 313 313 314 313 313 312 311 310 309 308 308 308 308 308 308 308 308 307 307 307 307 306 305 303 302 300 298 297 296 296 295 295 295 295 296 296 297 296 294
308 309 308 308 308 309 310 310 310 310 310 310 311 311 312 311 310 311 311 311 311 311 312 312 313 313 313 313 312 312 311 311 310 310 309 308 308 308 308 308 308 307 309 310 306 306 305 304 302 299 298 299 298 297 295 295 295 294 295 296 296 294 294
308 307 307 308 309 309 309 308 308 308 308 309 309 309 310 309 310 309 310 309 309 309 310 312 312 307 307 313 312 312 312 312 311 311 310 310 310 309 309 309 309 311 309 308 305 301 299 300 302 302 299 299 299 297 296 296 295 295 296 297 296 296 295
305 306 307 307 307 307 308 308 308 307 308 309 309 309 309 308 308 308 309 308 308 308 310 311 305 301 298 299 308 310 311 312 311 311 311 310 311 311 310 309 309 309 309 307 306 300 297 296 296 296 297 298 299 298 296 296 296 295 297 297 294 294 294
302 302 304 305 306 307 306 307 307 307 307 307 308 307 307 308 308 307 307 307 307 308 308 305 296 295 295 295 298 307 309 310 310 310 310 310 310 310 310 310 309 309 309 309 308 307 300 296 294 294 294 294 293 292 295 298 296 294 295 296 295 294 294
298 298 299 300 302 305 306 305 305 304 305 304 305 305 305 303 305 304 305 305 305 305 305 298 293 294 294 293 293 298 306 308 308 309 309 309 309 309 309 308 308 308 308 310 310 304 302 298 294 293 294 294 293 292 289 290 294 298 296 296 296 294 294
297 296 296 297 299 300 301 300 299 299 300 300 301 301 301 303 301 301 302 303 303 302 303 294 290 291 292 292 292 294 305 306 307 308 308 307 307 307 306 306 306 306 305 308 303 301 299 299 298 299 298 298 298 296 292 291 291 292 295 297 296 295 294
296 296 296 296 296 296 296 295 297 296 296 297 297 298 298 297 297 296 295 296 296 298 299 292 291 291 290 291 291 293 302 304 306 305 304 303 304 305 305 304 304 304 302 302 301 300 299 299 299 299 298 296 295 295 296 297 297 296 295 294 295 295 294
297 297 297 296 296 296 295 295 296 296 295 294 294 295 294 293 293 294 293 292 296 298 295 292 291 292 292 292 292 299 301 304 304 299 296 297 298 299 300 302 302 301 300 300 298 295 297 300 299 297 295 294 293 293 294 294 293 294 296 295 295 295 295
295 295 294 295 295 295 295 295 294 294 295 294 295 294 292 292 291 291 293 292 293 294 292 292 291 291 292 292 296 301 299 296 295 295 295 295 296 299 300 299 299 297 296 295 293 292 293 296 298 296 295 294 294 294 293 293 292 291 291 291 291 291 290
296 295 296 297 296 295 295 295 296 297 297 296 295 293 292 291 290 291 291 291 293 294 293 291 292 291 293 293 296 296 296 295 293 293 292 293 294 296 300 301 297 295 295 294 291 291 292 296 297 296 295 293 292 291 290 290 292 291 290 290 290 289 289
296 296 297 296 297 296 297 297 296 293 294 293 292 291 293 290 289 288 289 291 296 290 289 291 292 292 293 294 295 296 296 294 292 291 292 292 292 293 294 295 296 295 295 292 289 290 291 294 295 294 293 293 292 290 290 290 290 290 290 290 289 290 290
297 297 297 296 296 297 297 295 294 293 290 289 290 290 291 288 288 288 287 287 288 288 289 290 292 291 293 293 294 296 295 294 292 291 292 292 292 293 293 293 293 289 289 289 289 289 289 290 293 293 293 292 291 289 289 289 290 289 288 289 288 288 289
297 296 296 296 296 296 295 295 293 293 292 290 290 288 288 287 287 286 286 286 287 288 291 290 290 290 292 293 293 293 293 292 291 292 292 292 292 291 291 291 292 290 289 289 289 289 289 289 290 292 291 290 290 290 289 289 290 289 289 289 289 289 289
297 297 295 296 295 294 293 292 293 291 290 291 290 288 288 288 286 287 285 286 288 286 289 294 290 291 291 291 291 291 292 292 292 292 292 291 291 291 291 291 291 290 288 288 288 288 288 289 290 292 290 288 287 287 290 290 289 289 288 288 288 288 288
295 295 295 294 295 294 292 292 291 291 291 290 290 288 287 286 287 288 288 287 285 286 286 289 291 290 290 290 290 290 290 291 290 294 292 291 291 291 292 292 292 289 288 288 288 288 288 288 289 289 287 287 287 287 289 289 289 288 287 287 287 287 287
294 294 296 295 294 294 292 291 291 291 291 292 290 289 287 286 287 289 289 288 288 286 286 285 289 290 290 289 289 289 290 290 291 293 293 291 291 291 291 291 291 288 288 288 288 288 288 288 288 287 288 288 287 288 289 288 287 287 286 286 286 286 286

ECMWFFLT1_sfc_thetae_045.txt.gz
Theta_e
325 323 325 325 326 324 322 323 324 325 325 327 328 328 329 330 330 329 329 329 328 327 328 329 330 329 329 328 327 328 329 329 331 328 326 328 323 324 326 326 326 327 327 324 323 322 321 319 321 326 325 324 325 326 329 329 328 329 330 332 331 330 332
326 325 325 325 323 324 322 322 324 323 324 325 325 326 327 327 327 326 326 327 327 327 325 324 324 325 328 330 329 328 328 327 328 327 326 324 325 323 325 327 325 324 324 324 324 326 323 321 318 320 320 322 319 320 320 320 320 320 321 322 323 324 327
324 324 324 323 322 323 322 322 323 323 323 324 324 325 325 324 325 325 325 325 326 325 323 324 325 326 326 327 327 328 327 327 326 326 325 324 325 326 326 325 324 323 323 323 322 322 321 322 316 314 319 319 311 312 317 316 318 317 317 319 319 320 324
325 324 322 322 321 322 321 321 322 322 323 323 324 324 325 325 326 326 326 325 326 326 323 322 324 323 324 324 323 324 324 325 326 326 323 323 324 324 323 322 319 320 320 318 320 322 320 316 315 314 316 314 311 310 313 316 317 314 314 315 315 316 317
325 324 323 322 323 322 321 320 320 321 321 322 324 323 324 325 325 325 325 325 324 325 323 324 323 322 322 322 322 323 323 323 324 324 323 321 321 320 320 319 318 319 318 317 317 322 322 319 318 315 312 311 310 310 312 314 314 313 313 313 313 313 314
326 326 325 324 324 322 322 320 320 319 320 320 321 322 323 324 325 324 324 323 323 324 324 322 322 323 323 323 322 322 322 321 321 323 319 321 323 319 317 320 318 316 316 317 318 318 321 321 319 314 313 313 309 309 311 313 311 312 312 312 312 312 312
325 326 325 324 324 324 322 321 320 320 319 321 321 323 322 323 323 325 326 325 324 323 323 323 323 322 323 319 321 321 321 321 322 322 320 320 320 320 321 317 317 316 317 318 318 317 317 318 316 315 313 313 312 308 310 311 312 309 309 311 312 312 313
324 323 323 324 323 322 322 322 322 322 320 321 321 322 322 323 324 324 325 325 323 323 323 323 322 322 323 320 320 321 321 321 321 320 319 320 319 319 320 318 317 316 316 315 316 316 315 317 317 316 314 309 309 310 308 308 309 309 307 308 310 311 312
323 324 322 321 321 321 320 320 320 322 322 321 322 322 323 323 324 324 324 324 323 323 324 323 322 320 321 321 319 320 318 318 320 319 318 319 319 319 318 318 316 314 316 315 315 316 315 317 317 318 317 313 309 306 308 307 307 306 309 307 307 309 310
322 322 322 322 320 319 317 317 320 322 323 323 322 323 323 323 324 324 323 323 323 324 324 323 322 320 320 320 319 319 318 319 319 318 318 316 317 318 317 318 315 315 315 317 316 316 317 317 316 316 316 315 314 309 306 306 307 305 305 308 304 305 307
324 324 324 322 321 318 317 318 320 321 322 323 323 323 324 323 323 322 323 322 323 323 324 323 321 321 321 319 319 319 319 320 318 318 318 317 317 318 317 317 316 314 317 317 316 319 318 317 315 314 314 314 316 311 309 306 305 309 306 307 307 304 304
325 324 323 322 322 321 319 318 320 323 323 321 322 323 323 323 323 321 322 321 321 322 322 323 322 321 321 320 320 318 320 320 318 317 317 318 318 318 316 315 316 314 318 318 318 318 318 317 315 313 314 315 315 315 312 309 304 306 311 305 305 306 304
323 322 323 322 321 321 320 318 319 321 321 320 321 322 322 322 322 322 321 320 320 320 321 321 322 321 321 321 321 320 321 320 317 316 316 317 315 317 315 315 315 313 315 315 316 317 316 317 317 313 313 312 313 316 313 310 307 305 309 305 306 305 306
324 323 323 322 323 322 321 320 320 320 320 320 319 320 320 321 321 321 321 320 320 320 320 320 321 322 321 320 320 320 320 320 318 318 318 317 317 316 314 313 313 314 317 315 315 315 314 313 314 314 313 311 311 314 312 310 306 305 306 308 306 304 306
323 323 324 324 323 323 323 322 322 321 321 320 322 321 319 322 322 322 321 321 320 320 320 320 321 321 320 320 320 320 320 319 319 318 319 317 317 317 317 313 312 314 314 313 314 310 311 311 310 309 309 309 307 309 312 307 306 304 303 306 304 306 305
323 324 324 324 323 322 323 323 322 323 322 322 322 322 321 323 322 322 321 321 321 321 321 321 323 322 322 320 319 319 320 319 318 318 318 318 316 317 316 315 314 315 315 314 314 313 314 311 311 309 309 308 308 309 309 309 308 306 305 304 306 304 305
324 324 324 325 324 324 324 324 324 324 323 323 322 324 324 323 322 322 321 321 321 321 321 321 322 322 320 320 320 319 319 319 319 318 318 317 317 317 317 316 315 315 315 314 313 312 312 313 312 310 309 308 309 308 310 311 312 309 307 305 304 304 305
324 324 325 325 325 325 326 326 326 323 323 323 323 324 325 324 323 322 322 320 320 320 321 321 321 321 323 323 321 320 320 319 320 319 320 319 318 317 317 317 316 315 315 314 314 312 312 312 310 311 309 307 307 308 309 309 310 310 309 308 305 305 306
322 321 322 324 325 326 326 325 324 324 324 323 323 324 324 323 324 323 322 321 322 322 320 319 319 319 320 322 323 322 321 320 319 318 319 318 318 318 318 318 318 317 315 314 314 314 313 312 310 311 309 306 306 308 309 309 310 312 311 309 308 305 306
321 321 322 325 326 325 325 326 325 324 324 324 324 324 323 323 323 323 321 322 322 322 321 320 320 321 322 322 323 322 322 321 320 320 319 319 319 318 319 318 319 319 317 316 315 314 314 313 312 311 310 309 307 308 308 308 308 310 310 309 308 308 306
320 322 323 324 324 325 325 326 326 326 325 325 325 323 323 323 324 323 322 321 322 322 322 321 321 322 322 323 322 322 321 320 320 321 321 320 320 319 319 319 318 319 319 318 317 317 316 314 312 312 311 309 308 308 307 306 308 309 309 309 308 307 306
322 322 323 323 324 324 324 324 324 323 323 324 324 324 323 323 323 323 322 322 322 322 322 321 321 322 322 322 322 322 322 321 321 320 320 320 320 319 319 319 319 319 319 317 310 311 311 311 313 311 310 309 307 306 306 306 307 308 308 309 307 307 306
321 322 321 321 322 321 321 322 322 322 322 322 322 321 321 322 321 321 321 321 322 322 321 322 316 307 306 318 322 322 322 322 322 321 320 320 319 319 318 319 320 316 311 309 305 301 300 300 304 310 312 309 307 307 307 306 306 308 309 308 307 306 305
320 320 321 321 322 320 320 321 321 321 321 320 320 320 321 320 321 321 321 321 321 321 321 318 297 296 296 297 313 320 321 321 322 321 321 321 320 320 319 318 319 317 313 309 310 300 299 298 297 296 298 302 304 308 307 306 306 307 305 306 305 304 302
318 318 319 319 319 318 318 318 318 318 318 316 316 317 318 318 318 318 319 319 320 320 319 296 293 293 294 294 298 314 318 320 321 321 321 321 321 321 320 321 322 321 320 318 316 313 305 298 296 295 294 295 295 294 298 306 304 301 303 303 302 302 301
318 317 317 316 316 316 316 316 315 315 315 315 316 317 315 315 316 316 316 316 318 316 317 293 291 291 292 293 293 300 314 316 317 319 320 320 321 321 321 320 321 321 320 313 313 316 316 309 295 294 294 293 292 292 291 291 294 307 306 305 304 302 302
312 313 314 315 316 316 317 317 316 316 314 314 316 315 314 315 313 315 315 317 315 314 314 295 290 290 291 290 290 295 313 313 315 315 316 317 319 320 320 320 320 320 319 318 317 315 314 311 305 303 303 305 303 299 294 292 292 293 301 306 304 303 304
310 311 312 312 313 313 313 313 314 315 316 317 318 317 316 315 314 314 313 314 316 316 313 292 292 291 291 291 290 297 311 311 311 312 313 313 315 316 318 318 318 317 316 315 314 311 312 310 307 306 305 305 305 304 304 304 304 304 303 303 303 303 302
310 310 310 310 310 310 312 313 313 312 312 312 312 312 311 314 314 314 312 314 316 315 311 291 291 291 291 292 295 311 312 313 313 313 311 311 311 312 313 314 315 313 312 311 299 295 302 309 307 306 305 304 303 302 300 294 292 294 300 302 302 301 300
307 307 309 309 309 310 310 310 310 311 312 312 312 312 312 311 310 312 313 314 315 314 314 298 291 291 292 292 303 315 314 312 311 309 308 309 310 310 310 311 312 310 309 306 294 293 295 301 307 306 305 304 303 303 301 298 293 291 290 290 289 289 289
307 306 307 308 309 310 311 312 312 313 312 312 311 311 310 309 308 308 310 311 309 312 312 300 291 292 293 292 304 315 313 312 309 308 306 306 307 306 303 300 305 308 306 302 291 292 294 303 307 305 304 303 302 300 297 296 296 293 290 290 289 289 289
306 307 306 307 309 309 311 311 311 312 314 314 312 310 309 310 308 307 306 306 298 306 310 303 292 291 292 293 306 315 312 311 309 307 306 304 304 304 302 297 295 298 299 294 289 290 293 302 306 305 304 303 300 298 295 295 294 294 295 295 296 297 295
309 309 309 310 310 311 310 309 310 311 310 310 310 309 308 309 309 307 304 305 305 306 308 309 300 289 292 293 294 312 312 311 308 306 306 305 304 303 302 300 295 289 289 289 289 289 290 293 301 301 301 300 298 294 295 295 294 295 295 295 296 296 296
310 310 310 309 309 309 309 310 309 308 308 306 307 306 306 306 305 303 302 303 305 305 305 307 304 290 291 293 293 298 312 311 309 307 305 304 304 302 301 299 298 290 288 289 289 289 289 290 292 298 298 296 294 293 293 294 293 291 295 294 295 295 296
310 311 309 309 308 307 306 305 304 303 302 303 304 304 303 304 305 303 302 302 304 304 300 296 305 294 290 291 292 292 307 310 308 307 305 304 302 302 300 299 298 291 288 288 288 289 289 290 290 296 293 288 287 288 294 294 295 295 295 295 295 294 295
308 308 309 309 308 307 304 304 304 305 306 306 307 306 307 306 307 306 305 303 302 302 301 299 291 299 290 290 290 291 292 300 293 307 306 303 302 300 300 298 295 289 288 288 288 289 289 289 291 292 287 287 288 288 292 295 294 295 294 294 294 293 293
308 308 308 308 308 309 306 306 306 307 308 308 308 307 306 306 307 307 306 304 303 301 300 301 294 290 294 289 290 290 290 291 293 305 305 303 301 300 300 298 294 288 288 288 287 288 288 289 290 287 287 287 288 290 294 294 294 293 292 291 292 293 293

ECMWFFLT1_sfc_thetae_048.txt.gz
Theta_e
328 329 330 330 330 329 328 328 329 329 330 329 328 328 329 328 328 327 328 328 326 327 325 327 327 327 328 330 333 332 332 333 333 331 331 331 328 329 332 331 331 332 331 333 330 324 322 319 321 326 329 330 330 330 329 329 331 333 333 334 333 334 334
329 329 328 328 327 328 327 327 327 326 328 329 328 328 327 325 325 326 327 326 325 324 323 323 325 324 328 329 328 328 329 329 330 330 331 330 331 329 330 327 328 330 329 330 331 330 323 318 318 320 320 325 328 328 327 329 330 331 330 329 330 332 332
329 328 327 326 326 327 326 327 326 325 325 326 328 327 325 323 325 326 325 327 326 323 323 324 326 328 328 328 329 329 329 328 328 329 328 329 331 332 330 328 327 328 328 327 329 328 329 325 319 318 322 323 320 323 326 324 325 325 326 327 327 327 331
329 328 326 326 324 326 325 325 325 324 325 325 326 326 325 324 326 326 326 324 326 326 324 323 326 325 326 327 327 327 327 327 327 328 328 329 328 327 327 326 324 325 324 322 325 328 326 324 322 322 323 321 320 320 321 322 322 321 321 323 323 324 326
330 328 326 325 325 325 325 324 323 323 324 325 324 323 324 325 324 325 326 324 323 325 324 325 325 325 326 326 325 325 325 327 327 326 326 326 325 325 325 324 323 324 324 323 323 326 326 324 324 321 318 319 319 318 318 321 320 320 319 319 319 321 323
330 328 327 326 326 324 324 323 322 320 322 322 322 323 325 325 324 325 324 322 321 323 324 324 324 325 324 323 323 323 324 324 324 325 323 325 325 322 321 322 320 319 320 322 323 323 324 326 325 318 318 320 316 316 317 318 316 317 318 318 319 320 320
330 329 327 327 327 325 324 322 321 320 321 322 323 323 324 325 324 325 325 324 323 322 322 323 323 323 324 320 322 323 324 324 324 324 323 324 324 324 323 320 320 318 319 321 322 322 322 321 320 319 318 318 318 315 316 316 316 314 314 317 318 319 320
331 329 327 327 327 325 323 322 321 322 322 323 323 325 325 325 326 326 325 325 325 324 323 323 322 323 323 319 320 322 322 322 321 321 321 323 321 321 322 320 319 318 318 316 318 319 319 322 321 321 319 315 315 315 314 314 313 312 312 314 315 316 318
331 331 329 330 329 327 326 322 321 322 323 323 325 325 326 325 325 325 325 325 325 325 324 322 321 321 323 320 319 321 320 319 320 319 319 320 320 321 321 320 318 316 318 317 317 317 318 321 322 322 319 317 312 309 312 311 312 311 313 310 311 313 315
331 329 328 329 329 329 328 326 323 322 324 324 324 326 326 326 326 325 324 325 326 326 325 323 322 322 322 321 320 320 320 320 319 317 318 318 320 320 319 320 318 317 318 320 318 318 319 320 321 321 319 318 316 311 310 309 310 310 311 311 307 308 312
330 331 330 328 328 327 325 325 326 323 323 324 325 325 326 325 325 325 325 325 326 326 326 324 323 324 323 320 321 319 320 321 320 320 319 318 319 319 320 320 319 316 319 318 318 320 318 318 317 319 318 318 318 313 312 310 310 312 309 311 310 307 309
330 330 330 329 328 326 324 323 324 324 325 324 324 325 324 324 325 325 325 325 325 325 326 325 325 325 324 323 322 321 322 322 319 319 321 321 320 320 319 318 318 317 320 320 320 319 320 319 316 314 315 317 318 319 316 313 310 312 314 309 308 309 308
330 331 331 330 326 324 324 324 324 326 325 324 324 324 324 324 324 325 325 325 325 325 325 325 325 324 325 324 324 322 323 322 320 319 319 320 317 319 319 318 317 317 318 318 318 318 316 318 318 315 316 317 317 319 316 314 311 310 312 310 309 308 309
331 330 330 329 327 326 326 326 326 326 325 326 326 325 324 324 324 325 325 324 324 325 325 325 326 326 325 324 323 323 323 323 321 321 320 319 318 319 317 316 315 316 319 318 317 317 316 315 316 316 316 315 315 317 316 315 310 308 310 313 311 309 311
331 330 330 329 328 327 327 326 328 326 325 326 326 325 324 325 324 325 324 325 325 325 325 325 325 326 324 324 325 324 324 322 322 322 322 320 320 318 319 317 315 316 316 315 316 314 314 314 313 312 312 313 313 314 316 313 310 308 307 311 310 312 311
331 331 330 329 329 327 327 329 328 327 326 325 326 324 324 325 325 325 325 325 325 325 325 326 327 326 325 325 325 325 325 324 323 322 322 322 321 320 320 319 318 318 318 317 316 316 315 315 314 311 312 312 312 313 313 313 312 310 310 311 314 312 312
330 331 330 329 329 329 329 329 328 327 326 326 326 326 326 325 325 325 325 325 325 325 325 326 326 326 325 325 324 324 325 325 325 324 323 322 321 322 322 320 320 320 320 318 317 317 316 316 315 313 313 314 315 315 318 318 318 316 314 312 313 311 313
329 330 330 330 330 330 330 329 327 327 327 326 326 327 327 327 327 326 326 324 325 325 326 326 326 326 328 327 326 326 325 324 325 325 326 325 323 323 322 322 322 322 320 319 319 317 317 316 314 314 313 314 316 318 318 318 318 318 316 314 313 313 314
329 329 329 330 331 330 329 329 329 328 328 326 328 328 327 327 327 327 327 326 325 325 325 325 325 325 326 327 327 327 327 326 325 325 325 324 325 326 325 324 323 323 322 321 321 319 318 316 314 314 313 312 314 316 317 318 318 318 317 315 314 312 314
329 330 329 328 330 330 330 330 329 328 327 327 328 328 328 327 328 327 326 326 326 326 326 326 326 327 326 326 327 326 327 327 326 326 325 325 325 326 326 325 325 324 324 324 322 321 320 319 316 316 315 314 313 315 316 317 317 317 318 317 316 316 314
326 324 325 327 328 329 329 329 328 328 328 328 328 327 327 326 327 327 327 326 327 327 327 326 326 327 328 328 328 326 327 327 326 327 327 326 327 327 326 326 326 325 325 325 325 324 322 321 319 318 319 318 315 313 313 314 314 314 315 315 313 312 313
325 326 326 327 327 327 328 329 328 328 328 328 329 327 327 326 327 326 327 327 327 327 327 328 328 327 327 326 327 326 327 327 327 327 327 326 325 323 323 325 325 326 324 318 308 310 310 311 320 318 318 317 315 314 313 312 312 312 313 313 312 313 312
325 325 325 325 324 326 327 328 329 327 326 326 325 326 326 327 327 328 326 326 328 328 328 328 311 302 304 323 327 325 327 327 326 327 326 325 325 324 324 325 325 319 313 312 310 304 301 301 304 315 321 319 315 313 314 312 310 311 312 311 311 311 310
324 324 324 324 326 326 326 327 325 324 325 324 324 324 325 326 325 326 325 326 326 327 327 317 295 296 297 299 320 326 324 323 324 324 324 325 324 324 327 325 326 321 317 311 313 300 299 299 298 298 298 302 307 314 312 311 311 311 310 310 311 310 308
321 323 324 324 325 325 325 325 325 325 325 326 326 326 325 325 325 326 327 326 326 326 321 296 293 294 295 295 300 320 324 323 323 322 322 321 320 321 321 322 323 324 324 323 322 322 308 298 297 296 295 296 296 296 293 310 312 312 311 309 309 309 309
323 323 323 322 323 323 324 325 325 324 324 325 324 324 324 324 324 325 325 323 321 319 318 291 291 292 293 294 296 305 323 324 322 321 322 321 320 320 319 319 320 320 321 313 317 321 321 319 297 294 295 294 293 294 292 290 295 313 312 310 310 309 307
321 321 322 322 322 322 324 323 323 323 324 323 323 323 325 324 322 321 320 319 318 318 317 294 290 290 292 292 293 299 323 323 323 322 322 323 323 321 320 319 318 319 319 321 320 320 320 320 315 310 308 310 308 302 293 293 293 295 303 311 310 308 309
316 318 319 319 321 321 323 323 323 322 322 321 321 320 319 318 318 318 317 317 316 316 314 290 292 291 291 292 292 297 322 323 321 322 323 323 322 322 321 321 321 319 319 320 315 313 319 318 317 315 313 312 310 309 311 310 310 309 308 309 309 309 308
314 315 315 316 316 316 317 317 317 317 317 317 318 317 317 316 316 315 315 315 314 313 310 290 292 292 292 294 292 319 320 320 319 319 320 321 320 321 321 321 319 319 318 315 300 293 301 316 316 314 311 311 310 307 301 294 292 293 302 307 308 308 307
312 313 313 313 313 314 315 315 316 316 315 315 314 314 315 315 315 314 314 315 315 314 314 296 291 291 292 292 298 315 314 315 315 317 318 319 318 317 316 316 318 317 314 311 297 294 296 298 315 312 311 310 309 308 304 301 293 290 290 290 289 289 289
311 311 312 311 312 313 314 314 314 314 313 312 312 314 314 313 315 315 315 315 315 315 315 300 291 292 293 292 297 317 314 313 313 314 315 316 316 312 305 298 307 315 312 309 291 294 294 305 314 312 312 310 309 308 307 306 304 299 289 290 289 289 290
310 310 311 312 313 313 313 313 314 315 314 313 314 313 313 313 314 315 315 316 306 314 315 304 291 292 291 292 304 317 312 313 312 313 313 313 313 311 306 299 294 298 303 297 289 290 290 301 313 311 310 310 308 308 306 305 303 301 301 301 300 299 297
310 310 309 310 311 311 313 316 315 314 314 313 312 311 311 312 312 313 315 315 315 316 315 314 304 290 294 294 292 314 313 311 311 310 311 311 311 310 307 303 297 289 289 289 289 290 291 293 309 310 310 308 307 304 303 302 300 301 301 300 301 302 302
311 312 311 312 313 313 314 313 313 313 312 311 311 310 311 311 311 312 313 314 314 316 317 315 305 290 292 293 294 296 314 312 311 311 311 309 310 309 307 304 301 290 288 289 289 290 291 291 294 306 305 304 302 299 297 302 298 291 299 300 300 300 301
312 313 312 312 312 311 311 312 311 311 310 310 311 310 311 309 309 309 311 312 314 315 309 302 313 292 291 292 293 289 310 312 310 310 309 310 309 309 307 304 301 292 288 289 289 290 290 291 292 301 297 289 287 289 299 299 301 301 300 300 299 299 299
311 312 313 313 312 311 311 311 311 310 310 309 309 309 310 309 308 308 308 309 311 313 312 305 294 305 290 292 290 293 289 301 296 314 310 308 308 308 307 303 296 289 289 289 289 289 290 290 292 294 287 288 290 287 291 301 300 299 299 299 298 298 298
308 311 312 311 310 310 310 310 310 310 310 309 308 308 308 308 307 306 306 306 308 310 311 310 295 294 298 288 290 290 291 291 292 309 311 309 309 307 306 302 295 288 288 288 288 288 288 290 292 287 288 287 287 289 297 299 298 299 296 296 296 297 298

ECMWFFLT1_sfc_thetae_051.txt.gz
Theta_e
329 327 329 328 329 329 327 328 329 329 329 328 329 327 327 326 327 326 327 329 327 326 325 326 326 328 329 330 331 331 331 331 331 328 330 328 326 326 330 331 331 332 332 332 330 323 320 318 320 327 329 329 329 329 329 329 332 332 332 334 331 333 334
330 328 327 327 327 328 328 327 328 328 329 329 327 325 324 324 325 326 326 326 326 325 324 323 326 328 329 330 329 329 329 329 329 329 330 329 328 326 327 328 328 329 329 330 330 326 322 320 318 322 322 326 327 327 329 331 331 330 329 329 332 332 334
327 325 326 325 326 328 327 327 326 325 325 326 326 325 324 325 326 326 325 325 325 323 324 326 326 326 326 326 326 327 328 328 328 328 328 328 329 330 328 327 324 326 325 324 326 326 326 324 317 321 323 323 319 323 327 326 328 328 327 328 330 331 333
327 326 324 325 325 326 325 325 325 324 325 324 324 325 324 323 325 325 324 323 325 326 325 324 324 323 325 326 326 324 325 326 325 326 327 327 326 325 325 323 322 323 322 319 323 324 323 322 321 322 322 322 319 319 322 323 324 323 324 326 327 328 328
328 325 325 325 324 325 325 324 324 323 323 323 324 322 323 324 324 322 323 323 324 324 324 326 326 325 325 324 324 325 326 327 328 326 327 326 326 322 322 321 320 321 322 320 321 322 323 322 321 320 321 320 319 319 320 322 321 320 320 322 323 324 324
328 327 326 325 326 325 324 322 322 321 321 321 321 321 323 325 324 323 322 320 321 324 325 323 324 324 323 323 324 324 324 323 322 324 322 324 324 323 321 321 319 318 319 321 322 322 323 324 321 317 317 319 316 317 318 319 317 319 321 321 322 322 322
328 327 326 326 326 325 324 322 322 321 321 322 321 322 323 324 323 323 323 323 321 322 322 323 324 324 323 320 323 323 323 323 324 324 323 323 323 323 322 318 318 318 318 319 321 322 322 321 320 318 318 318 318 314 316 316 316 314 316 319 321 322 321
328 326 325 326 327 325 324 323 323 323 322 322 322 324 324 324 324 324 323 323 322 322 322 322 322 323 322 319 320 322 320 321 321 320 319 322 321 321 322 319 318 318 317 316 316 319 322 323 322 321 318 314 314 314 312 313 313 313 313 315 318 319 320
329 328 326 326 327 326 325 324 324 325 323 323 323 324 324 325 323 323 324 324 322 322 322 322 322 322 322 320 319 321 320 318 320 320 319 321 321 321 321 320 318 316 319 318 318 317 318 322 322 321 319 317 312 309 312 312 312 310 313 311 313 317 317
331 329 327 328 328 328 326 325 325 324 326 324 324 325 325 325 325 324 324 324 325 323 322 322 322 322 322 321 320 319 319 320 319 318 320 320 320 321 321 320 318 318 319 320 319 319 320 321 322 321 320 317 315 312 309 309 311 310 311 311 308 311 315
331 330 330 330 329 327 325 326 327 325 324 324 325 325 326 325 325 324 324 325 326 326 324 323 321 321 322 320 321 320 320 322 320 320 320 319 320 320 320 319 319 318 320 321 319 321 320 318 316 318 317 318 318 314 312 309 309 312 311 312 311 308 312
330 329 327 327 327 327 326 326 326 325 325 324 324 325 325 324 324 324 325 325 326 325 325 325 325 323 322 321 321 322 323 321 320 319 320 320 320 320 320 319 319 318 320 320 320 319 320 320 318 314 314 318 318 319 316 313 310 312 315 311 311 311 310
330 330 327 325 323 323 323 323 324 325 324 324 324 324 323 323 324 324 324 324 325 325 325 325 325 325 325 325 323 321 322 322 320 320 320 321 318 320 319 317 318 319 320 318 318 319 317 318 319 316 317 317 316 319 316 315 313 310 313 311 310 310 311
330 330 329 326 325 324 322 322 323 325 324 323 324 324 323 324 324 324 325 324 325 325 325 325 326 326 325 325 324 323 323 322 320 319 319 318 319 319 318 316 315 317 319 318 317 316 315 316 316 317 318 316 315 318 318 316 312 310 312 314 313 310 312
331 331 331 328 324 323 323 322 324 326 323 323 324 323 323 324 324 325 324 324 325 325 326 326 327 327 325 325 325 325 324 322 323 321 322 320 317 319 319 318 316 316 317 317 317 315 315 315 314 313 313 316 314 315 317 315 311 310 309 312 311 312 313
332 331 331 328 324 322 324 324 324 325 325 325 324 324 323 324 324 324 324 325 325 325 326 326 328 327 326 326 324 325 325 324 323 323 322 321 321 320 319 318 319 319 319 319 318 317 315 316 315 313 313 314 314 314 314 315 313 311 310 310 314 313 313
332 331 331 328 327 324 325 325 325 325 324 326 325 325 325 324 324 324 324 324 324 325 326 327 327 327 326 326 326 325 325 325 325 324 324 323 321 322 323 322 321 321 320 319 319 318 317 318 317 315 315 315 315 315 318 317 317 317 316 314 315 313 314
331 329 330 329 328 326 325 325 326 324 323 322 323 324 325 325 324 324 325 323 323 324 325 325 326 326 328 327 327 327 325 325 327 326 326 325 326 325 324 324 324 323 321 320 321 319 320 319 317 316 315 316 317 319 320 319 319 318 317 315 315 315 315
332 331 329 329 328 326 325 325 326 324 323 323 324 324 324 323 324 323 325 325 325 324 325 324 325 324 326 327 327 327 326 327 326 326 326 327 325 325 326 323 324 323 323 322 322 321 321 319 317 317 316 316 315 316 318 319 319 318 317 316 315 314 316
331 331 332 330 329 329 326 326 324 323 324 324 323 323 323 324 326 326 326 326 326 326 326 326 327 327 327 326 326 326 327 326 327 326 326 325 325 326 325 325 324 325 323 322 322 321 321 321 319 318 317 318 317 315 317 318 318 317 316 318 316 316 314
330 330 330 326 323 324 324 327 326 323 324 324 325 326 324 325 327 326 327 326 326 325 326 326 327 327 326 326 326 327 327 327 326 327 327 326 325 325 325 326 326 325 324 324 325 325 323 322 322 320 319 319 319 317 315 315 315 315 315 316 316 316 314
324 325 325 326 325 326 327 327 327 327 325 325 328 326 327 326 326 326 326 326 325 327 327 327 327 326 328 326 327 326 327 325 324 323 322 319 324 325 326 326 326 326 324 319 311 313 312 312 323 321 320 319 318 317 316 315 314 314 314 314 314 315 313
325 325 324 324 323 326 327 327 324 322 322 324 322 321 321 322 322 323 322 323 326 328 326 321 308 300 303 322 321 324 324 327 325 324 318 321 323 325 326 325 326 319 315 315 313 305 302 303 305 314 319 321 320 317 315 315 313 312 312 311 312 312 311
324 324 322 320 323 324 324 326 322 319 319 321 322 322 323 323 325 323 319 319 322 322 324 315 295 294 298 298 320 325 324 324 325 324 322 322 322 323 325 325 328 322 320 316 318 304 303 302 302 299 299 301 304 319 317 314 313 313 312 312 313 312 311
324 324 324 322 322 324 324 322 321 321 322 323 323 324 323 322 323 324 323 322 321 320 317 294 294 294 295 296 300 319 324 323 323 321 321 320 321 322 323 322 324 325 326 326 324 321 307 298 298 297 296 297 298 295 294 312 314 314 314 312 311 311 311
323 324 325 323 323 323 322 322 321 321 321 322 322 321 321 322 322 323 322 321 320 319 315 291 293 292 295 296 297 305 321 320 318 320 319 319 319 318 317 318 319 320 321 317 318 320 321 313 297 294 296 295 295 295 295 294 296 308 310 311 312 311 311
324 325 325 325 324 323 321 320 322 323 322 322 321 323 324 325 324 321 322 321 317 315 314 292 291 291 294 293 295 299 320 318 319 318 318 318 318 318 317 317 316 317 320 322 321 320 317 321 316 314 313 314 313 301 293 293 294 295 302 308 309 310 312
320 321 323 323 323 323 322 322 322 321 323 322 322 323 322 321 323 321 318 318 316 314 313 289 292 292 292 293 295 295 319 317 317 318 318 320 319 319 318 319 318 317 318 320 315 308 319 317 317 317 316 315 314 311 310 309 309 310 310 310 311 312 312
316 317 318 319 319 320 321 320 321 322 321 322 320 319 319 318 318 317 317 317 314 312 312 290 293 295 293 294 292 314 318 316 317 317 318 318 318 319 320 319 317 318 319 315 300 291 299 313 317 314 313 313 312 310 304 295 292 293 300 305 306 306 305
314 315 314 315 315 317 317 317 318 319 318 317 317 316 317 316 316 316 315 315 314 312 314 298 292 293 293 292 296 321 314 315 316 316 316 317 318 316 313 313 319 316 315 311 294 290 292 296 315 313 312 312 312 309 305 303 293 291 291 291 290 289 289
312 313 313 313 314 315 315 316 316 316 315 315 314 315 315 314 315 314 314 315 314 312 313 301 291 293 291 292 295 316 315 314 312 313 314 315 316 312 306 299 309 316 313 308 290 291 290 303 314 313 312 311 311 309 308 307 306 301 290 290 290 290 290
313 312 312 313 315 313 313 314 314 315 314 314 314 314 314 313 313 313 314 315 312 314 314 305 290 292 291 291 301 317 314 312 312 312 313 312 314 312 307 300 295 298 302 297 289 291 291 301 314 312 310 310 307 308 308 309 308 306 306 306 304 302 299
312 312 312 312 314 313 313 313 315 314 315 313 313 312 312 313 312 313 314 315 313 315 314 313 306 290 293 293 292 308 314 311 310 310 310 310 311 310 309 305 298 289 289 289 290 290 291 292 309 311 310 309 308 307 307 307 305 304 304 304 305 306 305
313 313 313 312 313 313 312 312 314 313 312 313 313 313 312 312 311 312 313 313 312 313 315 313 308 289 290 291 292 296 314 312 311 311 310 309 310 309 307 305 302 291 289 290 290 290 291 291 294 307 305 304 301 299 298 305 301 293 302 303 303 303 304
313 314 314 314 314 313 313 314 314 312 310 311 311 311 311 310 310 310 312 312 312 313 315 310 313 293 290 293 293 291 309 315 310 309 308 309 308 309 307 305 302 293 289 290 290 290 291 292 293 302 297 289 289 289 302 301 303 304 304 303 302 301 302
311 312 313 313 314 313 314 314 314 313 312 311 310 310 310 309 309 309 309 309 311 312 315 311 302 306 291 294 291 292 289 304 296 314 308 308 308 308 306 303 296 290 289 289 289 289 290 290 294 295 288 289 290 287 291 299 302 302 300 300 300 299 298
310 311 311 312 312 313 312 311 312 312 311 310 309 309 308 309 308 307 307 308 309 310 312 312 300 300 299 291 291 291 292 291 293 310 313 309 309 308 306 302 296 288 289 288 288 289 289 291 293 287 288 288 288 289 296 299 299 300 298 297 297 298 299

ECMWFFLT1_sfc_thetae_054.txt.gz
Theta_e
331 328 331 330 332 330 330 331 331 332 329 330 329 326 327 329 332 332 332 330 332 328 328 326 327 328 329 330 331 331 331 330 329 327 327 330 326 326 328 326 329 329 329 327 325 320 318 314 317 323 327 328 326 327 329 329 330 329 329 329 329 329 329
329 329 327 328 329 329 329 332 331 328 329 327 324 326 325 325 326 328 329 327 325 325 324 326 327 327 328 328 328 329 328 328 329 330 328 327 327 326 327 326 326 326 325 325 326 324 319 315 315 317 319 325 325 326 328 328 329 329 327 329 329 330 329
329 327 328 328 328 332 327 326 328 328 328 328 327 327 327 325 327 327 327 329 329 326 325 323 323 325 327 325 326 327 328 327 328 328 327 327 328 329 327 326 325 324 323 324 323 322 322 320 315 316 318 318 317 320 325 326 326 327 328 329 329 328 329
328 329 326 326 328 327 325 326 327 327 326 326 327 325 325 325 326 328 327 324 327 328 325 324 325 324 326 327 327 327 326 327 326 326 326 326 326 322 322 323 322 322 320 321 320 322 321 317 317 316 317 319 316 317 321 322 321 324 327 329 329 326 322
329 327 325 324 325 324 326 326 326 326 325 327 327 327 326 326 326 324 325 326 327 328 325 327 326 323 323 324 324 324 323 324 324 324 324 322 322 323 320 320 320 321 320 319 323 324 322 320 318 317 318 318 315 314 318 320 320 321 321 321 321 320 319
329 328 327 325 326 325 326 324 324 323 324 323 324 324 327 328 328 325 324 324 324 325 327 327 325 323 323 324 323 322 323 322 322 323 321 321 321 320 320 318 317 316 317 319 324 322 325 323 320 316 317 320 311 312 314 316 313 317 319 318 319 319 318
330 329 327 326 327 327 326 324 324 323 323 323 324 326 326 324 325 326 326 325 325 325 325 325 323 324 325 319 320 321 320 320 321 321 321 321 321 321 321 316 315 316 319 320 316 323 321 321 316 315 314 314 314 311 313 313 314 313 314 317 318 318 318
329 329 328 328 328 326 325 325 325 325 322 322 325 326 324 324 325 326 325 325 325 325 325 325 324 323 322 318 319 320 320 321 320 319 319 320 320 320 320 319 318 316 317 316 316 318 321 320 321 318 316 311 312 310 307 307 309 310 310 313 317 317 317
326 328 328 328 329 328 326 326 326 325 324 325 325 324 326 326 325 325 324 324 325 326 326 325 323 321 323 322 321 321 318 320 320 320 319 320 321 321 320 319 317 316 317 316 316 317 316 324 320 322 322 319 310 306 309 306 305 305 311 310 313 315 314
328 327 326 329 328 328 329 327 326 325 326 325 325 327 325 325 327 326 325 325 324 323 324 324 324 324 322 320 320 320 319 320 320 319 320 319 319 319 319 318 316 317 318 318 318 318 319 318 322 320 320 315 314 310 305 306 306 304 306 309 307 310 313
332 329 329 328 328 327 327 327 327 325 324 325 325 326 327 326 326 326 326 326 326 327 326 325 321 324 324 322 322 322 322 322 321 321 320 320 320 321 320 318 318 318 319 319 319 318 317 318 317 316 312 316 314 311 312 305 305 308 307 307 307 306 308
333 330 329 328 327 325 325 327 326 325 325 325 325 327 326 326 325 326 326 326 327 327 326 326 325 322 322 322 324 323 322 319 318 317 319 319 319 321 318 318 319 318 320 317 318 318 317 317 316 315 312 315 316 317 310 307 304 308 312 306 308 306 307
330 329 329 328 326 324 326 327 326 326 325 325 327 327 326 325 325 325 325 325 327 326 326 327 325 326 325 324 324 324 323 323 320 319 320 321 318 322 317 314 316 317 318 318 316 318 318 316 316 316 317 315 315 316 315 310 305 305 310 308 307 306 308
330 327 326 327 326 326 326 326 326 326 325 326 327 326 325 324 324 324 323 323 323 326 327 327 327 327 326 326 324 324 324 323 317 315 316 319 319 318 319 315 315 317 317 316 314 320 316 317 315 318 319 314 313 313 314 310 305 305 309 317 315 308 311
331 328 325 327 325 324 324 324 326 325 325 326 325 325 323 326 325 324 322 322 324 323 326 326 327 327 325 325 325 327 326 325 321 321 323 317 317 321 320 316 314 317 316 317 317 310 311 313 312 310 310 312 311 314 313 311 308 306 304 309 313 309 311
331 332 325 325 324 322 323 324 325 325 324 327 326 326 326 327 327 326 324 326 323 324 325 325 328 328 326 326 325 326 327 325 323 322 322 321 318 320 320 319 318 319 323 318 317 317 316 315 314 310 311 312 312 313 313 314 312 307 307 308 314 309 311
330 328 332 324 324 323 323 324 325 327 323 325 324 328 328 326 328 327 326 324 324 324 325 326 328 329 328 327 326 326 325 325 325 325 324 322 321 321 322 322 320 320 319 319 319 318 318 317 315 314 313 314 315 315 316 318 316 313 313 312 313 310 312
324 325 324 325 325 323 323 323 323 323 326 325 324 326 325 325 325 326 327 324 324 324 325 325 327 328 328 328 328 327 325 325 326 325 326 324 325 322 322 323 323 322 321 320 319 319 317 316 315 315 314 313 312 317 320 319 317 315 314 312 313 312 313
322 323 324 321 321 325 324 324 324 324 323 323 325 327 325 323 324 323 324 325 325 324 325 326 325 325 325 327 328 327 327 325 324 322 321 321 321 321 324 323 323 321 322 321 320 319 319 317 316 315 314 316 314 313 315 316 316 317 315 313 313 313 313
322 322 320 321 324 327 328 325 324 324 323 323 323 323 324 323 326 326 323 323 322 322 323 323 325 325 325 325 325 323 322 321 321 322 321 323 322 322 321 322 323 323 323 323 322 321 320 319 320 316 315 316 315 314 313 314 314 314 314 313 312 313 311
324 322 322 323 323 325 326 326 326 325 326 326 326 323 323 324 324 322 321 323 323 322 323 322 324 324 325 323 323 322 322 320 321 321 320 321 323 322 323 324 324 324 324 323 322 322 322 320 320 318 319 317 317 315 312 312 313 312 313 312 312 311 313
323 323 322 322 321 322 325 325 323 324 324 323 324 323 322 324 324 322 322 321 321 322 322 322 316 314 320 323 323 322 321 321 321 320 320 321 322 322 324 324 322 322 323 319 310 310 310 314 320 320 319 317 315 315 313 313 312 310 310 310 310 312 311
322 323 322 321 323 324 323 323 324 323 322 322 321 321 322 322 322 322 320 320 319 320 321 319 305 300 301 315 321 322 319 321 321 320 318 318 320 322 323 323 323 322 315 314 308 301 299 301 306 312 312 313 315 315 313 311 310 310 310 308 308 308 308
324 324 324 323 321 324 324 323 322 321 321 322 322 323 324 323 323 321 320 320 319 320 322 309 295 294 295 298 318 323 322 321 321 320 318 318 320 321 323 323 322 317 316 315 308 300 299 297 296 296 297 300 305 310 312 311 311 311 309 308 308 309 307
323 323 323 322 322 322 323 323 322 322 322 322 323 323 323 322 322 322 322 321 321 320 317 296 292 293 294 294 299 314 323 322 321 320 318 320 321 321 322 322 324 324 323 323 320 310 302 295 295 296 295 295 293 293 297 305 306 308 306 305 306 307 308
321 322 322 322 322 321 321 322 321 321 321 323 323 322 321 322 321 321 321 320 320 319 315 292 292 293 294 293 294 300 318 321 319 319 321 321 320 320 320 319 320 323 320 318 317 318 311 305 297 296 296 296 296 294 293 293 297 306 305 305 304 304 306
320 321 321 321 322 321 321 321 322 322 321 322 321 321 321 320 319 320 321 320 319 315 312 294 291 293 293 292 293 294 318 318 319 318 318 319 319 318 318 318 317 318 319 316 311 316 315 311 309 308 308 309 306 301 297 297 297 297 301 305 304 303 308
320 319 319 319 321 320 320 320 321 321 321 321 320 319 319 319 319 319 320 319 313 312 311 291 291 292 292 292 292 293 316 319 318 316 318 318 318 318 317 319 317 316 313 307 301 301 311 314 315 315 313 310 307 305 302 300 299 301 304 306 305 306 302
318 319 319 319 320 319 320 320 320 322 322 321 322 321 320 321 320 319 319 314 312 311 307 291 292 293 293 292 291 309 318 316 316 315 316 315 311 309 310 311 316 313 308 304 296 292 295 304 313 312 311 308 306 302 297 295 293 295 298 299 298 299 299
317 316 316 317 318 319 320 320 320 320 320 320 320 320 319 319 319 318 316 313 311 310 309 295 291 293 293 291 299 316 318 316 313 314 314 311 307 304 303 308 314 309 306 300 292 291 292 300 311 311 310 309 307 304 300 298 292 291 291 291 291 291 290
317 315 318 314 314 317 318 319 318 318 318 317 316 317 316 316 317 316 313 312 311 309 310 300 291 292 292 291 294 308 313 315 312 311 311 310 307 302 301 303 309 306 302 298 291 291 293 304 309 309 310 309 306 303 302 302 303 300 291 291 291 290 290
312 313 312 314 317 317 316 316 315 316 315 314 314 314 314 313 313 314 314 312 310 311 310 302 290 293 291 291 296 310 311 311 309 310 310 309 307 303 299 297 298 298 298 293 290 291 292 301 307 306 306 305 305 304 303 304 303 301 300 300 298 296 296
314 312 312 315 317 317 319 318 318 317 317 314 312 312 311 311 311 311 313 312 311 311 310 309 299 290 291 291 291 303 312 311 310 309 308 308 307 304 301 297 294 290 290 290 290 291 292 294 304 303 302 301 300 299 299 304 300 300 299 299 299 301 301
313 318 318 317 315 317 317 316 316 316 316 316 316 315 311 312 311 312 312 313 313 312 311 310 305 289 287 289 290 298 310 312 308 308 306 307 306 305 302 298 295 291 290 290 291 291 292 292 295 298 297 296 295 295 294 300 299 294 299 299 299 299 300
312 312 313 315 316 315 316 318 315 316 315 313 314 314 314 312 311 310 311 311 311 313 311 308 308 293 289 292 292 296 310 313 304 308 308 307 306 304 301 298 295 291 290 290 290 291 291 291 292 295 290 289 289 288 293 294 297 299 300 300 299 297 297
310 312 312 312 312 312 314 316 317 316 315 313 312 313 312 312 311 311 310 310 310 312 312 308 301 303 293 294 291 290 291 303 295 310 307 306 304 303 301 297 294 291 290 290 290 290 290 292 292 290 288 289 288 288 291 294 295 298 296 296 297 295 294
308 310 311 312 310 311 312 313 312 313 312 311 310 309 309 310 310 308 308 308 309 310 312 310 301 300 298 293 291 291 292 290 293 304 307 307 305 302 298 295 292 289 289 289 289 289 290 291 291 288 288 288 288 290 292 294 294 296 294 294 294 294 294

ECMWFFLT1_sfc_thetae_057.txt.gz
Theta_e
320 320 321 321 323 323 322 322 320 319 320 320 320 321 321 323 323 320 319 322 323 324 324 322 322 322 324 325 324 323 324 325 322 321 319 319 317 319 322 322 323 324 323 321 320 316 315 312 314 320 322 323 321 324 327 326 325 325 325 326 326 326 327
322 322 323 323 322 323 320 321 321 318 316 318 319 318 317 320 322 320 319 319 320 321 324 322 320 320 319 319 320 321 320 322 322 321 320 319 319 319 319 319 322 320 320 321 321 319 314 313 313 314 314 320 320 321 325 325 326 326 326 327 328 327 325
321 321 321 320 320 321 319 318 318 318 317 318 319 319 318 320 318 318 318 320 319 319 319 318 319 319 318 319 319 319 320 320 320 320 319 319 320 321 319 320 318 317 319 319 317 318 317 315 312 312 314 314 314 317 321 321 323 324 326 326 324 321 318
319 320 319 319 320 318 318 318 317 317 317 316 316 317 317 319 319 321 318 320 321 323 320 318 318 319 320 320 319 319 319 318 317 317 316 316 316 314 315 318 319 319 316 315 316 317 315 312 312 312 314 315 315 315 318 321 323 325 326 325 322 317 316
321 320 319 319 317 317 318 318 316 315 316 317 317 314 314 315 317 317 318 318 319 317 317 318 318 318 318 318 318 317 317 317 317 316 314 314 313 311 311 311 312 315 316 318 319 318 316 315 314 313 313 315 315 315 319 319 324 325 325 318 316 316 314
321 320 320 319 318 318 318 317 315 315 315 314 313 314 315 317 316 314 314 314 315 316 316 317 317 318 318 315 315 315 316 316 315 314 313 312 313 311 308 310 312 312 312 314 321 319 318 317 315 312 314 314 309 312 315 317 315 317 316 315 315 315 314
320 320 320 319 319 319 318 316 315 315 314 313 315 316 315 316 316 316 316 316 315 315 316 315 316 315 314 314 314 313 312 313 314 313 313 313 313 312 312 310 310 311 311 313 318 320 318 317 314 313 313 311 310 312 312 311 313 311 311 313 314 313 311
321 321 320 320 320 319 318 317 316 316 315 316 317 316 316 314 314 313 314 314 314 314 314 315 315 313 313 313 314 314 313 313 313 314 313 314 315 312 311 310 311 310 310 312 311 315 319 317 315 314 310 307 306 306 306 307 308 310 310 311 314 313 312
322 322 321 321 320 319 318 317 316 315 316 317 316 315 316 316 315 316 316 315 316 316 315 314 315 315 314 313 311 311 312 318 313 312 312 312 312 311 310 311 311 310 312 312 313 312 313 316 316 315 312 309 303 300 302 304 305 307 312 309 310 313 314
321 320 320 320 319 318 319 318 316 317 317 316 317 318 316 315 315 315 316 314 313 313 313 314 313 312 312 313 312 311 312 312 313 311 312 312 311 311 310 310 310 311 311 310 311 312 312 312 314 313 314 312 306 302 299 299 301 302 307 310 305 309 312
321 320 321 320 319 319 319 318 318 317 316 318 319 318 316 318 319 320 313 313 313 314 315 315 315 315 314 313 313 312 313 313 313 312 313 313 313 313 312 313 312 311 311 311 311 309 310 311 312 311 312 312 309 304 301 299 300 303 302 305 305 305 309
322 321 322 320 320 319 319 318 317 317 318 318 318 317 317 317 317 316 315 316 317 316 314 315 314 314 315 315 315 313 312 311 311 311 312 312 311 311 310 310 310 311 312 311 311 311 310 310 311 309 309 311 310 306 304 302 298 302 303 302 304 307 307
323 322 320 319 319 320 320 318 317 317 317 318 318 318 317 317 317 316 316 317 316 316 317 315 314 315 315 315 313 312 311 313 313 312 314 313 314 310 309 309 309 310 310 309 309 310 308 309 310 309 309 309 309 307 305 302 300 301 305 301 302 304 306
324 323 321 320 321 322 321 320 319 319 320 319 318 318 317 317 317 318 317 316 315 315 316 317 317 317 317 314 314 314 314 309 308 309 312 310 312 311 310 308 309 310 310 310 309 308 309 309 309 310 310 309 307 306 305 302 300 300 303 307 303 303 305
323 322 322 322 322 321 321 321 320 319 319 319 318 318 317 318 317 318 317 317 317 318 318 316 318 318 317 316 315 320 318 314 312 314 311 310 311 314 309 308 310 311 312 310 311 309 310 310 308 307 309 309 308 309 306 304 301 299 299 303 304 306 304
323 320 320 320 320 320 321 321 321 319 319 318 318 318 318 319 318 318 318 318 318 318 318 317 319 318 317 317 317 317 318 315 314 315 315 313 313 313 311 311 311 312 315 312 312 312 311 311 311 309 309 310 310 309 310 308 304 302 300 302 305 304 306
318 319 319 319 319 320 320 321 320 319 318 317 318 318 319 319 319 317 317 318 317 317 318 318 319 318 319 319 319 318 318 317 317 316 316 316 317 317 315 313 313 313 313 312 312 312 311 311 311 310 310 309 310 311 311 311 309 305 302 303 305 305 309
318 319 319 320 319 319 319 319 319 316 317 316 317 318 318 318 318 318 318 317 317 317 319 319 320 320 321 319 318 317 317 317 318 316 316 317 319 316 316 315 316 316 313 314 313 311 312 311 311 311 311 310 309 311 314 313 311 311 308 306 306 308 308
318 318 319 319 319 318 317 317 318 318 318 316 317 318 316 317 317 317 316 316 317 318 318 319 320 320 319 318 317 317 317 317 318 317 317 317 316 316 314 316 317 316 317 316 315 313 312 311 312 311 311 311 310 310 310 310 312 312 311 309 307 308 310
317 317 317 317 317 318 317 316 317 318 319 318 318 317 316 317 317 316 317 317 318 318 318 319 321 321 320 318 317 317 316 315 317 315 316 317 317 318 317 317 316 317 317 317 317 316 313 312 313 309 310 311 311 309 309 309 310 310 309 308 308 308 307
317 317 317 319 318 319 318 318 317 318 319 318 318 318 317 318 318 318 318 317 318 318 317 318 319 319 319 318 316 316 315 315 316 315 313 315 316 317 317 318 318 317 316 315 315 316 316 316 314 313 311 311 310 310 308 307 307 307 306 306 306 304 306
318 316 317 317 318 319 320 318 317 318 318 318 318 319 319 318 317 317 316 317 316 317 318 316 313 314 318 317 317 317 316 315 315 313 312 313 314 315 317 317 317 315 318 315 310 310 311 315 315 312 309 310 309 309 307 306 306 304 303 304 304 304 305
319 318 317 317 317 317 317 318 316 316 317 317 316 317 318 318 317 316 316 314 315 316 314 310 306 303 309 317 316 316 313 313 315 314 313 313 314 315 315 314 317 322 315 312 307 300 300 303 308 311 308 307 308 308 306 304 304 304 304 302 302 301 302
318 318 317 317 318 318 318 318 316 315 315 316 318 318 319 317 316 315 315 315 314 316 312 306 296 294 296 303 316 314 314 314 314 314 313 313 314 315 314 317 314 316 314 310 302 297 297 297 296 297 298 302 307 307 304 303 303 302 301 302 301 301 299
317 317 317 317 317 318 316 316 315 316 315 316 317 318 318 317 316 315 314 314 314 314 308 299 293 294 296 298 307 316 316 316 316 315 313 313 314 315 316 317 314 315 313 311 305 302 299 296 295 295 294 294 294 295 299 303 301 300 299 299 300 300 299
316 317 317 317 316 316 316 315 315 315 314 315 317 317 317 317 316 315 315 315 314 312 305 293 293 294 294 294 295 305 316 317 317 316 315 314 315 314 315 317 316 316 315 318 313 307 304 300 297 296 296 295 295 295 293 294 298 302 301 299 298 299 300
317 316 316 317 317 316 316 315 314 312 313 314 314 314 314 314 313 313 314 313 313 309 304 294 292 293 293 292 291 296 311 315 315 314 314 314 313 312 314 315 312 306 303 304 307 309 306 304 303 303 302 301 300 299 296 295 295 296 300 302 300 299 299
316 316 316 316 314 313 313 313 314 314 314 314 313 313 313 312 312 312 312 311 309 307 303 291 292 292 292 292 291 292 307 312 311 311 309 308 308 308 311 313 308 303 301 299 298 300 306 307 306 306 303 301 299 297 296 296 297 299 300 301 300 299 297
315 315 314 314 314 313 312 312 312 312 312 311 310 310 310 311 312 312 311 307 306 305 297 289 292 292 291 292 292 302 308 309 309 307 305 304 304 306 309 307 303 300 299 297 295 294 298 303 306 306 301 300 296 293 292 294 292 295 297 296 296 295 295
314 314 313 314 313 313 313 313 313 313 313 312 312 312 312 313 313 312 308 306 305 303 300 292 291 291 291 290 296 307 307 309 307 305 303 302 304 306 306 303 301 299 298 296 294 293 297 301 304 304 302 299 297 294 293 294 292 291 292 292 293 293 292
309 310 310 311 310 312 313 313 314 313 313 312 312 312 312 311 311 310 306 305 305 303 300 293 291 291 291 290 296 304 306 307 305 303 301 300 301 303 305 305 303 298 297 295 293 295 296 301 301 300 302 301 298 296 295 297 297 294 291 291 290 290 290
304 304 305 307 309 309 310 312 311 311 311 311 311 309 310 311 310 308 306 305 307 304 301 295 290 290 290 289 294 304 303 305 304 303 301 298 297 297 298 300 301 298 297 294 293 295 296 299 300 300 301 300 298 295 294 296 296 296 296 296 295 294 294
303 304 305 305 305 307 307 307 307 309 307 310 311 309 308 309 309 308 306 305 305 304 302 298 292 290 290 289 291 297 302 303 303 302 300 299 297 294 293 293 294 291 291 292 292 293 294 295 298 297 298 297 294 293 292 295 295 293 294 295 293 293 294
302 304 305 306 306 305 305 305 304 306 305 305 305 305 305 304 307 307 306 304 304 303 303 301 294 288 289 289 288 294 302 301 303 303 301 299 297 295 293 292 291 291 291 291 292 292 292 292 293 294 293 292 292 292 292 292 293 295 294 294 293 293 293
302 305 306 305 305 304 304 305 305 304 303 302 302 302 302 303 303 305 305 304 304 303 304 303 298 288 288 289 292 293 303 301 300 304 301 300 297 295 293 292 292 291 290 290 291 291 291 291 291 292 290 289 288 288 289 290 290 290 292 293 292 290 289
301 304 303 303 303 303 303 303 304 305 304 303 302 301 301 301 302 303 303 303 303 303 303 302 298 294 289 292 289 289 292 294 296 303 302 300 298 296 293 292 293 292 290 290 290 290 290 290 290 289 288 288 287 289 290 288 289 289 289 289 289 289 289
300 299 299 300 300 301 302 303 303 304 303 303 301 302 300 301 302 302 302 301 302 302 302 302 297 296 293 291 289 290 291 291 294 300 303 301 299 296 294 292 292 289 290 290 290 290 289 290 288 288 288 288 288 290 289 288 289 290 288 286 287 288 290

ECMWFFLT1_sfc_thetae_060.txt.gz
Theta_e
318 317 319 319 320 321 319 319 320 319 318 318 318 319 320 320 318 318 320 320 321 321 322 320 319 319 321 321 321 320 321 320 319 320 317 317 317 317 319 318 319 320 318 315 316 315 315 314 315 319 318 318 320 323 325 324 323 323 323 325 327 328 326
318 319 320 321 320 319 317 317 317 316 317 316 317 317 318 319 319 318 319 320 320 320 321 318 317 318 317 318 318 319 319 318 319 318 318 316 317 317 316 316 317 316 317 317 317 315 312 313 313 314 315 320 320 321 323 323 322 324 324 326 325 322 319
319 319 319 318 318 317 316 314 315 315 315 315 316 316 315 315 317 319 319 318 317 319 319 316 316 317 317 317 316 316 316 315 314 317 316 315 315 316 316 317 315 314 316 315 312 314 313 310 312 311 312 314 315 317 320 321 323 323 323 320 317 316 315
318 318 318 317 317 315 314 314 314 314 314 314 315 316 316 317 318 320 317 316 317 320 318 317 317 316 315 315 315 315 314 313 312 312 312 311 311 312 314 315 316 318 315 312 313 312 310 310 310 309 310 311 315 315 315 319 321 322 321 317 314 313 313
319 318 318 317 316 314 314 313 312 312 312 312 312 312 313 315 316 315 316 315 316 315 315 315 315 316 315 315 314 314 313 312 312 312 310 309 309 309 308 309 311 313 313 316 316 315 314 314 314 312 311 312 314 315 320 318 322 322 318 313 313 311 310
319 319 319 317 316 315 313 312 311 311 310 311 310 313 311 312 313 313 313 314 314 315 315 315 313 313 313 313 313 312 312 311 310 310 310 308 308 308 307 308 309 311 312 317 317 316 315 315 315 312 311 310 310 314 315 318 315 313 313 312 310 310 310
319 319 318 317 317 316 314 312 312 311 310 310 312 312 311 312 312 313 314 313 313 314 314 312 312 311 311 311 311 310 310 309 311 310 309 309 308 307 308 309 309 310 311 317 317 317 315 314 311 312 311 308 312 314 313 309 311 308 309 311 311 311 310
319 318 317 318 318 316 313 313 312 311 311 312 312 311 313 312 312 311 311 312 313 313 312 311 313 310 310 311 311 311 310 310 311 311 309 309 310 309 308 308 309 309 310 313 317 317 316 315 314 312 311 309 306 306 306 306 306 306 307 308 309 309 309
320 318 318 318 318 316 314 314 313 312 313 313 311 311 311 311 311 311 312 312 311 311 311 310 310 311 309 310 309 310 311 313 310 309 308 308 308 307 307 307 308 307 309 311 313 314 315 314 313 310 309 311 308 302 302 303 303 305 309 306 308 310 308
318 317 317 317 317 316 316 315 314 314 315 313 313 312 312 311 310 311 312 311 311 311 310 310 310 309 308 309 309 308 309 309 311 308 308 309 306 307 309 309 308 308 307 308 310 313 315 315 315 312 311 310 307 304 300 299 301 301 307 306 304 307 310
319 318 318 317 316 316 315 315 316 315 314 314 315 315 312 311 312 316 310 309 309 310 309 309 309 308 309 308 308 308 309 310 310 310 309 308 308 309 309 309 309 309 308 308 308 308 309 311 311 313 312 309 306 306 303 301 301 299 303 304 301 303 308
319 318 318 318 318 317 315 316 316 315 315 316 316 315 315 315 313 310 309 309 311 310 309 310 310 310 309 309 310 310 309 309 308 308 307 309 308 308 307 307 307 307 306 307 307 307 307 307 306 307 310 308 307 306 304 302 298 300 302 302 302 306 308
320 320 318 318 318 317 317 316 316 316 316 316 315 317 316 314 312 310 312 312 311 310 311 311 311 310 310 309 309 310 308 308 308 308 308 308 309 307 306 306 306 307 306 307 307 306 306 307 306 307 308 307 305 304 304 301 300 301 301 299 300 304 308
320 319 319 319 318 317 317 317 317 317 317 316 317 317 316 315 314 313 313 312 311 311 310 310 311 310 310 308 308 308 309 308 308 307 308 308 309 307 307 307 307 308 307 308 306 307 306 305 306 307 306 305 304 303 302 300 299 298 301 302 301 303 304
320 320 320 320 319 317 317 317 318 318 317 317 318 317 316 316 316 315 313 313 312 312 311 311 312 312 311 311 310 312 308 307 308 307 307 308 307 309 306 308 309 309 309 309 307 308 307 306 305 305 305 305 303 303 302 300 298 297 297 301 301 302 302
320 321 320 319 318 318 318 318 319 318 318 318 318 317 317 317 317 315 315 314 314 314 314 314 313 313 313 314 313 311 311 310 311 310 310 309 310 309 308 308 308 308 311 309 308 307 308 308 307 308 307 306 305 304 305 302 300 298 299 300 301 301 301
319 319 318 317 318 318 319 319 319 319 318 318 318 317 317 317 317 316 316 315 314 313 314 314 313 313 315 316 315 315 313 313 312 312 313 313 313 311 309 310 310 309 309 309 307 307 308 308 308 307 307 306 308 307 306 304 301 298 298 301 302 301 304
319 319 318 319 318 319 319 318 318 318 318 317 317 317 317 317 316 316 316 315 315 315 318 318 317 316 315 315 316 316 315 314 313 313 313 314 318 313 312 311 312 311 310 309 307 307 307 308 308 308 307 307 308 308 309 308 306 304 302 300 302 305 304
318 318 318 318 318 319 319 318 317 318 318 317 317 318 317 317 317 316 316 315 316 317 317 317 317 316 316 315 315 315 314 314 314 313 312 313 314 314 314 314 313 312 312 311 308 308 307 307 308 308 307 307 308 309 309 308 308 307 306 302 302 305 305
317 317 318 318 317 318 319 318 317 318 317 317 317 317 316 316 316 316 316 316 317 317 317 317 317 316 315 314 315 315 314 313 313 313 313 313 314 313 314 315 313 312 312 312 311 310 308 307 309 307 307 308 307 308 308 307 308 307 306 305 303 303 304
315 316 315 315 317 317 316 315 315 315 316 314 315 316 316 316 315 316 316 317 317 317 317 317 316 316 315 314 314 313 313 313 312 312 311 311 313 313 313 313 314 313 312 311 312 310 311 311 309 308 307 308 307 307 306 305 305 304 303 303 300 301 299
315 316 317 316 315 316 317 315 315 314 313 312 315 315 316 316 316 315 315 316 316 316 317 316 316 315 315 314 312 313 312 312 313 311 309 311 311 312 313 313 313 312 313 316 312 313 314 313 311 309 307 306 307 306 304 304 303 301 300 301 300 299 298
315 315 315 316 314 315 316 315 315 314 314 314 315 316 316 316 315 315 314 313 314 314 313 312 312 310 311 315 314 314 312 312 313 312 311 309 310 312 313 312 315 319 313 311 307 302 302 306 310 311 308 308 307 305 303 303 302 301 301 301 298 297 298
313 313 313 312 313 314 315 314 313 314 314 315 315 315 315 315 314 314 314 314 313 313 312 311 302 300 303 307 314 314 313 313 313 312 312 312 312 313 312 313 313 314 312 309 302 297 297 297 298 299 300 304 308 308 305 302 300 299 299 299 297 297 296
314 313 313 313 312 314 312 313 313 313 314 314 315 314 314 314 314 314 314 313 313 312 310 305 295 296 297 298 305 313 312 312 313 312 312 312 312 313 313 314 312 312 309 306 304 302 299 296 294 295 295 295 295 297 300 302 300 298 297 299 298 297 296
314 312 312 311 311 311 311 313 313 313 313 313 314 314 314 313 312 312 312 313 312 311 308 297 294 295 296 296 297 306 312 312 313 312 312 312 313 313 313 313 312 312 312 312 309 303 302 299 296 295 296 296 296 295 294 296 298 302 300 299 299 297 296
313 313 311 311 311 311 310 309 309 309 311 311 313 312 310 311 311 311 311 312 311 310 308 296 293 294 295 295 295 298 311 310 310 311 311 311 312 312 313 311 308 306 307 308 305 304 302 301 300 301 300 299 299 298 296 294 295 296 299 300 299 299 298
312 313 312 312 311 311 310 307 309 308 311 311 311 311 311 310 310 310 310 310 309 307 307 294 292 293 294 294 292 292 304 310 308 307 307 310 312 312 311 308 305 304 303 303 305 304 304 302 302 301 299 297 295 295 294 296 296 297 298 298 298 299 298
309 309 309 310 310 309 307 309 309 306 307 307 307 307 308 307 308 309 308 307 305 305 298 290 291 292 292 292 291 297 305 308 306 303 303 303 306 310 307 304 302 301 300 299 300 299 302 305 303 300 297 294 292 291 292 294 292 296 298 297 297 297 296
309 310 310 309 307 307 308 308 307 309 310 309 309 309 309 308 309 309 306 305 305 303 299 291 291 291 291 290 292 303 306 305 303 302 302 303 305 305 303 302 301 299 299 298 296 295 298 302 302 299 296 294 293 293 292 293 293 292 293 294 294 294 293
306 306 306 308 307 306 305 306 308 307 308 308 307 309 309 307 307 308 305 304 304 302 300 293 291 291 290 289 297 305 305 303 301 301 300 300 301 301 302 304 303 299 299 298 294 295 297 303 302 299 297 295 294 293 292 294 294 292 292 291 291 291 291
302 302 302 303 304 305 306 306 306 307 307 306 307 306 307 308 305 305 304 303 306 302 298 293 290 289 289 288 295 304 304 302 300 299 300 298 296 300 300 301 302 300 300 297 292 294 295 300 302 300 298 296 295 293 293 292 293 293 293 293 292 292 291
299 299 299 299 301 302 303 303 304 306 305 305 306 305 304 304 305 305 301 300 303 301 299 296 291 288 289 288 293 301 303 302 299 298 298 299 296 293 293 293 294 293 293 292 292 293 294 297 300 299 298 296 294 294 292 293 293 291 292 292 291 290 291
298 298 298 298 299 299 299 300 300 301 304 305 303 302 303 303 304 303 301 300 300 299 300 298 293 287 289 289 289 297 303 303 300 299 297 297 296 295 293 291 291 292 292 292 292 292 293 294 296 297 295 293 291 292 291 292 291 294 290 291 290 290 290
299 299 298 297 297 297 298 299 299 301 301 301 302 305 301 300 303 304 302 300 300 300 301 301 295 289 288 289 289 292 301 302 301 300 298 297 295 294 294 292 292 292 291 291 291 292 292 292 292 293 290 289 288 289 291 290 290 290 291 290 288 288 288
298 298 298 297 297 296 297 297 297 298 299 301 300 299 299 300 301 302 303 303 301 300 298 299 295 290 288 290 290 292 295 297 296 301 300 297 296 295 292 292 293 292 290 290 290 290 290 291 292 290 288 288 288 289 290 290 289 289 287 287 288 287 286
296 297 296 296 296 296 296 296 296 296 297 298 299 299 299 297 298 299 303 304 301 300 300 298 296 293 290 290 290 292 292 293 296 301 301 300 297 294 292 291 292 290 290 290 290 290 290 290 289 288 288 289 289 291 289 289 287 288 287 287 287 286 286

ECMWFFLT1_sfc_thetae_063.txt.gz
Theta_e
321 319 318 317 317 319 318 317 317 315 316 317 316 316 317 320 318 317 317 318 318 318 320 319 317 316 319 319 317 317 319 320 319 319 317 316 317 315 316 316 317 317 313 310 314 314 314 312 315 320 322 323 324 324 324 324 324 325 325 327 325 323 322
319 319 320 320 318 318 316 314 315 314 314 313 315 316 315 319 321 318 317 318 318 317 318 317 314 315 315 316 317 317 317 316 316 316 317 314 313 314 315 314 316 314 315 315 314 313 313 313 313 314 316 322 323 323 323 325 325 326 324 321 320 318 318
319 319 318 316 315 315 315 313 313 313 313 313 313 312 314 316 318 319 318 317 315 316 317 314 314 314 314 314 313 314 315 315 314 317 317 314 314 313 314 315 314 312 314 313 311 313 312 311 313 313 315 316 315 318 323 323 322 321 318 317 315 315 315
318 318 316 315 314 313 313 312 312 312 312 313 314 314 314 316 316 318 315 314 316 319 316 314 313 314 312 312 312 312 312 313 312 312 312 311 311 313 313 316 317 316 313 309 312 311 308 309 313 314 315 317 318 317 319 322 320 317 314 313 312 311 311
319 318 316 314 313 313 312 311 311 312 311 311 311 312 313 314 316 315 316 314 315 313 312 312 312 313 312 312 311 310 310 309 310 310 308 308 308 308 310 312 315 314 311 314 315 314 313 314 315 313 314 316 318 318 320 319 316 312 311 310 309 309 309
318 317 316 315 314 313 312 310 311 310 310 312 310 312 310 312 314 313 313 313 311 312 312 312 311 311 310 310 310 309 308 308 307 307 307 306 307 309 307 307 310 312 313 315 315 314 314 315 315 312 308 311 314 315 317 313 310 309 309 309 308 308 308
317 317 316 315 314 313 313 312 311 310 310 311 310 311 310 311 311 312 312 310 311 311 311 309 309 310 309 309 308 308 308 306 307 307 307 306 306 305 306 308 308 311 313 316 315 316 315 315 312 312 311 312 314 314 311 307 309 307 308 308 308 308 308
318 317 315 316 314 312 312 312 311 309 310 310 311 310 312 310 310 310 311 311 310 310 309 310 311 308 309 310 309 309 309 306 307 308 306 306 308 306 306 308 310 312 314 314 315 315 316 316 315 313 313 310 307 303 302 303 302 304 305 307 307 307 307
319 317 316 316 313 313 313 313 311 310 311 311 310 311 311 309 310 311 311 309 308 308 308 307 307 307 307 309 307 308 308 311 307 306 304 306 306 305 305 305 309 308 312 315 315 315 315 314 313 312 314 312 309 301 300 302 299 302 306 305 307 306 307
317 316 316 314 313 312 313 312 312 312 312 311 312 310 309 308 309 310 310 308 308 308 307 308 307 306 306 307 306 306 306 306 307 305 305 307 304 305 306 305 306 307 309 313 315 315 314 313 313 313 314 313 310 305 298 298 299 299 305 304 303 306 307
318 317 316 314 313 312 311 312 313 314 313 313 313 313 309 309 312 313 308 307 307 307 307 307 306 305 305 305 305 305 305 306 307 305 306 306 305 306 306 306 305 306 306 312 313 314 314 314 312 312 311 308 308 307 300 301 301 298 302 303 300 305 306
318 318 317 315 314 313 312 312 312 312 312 313 313 311 310 310 307 307 307 307 307 307 307 306 306 306 306 306 307 306 305 305 305 304 305 306 306 305 305 305 304 305 305 307 308 308 309 312 312 310 310 308 306 305 306 302 301 301 303 304 302 301 306
318 318 317 315 315 313 313 313 312 310 311 313 313 313 311 309 308 307 308 308 307 307 307 308 307 307 306 306 306 307 305 305 306 304 304 304 306 305 305 305 304 304 304 305 305 305 306 306 308 310 310 309 305 305 305 302 301 303 301 300 299 302 307
317 317 317 316 315 314 314 314 312 312 312 311 314 313 311 309 308 309 309 309 307 307 307 308 308 307 307 306 305 305 305 305 306 305 306 305 305 305 307 306 305 305 304 305 303 304 304 304 305 307 309 307 305 304 305 299 299 299 300 298 299 303 304
317 317 317 316 315 315 315 314 313 313 312 312 314 314 312 311 309 310 308 308 307 307 308 308 308 307 307 307 306 308 305 305 304 304 304 304 303 306 306 307 306 305 305 305 304 305 303 304 304 305 305 306 305 304 302 298 298 299 300 299 300 300 302
318 318 317 316 316 316 315 315 316 313 313 314 315 315 313 313 312 310 310 309 308 308 308 308 309 308 307 307 308 307 308 305 305 305 305 306 306 305 307 307 305 305 307 306 304 304 304 304 303 304 303 303 304 303 301 299 297 297 298 298 299 300 301
318 317 317 316 316 315 316 316 316 315 315 315 316 315 315 314 312 310 311 310 311 311 310 311 310 310 310 309 308 310 309 308 308 307 308 308 307 306 306 307 306 305 305 306 304 305 304 304 305 305 304 303 302 302 301 300 299 296 296 299 299 300 300
317 317 317 317 316 316 316 316 315 315 315 315 316 315 316 315 314 312 312 311 314 314 314 314 313 311 311 310 310 310 309 309 309 309 309 310 315 307 308 307 308 306 305 306 304 304 304 305 305 306 306 305 306 305 305 303 301 299 299 298 299 301 301
317 316 317 317 316 317 317 316 316 316 316 316 315 316 316 315 315 312 310 311 312 313 313 313 312 312 310 310 310 310 310 310 310 310 310 309 310 310 309 309 309 307 306 306 304 304 304 304 305 304 305 305 305 305 304 302 301 300 299 298 300 302 302
317 317 316 316 317 317 317 316 316 316 316 317 316 315 315 315 314 314 313 312 313 314 313 313 313 313 312 311 311 312 311 310 310 310 311 311 311 311 312 311 309 308 308 308 307 305 304 304 306 304 304 305 304 306 305 302 303 303 303 302 300 300 301
317 318 318 317 317 317 316 316 316 317 316 315 316 315 315 315 314 313 314 315 315 314 314 313 313 313 313 313 312 310 310 311 310 309 308 307 309 311 311 311 311 310 309 309 309 306 307 306 305 305 303 304 305 305 304 303 302 302 301 299 297 299 297
318 317 317 316 316 315 315 316 316 316 315 315 316 315 313 312 312 311 311 313 314 315 316 316 315 314 313 313 311 312 311 311 311 310 309 309 309 308 310 311 309 309 313 317 312 310 311 311 309 306 304 303 304 304 302 302 302 300 300 300 299 295 296
316 316 316 316 315 315 315 314 314 314 314 313 312 311 312 312 312 313 313 312 313 314 315 316 314 310 311 315 313 312 310 309 309 309 309 308 308 309 310 308 312 319 314 313 310 306 304 306 309 309 307 305 304 303 301 301 300 300 301 301 298 297 298
314 314 313 313 312 314 315 314 313 312 311 310 311 311 312 312 312 313 314 313 313 313 314 314 306 300 300 306 312 311 311 310 309 309 309 309 310 311 309 310 309 311 310 309 302 298 297 297 298 299 302 305 307 305 302 300 298 298 299 298 295 296 295
312 311 311 311 311 312 312 312 311 311 310 310 310 311 312 312 312 312 312 312 313 313 313 309 300 298 298 298 305 312 311 311 311 310 310 310 310 310 311 311 308 308 305 304 302 300 298 295 294 294 294 294 294 296 300 303 300 297 297 299 297 294 295
311 310 309 310 308 309 310 310 310 310 311 311 309 310 311 311 311 310 311 311 311 311 311 305 298 297 296 296 298 306 311 310 311 311 310 311 310 310 311 311 309 308 309 312 308 301 300 299 297 297 297 298 297 294 292 294 297 301 300 299 298 294 293
310 310 309 309 309 308 309 309 309 309 308 308 309 309 308 310 309 310 311 311 311 311 310 304 296 295 295 295 295 298 310 309 308 309 310 310 310 310 311 311 309 307 306 305 303 302 301 301 301 300 299 298 298 297 296 295 294 296 299 301 300 299 295
311 311 310 310 310 308 307 307 308 306 308 309 307 307 308 309 310 310 310 310 309 309 310 301 294 293 294 294 294 295 305 308 308 306 307 308 309 310 312 311 309 307 305 303 303 302 302 301 300 298 296 294 293 293 293 294 294 295 297 297 297 299 298
311 311 310 310 309 307 306 307 308 305 305 305 309 311 307 307 309 307 306 305 305 305 304 294 292 293 293 293 292 298 302 304 305 304 304 305 306 310 310 308 306 305 304 303 301 297 300 301 299 296 294 293 292 292 292 293 292 294 296 297 298 297 294
303 304 306 307 308 305 305 305 304 304 307 307 306 306 308 309 307 306 308 309 307 305 306 295 291 292 292 292 293 299 302 304 302 301 301 302 304 307 305 305 305 303 302 301 298 294 296 298 298 296 295 293 293 293 292 292 293 291 291 291 291 291 291
298 299 299 299 300 301 304 305 304 304 306 307 307 307 306 306 305 307 307 307 306 306 306 297 291 292 292 291 295 302 303 303 300 300 299 300 301 302 303 306 306 303 302 301 295 294 294 298 298 296 295 294 293 293 291 292 293 293 293 292 292 291 291
296 296 296 296 297 297 298 300 304 304 304 304 303 304 304 304 303 302 304 304 307 305 304 297 291 291 290 290 292 301 302 302 301 298 299 298 297 298 299 302 304 303 303 301 294 294 294 299 298 297 296 295 294 292 292 289 292 292 291 291 291 291 291
295 295 294 294 294 294 295 296 297 299 302 303 303 301 301 303 303 304 301 301 302 303 301 297 293 290 290 290 291 302 301 302 301 299 298 299 299 295 295 296 298 296 296 295 294 294 294 296 298 296 296 296 294 294 292 290 290 290 290 289 288 290 289
295 295 295 294 294 295 295 294 294 295 296 298 300 300 300 299 301 302 298 298 298 297 298 296 295 289 289 289 290 297 301 302 302 300 299 298 299 298 296 295 294 295 293 293 294 294 295 295 296 297 296 296 295 295 293 293 291 293 290 290 289 288 288
295 296 296 296 295 295 295 295 294 294 294 294 295 295 295 296 297 300 300 297 297 296 299 300 294 290 288 289 289 292 301 301 301 301 298 298 297 297 297 296 295 294 292 292 292 293 294 294 294 297 294 292 290 292 294 292 290 289 289 288 288 287 287
294 295 295 295 295 295 295 295 295 295 295 295 294 294 294 295 297 298 299 299 298 297 295 296 295 292 289 288 288 288 292 298 295 301 301 299 298 298 295 294 293 294 290 291 292 292 293 292 293 292 290 289 290 290 291 289 289 288 287 287 287 286 285
293 293 294 294 295 294 294 294 295 295 295 294 294 293 294 295 295 296 297 299 300 298 297 296 295 293 291 288 289 289 289 290 293 299 301 301 299 297 294 292 293 291 290 291 291 291 291 291 290 288 289 289 290 291 290 289 287 287 286 286 286 285 285

ECMWFFLT1_sfc_thetae_066.txt.gz
Theta_e
321 319 320 319 319 320 320 319 318 316 317 318 319 319 321 321 319 318 319 319 319 320 322 320 320 318 319 321 324 322 321 322 322 322 319 320 320 319 318 319 320 320 316 314 319 317 315 313 315 321 323 323 324 324 325 325 325 325 323 323 322 321 321
320 319 319 319 319 320 317 315 316 314 314 314 316 318 318 320 322 318 318 318 319 320 322 318 317 318 319 319 320 320 321 320 321 320 320 319 318 317 317 317 318 317 317 317 316 317 317 315 315 316 317 322 323 324 324 324 322 320 320 320 320 319 319
319 317 317 317 317 317 316 313 313 313 313 313 313 315 317 318 319 320 318 318 317 319 320 316 316 316 316 317 318 319 319 319 319 321 321 319 318 319 319 318 316 316 317 317 316 317 317 318 315 315 317 317 316 318 322 321 318 317 317 318 317 317 317
316 315 315 315 315 315 314 312 312 312 312 312 314 314 316 317 318 319 316 316 319 322 318 315 315 315 314 314 314 316 317 318 317 317 317 317 317 318 318 320 319 319 317 314 315 315 316 316 315 315 317 319 317 315 317 317 316 314 314 315 315 315 316
316 316 315 314 314 314 312 311 310 311 310 311 312 314 315 316 317 316 317 315 315 314 314 314 314 313 313 313 312 313 312 312 314 316 315 316 317 318 318 319 319 317 314 318 318 316 318 318 317 316 316 316 315 316 316 314 313 312 311 311 312 312 313
317 316 315 314 313 314 312 311 311 311 310 312 311 313 313 314 316 314 314 314 314 315 313 313 312 312 312 311 311 310 310 311 311 313 315 315 317 318 318 316 318 315 316 318 318 317 319 320 318 315 315 316 313 314 317 313 311 312 311 311 311 311 311
316 315 314 314 313 313 312 312 311 311 311 312 311 312 312 314 314 315 314 312 313 313 313 311 312 312 311 310 310 310 309 308 309 309 309 309 309 309 313 314 316 315 316 318 318 319 319 318 316 315 313 314 315 314 311 311 310 310 311 311 311 311 311
317 315 314 315 313 312 312 312 311 310 311 310 311 311 313 312 312 312 313 312 311 311 312 312 311 310 311 311 311 310 310 308 309 310 308 309 309 309 311 313 314 315 317 318 319 320 320 319 317 316 314 311 310 307 308 307 306 309 309 310 311 311 311
318 315 314 314 313 313 312 312 310 310 311 310 311 311 311 312 312 313 312 310 309 310 310 310 310 310 310 310 309 309 310 312 308 308 307 308 308 308 310 311 316 315 316 317 319 320 320 319 319 317 316 314 309 306 306 308 306 308 309 310 311 310 310
316 314 314 313 312 312 312 311 311 310 310 310 311 311 310 310 311 311 310 309 309 309 309 309 309 309 309 309 308 308 308 308 310 307 308 308 307 308 308 310 314 314 315 317 318 318 318 318 318 318 317 314 312 308 305 305 306 306 309 308 308 309 310
315 314 313 312 312 312 311 311 312 312 311 312 312 312 311 312 314 315 309 309 308 308 309 308 308 307 308 308 307 308 307 308 309 308 309 308 308 309 309 309 312 314 314 317 317 317 317 317 317 318 316 314 313 310 305 305 306 304 308 307 307 309 309
315 314 313 313 312 311 311 311 312 311 311 312 313 311 311 310 309 309 309 308 308 308 307 308 308 308 308 309 309 307 307 307 307 307 307 309 308 308 308 308 309 311 313 316 316 316 316 316 317 316 314 313 312 311 308 307 306 308 309 310 309 306 310
316 314 313 313 312 312 312 312 311 310 311 313 311 311 310 309 309 308 308 308 308 307 308 308 308 308 308 307 307 308 307 307 307 306 307 307 307 307 308 308 307 308 310 313 314 315 315 315 316 316 315 312 310 310 311 306 307 307 307 310 308 306 309
315 314 313 313 312 312 312 312 311 311 311 311 311 310 309 309 309 309 309 310 308 308 308 309 309 308 309 307 307 307 307 307 307 307 308 308 308 308 308 308 308 307 308 312 311 311 312 312 313 314 313 311 309 310 310 307 307 306 305 303 305 307 309
315 314 313 313 312 312 312 311 311 312 311 311 311 311 309 310 310 309 309 308 308 308 308 308 308 308 308 308 308 308 307 307 307 306 307 308 308 309 308 308 307 308 307 307 308 308 308 309 310 312 312 311 309 310 308 306 305 306 306 305 306 306 308
315 314 313 313 312 312 312 312 313 311 311 312 312 312 311 311 311 310 310 309 309 308 308 309 308 308 308 309 309 309 308 307 308 308 308 308 308 308 309 309 308 308 308 308 308 307 307 307 308 310 311 310 309 309 307 305 306 305 305 305 305 307 308
315 314 314 313 313 313 313 313 313 312 312 313 313 314 314 313 312 311 310 310 309 309 310 310 310 309 310 310 310 310 309 309 308 308 310 310 309 310 310 310 309 308 309 308 307 308 307 307 307 308 308 307 309 307 306 306 306 304 305 305 304 305 306
315 314 314 314 313 313 313 313 313 312 313 314 314 313 314 313 312 311 311 311 311 310 311 311 311 311 311 310 310 311 311 311 311 311 311 311 313 311 310 310 309 308 309 309 307 308 308 308 308 308 307 306 306 307 307 306 305 305 305 305 304 306 305
315 315 315 314 314 314 314 313 313 313 314 314 314 314 313 313 314 313 312 312 312 312 312 312 312 312 312 311 311 311 311 311 312 312 313 313 312 312 312 311 310 309 309 309 308 307 308 308 307 308 308 307 307 307 307 305 305 306 305 304 306 307 308
315 315 315 315 315 315 314 314 313 314 315 315 314 314 314 314 314 313 313 313 313 313 312 312 312 312 312 312 312 312 312 311 312 313 313 313 313 313 313 312 311 310 310 310 310 309 308 308 308 308 309 309 308 307 306 305 304 304 305 306 305 306 307
316 316 316 316 315 315 314 314 315 315 315 314 314 314 314 314 314 314 313 314 313 313 313 313 312 312 312 313 313 312 313 313 312 310 309 309 312 313 313 313 312 311 311 310 310 310 311 310 309 309 308 308 308 307 306 305 305 305 306 306 306 306 304
316 315 315 315 314 314 314 314 314 315 315 314 315 315 315 315 314 313 313 313 313 313 314 314 313 313 313 313 312 313 313 313 312 311 309 309 309 310 311 311 310 311 316 316 311 309 310 310 311 310 308 308 308 307 306 306 305 305 305 306 305 302 305
316 314 314 314 315 315 315 314 314 313 314 314 314 313 313 313 313 313 313 311 312 313 313 313 313 308 310 315 313 313 312 312 312 311 311 310 310 310 311 311 313 317 315 314 310 305 303 305 308 310 310 308 308 307 307 306 305 306 306 306 306 305 305
313 314 313 314 314 314 314 314 313 313 312 311 312 312 312 312 311 311 312 312 312 312 313 314 308 301 300 306 313 313 313 312 311 311 312 311 313 312 311 312 312 313 314 312 306 299 299 297 298 299 301 303 306 309 307 306 305 305 306 304 301 302 304
311 311 311 310 311 312 312 312 312 311 311 311 310 311 311 311 310 311 311 312 312 312 313 310 303 299 298 297 305 313 312 312 312 312 312 312 312 311 311 312 312 311 308 307 306 303 299 295 295 294 294 294 294 295 300 306 305 303 303 303 301 301 302
311 311 310 309 309 309 309 309 308 309 310 310 310 310 309 309 310 309 310 311 311 311 312 305 299 298 297 297 298 306 312 312 312 312 312 312 311 311 312 313 312 310 310 311 308 303 303 301 296 296 296 297 296 293 291 294 298 307 306 305 303 299 301
310 310 310 310 309 309 307 306 305 306 308 309 309 308 308 308 308 308 309 309 310 309 310 301 297 297 297 296 295 299 312 311 311 311 312 312 312 311 313 313 312 310 310 309 304 304 304 304 304 304 303 302 302 299 296 294 294 296 302 306 305 304 301
309 308 309 309 309 308 307 306 306 305 305 308 308 307 307 307 307 306 306 307 308 308 307 298 297 296 295 295 294 296 308 310 310 310 310 311 311 311 312 313 313 311 308 305 304 304 305 304 304 302 301 299 298 298 298 299 300 302 303 304 306 306 302
302 304 307 307 307 306 305 305 305 304 304 304 306 307 305 305 305 305 305 306 306 308 307 297 295 294 294 294 294 302 306 308 309 310 310 310 310 311 312 313 312 309 307 305 302 297 301 305 304 301 299 297 297 297 295 294 293 296 301 303 303 302 300
299 298 299 299 301 302 303 304 304 304 305 304 304 305 307 306 306 306 307 309 310 307 306 299 293 293 293 292 295 303 305 306 307 308 309 308 309 310 311 312 311 309 306 305 299 294 295 299 303 300 299 298 297 297 295 295 293 291 291 291 291 291 291
297 297 297 297 297 298 299 301 303 306 307 306 306 305 305 304 305 306 306 307 307 306 306 298 293 293 293 292 296 303 304 305 306 306 306 304 305 308 310 308 310 308 306 305 295 294 294 300 302 300 299 298 297 296 294 295 296 295 293 292 291 291 291
296 296 295 295 296 296 296 297 298 300 303 306 306 305 305 305 304 304 303 303 307 306 304 299 292 292 292 292 294 300 303 305 305 304 304 303 302 305 306 307 306 306 306 302 293 294 293 299 301 300 300 299 298 296 295 295 296 296 297 297 296 296 295
296 296 295 295 295 295 295 296 296 297 297 298 300 301 303 303 304 305 303 303 304 304 304 303 296 291 292 291 291 297 302 304 305 304 301 303 303 302 302 303 303 297 297 295 294 293 293 295 301 300 301 300 298 297 296 295 296 296 295 294 293 293 293
295 296 296 295 295 295 295 294 295 295 295 295 296 296 297 298 300 300 301 300 300 300 301 302 299 292 290 290 290 291 299 303 304 303 302 302 303 303 302 301 302 298 294 294 294 293 293 293 296 301 301 301 301 299 295 297 294 293 293 293 293 292 292
294 295 295 295 295 295 295 295 295 294 294 294 294 294 294 295 295 296 298 299 300 299 299 301 298 292 289 290 289 289 294 299 298 302 301 301 301 301 303 302 301 298 293 293 293 294 293 293 293 301 300 294 291 291 297 296 294 293 293 292 292 291 291
293 294 294 294 294 293 294 294 294 294 294 294 293 293 293 294 294 295 295 296 298 299 299 297 295 293 289 289 288 289 289 291 290 297 301 302 301 302 302 301 300 297 292 293 293 293 293 292 294 298 291 290 291 291 292 293 292 292 292 291 291 290 290
292 293 293 294 293 293 293 294 294 294 294 294 293 293 293 293 294 294 294 295 296 297 298 298 294 292 290 288 288 289 289 290 290 297 300 301 301 300 299 298 296 292 291 292 292 292 293 293 297 291 290 290 290 291 294 292 292 292 290 290 290 289 289

ECMWFFLT1_sfc_thetae_069.txt.gz
Theta_e
331 330 331 333 335 334 334 334 335 336 337 338 337 336 337 337 336 337 337 337 335 335 335 335 336 337 337 337 337 337 337 335 334 332 330 329 326 326 328 330 331 332 331 330 328 324 320 316 317 323 326 327 327 327 328 327 327 326 326 327 326 326 326
333 332 332 332 333 335 333 333 333 333 334 335 337 337 337 336 336 336 336 335 335 335 334 334 335 335 337 336 334 334 334 335 335 335 333 330 331 328 327 328 329 328 328 330 330 328 321 318 316 318 318 324 325 325 325 326 327 327 325 324 324 324 325
331 331 332 332 333 334 332 331 331 331 332 333 335 335 335 334 334 335 334 335 335 333 332 333 334 335 335 336 335 334 334 335 335 334 333 333 333 332 331 330 328 327 326 325 325 325 324 324 317 318 320 320 317 319 323 324 324 324 324 324 324 323 324
331 331 330 331 331 331 329 329 330 329 330 331 332 333 333 331 333 333 334 333 333 333 331 332 333 332 333 334 334 334 333 333 333 333 333 333 333 332 331 330 329 328 326 324 324 325 323 320 319 319 320 320 319 317 319 322 323 323 325 325 323 323 324
332 331 330 329 330 330 330 327 327 327 327 329 330 331 330 331 332 332 332 332 331 332 331 332 332 332 332 331 332 333 333 334 334 333 334 332 332 332 332 332 331 332 330 329 327 328 325 323 322 319 318 319 319 318 319 320 323 323 324 324 324 323 324
333 333 332 331 331 330 329 327 325 325 325 326 327 329 329 330 331 330 331 330 330 331 330 329 329 328 329 329 330 330 331 332 332 334 332 333 333 332 331 332 331 329 330 331 330 329 328 326 323 319 319 320 317 317 319 321 319 322 323 323 324 324 325
332 332 331 331 331 330 329 327 327 325 325 327 327 329 328 328 329 330 331 331 330 328 327 327 327 326 326 325 327 327 328 329 330 333 333 334 334 334 334 331 331 329 330 330 330 329 326 324 321 320 318 318 318 315 317 318 319 317 318 321 323 323 322
330 330 331 331 330 328 328 328 327 327 326 325 327 327 326 328 327 327 329 328 327 327 326 326 325 325 326 323 323 325 324 325 326 328 329 330 330 329 332 332 332 330 330 329 329 329 328 327 324 322 319 314 314 316 315 316 316 317 315 316 318 319 320
329 330 329 329 329 330 328 328 327 326 326 325 326 326 326 327 326 327 326 326 326 326 326 325 325 324 325 324 323 324 322 321 324 324 324 325 327 328 330 331 331 329 331 330 330 330 329 329 327 325 323 319 314 312 315 314 315 314 315 313 314 316 316
328 328 328 328 328 328 328 328 326 325 326 326 325 326 326 327 328 327 326 325 326 326 326 326 325 324 324 324 323 323 322 323 324 322 324 325 325 326 327 330 330 330 330 331 330 330 330 330 328 328 325 321 319 315 312 312 313 313 313 314 312 312 315
328 328 328 327 327 325 324 325 325 324 324 325 324 324 326 326 326 325 326 325 325 326 326 325 323 323 324 322 323 322 322 324 322 322 322 323 325 327 327 328 329 329 330 330 330 331 330 329 327 327 324 324 322 316 315 312 313 316 314 315 315 311 313
328 327 326 326 325 324 323 324 324 325 324 324 324 324 326 325 326 325 325 324 324 324 324 324 324 323 324 323 323 321 323 324 323 322 322 322 323 327 328 328 329 328 330 331 330 330 330 329 327 325 323 323 322 323 317 314 311 315 318 313 315 315 312
326 325 325 323 323 323 322 323 324 324 325 324 325 326 325 324 325 324 323 322 323 323 322 323 323 323 324 324 323 321 322 323 320 321 321 321 319 325 327 327 327 327 328 329 329 329 328 329 328 324 323 322 321 324 320 314 311 311 317 317 315 313 314
325 325 325 325 325 324 323 324 325 325 324 323 324 325 325 325 323 324 322 322 321 322 322 323 324 323 322 322 323 322 321 320 319 320 322 322 321 323 325 325 324 325 328 328 328 328 327 327 327 326 324 322 321 321 318 316 312 312 315 318 317 312 314
325 324 325 325 325 323 324 324 325 324 324 323 325 324 324 324 324 323 322 321 322 321 322 322 323 322 321 322 322 322 322 320 320 321 323 320 321 321 325 324 322 324 326 327 328 326 327 325 324 323 324 323 320 320 323 315 313 312 312 316 315 317 313
324 324 324 324 324 323 324 324 324 324 323 323 324 325 324 324 323 322 322 321 320 321 321 321 323 322 322 321 320 321 323 322 321 322 322 320 318 321 322 323 323 324 324 325 326 326 326 326 324 323 324 324 322 322 319 318 315 313 313 313 317 313 313
324 324 324 324 324 324 324 323 323 324 323 323 322 324 324 322 321 322 321 320 320 320 321 322 322 321 320 320 320 320 320 321 322 322 320 319 319 321 321 321 322 323 325 325 324 324 324 325 325 324 325 324 324 323 323 320 319 316 314 312 313 312 314
324 324 325 324 324 323 323 323 323 323 324 323 323 323 321 321 321 320 321 319 319 320 321 321 321 322 323 323 322 323 322 320 322 322 323 323 323 322 323 322 320 320 322 323 323 322 322 323 321 322 323 322 322 323 321 319 318 317 315 312 313 316 317
324 324 325 324 324 322 323 323 323 324 323 322 322 322 321 320 320 320 321 320 320 320 322 323 321 322 322 323 324 324 324 324 322 321 323 324 323 325 323 322 322 321 321 321 321 321 321 321 319 319 319 318 318 321 320 319 320 318 314 313 314 314 316
325 323 323 322 322 321 321 323 322 322 323 323 320 319 320 320 322 321 321 322 322 322 323 323 325 325 324 324 324 324 324 325 325 326 325 325 325 326 325 324 324 323 322 322 322 322 322 322 321 320 320 321 318 319 319 318 317 317 317 315 314 314 313
319 320 319 320 320 320 320 321 322 323 323 323 322 321 320 320 321 322 323 323 324 325 325 325 325 326 326 326 326 326 325 325 326 327 327 327 328 327 326 325 325 324 324 323 324 324 324 322 321 321 321 320 319 319 319 317 317 316 315 315 312 313 313
322 321 320 320 322 321 322 321 320 320 321 322 323 323 321 321 320 320 321 325 325 327 327 328 327 327 326 326 327 327 326 325 326 326 326 326 327 327 326 327 326 324 325 323 315 318 319 319 323 321 321 321 320 319 319 317 316 315 315 314 314 315 314
318 320 320 321 322 321 319 320 321 320 320 320 321 320 320 320 320 321 321 321 324 325 326 327 319 312 316 326 328 328 327 326 326 326 326 326 326 326 328 328 328 321 317 314 310 305 304 306 311 320 323 321 319 319 318 316 315 314 314 313 312 313 312
317 316 316 317 316 316 317 319 320 319 320 319 320 320 320 319 320 321 321 321 321 323 324 323 299 296 298 308 324 328 326 327 327 326 326 326 326 327 327 326 328 322 319 315 313 300 301 301 301 302 308 311 315 320 318 316 315 316 313 313 316 314 312
318 318 318 318 318 318 319 319 319 319 319 319 318 319 319 318 319 320 321 321 322 323 325 305 298 296 297 299 308 327 328 327 327 326 326 326 326 326 326 326 327 327 327 327 324 315 305 297 297 298 298 299 300 298 301 317 319 317 317 316 315 314 316
317 318 318 318 318 317 318 318 318 317 317 317 317 318 318 319 320 321 321 320 321 321 324 298 297 295 296 297 298 310 325 326 326 326 326 326 326 326 326 326 327 326 322 314 317 322 319 311 297 294 295 295 295 295 295 296 301 321 320 317 316 317 316
317 316 317 318 318 318 318 318 317 316 317 317 317 317 318 320 319 320 320 321 320 321 324 299 295 295 296 295 294 303 322 324 325 326 326 326 326 326 326 325 325 325 324 322 322 320 319 317 314 312 314 316 315 306 297 295 296 300 313 320 319 317 319
315 315 315 316 316 316 317 317 318 317 319 320 320 320 321 320 320 320 321 321 322 323 323 295 295 294 294 294 293 301 319 320 322 323 324 325 325 325 325 325 325 325 325 323 320 317 319 318 318 317 316 314 314 313 314 314 316 319 318 322 321 322 317
305 307 308 309 311 313 314 314 316 317 319 320 320 321 321 322 321 320 320 321 321 322 318 292 294 293 293 293 293 312 317 318 320 321 322 323 323 324 324 325 324 324 325 323 308 299 308 318 318 316 314 313 312 311 306 296 293 296 313 320 319 316 315
301 303 304 304 304 306 310 312 313 316 319 318 318 318 319 319 320 320 320 320 321 320 321 300 293 293 293 292 299 316 316 317 316 317 319 320 321 323 324 324 324 324 324 322 303 295 297 304 317 316 315 313 312 310 306 302 294 292 292 292 292 292 292
299 300 300 301 302 303 304 305 307 311 315 315 314 314 317 318 319 319 318 318 316 318 319 301 292 292 293 291 299 314 315 316 316 316 318 319 320 321 321 314 316 323 322 321 295 294 295 306 316 315 314 312 310 308 305 304 303 298 292 291 291 291 291
299 298 298 299 300 301 302 303 303 304 307 310 310 311 312 314 313 312 312 313 308 313 315 303 293 293 292 292 300 310 312 315 315 316 317 318 319 319 321 316 307 311 317 313 292 294 294 304 317 315 314 313 310 307 305 306 305 304 304 303 302 302 300
298 298 298 298 299 299 300 300 300 301 302 305 306 306 307 309 309 308 309 311 309 309 311 311 300 291 292 292 292 304 310 314 317 318 318 317 318 320 319 320 313 298 297 297 293 293 293 295 314 316 313 312 311 308 307 308 307 307 307 306 305 305 304
299 299 299 299 299 300 300 300 301 300 301 303 305 305 307 307 306 305 306 307 308 308 308 310 303 291 291 291 290 293 307 311 315 315 316 316 317 318 318 318 319 303 294 294 293 292 293 293 299 315 315 314 313 309 303 307 303 299 306 305 304 303 303
300 301 301 301 301 301 302 302 303 303 303 304 303 303 303 305 305 305 306 306 305 305 306 301 307 293 290 290 290 290 302 308 304 310 312 314 314 315 315 315 316 302 294 294 292 292 292 293 294 311 314 299 293 294 306 306 305 305 304 304 302 301 302
298 299 300 301 301 301 301 302 302 303 303 304 304 304 303 304 305 305 305 305 305 305 306 304 293 300 291 289 289 289 289 295 291 306 310 311 312 312 313 312 309 293 293 292 292 291 292 291 293 307 292 290 292 293 298 305 304 304 303 303 302 302 301
296 297 298 300 300 300 300 301 301 301 301 301 301 301 302 303 303 303 303 303 304 304 305 305 297 290 294 288 288 288 288 288 289 305 309 310 311 310 311 311 302 290 292 292 292 292 292 292 299 291 289 290 291 295 304 302 303 304 301 301 301 301 301

ECMWFFLT1_sfc_thetae_072.txt.gz
Theta_e
333 335 338 339 341 341 340 339 339 339 339 339 339 338 338 338 338 339 340 340 340 340 339 339 340 339 339 339 339 338 336 335 334 331 329 331 329 331 335 334 336 337 335 333 329 325 323 320 322 329 331 331 332 333 333 332 331 331 330 332 331 332 332
338 337 337 338 338 339 338 337 337 336 338 339 337 338 338 337 337 337 337 337 337 335 335 335 340 340 340 340 339 338 337 335 335 333 333 330 332 331 332 332 330 330 332 334 333 331 326 322 321 323 324 330 329 328 329 330 330 330 329 329 329 330 331
337 335 335 336 337 336 336 336 336 335 336 337 338 337 337 336 336 336 335 335 336 334 332 332 332 333 334 334 336 338 339 337 337 335 334 333 334 335 332 331 328 328 328 329 330 329 328 328 323 322 324 325 321 324 327 328 329 329 330 330 330 330 330
335 334 333 334 334 334 334 334 334 334 334 334 336 337 336 335 337 336 335 334 335 335 332 332 332 331 332 333 334 335 336 337 336 337 335 332 332 332 333 332 331 327 325 325 327 328 328 326 324 324 325 325 322 321 324 327 328 329 330 331 330 330 330
335 333 334 333 333 333 333 331 332 333 332 334 334 334 336 336 337 336 336 335 333 334 333 334 333 331 332 332 333 334 334 338 339 338 337 335 333 331 333 332 329 330 330 329 329 330 328 326 327 324 323 322 322 323 323 326 326 327 329 329 329 329 329
337 336 335 334 333 332 332 332 331 330 330 330 331 332 335 336 334 334 334 332 332 333 334 332 331 333 333 332 333 333 334 337 338 338 336 336 335 332 331 332 331 331 331 332 333 331 331 330 328 323 322 323 318 319 321 322 322 325 327 326 328 329 328
339 338 334 334 334 333 333 332 331 330 329 331 332 332 333 334 333 333 334 334 333 333 332 332 333 334 333 330 331 332 335 338 338 338 336 337 337 335 335 333 334 332 333 334 334 333 331 329 326 325 323 323 323 319 321 320 321 319 321 324 326 327 328
338 335 334 335 335 333 331 330 330 330 329 330 329 333 333 334 335 335 335 334 332 331 331 332 332 332 332 329 330 333 333 334 336 337 335 336 336 336 336 335 334 335 333 333 333 333 331 330 329 326 323 319 318 318 316 318 319 319 319 322 325 326 329
336 335 334 336 336 333 331 330 331 330 330 330 332 333 335 334 333 333 331 330 330 330 331 330 330 329 330 329 329 331 330 330 333 332 330 333 334 335 336 336 334 332 335 334 334 332 330 331 331 327 323 320 316 313 316 315 316 317 320 318 320 324 324
334 334 334 336 335 334 332 331 331 331 333 332 332 333 334 334 333 331 328 329 330 329 329 329 328 328 329 328 328 329 328 329 329 327 328 328 331 333 335 335 334 334 334 336 334 333 334 333 329 326 324 320 319 315 313 313 314 315 317 319 315 318 321
333 333 334 333 333 332 333 333 333 331 330 331 332 333 333 333 331 328 327 329 329 329 329 328 325 325 327 326 327 326 327 328 327 327 327 327 330 333 334 335 335 333 336 335 334 336 335 333 326 325 323 323 322 317 315 313 314 317 316 319 318 314 317
333 333 334 334 334 332 333 332 331 330 332 331 330 332 332 331 329 328 328 327 327 328 328 329 327 326 325 325 324 324 326 326 324 324 327 329 330 332 334 334 335 334 336 336 336 335 335 329 324 322 321 322 322 321 319 317 313 317 320 315 316 316 315
333 332 333 334 334 333 332 331 331 331 331 329 331 331 330 328 328 328 326 326 325 325 325 327 328 326 326 325 325 323 324 324 321 323 324 327 325 329 332 332 331 332 335 334 334 333 331 327 326 322 321 321 321 321 318 316 315 314 319 317 316 314 315
334 332 333 334 333 332 332 332 330 330 329 329 331 330 329 327 326 326 326 324 323 323 323 326 328 327 325 325 324 323 322 321 320 322 323 325 326 326 326 329 331 332 335 333 331 330 327 326 325 324 323 320 319 321 318 316 313 315 321 321 317 314 316
334 332 333 333 332 331 331 331 331 329 327 329 330 328 327 327 326 326 324 323 322 322 323 325 327 326 324 324 323 322 321 321 321 322 323 322 325 325 328 325 327 331 332 329 329 325 325 323 322 321 321 322 320 320 322 317 314 314 315 318 315 315 314
333 333 333 332 331 330 331 331 330 328 327 327 329 328 327 328 326 325 324 323 321 321 323 324 326 325 323 322 320 322 323 322 322 322 321 321 321 324 324 326 327 330 330 328 326 325 326 323 322 320 321 322 321 322 320 320 317 315 314 314 318 314 314
333 332 332 331 331 331 331 330 328 327 327 327 325 327 328 326 326 325 324 322 321 321 322 324 324 323 322 321 321 322 322 323 323 322 321 320 320 322 323 324 325 328 328 327 325 325 325 325 323 322 322 323 324 323 323 322 321 319 316 314 316 314 314
333 332 331 330 331 331 331 329 328 327 327 326 326 327 326 326 325 324 324 321 320 321 321 322 323 323 324 324 323 322 322 322 323 322 322 321 324 322 322 322 323 325 326 326 326 324 324 324 323 323 322 321 321 323 324 323 321 320 318 316 316 316 317
329 330 331 331 331 330 329 329 328 328 327 325 326 324 324 324 325 324 322 321 321 320 321 322 322 322 323 324 325 324 323 323 322 321 322 322 322 322 322 322 322 323 323 324 324 325 325 324 322 321 321 320 319 321 324 323 322 321 319 317 317 316 318
328 326 327 331 332 329 328 329 327 326 325 325 325 324 323 322 324 322 322 322 321 321 321 322 322 323 323 323 323 323 324 324 323 324 324 323 324 324 323 322 322 323 322 323 323 323 324 324 323 322 321 322 321 321 323 323 321 320 320 318 316 318 317
326 325 323 324 325 328 329 328 327 326 324 325 324 323 322 322 324 323 323 321 321 323 324 324 324 323 323 324 324 325 324 325 324 325 326 326 326 326 326 326 325 324 323 323 324 324 324 323 323 322 323 324 322 322 322 322 322 320 319 318 316 315 316
324 323 323 322 322 322 325 327 327 326 325 325 325 323 322 322 322 323 322 322 321 323 325 325 325 325 325 323 326 326 326 325 326 325 325 326 327 327 326 327 327 327 333 324 313 316 317 317 328 323 324 324 323 322 322 321 321 319 319 319 317 317 315
323 323 323 323 324 324 324 325 324 325 325 325 325 324 323 323 322 322 322 324 326 326 326 328 323 306 309 326 326 326 327 327 326 326 326 326 327 327 327 328 328 323 316 315 313 307 305 305 308 320 328 326 323 322 321 321 320 321 320 317 317 315 314
322 322 323 323 323 321 321 323 323 322 323 324 325 325 325 323 323 323 322 323 323 325 327 327 298 298 300 302 324 328 327 327 328 327 327 326 327 328 329 328 331 328 323 319 320 301 301 302 302 301 300 303 310 327 323 319 318 320 318 318 317 316 314
320 321 321 322 322 321 320 319 319 320 321 322 323 325 324 324 324 325 325 324 325 326 328 304 297 298 299 299 302 325 330 330 329 329 329 328 329 330 330 331 331 332 330 328 328 326 311 301 299 299 299 300 302 299 300 320 322 318 318 316 315 316 316
320 320 321 321 320 319 318 315 316 319 321 322 324 323 322 322 321 323 324 323 324 326 328 296 297 295 297 298 299 308 329 330 329 329 329 329 329 329 330 330 331 331 329 324 325 327 328 323 301 295 298 297 297 298 298 296 297 319 325 318 317 316 316
320 320 321 321 320 319 319 319 322 322 322 322 322 322 322 323 323 322 322 324 324 326 326 298 294 294 296 295 296 302 328 331 331 330 330 330 330 330 330 330 328 329 330 331 329 327 327 328 326 321 320 321 322 311 293 296 299 296 308 321 320 317 319
320 320 321 320 320 319 319 320 320 321 322 321 321 320 322 322 322 322 323 324 325 324 311 293 294 294 294 295 295 298 328 330 330 330 331 332 332 331 331 331 331 329 328 329 330 326 327 327 326 324 323 323 324 324 324 325 324 325 324 323 322 322 322
316 318 320 319 319 319 319 319 320 320 321 322 322 322 322 323 321 323 323 323 324 320 307 292 293 293 293 295 293 319 327 328 327 327 328 330 330 330 330 330 329 328 329 328 318 307 313 325 323 322 321 322 322 323 319 299 293 294 306 322 327 327 324
309 311 315 317 317 317 317 319 321 322 322 322 321 321 322 322 322 323 322 323 323 319 310 296 292 293 294 292 298 324 326 326 326 326 326 327 328 328 328 327 328 328 328 328 312 300 301 304 322 321 320 320 320 321 317 309 296 292 291 291 291 292 292
307 308 311 315 315 316 317 318 319 321 321 320 320 320 321 320 321 322 322 321 320 321 313 298 292 292 292 292 298 321 325 325 326 326 325 326 326 326 326 322 322 325 326 330 296 297 297 307 321 321 320 319 318 318 315 311 308 301 292 292 291 291 291
306 306 307 308 311 311 311 310 311 315 317 319 319 320 320 319 320 320 320 319 312 320 317 303 292 292 291 292 303 322 322 324 323 324 324 325 327 326 327 320 311 315 321 314 292 295 294 305 321 322 320 320 318 317 316 312 310 309 309 308 306 306 306
304 304 305 307 308 309 310 311 311 311 311 312 312 313 315 316 314 314 316 317 317 319 316 310 299 290 292 293 292 308 322 322 322 323 324 323 324 325 325 326 315 297 295 297 293 292 293 295 316 322 322 320 318 317 317 314 313 313 311 310 310 310 311
305 305 305 306 307 307 308 308 308 308 308 308 309 309 310 311 311 311 312 312 310 310 311 310 301 290 291 291 290 294 318 317 317 318 318 318 320 321 321 322 320 295 295 297 294 292 292 292 295 312 320 320 320 322 312 316 311 302 314 313 312 311 312
306 306 307 307 307 307 308 309 309 308 307 307 308 308 309 310 310 308 308 309 310 308 305 301 308 293 290 291 290 287 308 312 307 313 315 317 317 318 319 319 319 300 294 295 293 292 292 292 292 302 312 293 294 297 315 317 315 313 314 313 311 310 311
304 305 306 306 306 306 307 307 308 310 310 309 308 308 309 309 309 309 308 308 309 309 308 305 295 301 289 290 288 290 287 296 292 307 316 316 316 316 317 318 310 292 294 292 292 291 292 291 293 304 293 291 293 296 304 315 313 313 313 311 311 310 309
300 301 302 303 304 304 304 304 304 305 306 307 306 306 306 307 307 306 305 306 309 309 310 309 297 294 298 289 290 289 289 288 288 303 308 313 314 314 314 313 305 292 293 292 291 291 291 292 305 293 292 293 291 295 311 313 310 312 308 308 308 308 308

ECMWFFLT1_sfc_thetae_075.txt.gz
Theta_e
335 334 333 334 337 340 339 340 341 343 339 338 338 338 339 338 341 342 343 341 341 340 337 338 337 337 338 336 338 338 337 336 335 332 330 332 330 332 335 334 332 335 335 331 329 325 322 319 324 327 330 333 335 334 333 332 332 332 332 333 333 334 336
333 333 334 335 336 338 341 341 339 337 338 339 338 338 338 338 339 339 339 338 339 337 334 338 338 337 337 337 338 338 337 335 335 334 334 332 332 331 332 333 331 333 333 332 332 329 327 321 319 322 326 331 332 331 331 332 332 332 331 332 332 332 334
334 334 333 333 336 339 339 336 336 336 337 337 338 338 338 337 337 338 336 336 336 334 333 333 334 338 339 339 339 336 337 335 338 336 334 335 336 334 332 330 330 329 329 330 331 330 327 327 320 320 323 324 322 326 330 330 331 332 331 332 332 332 334
334 332 333 332 336 339 335 334 335 335 336 336 338 338 337 337 337 337 336 335 336 335 332 332 333 331 333 334 334 335 338 335 334 335 336 338 336 334 333 332 333 330 329 324 325 328 324 322 322 323 324 325 323 322 327 329 330 330 331 332 331 330 333
333 333 332 333 335 334 334 333 334 334 335 336 337 336 336 337 337 336 336 336 334 334 333 334 332 331 332 332 333 333 333 338 338 337 335 335 335 333 334 334 332 333 329 330 328 327 326 326 325 322 322 323 324 325 326 329 330 330 330 330 330 331 331
332 334 333 333 335 333 333 333 333 333 333 333 334 334 335 336 335 335 335 332 333 334 333 332 332 333 332 332 332 332 333 335 336 337 335 335 333 332 333 335 333 333 332 335 333 330 331 327 327 322 323 325 321 322 324 326 324 327 329 328 329 329 328
332 334 336 333 333 333 333 332 331 331 330 332 332 331 332 334 333 333 333 333 332 332 332 333 332 331 333 329 331 331 333 338 338 337 335 336 335 334 333 332 333 333 334 333 332 331 328 327 325 324 323 323 323 320 322 321 322 321 324 328 328 328 328
331 333 333 333 333 332 332 332 332 331 331 332 331 332 333 333 333 332 333 332 332 332 332 332 332 333 332 330 331 333 334 337 338 337 336 336 333 333 333 332 333 331 333 334 330 333 328 329 327 326 324 320 318 319 318 319 319 320 320 324 327 327 327
333 334 334 332 333 334 334 332 333 333 333 333 334 333 332 333 332 331 331 331 331 331 331 331 331 331 331 331 330 332 331 331 333 332 333 334 334 335 335 335 331 332 332 332 331 332 328 330 329 328 327 323 316 313 316 315 316 316 321 320 325 326 324
333 334 333 333 334 334 334 333 331 331 332 333 332 333 332 332 332 332 330 330 331 331 331 331 330 330 330 331 331 330 330 330 330 328 329 330 332 333 335 335 333 333 331 332 332 331 332 330 328 326 323 321 321 316 313 313 315 314 318 320 316 320 323
334 333 334 334 334 332 332 332 332 330 330 332 333 332 332 331 331 329 329 329 331 330 331 330 328 329 329 328 329 329 329 330 329 329 329 329 330 332 333 333 332 330 332 332 331 333 333 330 326 326 323 323 322 317 316 313 313 316 315 318 318 316 319
333 333 333 333 332 331 331 330 331 331 332 333 332 331 331 330 330 327 329 329 330 329 330 328 328 328 328 327 328 327 328 328 326 326 328 329 330 330 332 333 332 331 333 333 333 333 332 328 326 324 323 323 322 322 319 316 312 316 318 316 316 318 316
332 332 331 330 329 330 330 330 330 331 331 331 330 330 329 329 327 327 326 327 327 329 329 327 327 327 328 327 326 325 326 325 322 323 325 327 326 329 332 333 332 331 332 333 332 331 327 326 326 322 322 322 321 323 323 318 314 314 318 317 316 316 316
333 332 331 330 331 331 331 330 330 331 329 329 330 329 330 328 326 326 325 325 325 326 328 327 328 327 326 325 325 325 322 322 321 322 325 326 326 326 327 328 331 333 334 331 330 328 325 324 324 322 323 320 319 321 319 318 315 314 318 320 317 314 315
332 332 332 331 331 331 332 331 330 328 327 329 329 329 329 327 326 325 323 322 322 323 326 327 327 326 325 325 325 322 322 321 322 321 324 324 326 326 328 328 329 333 332 328 328 324 323 323 321 320 320 320 318 319 320 317 315 314 315 317 314 315 313
332 331 331 330 330 328 330 330 328 328 327 329 329 328 328 326 325 325 323 323 321 321 323 326 327 326 325 324 321 321 322 323 323 323 322 323 323 325 326 327 331 331 330 328 326 327 325 323 322 320 321 321 321 320 318 317 316 315 314 313 315 313 313
332 331 328 329 329 329 329 330 328 327 326 327 327 328 327 325 326 325 323 321 320 321 323 325 325 325 322 320 320 321 322 323 323 323 322 322 323 324 325 325 327 328 328 325 324 324 324 324 322 321 321 322 323 321 322 323 319 317 314 312 315 313 314
331 329 328 329 330 330 330 329 328 326 327 325 327 327 327 327 327 324 324 321 320 321 323 323 323 322 322 323 322 323 322 322 324 323 323 323 328 324 324 324 325 325 326 324 325 323 324 324 321 324 323 322 321 323 323 322 321 319 317 315 315 316 316
326 330 328 329 329 329 330 329 328 328 326 324 326 327 328 326 326 324 323 321 320 321 322 322 322 322 322 323 324 324 324 324 323 322 321 322 323 323 324 324 325 326 325 326 323 326 326 323 321 323 322 320 321 322 323 322 322 321 319 316 317 316 317
328 330 333 329 329 328 328 329 327 327 326 325 326 325 325 326 325 325 322 322 320 320 321 322 323 323 323 323 323 323 323 324 323 323 323 323 323 323 322 322 323 324 324 325 325 325 325 324 323 322 322 322 320 321 321 321 320 319 320 319 318 317 315
329 330 330 330 328 328 328 328 327 327 326 325 325 322 323 324 324 324 323 322 321 321 321 322 323 323 323 323 324 324 324 324 324 325 326 325 326 325 325 323 323 321 323 324 326 324 324 323 323 322 322 322 322 321 321 320 321 320 320 320 318 315 316
329 329 329 329 329 327 327 328 327 325 325 326 325 324 322 322 321 321 322 322 321 323 323 324 324 323 323 321 324 323 324 323 324 325 326 326 326 326 326 327 327 328 329 323 312 314 314 316 327 325 325 326 324 323 322 321 323 319 319 318 318 318 316
327 327 327 327 327 328 327 327 325 324 323 323 323 323 321 322 321 324 323 323 324 325 325 328 310 299 304 325 325 324 325 326 325 326 325 326 326 326 327 327 331 321 318 316 312 305 304 303 307 321 326 327 325 325 323 321 320 321 320 319 319 318 315
325 324 325 326 327 327 326 327 327 326 324 323 323 322 321 321 321 323 324 325 326 326 328 323 296 295 296 297 323 327 324 325 325 325 325 326 327 326 328 327 329 328 325 320 326 303 301 303 303 301 300 303 309 322 322 321 321 321 322 320 323 321 319
323 323 323 323 324 323 323 322 322 324 325 325 325 325 324 322 322 323 323 323 325 325 326 298 294 295 295 294 300 321 328 327 327 327 327 326 327 328 327 328 329 332 330 327 327 325 312 302 301 302 301 300 299 298 300 316 319 319 320 319 318 319 319
322 324 323 323 322 321 319 319 321 322 323 324 325 323 322 324 325 325 325 324 324 325 322 295 295 296 296 296 297 307 326 328 327 327 327 327 327 326 326 327 327 329 327 326 326 327 328 325 303 299 299 299 298 297 298 297 298 316 319 318 318 319 318
320 321 321 321 320 320 320 318 320 323 324 324 323 323 323 324 324 323 323 323 325 325 313 297 294 295 296 295 296 299 326 326 328 328 327 327 327 326 326 326 325 326 329 330 329 328 327 326 328 324 324 324 325 319 300 295 294 293 305 318 318 317 321
322 322 322 321 321 319 319 319 319 322 323 325 325 323 323 323 323 323 322 323 324 315 305 293 292 293 293 294 293 297 323 327 328 329 329 329 327 328 328 327 327 325 326 328 330 326 328 327 326 326 326 327 326 326 326 326 325 324 323 323 322 322 322
320 320 321 320 320 320 319 318 319 319 320 322 323 325 324 324 323 323 323 324 321 312 306 291 292 292 293 293 292 311 322 325 326 325 325 324 322 326 328 329 327 326 326 327 314 306 315 329 325 323 322 323 324 324 325 300 295 296 307 314 317 320 323
319 320 320 319 318 319 320 319 320 320 320 321 321 322 322 322 323 323 323 321 319 315 310 296 291 292 292 291 298 315 321 324 323 323 324 326 328 328 328 327 328 327 328 326 306 303 303 309 325 323 321 321 322 322 323 309 295 291 291 291 291 291 292
316 318 317 317 317 319 320 322 323 324 320 319 320 321 322 323 322 321 319 320 319 313 307 296 291 292 292 291 295 310 319 322 323 324 325 326 327 326 326 323 323 327 328 323 300 296 297 313 324 322 321 321 320 318 321 318 315 305 292 292 292 292 293
310 311 312 314 315 316 316 317 320 322 322 322 321 321 321 321 320 319 318 318 314 313 308 301 292 291 291 291 296 307 315 319 321 321 321 322 324 325 323 321 307 308 314 304 293 298 294 305 322 322 322 320 318 318 321 321 317 313 312 312 311 312 309
308 309 310 310 312 315 316 316 317 319 322 322 321 318 320 318 317 317 317 318 317 315 310 304 296 290 291 291 290 299 311 318 320 319 319 318 319 320 320 318 310 295 296 295 296 292 295 293 313 321 322 320 319 319 321 319 318 317 316 315 315 314 314
307 308 309 309 310 310 312 313 315 316 316 317 316 315 314 315 314 312 312 311 309 310 310 307 299 289 291 291 290 294 314 314 312 314 318 316 316 317 317 318 316 296 295 295 294 292 293 293 293 313 319 321 318 312 303 318 318 305 317 316 315 314 315
307 308 309 310 310 310 312 312 312 312 312 313 313 312 312 311 310 311 311 309 308 307 306 304 307 294 290 292 291 291 304 308 302 305 314 317 317 317 316 319 311 298 292 294 291 292 291 292 291 307 317 299 293 294 319 317 320 316 315 316 314 313 313
304 305 307 309 309 309 310 311 312 311 311 311 311 311 311 310 309 308 309 309 308 306 304 303 297 301 292 292 291 292 290 296 291 305 307 309 314 316 319 310 304 293 292 291 291 290 291 290 292 306 300 296 298 293 299 316 316 315 313 313 313 312 311
302 303 303 305 305 306 307 307 307 309 310 311 310 310 311 312 311 310 308 307 308 306 303 301 297 297 297 291 293 292 293 292 291 299 302 309 313 311 308 306 299 288 291 291 291 290 290 291 302 294 294 294 292 295 312 314 313 314 311 312 311 312 310

ECMWFFLT1_sfc_thetae_078.txt.gz
Theta_e
332 332 334 335 336 336 334 336 336 337 337 335 333 334 334 334 336 336 337 339 339 337 337 338 339 339 341 337 339 338 338 336 335 331 329 331 329 330 332 332 333 333 331 329 326 323 319 316 319 327 329 329 330 330 329 329 330 331 330 330 329 332 331
334 334 334 334 333 334 332 334 334 335 335 335 334 333 334 336 336 335 338 338 341 338 336 339 340 336 339 337 337 337 336 336 335 335 333 331 331 327 330 330 329 329 330 330 329 328 323 318 318 320 321 327 328 328 329 329 329 330 329 330 330 331 330
333 334 333 333 332 333 331 332 332 331 331 333 335 335 335 336 337 338 337 336 337 335 335 336 337 336 338 339 338 337 336 335 335 335 334 334 333 329 331 330 328 325 325 324 326 326 324 325 318 318 321 321 320 323 328 327 327 327 328 329 328 329 329
332 332 331 330 331 332 329 329 330 330 330 331 336 337 337 335 336 336 336 336 337 337 333 333 334 335 336 337 337 337 337 336 334 334 334 336 335 333 332 329 327 326 324 323 324 326 324 321 320 320 321 322 321 320 324 327 327 328 328 328 328 327 328
333 332 331 330 330 330 329 328 330 329 330 335 337 337 337 337 337 337 337 335 335 338 333 335 332 333 333 334 335 335 335 337 337 335 335 333 333 332 332 330 328 329 329 328 327 326 324 323 323 320 320 321 322 322 324 326 328 327 329 327 327 328 329
336 334 335 333 333 331 331 330 330 330 332 333 334 334 337 337 337 336 336 336 337 340 336 334 335 338 333 331 333 333 334 334 335 336 334 333 332 331 331 333 332 331 331 333 331 328 329 327 325 319 321 322 318 319 322 323 323 325 326 326 327 327 325
336 335 334 334 334 333 332 332 332 332 332 332 333 333 334 335 336 338 337 334 336 334 334 335 335 334 335 330 332 334 333 337 336 336 335 334 333 333 334 332 331 331 332 334 332 332 328 326 324 323 320 321 319 318 320 321 323 321 322 325 326 326 324
336 337 336 335 333 333 334 333 333 332 332 332 333 333 336 334 334 335 334 334 333 333 333 334 334 333 333 330 331 333 335 339 337 335 334 333 334 332 332 332 332 332 332 333 332 330 329 325 325 323 320 316 317 316 316 319 319 320 320 322 325 323 322
333 333 332 334 335 335 334 333 333 334 334 334 332 333 333 332 333 333 333 332 331 332 334 334 333 333 334 331 331 333 331 333 335 334 333 334 333 335 333 333 330 330 332 332 332 330 328 327 328 328 324 319 313 311 314 313 315 317 322 321 323 323 321
332 332 333 333 337 337 335 335 333 335 335 333 332 333 333 333 333 333 331 331 332 333 333 334 333 333 333 330 331 331 330 332 331 330 332 332 332 334 334 333 330 332 331 333 329 330 336 330 328 327 325 321 319 313 310 310 312 314 318 320 316 319 320
333 334 337 336 336 334 334 332 331 332 332 333 332 333 334 333 333 332 330 331 333 333 333 333 328 330 332 330 330 330 331 333 330 330 332 330 331 332 333 332 331 332 332 331 333 334 333 329 327 324 322 323 322 317 314 310 311 314 314 318 317 315 317
334 336 337 335 334 332 330 330 330 332 333 333 331 333 331 330 329 330 330 331 332 332 333 332 330 330 329 329 331 329 330 330 329 330 330 330 332 332 331 331 331 331 331 331 331 333 331 328 328 324 323 321 322 319 316 313 308 314 317 315 314 316 314
332 335 334 332 331 331 330 331 331 331 332 331 332 332 329 327 327 327 329 329 331 331 330 328 329 330 329 329 327 327 329 328 324 327 325 329 327 331 331 331 331 330 331 332 331 331 329 328 326 325 325 322 322 322 319 315 312 311 318 312 312 312 312
334 334 332 331 331 330 329 329 330 331 331 331 330 330 328 326 325 326 326 326 327 329 327 329 331 329 328 328 329 326 326 325 322 324 325 328 325 328 327 328 331 333 333 330 328 329 326 324 326 326 322 323 320 321 318 316 311 311 315 315 313 311 311
328 329 330 329 330 330 329 329 330 329 329 329 329 329 327 327 326 325 323 324 325 326 326 329 329 329 326 328 326 328 326 326 325 319 324 325 326 327 329 327 329 331 330 328 327 322 323 323 318 318 316 318 315 321 323 317 313 310 309 311 312 311 311
331 330 329 331 330 329 329 329 328 329 329 329 329 330 327 327 326 324 322 323 322 324 326 327 329 329 328 325 323 324 327 325 322 324 325 323 322 325 327 328 328 330 331 327 327 325 324 322 319 316 318 318 315 318 317 316 313 312 310 311 313 308 308
328 328 328 329 330 329 329 328 328 328 328 328 328 330 327 327 327 326 323 320 321 322 326 327 328 328 323 323 322 323 325 322 324 325 325 322 322 324 325 328 328 328 327 326 325 324 322 323 321 319 319 318 318 320 318 323 316 313 311 309 308 307 309
327 329 328 329 329 330 330 328 327 327 328 328 328 328 326 328 328 325 325 320 320 322 324 325 327 325 324 325 324 326 323 323 326 325 323 324 327 324 325 326 325 325 326 324 325 323 323 324 319 319 320 317 318 322 324 321 318 313 311 309 310 311 309
327 330 329 329 328 329 329 328 328 327 326 326 327 328 326 327 327 324 323 321 321 322 322 325 323 321 321 325 326 325 325 326 326 322 323 323 324 327 326 325 325 325 326 325 323 324 323 322 320 322 320 320 317 320 321 320 319 319 312 312 309 313 308
330 333 330 329 330 329 328 328 327 325 326 327 326 327 326 326 329 325 324 323 322 323 322 324 324 324 323 325 325 326 324 326 325 325 325 324 323 325 324 325 325 327 327 326 325 325 324 324 326 322 322 324 319 321 320 320 318 317 318 315 312 313 311
330 331 330 328 328 328 328 327 328 327 328 327 327 326 324 325 328 327 325 323 322 324 324 325 323 325 325 326 325 325 327 326 326 325 326 326 327 326 324 323 324 324 322 322 322 321 322 323 325 323 323 323 323 321 320 318 317 318 316 316 314 310 313
329 329 328 328 327 327 326 329 327 326 328 326 329 326 325 324 327 325 325 325 321 324 325 322 319 321 324 324 326 327 326 327 325 326 326 326 326 327 326 327 325 323 322 318 312 313 314 318 323 323 323 323 322 322 320 321 322 317 317 318 316 316 315
327 327 327 327 328 327 327 328 325 325 325 324 327 323 323 323 325 326 323 325 324 324 320 315 303 298 301 320 326 326 328 327 327 326 326 327 326 326 328 326 326 322 317 315 309 302 300 303 309 318 319 320 319 320 319 318 318 317 318 316 314 315 313
324 324 325 325 324 323 324 326 326 323 323 323 326 323 324 320 325 325 323 324 324 320 313 304 296 294 296 298 315 326 327 326 327 327 326 326 327 326 327 326 327 323 320 319 312 301 301 300 299 300 301 306 312 318 316 317 316 317 315 317 317 315 313
324 324 324 322 321 322 323 324 323 324 324 324 324 326 325 323 323 325 324 324 323 317 309 298 294 295 295 294 300 317 324 326 328 328 327 325 324 323 323 324 327 330 328 326 324 315 308 303 302 300 299 300 299 300 303 314 314 314 315 314 315 315 315
323 322 321 320 319 320 321 321 321 322 323 324 325 323 323 322 321 323 325 322 317 313 309 295 295 295 295 293 294 310 322 324 324 325 325 324 321 323 321 320 321 322 325 327 326 325 322 315 302 300 300 300 299 297 295 295 301 313 315 313 312 312 314
319 319 319 320 319 319 318 317 318 320 322 322 322 323 322 321 322 322 323 318 312 308 304 296 294 294 295 294 293 302 322 324 325 325 325 323 322 322 324 324 322 322 321 321 323 328 326 325 319 315 315 316 318 315 301 296 295 297 305 314 314 312 314
319 318 318 318 318 317 317 318 318 319 321 323 323 321 321 320 320 321 321 317 311 307 300 293 293 293 293 294 294 300 321 324 324 325 326 325 321 323 323 324 323 322 322 323 321 315 321 323 323 324 323 322 322 322 322 321 315 312 310 311 314 316 317
319 319 319 319 317 316 316 317 318 319 320 321 323 324 322 321 320 321 321 317 312 307 300 291 292 292 292 292 295 313 319 322 323 324 324 326 323 322 322 321 321 320 321 322 313 296 302 311 321 322 321 320 320 321 319 296 294 296 305 310 310 310 308
316 317 318 318 318 316 316 317 318 318 319 319 321 321 321 322 322 322 319 317 312 306 300 293 291 291 291 291 298 312 318 320 321 322 322 323 322 322 321 321 322 321 321 321 305 297 297 302 319 320 319 318 319 318 318 305 294 292 292 293 294 294 294
313 315 317 317 317 318 319 318 318 321 318 318 318 320 320 320 320 319 316 312 308 303 299 294 291 291 291 291 296 308 314 317 319 321 320 321 321 321 319 318 319 321 320 316 295 294 291 305 319 320 319 318 316 316 316 312 309 302 293 292 292 293 295
310 311 311 313 315 315 317 318 318 318 317 318 318 319 319 317 317 317 314 311 308 304 300 297 292 292 292 292 296 304 310 315 317 318 317 318 320 319 318 307 304 306 310 301 292 293 292 302 315 317 318 316 314 315 316 317 313 308 307 306 306 307 306
309 309 309 310 310 312 315 318 319 317 317 317 316 315 315 314 313 312 311 310 308 304 301 298 294 292 293 294 294 306 313 308 307 309 316 316 317 319 317 311 300 291 291 291 291 291 292 292 305 311 315 315 315 314 314 315 316 313 312 311 310 309 310
308 309 310 310 310 311 312 312 314 315 315 315 314 312 312 312 311 309 308 307 307 307 306 301 297 292 293 294 294 298 304 302 301 305 310 313 315 315 316 310 304 294 291 291 291 290 291 290 292 305 311 312 306 302 300 313 316 305 312 313 311 310 311
305 308 310 310 310 309 311 312 312 312 312 312 311 310 310 310 310 308 306 306 304 303 303 302 301 294 293 293 293 294 300 300 298 304 304 306 309 309 307 303 300 295 290 291 291 290 290 291 289 303 309 297 295 295 304 305 312 314 312 312 312 310 310
303 305 305 306 307 307 308 310 311 311 311 311 311 310 309 309 308 307 305 303 303 302 302 301 297 299 293 293 293 293 292 295 293 302 302 304 306 305 305 304 301 295 291 291 291 290 291 290 294 300 289 292 293 292 295 307 311 312 310 310 310 310 309
303 303 303 303 303 303 303 304 304 305 310 311 311 309 308 308 307 306 305 304 303 303 303 301 296 295 296 293 293 293 292 292 293 297 302 304 305 304 302 301 298 291 290 290 290 291 290 290 293 289 290 290 291 293 301 306 309 310 306 307 306 307 307

ECMWFFLT1_sfc_thetae_081.txt.gz
Theta_e
327 327 329 329 330 332 332 332 332 333 334 333 333 333 333 333 332 332 332 331 331 334 334 333 332 330 331 333 332 331 330 330 328 327 325 326 323 323 326 327 327 327 326 322 322 319 317 316 318 325 326 325 326 325 327 327 328 327 326 327 328 328 327
329 330 330 331 331 331 330 331 331 332 332 331 331 332 332 333 333 332 331 333 333 333 333 333 332 333 332 331 331 330 329 329 328 327 326 324 325 323 324 322 325 324 325 324 324 321 318 317 317 319 320 325 325 325 326 326 327 327 327 326 328 328 327
328 329 330 329 328 327 327 328 328 328 329 329 330 331 331 333 333 332 332 334 332 333 332 333 332 331 332 331 331 330 330 329 327 329 326 325 325 325 326 324 320 319 321 321 320 320 319 320 317 318 320 320 318 321 325 325 325 326 326 326 327 327 326
328 328 326 326 326 325 325 325 324 325 326 327 329 330 330 333 332 332 332 332 330 330 331 333 330 331 332 332 332 331 330 329 327 327 327 326 325 324 326 324 322 321 318 316 319 319 319 316 317 318 319 320 319 319 321 323 324 325 326 326 326 326 326
329 328 326 326 326 325 324 324 324 324 325 327 329 329 330 332 331 330 331 332 330 329 330 330 330 331 332 332 330 329 329 328 328 327 328 327 326 326 324 324 323 323 322 321 322 322 320 319 320 318 318 320 320 320 324 323 325 325 326 326 326 325 323
329 328 327 326 326 325 324 324 324 324 325 326 327 329 329 331 330 329 329 327 328 328 328 330 330 329 330 331 330 329 328 328 327 328 326 326 326 325 323 323 324 325 324 324 324 322 321 322 321 318 318 321 317 318 322 322 320 324 325 325 325 322 322
328 328 328 328 327 326 326 325 325 325 325 327 328 328 330 331 330 330 329 327 327 327 327 326 328 328 328 329 329 328 329 328 327 328 327 325 324 326 326 325 324 325 325 327 324 324 323 321 319 318 317 317 318 318 319 320 322 320 322 323 322 322 322
329 329 329 329 328 327 327 326 326 327 328 328 328 328 330 329 328 328 327 326 325 324 324 324 327 325 325 326 328 328 328 329 329 329 328 327 328 327 326 326 326 325 325 328 326 325 324 323 321 320 318 314 314 315 315 318 319 319 318 321 322 321 320
330 329 328 329 329 328 328 328 327 328 328 328 328 328 328 327 326 326 326 324 324 324 325 324 323 325 326 326 325 327 327 332 329 327 326 327 326 326 326 325 326 324 326 326 326 324 324 324 323 321 319 318 314 311 313 313 314 316 321 318 318 320 319
327 327 328 328 328 329 328 328 328 328 328 327 327 327 326 326 325 325 324 323 323 323 323 324 324 325 324 325 325 324 325 326 327 327 326 327 326 326 325 325 324 324 325 324 325 325 325 324 324 322 321 318 316 313 310 308 311 313 317 319 313 315 318
326 328 327 328 330 328 327 327 327 326 326 327 327 327 325 326 326 327 322 322 322 323 323 324 323 324 324 323 324 324 325 324 324 323 325 327 327 327 326 325 323 324 324 325 324 324 326 323 323 323 321 318 317 315 311 310 310 313 315 316 315 313 314
327 327 329 328 327 326 325 325 325 325 325 326 326 325 324 323 322 322 322 322 322 322 323 322 322 324 323 321 321 322 322 322 321 320 322 326 326 327 326 325 323 323 323 324 324 325 325 322 320 322 320 319 317 315 313 312 310 311 316 312 313 315 314
328 326 327 325 325 324 325 325 325 324 324 325 325 323 322 322 322 321 322 322 322 321 320 320 322 322 322 321 320 321 319 321 321 321 321 322 327 326 325 324 325 324 324 324 324 324 321 322 321 319 318 318 317 316 315 313 310 311 313 312 313 313 313
326 327 327 326 325 324 324 325 325 325 324 324 323 321 321 321 321 322 321 321 321 319 318 319 320 320 319 318 319 319 319 319 317 317 319 320 324 325 324 324 324 325 325 323 322 322 321 320 319 319 317 317 316 316 313 310 309 309 309 312 312 311 312
325 326 326 326 325 325 325 325 325 324 323 323 323 321 320 320 321 321 320 320 320 319 318 320 319 318 317 318 318 320 317 316 315 317 316 320 320 324 322 322 326 325 325 324 322 322 320 319 319 317 316 317 316 316 315 311 307 307 306 308 308 310 309
325 325 325 325 325 325 325 324 324 324 323 323 323 321 321 320 320 320 319 320 319 319 319 319 318 319 317 314 313 314 317 315 313 314 318 319 321 322 322 322 322 323 325 321 321 320 318 317 315 312 314 314 313 314 314 312 309 306 306 305 306 306 306
324 325 325 325 324 324 324 323 324 324 323 322 323 321 322 322 320 318 318 318 319 319 320 319 318 317 316 314 313 315 315 314 315 316 317 319 321 323 322 321 321 323 321 319 319 317 315 316 315 312 314 314 314 313 312 310 310 308 306 306 305 306 305
323 324 323 324 324 323 322 322 322 323 322 322 322 320 320 320 319 316 317 316 317 317 319 318 318 315 315 314 314 316 314 316 317 316 318 320 325 321 322 321 322 320 318 317 318 316 316 315 316 314 313 313 313 315 316 313 310 309 307 305 305 305 306
322 324 324 324 323 322 321 321 322 322 322 322 320 319 319 318 318 316 314 315 315 318 319 318 315 314 314 315 315 315 316 316 315 317 319 319 320 320 320 319 319 319 318 317 316 316 316 315 317 316 315 314 314 314 313 312 311 308 306 305 305 305 303
322 323 324 323 323 322 321 321 322 322 322 321 319 318 318 318 317 316 315 315 316 317 318 317 314 313 315 317 317 317 316 315 316 316 315 316 318 320 319 319 318 319 318 317 317 316 318 318 318 317 318 317 315 312 313 312 312 309 307 306 305 305 303
323 323 323 323 323 322 321 320 320 320 321 320 319 319 319 318 317 314 315 314 316 316 314 313 313 314 317 317 317 317 317 316 316 316 317 318 317 317 318 317 316 316 316 315 315 315 318 317 318 317 317 318 317 316 315 314 312 310 309 308 304 304 303
322 323 322 322 322 321 320 320 320 320 320 320 321 319 319 318 317 314 316 315 313 312 310 308 306 305 315 317 317 316 316 316 317 317 317 318 319 319 318 317 315 315 318 316 311 312 314 317 317 314 313 315 315 315 314 314 314 310 309 310 310 311 309
322 321 322 321 320 320 320 320 319 318 318 318 318 318 317 317 316 316 315 312 311 309 307 305 300 298 304 317 318 319 318 317 316 317 318 317 318 320 320 319 320 320 316 314 308 301 301 304 311 314 312 312 312 313 312 311 311 311 312 309 308 308 307
320 319 319 319 320 320 320 320 317 317 318 318 316 316 316 317 318 317 314 311 308 306 303 300 295 293 296 304 317 318 319 319 319 320 318 317 315 317 319 321 320 322 321 320 314 302 299 298 298 301 304 309 314 312 310 309 309 308 309 311 311 308 307
318 317 318 318 318 319 320 320 319 319 319 319 318 319 320 319 318 315 313 310 308 305 300 296 293 294 295 298 308 318 319 320 321 319 319 319 319 318 319 319 319 319 319 321 320 317 313 306 302 300 298 299 300 301 305 310 308 308 308 308 309 308 307
316 316 316 316 316 317 318 318 318 319 318 318 318 319 318 317 315 313 311 308 305 303 301 294 293 294 294 296 302 313 318 319 320 318 319 320 320 319 318 317 318 318 323 323 321 319 318 317 309 304 301 300 298 297 296 297 304 309 309 307 307 306 307
316 315 315 315 315 314 315 315 317 318 318 317 317 317 318 317 315 312 310 307 304 301 298 294 293 294 294 295 301 310 319 319 320 320 319 319 318 318 317 316 316 317 318 319 319 318 317 317 315 314 315 315 313 311 297 293 295 299 304 309 308 308 308
315 315 315 314 313 314 313 315 315 317 318 318 316 315 316 315 313 311 309 306 302 300 297 292 292 293 294 297 302 308 319 320 321 321 319 318 318 318 318 317 315 316 317 317 315 314 316 315 315 315 316 316 317 316 315 309 305 304 303 306 309 310 309
315 315 314 314 313 313 313 314 314 315 317 318 318 317 317 317 314 312 309 304 300 298 296 292 292 293 294 298 303 315 318 319 320 320 320 319 318 317 317 316 315 314 314 315 300 295 299 309 316 316 314 314 315 313 306 296 293 294 303 308 308 308 306
314 315 314 313 312 312 313 314 314 316 316 317 317 317 316 315 313 309 305 302 299 297 296 293 292 293 293 297 304 312 314 316 318 317 317 318 317 317 317 317 316 314 313 305 294 292 292 301 315 315 315 315 314 311 309 301 295 293 293 296 298 298 298
310 312 314 314 314 314 314 314 314 314 315 314 314 314 313 309 307 305 302 300 299 297 296 294 293 293 294 296 303 310 312 313 314 315 316 316 313 309 306 310 310 309 305 301 292 292 293 307 314 314 314 312 312 310 309 306 305 301 294 293 293 293 293
309 309 309 311 313 314 314 314 314 315 315 315 314 313 310 307 305 303 302 300 301 297 296 296 293 293 294 296 301 304 305 306 306 307 312 312 309 305 301 300 299 297 298 293 290 291 293 303 310 310 310 310 309 307 307 307 306 304 302 302 301 301 301
309 309 308 309 310 312 313 314 313 313 312 312 311 309 307 306 304 304 303 302 300 298 297 295 294 293 294 295 296 301 301 301 302 304 306 311 310 305 302 300 298 291 291 291 290 289 290 293 305 307 307 307 304 303 303 303 306 304 302 302 302 302 304
304 305 306 307 308 310 311 311 311 310 309 309 308 307 305 304 302 301 301 300 300 299 299 296 294 292 293 293 294 297 299 299 300 302 304 304 305 303 300 299 298 293 291 291 290 290 290 290 291 304 306 305 302 299 297 304 305 302 306 306 306 305 306
302 303 303 303 303 305 308 311 311 310 309 307 306 305 304 303 302 301 300 299 298 298 299 298 296 293 292 293 292 294 298 298 298 303 303 303 302 302 301 299 298 294 290 291 291 290 290 290 290 301 297 291 292 293 301 302 304 305 306 307 307 306 306
301 302 301 301 301 300 301 301 304 308 308 307 307 305 304 302 300 299 299 299 298 297 297 297 294 295 293 292 292 292 292 294 294 301 301 301 300 299 299 299 299 294 290 291 291 291 290 290 296 295 289 290 291 290 293 301 301 304 305 306 306 306 304
299 299 299 299 299 298 298 299 299 300 302 305 305 304 303 301 299 298 298 297 298 297 297 296 294 293 293 292 292 292 292 292 292 296 299 300 300 299 298 297 295 290 291 291 291 291 290 291 293 291 289 290 290 292 297 299 301 304 301 302 304 305 305

ECMWFFLT1_sfc_thetae_084.txt.gz
Theta_e
327 328 328 329 331 331 331 331 331 331 332 333 332 333 333 333 332 331 331 331 331 331 331 329 329 329 329 329 330 330 328 328 327 326 323 324 323 322 323 321 321 322 322 317 319 318 317 315 318 323 325 325 325 325 325 324 324 325 323 323 324 324 324
326 326 328 329 330 332 329 329 330 331 330 331 331 331 332 332 332 331 330 330 331 331 332 331 329 329 329 329 328 328 327 327 328 327 326 324 322 322 321 318 320 320 319 318 320 318 318 317 317 319 319 324 324 324 325 326 327 325 324 324 327 325 323
325 326 329 329 329 330 330 329 328 330 329 328 329 330 331 331 331 331 331 331 330 330 331 331 330 329 329 329 329 328 328 327 326 327 327 325 324 323 323 321 319 317 317 317 316 316 318 317 317 317 319 319 318 321 324 324 325 324 324 324 324 324 323
325 326 328 328 328 328 328 327 327 327 327 326 327 328 330 331 330 331 331 331 330 331 331 330 329 330 329 329 328 328 328 327 326 325 324 324 324 324 322 322 322 321 320 316 317 317 316 313 318 318 319 319 319 319 321 323 324 324 323 322 323 323 322
326 327 326 327 327 327 327 326 326 325 325 325 325 326 327 329 329 329 330 329 329 329 330 330 330 331 330 330 329 328 327 327 327 326 324 323 322 323 323 321 320 319 316 318 319 319 318 317 319 318 319 318 318 318 322 323 323 323 323 324 323 322 322
327 326 326 326 326 326 325 325 325 324 322 324 324 326 326 328 328 327 328 327 326 328 329 329 329 331 330 330 329 328 327 326 326 326 324 323 323 324 323 321 321 320 319 319 321 320 318 320 320 318 319 320 315 317 320 321 320 323 323 323 322 321 321
327 327 326 325 324 324 325 324 324 324 324 324 325 326 327 328 328 328 328 328 327 326 327 328 328 329 329 329 328 327 327 326 325 325 324 323 323 323 322 321 320 321 319 322 322 321 320 319 318 318 318 315 316 317 319 318 321 320 323 321 320 320 319
326 327 327 327 325 324 324 324 324 324 324 325 327 327 327 328 327 326 326 326 326 325 326 326 328 327 327 328 327 327 327 325 326 325 323 323 324 321 320 321 321 320 322 322 322 322 322 322 320 319 318 315 314 316 315 316 317 317 319 319 320 319 317
325 327 327 327 326 325 325 324 324 324 325 325 325 326 327 327 325 324 324 324 324 324 324 325 325 324 324 324 323 324 325 328 326 325 323 324 323 323 322 320 322 322 323 323 323 322 322 323 322 321 319 318 315 312 314 314 315 314 319 316 317 318 316
324 325 326 326 325 325 325 324 324 325 324 324 325 325 325 324 324 323 321 321 322 322 322 324 324 324 324 324 324 323 324 324 325 325 323 324 323 322 322 323 323 323 322 321 322 322 322 322 322 321 321 319 318 314 311 311 312 310 316 316 311 314 316
324 325 325 326 325 324 324 325 323 324 324 324 325 324 323 322 323 325 320 320 320 321 322 323 324 323 323 322 323 324 324 324 323 322 323 324 323 322 320 320 320 323 321 321 320 321 321 322 321 321 320 319 317 315 313 311 310 310 314 314 312 311 314
326 325 325 326 325 325 324 325 325 324 323 323 323 322 322 321 320 320 320 319 320 320 320 321 322 322 322 321 320 321 320 323 322 321 321 324 322 323 321 321 318 321 321 322 319 320 321 321 321 320 319 318 317 315 315 312 309 311 315 313 312 314 314
326 326 326 326 325 324 324 324 324 323 323 323 322 321 320 320 320 319 319 320 318 317 319 319 321 320 320 320 321 321 318 319 320 321 320 320 326 323 322 320 320 321 320 320 321 322 321 320 321 320 318 317 316 315 315 314 312 312 313 314 311 313 314
325 325 325 324 324 324 324 324 323 323 323 322 321 320 320 320 319 320 319 319 318 315 317 317 318 319 319 318 317 318 317 319 320 318 319 318 323 323 322 321 321 321 320 320 319 319 320 319 318 320 318 316 315 314 315 312 311 309 309 310 311 311 312
325 324 324 323 324 324 324 323 323 323 322 321 321 320 319 319 319 320 319 318 316 316 317 318 317 317 318 315 314 316 316 315 316 316 315 317 318 323 321 321 321 320 320 321 319 319 317 317 317 317 315 316 315 313 314 313 309 310 308 307 308 309 310
324 323 323 323 323 324 323 323 323 322 321 319 319 320 319 319 319 319 318 317 316 315 317 316 315 316 315 315 313 313 314 313 313 314 315 317 320 319 319 320 319 319 321 319 316 315 315 315 315 316 314 314 314 313 313 313 311 307 307 306 307 307 307
323 323 322 323 323 324 324 323 323 322 321 319 319 319 319 319 319 318 318 316 316 316 316 316 315 314 313 312 310 312 312 311 313 315 317 317 319 319 319 318 318 318 318 316 314 313 312 313 311 312 312 312 313 313 312 311 313 310 306 306 304 308 307
323 322 322 323 324 324 324 323 322 321 320 319 318 318 318 318 318 317 318 316 316 316 316 315 314 312 312 310 311 312 311 312 313 315 317 318 323 319 319 319 318 316 314 315 312 312 311 311 311 310 311 311 312 312 311 310 309 309 308 307 305 305 305
321 322 322 323 323 323 323 323 322 321 321 319 318 318 317 317 317 317 317 317 316 316 315 315 314 312 311 312 312 311 311 312 315 316 317 319 319 319 319 317 316 315 314 314 313 312 313 313 315 312 311 310 312 311 309 307 307 308 309 308 305 302 302
318 320 322 322 322 322 322 322 321 320 321 320 317 317 317 316 316 316 317 317 316 316 314 314 313 313 313 312 312 312 312 313 315 316 315 315 316 316 317 316 315 315 315 314 314 315 315 314 316 313 313 312 310 310 309 307 307 306 306 304 302 303 303
318 319 321 322 322 321 321 321 321 320 320 319 317 317 316 316 314 314 314 314 312 312 311 310 310 312 314 313 312 312 313 313 314 314 314 315 314 314 313 313 313 312 312 311 313 313 314 313 313 313 312 313 313 311 310 308 306 304 303 303 303 301 300
319 320 320 321 321 320 320 320 319 319 319 318 318 317 316 314 313 313 312 311 309 309 307 306 305 306 313 314 313 314 315 315 316 315 315 314 314 314 314 314 314 314 316 314 310 310 311 313 312 311 311 312 312 311 310 310 308 305 304 303 302 302 300
320 319 319 319 319 318 318 318 319 318 318 318 317 315 315 314 313 311 309 308 307 306 305 304 302 301 308 316 316 316 315 315 316 315 315 315 315 316 317 318 321 321 316 314 309 303 301 303 308 310 309 310 310 310 308 308 309 308 307 305 304 304 300
318 317 317 318 317 316 316 317 317 316 316 315 315 315 314 312 311 310 308 306 305 303 302 301 297 297 304 308 316 317 316 315 315 315 315 316 315 315 314 316 317 321 318 315 307 300 299 299 298 299 301 305 309 309 308 307 307 307 307 307 306 303 302
317 317 318 317 317 316 316 316 316 316 316 316 316 314 312 310 309 308 307 305 304 302 300 297 294 296 302 305 310 317 317 316 316 316 316 316 316 315 315 316 316 317 318 318 316 313 307 300 298 298 299 300 299 297 301 308 307 306 306 306 306 306 303
315 315 315 315 315 315 316 316 316 317 317 316 314 312 310 309 308 306 305 303 302 301 299 295 294 297 300 301 305 312 316 316 317 316 316 316 315 314 313 315 316 316 319 325 320 318 317 312 302 301 302 303 302 301 296 294 297 306 307 307 307 305 305
312 312 313 315 316 316 315 315 315 316 316 315 313 311 309 308 306 304 303 302 300 299 298 295 294 298 300 301 304 309 317 315 315 317 317 316 316 315 314 314 313 313 314 315 314 315 317 315 314 313 312 311 312 310 305 298 295 295 301 307 306 306 306
312 312 312 313 314 314 314 314 314 314 315 314 312 310 308 306 305 303 302 302 300 298 296 293 293 297 301 302 303 307 317 317 316 316 315 315 315 316 316 316 315 314 312 308 302 300 312 314 314 313 311 310 309 312 312 310 306 304 303 304 306 308 307
312 312 312 313 313 312 313 313 314 315 315 314 312 310 308 305 303 302 301 300 300 299 297 293 293 295 299 301 305 316 317 317 317 317 316 316 315 315 316 315 314 311 308 304 298 292 296 305 314 313 312 311 311 310 306 301 295 294 297 303 306 307 308
312 311 311 312 312 312 312 312 313 313 312 310 308 306 304 303 302 301 301 301 300 298 297 294 293 295 297 302 308 317 317 316 316 315 313 309 306 307 309 309 309 307 305 302 294 291 292 301 313 312 313 312 311 310 309 306 298 294 293 293 293 294 295
310 310 312 310 311 312 311 312 312 312 310 307 305 304 302 301 301 300 299 299 298 297 296 295 293 294 295 297 306 314 314 315 313 310 306 304 302 302 303 307 305 302 302 299 291 291 293 305 311 310 311 309 310 308 306 305 307 306 298 296 295 293 293
308 309 310 311 312 312 312 312 312 311 309 307 305 304 302 301 300 299 299 299 300 297 296 296 293 293 294 295 302 306 308 310 310 307 304 302 302 301 300 299 298 297 297 293 289 291 292 302 308 308 308 307 306 304 303 303 304 305 305 305 303 302 300
305 307 309 310 310 310 311 312 311 309 307 306 304 303 302 301 299 299 299 297 297 296 296 295 294 293 294 294 297 303 304 307 307 307 305 302 300 299 299 298 297 290 290 290 289 289 290 293 306 307 306 304 302 303 304 304 305 303 304 305 306 305 303
301 302 304 307 308 309 309 309 308 307 305 304 302 301 299 298 297 297 297 297 297 297 297 295 294 292 293 293 294 298 303 303 304 302 301 300 300 299 298 297 296 293 290 290 290 289 290 291 296 305 304 304 304 300 295 301 303 301 304 303 304 307 307
300 301 301 302 303 305 308 309 307 306 304 302 300 299 298 297 296 296 296 296 295 295 297 297 295 293 292 292 292 294 299 300 301 302 300 300 299 299 299 297 296 293 290 290 290 289 289 290 292 299 295 290 289 290 294 297 299 301 302 303 303 304 305
298 299 299 299 300 301 302 305 307 306 304 302 300 299 299 298 297 296 296 296 295 295 294 294 293 293 292 291 291 291 292 295 295 301 300 298 297 296 296 295 295 294 290 290 289 289 290 292 294 291 288 288 289 290 294 295 297 299 299 300 300 301 300
296 297 297 297 298 298 299 299 300 302 304 302 300 298 298 297 297 296 295 294 295 294 294 293 292 291 292 290 291 291 291 291 293 296 295 294 293 293 292 291 292 290 290 290 290 289 287 288 288 286 286 287 291 294 295 297 297 297 295 295 296 295 293

ECMWFFLT1_sfc_thetae_087.txt.gz
Theta_e
327 326 328 329 330 331 328 330 329 330 332 333 334 332 331 331 331 330 330 329 329 328 329 327 327 327 327 327 327 326 325 326 325 324 322 322 321 321 322 320 319 319 320 315 319 317 316 315 317 323 325 324 324 324 326 325 323 322 323 325 326 325 324
326 326 326 328 330 331 327 328 328 329 330 332 333 332 332 332 331 330 329 329 329 329 330 327 326 327 326 326 325 325 324 324 325 324 323 322 321 320 320 314 318 317 315 316 318 314 316 316 316 318 319 324 324 324 325 324 322 322 323 323 326 326 324
326 326 327 327 329 329 327 326 327 327 327 328 328 330 330 331 330 330 330 330 329 329 330 328 327 326 326 326 326 326 325 324 322 324 324 323 323 321 322 318 314 314 314 314 314 314 316 315 316 317 319 319 318 321 324 324 323 323 321 322 325 325 323
324 325 326 327 328 329 327 326 325 326 327 327 328 328 330 331 330 330 330 330 330 331 331 329 327 328 327 327 327 327 326 325 325 324 323 321 322 321 320 320 319 319 318 314 315 315 315 313 317 318 319 320 320 319 321 324 323 322 321 321 322 323 324
323 324 325 326 328 328 328 325 326 327 326 326 325 326 327 329 329 329 330 329 329 329 329 329 329 328 328 327 326 326 326 325 325 325 323 322 321 322 320 319 320 320 317 316 318 318 317 316 319 318 318 319 319 318 322 323 325 322 322 324 323 322 323
324 325 326 326 328 328 328 326 326 326 325 324 324 324 326 328 328 328 328 328 328 328 329 329 329 329 328 327 326 326 325 325 325 325 323 322 322 322 323 319 319 319 318 317 319 318 316 318 320 318 319 320 317 318 321 321 320 324 325 324 323 321 321
324 325 327 327 327 328 328 327 327 327 325 325 325 325 326 327 327 327 328 327 327 327 328 328 328 328 328 328 327 326 325 325 325 324 324 322 322 322 322 320 319 319 316 318 319 319 318 318 317 318 318 316 318 318 319 319 321 320 322 321 321 321 320
325 326 326 327 327 327 327 327 327 327 326 324 324 325 325 326 326 325 325 325 324 325 325 326 328 327 327 327 326 325 324 323 324 323 322 321 321 320 318 320 319 319 317 319 320 320 321 320 319 318 318 315 315 317 316 317 318 318 319 319 321 319 316
327 327 326 326 327 327 326 326 324 325 325 323 322 323 323 326 324 324 325 324 322 323 324 325 325 326 324 325 323 323 323 325 323 322 321 321 321 320 320 317 319 318 319 320 320 320 321 321 321 320 320 318 315 312 315 314 316 316 319 315 317 317 315
326 327 326 326 325 325 325 324 323 323 323 323 323 323 323 323 324 323 324 322 322 322 322 323 324 324 323 324 323 321 322 320 323 322 320 322 321 320 318 319 320 319 318 320 320 320 321 320 321 321 321 319 318 314 312 313 314 314 315 313 311 313 315
326 327 326 325 324 324 324 323 322 322 323 324 325 325 323 323 322 326 321 320 320 321 322 322 322 322 322 320 321 321 321 321 321 319 321 322 320 320 318 317 317 319 318 320 320 320 320 321 320 321 320 317 317 315 313 312 313 312 312 312 309 310 313
325 326 326 325 324 324 323 323 323 324 323 323 324 323 322 321 320 318 319 318 319 319 320 322 321 321 320 319 318 319 318 321 321 320 319 320 319 321 320 319 316 318 318 319 318 319 319 320 320 320 319 318 316 313 314 310 307 310 313 312 310 313 312
325 325 325 324 323 324 324 324 324 322 321 321 322 322 321 320 319 317 317 318 318 318 319 320 321 320 319 320 320 320 318 319 320 320 318 318 323 320 319 319 318 319 318 317 317 318 318 319 319 319 318 317 314 314 313 310 308 310 311 312 308 311 313
325 324 324 324 324 323 323 323 323 322 322 321 321 319 320 319 318 318 318 318 318 317 317 317 317 318 318 318 317 318 316 318 320 316 318 316 320 319 320 319 319 317 317 319 316 317 317 317 317 317 317 316 315 313 314 309 308 306 307 307 308 310 311
325 324 323 323 323 323 322 322 322 321 321 322 322 320 318 318 318 318 317 316 315 316 317 317 315 316 318 315 313 317 317 316 315 314 314 316 317 321 318 318 318 316 316 317 316 318 318 318 318 318 316 316 314 313 314 312 306 308 309 306 306 308 309
324 323 322 322 322 323 322 322 322 322 321 321 321 320 319 318 318 318 317 315 314 315 316 316 314 316 315 314 314 312 314 314 314 313 314 316 318 317 316 316 316 316 319 316 315 315 315 317 318 318 316 315 314 313 313 312 308 307 308 305 305 307 308
322 322 321 321 321 322 322 322 322 322 321 321 320 319 319 318 317 317 316 313 314 314 315 314 314 314 315 313 312 312 310 311 313 314 316 316 317 317 317 316 314 316 316 315 314 314 313 313 315 317 316 314 314 313 313 312 311 307 306 307 304 307 307
321 320 319 319 320 321 321 321 321 321 320 320 319 318 318 317 316 316 316 314 313 313 315 314 313 311 311 311 311 310 310 310 311 314 314 316 321 317 316 316 316 315 315 314 313 313 311 310 311 313 314 314 314 314 313 312 311 307 308 308 304 304 305
320 320 320 320 320 321 321 321 321 321 320 319 319 319 317 317 317 316 315 315 315 315 314 313 312 310 309 308 308 308 309 310 311 312 312 315 315 315 315 315 314 315 315 315 313 310 309 309 309 309 310 311 311 311 311 309 309 307 309 308 306 301 302
319 320 320 321 322 322 321 321 321 320 319 319 318 317 316 316 315 316 316 316 315 314 312 311 310 308 309 309 309 309 309 310 312 313 312 313 313 314 314 314 313 314 313 312 312 311 310 310 311 309 307 307 307 308 308 307 307 307 307 305 302 303 302
317 319 320 321 321 322 321 320 321 320 320 317 317 317 316 315 312 313 313 312 311 310 309 308 307 308 309 309 310 309 311 313 313 312 311 311 311 311 312 312 312 312 313 312 312 311 312 311 311 310 307 309 307 306 305 304 304 305 303 303 303 302 301
317 318 319 319 318 320 320 320 320 320 318 317 316 314 314 313 312 310 310 309 308 307 306 305 304 304 309 310 311 312 313 314 313 312 311 312 312 312 312 312 311 311 316 316 312 312 312 313 312 310 307 309 309 308 306 305 303 302 302 302 301 299 299
318 318 319 318 318 318 318 318 319 318 316 314 313 312 313 313 311 310 308 307 306 306 305 304 305 301 307 313 313 314 313 313 313 313 313 314 314 315 315 315 317 317 313 312 307 302 302 305 310 311 310 310 309 309 307 306 304 303 302 301 299 298 297
318 318 318 317 315 317 317 317 317 315 314 313 312 312 312 310 308 308 307 305 304 303 303 302 297 299 303 307 314 313 313 312 313 314 314 314 313 313 313 314 314 317 314 312 305 298 298 299 300 303 305 308 312 311 309 307 305 304 303 303 301 299 297
316 316 317 317 316 316 315 315 314 314 312 311 310 310 309 308 307 306 305 304 303 302 301 299 296 303 302 303 308 314 313 313 313 313 313 313 312 312 311 312 312 315 316 315 312 309 304 298 297 297 297 297 297 298 301 306 306 304 304 305 303 303 302
315 316 316 316 315 315 314 314 314 312 311 310 309 308 307 306 305 305 304 303 302 302 300 297 297 300 300 301 303 310 314 314 314 313 313 313 312 311 309 309 313 313 314 316 315 313 312 309 302 299 301 300 299 298 294 294 295 303 306 306 304 302 303
312 313 313 314 314 314 314 313 312 311 310 309 307 306 305 303 303 303 303 302 301 301 300 297 298 299 300 301 303 308 315 315 314 314 313 313 312 313 313 312 311 310 309 307 305 307 312 312 311 310 310 310 310 306 299 295 295 295 300 305 306 305 306
311 312 313 313 312 312 312 311 310 309 308 307 306 304 303 302 302 302 302 302 302 300 298 293 297 299 300 301 303 306 314 313 313 313 314 314 313 313 312 312 311 309 307 305 302 298 305 308 310 311 309 309 308 305 304 304 303 303 303 303 304 306 306
310 311 312 312 312 311 311 311 309 309 308 306 304 303 302 302 301 301 301 301 300 299 297 293 292 298 300 301 304 313 315 315 313 311 309 309 310 311 311 310 308 306 304 302 297 292 296 303 310 310 309 309 309 308 305 301 296 296 297 299 302 304 304
310 310 310 311 311 309 309 308 307 306 303 302 302 301 300 300 301 300 300 299 298 297 296 294 292 294 300 303 307 315 314 312 309 305 303 304 304 305 305 304 303 302 301 299 293 291 295 306 312 310 309 309 308 307 305 306 302 297 295 293 293 293 293
310 310 311 309 309 309 308 307 305 304 302 300 299 300 300 299 299 299 298 298 297 296 296 295 292 293 295 302 309 314 312 308 304 302 301 301 301 301 304 306 304 301 300 298 291 292 294 306 309 309 309 307 305 304 304 304 305 305 301 300 298 298 295
308 309 309 310 310 308 307 306 305 303 301 300 299 299 299 298 298 298 298 298 300 297 296 296 293 292 294 297 307 312 309 306 302 301 300 299 299 299 298 298 298 297 296 292 289 291 293 303 308 307 306 306 304 303 302 302 302 302 303 304 305 305 302
303 305 307 308 309 308 307 305 303 302 301 301 299 299 298 298 296 297 297 297 297 297 296 295 294 292 294 295 299 308 307 304 301 300 299 299 298 298 298 297 296 290 290 290 289 290 292 295 304 305 304 303 301 301 301 301 302 302 304 303 302 301 301
301 303 305 307 307 307 306 304 303 301 299 299 298 297 297 296 296 296 296 296 296 296 297 296 294 291 292 294 296 300 304 303 301 300 299 298 297 297 297 297 296 292 290 289 289 290 291 291 295 301 301 301 300 298 294 300 300 299 301 300 300 300 300
300 301 303 306 305 304 304 303 302 300 299 298 296 296 296 295 295 295 295 295 295 294 296 295 294 292 291 292 293 295 300 300 300 299 298 297 297 297 297 296 295 292 289 289 289 290 290 290 291 295 290 288 288 289 294 297 296 297 298 297 297 296 295
298 299 300 302 303 303 303 302 301 300 299 298 297 296 296 295 295 294 294 294 294 294 293 293 292 292 291 290 291 291 292 294 294 299 297 296 295 294 294 293 295 292 289 289 288 287 288 290 292 288 286 289 291 292 295 295 295 296 295 294 294 293 292
296 297 298 300 301 300 300 301 301 300 299 298 296 296 295 295 294 293 293 293 293 293 293 292 292 291 291 290 290 290 290 290 291 294 294 293 293 293 292 292 292 290 289 288 287 287 287 287 286 286 286 290 292 293 294 295 295 294 292 292 292 291 290

ECMWFFLT1_sfc_thetae_090.txt.gz
Theta_e
325 326 329 329 327 329 329 329 329 329 331 332 331 332 332 332 331 330 330 329 328 329 330 328 328 328 328 328 328 327 326 327 328 326 325 325 323 323 324 323 322 322 322 320 322 319 318 316 318 324 326 326 326 327 328 327 327 327 328 328 328 328 328
325 327 328 328 327 328 327 327 328 329 330 331 332 332 332 332 331 330 329 329 328 328 330 328 328 328 328 327 326 325 326 326 327 326 326 324 325 323 321 319 320 320 320 320 321 319 319 316 316 319 320 324 325 326 327 328 327 327 328 328 330 329 327
325 326 327 326 326 328 325 326 327 328 329 329 331 332 331 331 331 330 329 329 328 329 329 328 328 328 327 327 327 326 326 326 326 326 326 325 325 323 324 320 318 318 318 319 319 318 318 318 316 317 320 319 319 322 326 325 325 325 325 327 329 328 327
324 325 325 325 326 327 326 326 326 327 327 328 330 330 330 330 330 331 330 329 329 330 329 328 328 328 327 327 327 327 326 326 326 326 325 325 324 324 323 322 322 321 320 317 318 318 317 316 318 318 319 321 321 319 323 325 325 324 325 326 327 327 326
324 325 325 325 326 327 327 326 326 326 326 327 328 328 328 330 330 330 330 329 329 329 329 329 328 328 328 327 327 326 326 326 326 326 325 324 324 323 323 322 322 322 320 320 321 321 319 319 320 318 318 321 321 322 323 325 326 325 326 326 325 325 326
324 325 326 326 328 328 328 326 325 325 325 324 325 326 327 329 329 328 328 328 328 329 329 329 329 329 328 327 327 326 326 325 326 326 325 324 324 323 324 322 323 322 321 320 322 321 320 321 321 318 320 322 318 319 322 324 322 325 326 326 325 325 325
325 325 326 326 328 329 328 327 326 326 324 324 325 325 327 328 328 329 329 329 329 329 329 329 329 329 328 327 327 326 326 326 326 326 326 325 324 325 325 322 322 322 320 321 322 322 321 321 320 319 319 319 321 319 321 321 323 322 322 323 323 323 322
326 326 326 327 328 329 329 328 327 328 326 325 325 326 326 328 328 327 328 328 327 327 327 327 327 328 328 328 327 327 326 326 326 326 325 324 323 323 323 324 322 321 321 321 322 322 323 323 321 321 320 316 317 319 318 320 321 321 321 321 322 321 320
326 326 326 327 328 329 329 329 328 328 328 326 324 325 326 327 326 326 327 326 325 325 325 326 327 327 327 326 325 324 324 325 325 325 324 323 324 323 323 322 322 322 321 322 322 323 323 323 323 323 322 320 316 313 317 316 318 318 322 320 319 319 318
325 325 325 326 327 328 328 328 328 328 327 326 324 325 325 326 326 325 326 325 324 325 326 326 326 327 326 326 325 324 324 324 325 324 322 323 323 322 322 322 323 321 321 322 322 322 323 323 324 324 324 321 320 316 313 312 314 316 318 318 319 317 318
326 326 326 326 327 327 327 327 326 325 326 325 325 325 325 325 325 328 324 324 323 323 325 325 325 324 325 324 324 324 324 324 323 322 323 323 322 322 321 321 321 321 321 322 322 322 323 323 323 324 323 323 322 318 316 313 314 318 318 317 315 316 315
326 327 327 327 326 326 326 326 325 325 324 324 325 324 323 324 323 323 323 322 322 322 322 323 323 323 324 322 322 322 321 323 323 322 322 323 321 322 322 321 320 321 321 322 321 322 323 323 323 323 322 322 321 319 318 315 313 316 319 318 316 315 315
326 326 326 326 326 326 326 325 324 323 323 323 323 323 323 322 321 320 320 321 321 321 322 322 322 322 321 322 322 322 321 322 322 322 320 320 323 322 322 321 321 321 321 321 321 321 322 322 323 323 322 321 319 318 318 313 313 315 315 318 315 315 315
325 325 325 325 325 325 324 324 323 323 322 322 321 321 321 320 319 319 319 320 320 320 320 320 320 321 321 320 320 321 320 322 322 320 321 321 323 322 322 322 321 320 321 321 320 320 321 321 321 322 322 321 319 318 318 315 314 313 314 312 314 314 314
325 325 324 325 325 324 324 323 322 322 322 321 322 321 321 320 318 318 319 319 318 319 320 320 319 320 320 319 318 320 320 320 320 319 321 321 320 322 321 321 320 319 321 320 320 321 321 321 321 321 320 320 318 318 319 316 313 314 314 312 312 313 313
323 323 323 324 324 324 323 322 322 322 321 321 321 321 320 319 318 319 318 317 318 318 319 319 318 319 319 319 319 318 319 319 319 319 320 321 321 321 320 320 319 319 320 319 319 321 320 321 322 321 320 319 319 318 318 317 315 313 313 312 311 312 313
322 322 322 322 322 322 322 321 322 321 321 321 320 320 320 319 318 318 317 316 317 317 317 317 317 318 318 318 318 317 316 317 318 319 320 319 320 321 321 319 319 319 319 318 317 318 319 320 321 321 319 318 319 317 318 316 318 314 313 313 309 312 312
321 321 321 321 321 322 322 322 322 321 321 320 320 319 319 319 318 318 317 316 316 317 317 317 316 315 315 316 316 315 315 316 316 317 318 318 322 320 320 320 319 319 318 318 316 317 316 318 318 319 320 318 318 318 317 317 316 314 314 314 311 310 311
319 319 320 320 321 321 321 321 321 320 320 319 317 319 318 318 318 317 316 316 316 317 316 316 316 315 314 313 313 313 313 313 314 315 316 318 319 319 319 319 319 318 318 319 317 316 314 315 314 316 317 317 317 317 316 315 315 314 315 314 312 308 309
318 318 319 320 320 321 321 321 320 320 320 320 318 317 317 318 317 317 316 315 315 315 315 314 313 312 312 311 311 311 311 313 314 315 315 316 316 317 318 318 318 318 319 318 316 314 313 313 313 313 315 316 315 316 314 314 313 313 313 311 309 309 309
317 317 318 319 320 320 320 320 320 320 320 320 319 318 317 315 314 314 313 312 312 313 312 311 310 311 311 311 311 311 313 314 313 313 313 313 313 314 314 315 315 316 315 315 315 314 315 313 313 313 312 313 313 313 312 311 311 311 311 311 310 308 307
316 317 318 318 319 319 319 319 319 319 319 318 317 317 316 314 312 310 309 309 309 309 310 309 310 311 312 311 312 313 314 314 313 312 312 313 313 314 314 315 316 317 319 316 311 312 313 313 314 313 311 311 311 311 309 310 310 310 309 309 307 305 306
317 318 318 318 318 318 318 318 318 318 317 317 315 314 313 312 311 310 308 307 307 307 307 307 305 302 308 313 314 314 314 313 314 314 314 314 314 315 315 316 316 314 312 310 305 300 299 303 308 312 313 312 311 310 309 309 309 309 309 308 308 305 305
317 317 316 316 316 317 317 317 317 315 314 314 313 313 311 310 308 308 307 306 305 305 304 304 298 294 298 305 314 314 314 314 315 315 314 314 314 315 316 316 316 316 314 312 306 298 297 297 297 298 300 303 307 312 310 308 308 308 308 309 306 304 307
316 316 315 314 315 315 315 315 313 312 312 311 311 310 308 307 306 306 305 305 304 304 303 299 297 297 299 302 307 314 315 315 315 315 315 315 315 315 316 316 317 318 319 317 314 312 307 299 297 297 296 295 294 293 297 309 309 307 308 308 306 306 305
314 314 314 314 314 314 313 312 312 311 310 310 309 308 306 306 305 305 305 305 304 304 303 295 297 298 299 300 303 310 315 315 315 315 314 314 314 314 313 312 312 312 312 314 315 314 314 311 302 301 303 303 299 296 292 291 295 309 312 310 309 306 307
312 312 313 313 313 312 311 309 309 308 308 307 306 305 304 304 304 304 304 304 303 302 301 296 297 298 300 300 302 307 315 315 314 313 313 313 313 313 313 312 311 309 307 307 307 310 314 313 313 313 313 311 310 307 300 297 297 297 303 310 310 310 309
311 312 312 312 311 310 309 308 306 305 305 305 304 303 303 303 303 303 303 303 302 300 300 294 296 298 299 301 302 306 314 314 313 312 312 313 313 313 311 310 309 307 306 304 301 300 312 311 312 312 310 309 309 308 307 307 305 304 306 307 309 310 309
310 311 311 310 309 307 306 305 304 304 303 302 303 303 302 302 301 301 301 301 301 300 298 293 294 295 297 299 303 313 313 312 310 309 309 309 309 309 309 308 306 305 304 302 298 293 299 310 314 313 311 310 309 308 307 304 297 297 300 302 305 307 307
309 309 308 307 306 304 303 302 302 303 301 301 300 300 300 300 300 300 301 301 300 299 298 295 293 294 296 298 306 312 310 308 307 305 304 305 305 306 305 304 304 303 301 300 294 294 299 306 312 311 310 308 307 307 306 306 301 297 295 294 294 293 293
308 308 307 306 304 303 303 302 301 301 300 299 298 298 299 299 299 300 299 299 299 299 297 295 293 296 298 298 303 309 308 305 303 302 301 301 301 301 303 305 304 301 300 298 293 294 298 307 311 310 309 307 306 305 304 304 306 305 299 297 296 294 295
307 307 306 305 304 303 302 301 301 300 299 299 298 299 299 297 297 298 298 299 300 298 297 296 293 294 297 299 303 306 304 302 300 300 300 299 300 299 299 298 297 297 297 295 292 293 296 305 308 308 307 305 303 303 302 302 302 303 304 305 305 306 305
305 306 305 304 304 303 302 302 301 300 299 299 298 298 297 297 295 295 296 296 296 296 296 295 293 292 294 296 299 306 305 303 300 300 300 299 299 298 298 298 296 290 291 291 291 292 293 296 305 306 306 305 304 302 301 303 302 304 303 301 301 301 302
303 304 305 303 302 302 301 300 300 299 298 298 297 297 296 296 295 295 295 295 295 295 296 295 293 291 292 294 295 299 303 302 301 300 299 298 298 297 297 297 296 291 290 290 290 290 292 292 296 302 303 303 301 298 296 303 300 298 300 299 299 298 298
301 303 304 303 301 300 300 300 299 298 298 297 296 296 295 295 295 294 294 294 294 294 295 294 294 291 291 291 292 294 300 299 299 300 298 298 297 296 296 296 295 290 289 289 290 290 290 291 292 297 292 289 288 291 299 299 299 299 299 298 298 297 296
298 300 301 302 301 300 300 300 299 298 297 296 296 295 295 295 294 294 294 294 294 294 294 294 292 292 290 290 290 290 291 294 293 300 298 296 295 294 295 295 294 289 288 288 288 289 290 290 292 291 289 290 291 292 295 299 298 299 298 297 297 296 295
296 297 299 300 300 299 299 299 298 298 297 296 295 294 294 294 294 293 293 293 293 294 294 294 292 291 291 290 290 290 290 290 292 295 296 295 294 294 294 294 291 288 289 289 289 289 288 289 289 288 290 291 291 293 298 298 297 297 296 295 296 295 294

ECMWFFLT1_sfc_thetae_093.txt.gz
Theta_e
332 332 333 335 337 337 335 335 337 337 336 335 335 334 334 335 335 334 334 334 334 333 333 332 332 332 333 333 332 333 333 333 332 329 329 329 326 327 331 331 332 332 332 332 329 324 322 319 321 328 331 331 332 331 331 332 333 335 335 334 333 335 336
332 333 334 333 333 335 335 335 335 335 336 336 336 335 335 335 335 334 334 334 333 333 333 333 333 333 332 330 330 330 330 331 332 333 332 329 330 330 329 329 330 329 329 331 331 330 324 322 320 322 324 328 331 331 333 334 332 333 333 334 334 334 334
330 330 332 332 332 333 333 334 334 334 334 334 334 334 334 335 335 334 334 332 332 332 332 333 332 331 332 331 331 331 332 331 332 334 332 333 332 333 331 328 328 328 327 327 328 328 327 327 321 320 323 323 321 327 332 330 332 331 331 332 332 332 332
331 330 329 329 330 330 331 333 334 333 334 333 334 333 334 334 334 334 334 332 331 331 333 332 331 332 333 333 332 332 332 331 331 334 333 335 333 333 331 331 331 329 327 326 327 328 328 324 322 322 323 324 324 322 327 330 329 330 330 331 331 331 332
329 328 328 329 330 329 330 330 332 332 332 333 334 333 332 334 333 333 333 333 332 332 332 332 333 333 334 334 334 332 331 333 331 331 332 333 333 332 332 333 334 334 334 331 331 331 328 327 325 323 321 323 324 325 326 329 330 328 329 330 330 330 331
329 329 329 330 331 330 330 329 329 329 330 331 332 332 333 332 333 333 333 332 331 332 333 333 333 333 334 334 333 332 331 330 331 332 332 332 332 331 331 334 334 334 333 334 333 331 331 330 328 324 323 324 322 324 327 328 327 329 329 329 329 329 330
327 328 329 330 331 331 330 329 329 330 330 330 330 330 333 333 332 333 333 333 332 333 333 332 333 334 333 333 334 332 330 331 333 334 334 335 335 335 336 332 334 333 334 333 334 332 330 329 327 326 323 323 325 321 324 326 328 325 326 328 330 329 329
328 328 329 330 330 330 330 329 330 331 331 331 331 332 333 331 331 333 333 333 332 332 332 333 333 334 335 333 333 334 333 333 334 334 336 335 333 333 333 334 334 334 334 333 334 333 332 331 330 329 325 321 321 323 322 323 325 325 325 327 329 328 329
329 329 329 330 330 331 329 330 331 332 332 332 332 333 333 331 331 331 333 333 333 333 333 334 334 333 333 331 331 333 332 332 332 332 332 332 333 334 332 332 332 333 335 334 334 333 332 333 333 332 329 326 321 318 321 320 321 322 326 325 327 328 328
329 328 328 328 329 330 330 330 331 332 333 332 330 331 331 332 332 333 333 334 334 334 335 335 334 334 334 333 333 334 333 334 333 332 332 332 334 334 332 330 333 335 334 336 334 334 334 334 333 332 331 328 327 322 318 317 320 320 324 326 324 326 328
330 330 329 328 328 329 329 330 331 331 331 332 332 332 331 332 333 334 334 334 334 334 335 335 335 334 333 332 331 332 333 334 334 334 333 334 335 336 334 331 334 334 335 335 334 335 335 334 332 332 331 331 330 325 322 319 320 323 323 326 327 326 327
330 330 331 329 328 327 328 329 329 330 331 332 330 331 331 331 331 332 333 334 334 334 334 332 333 333 332 330 330 331 332 334 334 334 335 335 336 336 335 335 335 335 335 335 335 335 335 334 333 332 331 332 330 330 326 322 319 324 327 324 326 328 326
329 329 330 330 328 327 327 328 328 330 330 331 330 331 332 331 332 332 332 332 332 333 332 332 332 331 329 329 330 332 333 335 335 335 335 335 333 335 335 334 333 334 334 334 334 334 333 333 334 332 332 331 331 331 328 323 321 320 326 327 327 327 327
329 329 330 331 330 328 328 327 328 328 330 330 331 331 333 334 334 332 332 332 332 333 332 331 331 330 329 330 333 335 335 335 334 335 335 334 334 335 334 333 333 334 335 334 333 334 333 333 333 333 333 332 330 329 327 325 322 322 325 327 327 326 326
328 328 328 329 329 328 327 326 327 328 329 332 333 333 333 333 333 333 332 333 334 334 333 332 332 331 331 331 334 336 335 334 333 334 335 334 335 334 336 334 332 333 334 333 334 332 332 331 331 331 330 330 329 328 330 326 324 322 323 325 325 326 325
326 328 329 330 329 328 328 327 329 329 330 331 331 332 333 332 332 332 333 333 333 334 334 334 334 334 333 333 333 334 335 334 333 334 334 334 333 334 334 334 334 334 334 334 334 334 334 332 331 330 330 330 329 330 329 328 326 324 323 324 327 324 325
326 328 328 330 329 329 329 328 328 330 330 331 330 331 331 329 329 330 332 332 332 333 333 334 334 335 335 334 333 333 334 334 333 333 333 334 333 334 334 334 334 334 334 333 333 333 332 333 332 331 330 331 331 330 330 330 329 328 326 323 323 324 325
325 327 327 328 328 328 328 329 329 329 329 328 328 327 326 325 327 328 330 331 331 332 333 333 333 333 334 335 333 333 333 333 334 333 334 334 333 334 334 333 333 333 333 332 332 331 331 332 330 331 330 329 330 331 330 330 329 328 327 325 325 324 325
323 324 326 327 328 328 328 328 328 329 329 327 326 326 324 324 326 326 328 329 330 331 332 332 332 332 332 333 334 334 334 334 333 332 333 333 334 334 334 333 333 332 332 332 331 331 331 331 330 330 330 329 329 330 330 329 329 328 327 326 326 322 323
324 325 325 326 328 328 327 328 327 327 328 327 326 325 324 323 323 325 325 328 330 331 331 331 332 332 331 331 332 331 331 331 330 331 331 332 333 333 334 333 333 333 332 332 332 331 331 332 331 330 331 331 329 329 329 329 327 327 326 326 324 324 323
323 324 326 327 327 327 327 327 327 328 327 326 326 326 325 324 323 324 324 325 326 329 329 329 329 330 330 330 329 329 329 329 328 329 330 330 331 332 332 333 333 331 331 331 332 332 331 329 328 329 329 330 329 328 328 327 327 326 325 325 323 321 322
322 323 324 325 326 326 326 326 326 327 327 327 326 324 324 324 323 322 322 323 322 324 326 327 328 328 327 327 328 327 327 327 328 327 327 327 328 328 328 329 328 329 326 319 312 315 316 319 327 326 325 326 327 327 327 326 326 325 324 324 323 323 320
322 323 323 323 324 324 325 325 325 325 325 326 325 323 320 321 322 322 322 321 322 323 322 321 312 309 316 326 327 326 327 327 327 327 326 326 326 326 326 324 320 314 311 309 305 301 300 303 308 322 326 327 326 326 326 325 324 324 323 322 321 320 319
321 321 321 321 322 321 322 323 322 322 322 322 323 321 320 318 318 319 320 321 321 320 319 311 298 295 302 309 324 327 326 326 327 327 327 326 324 323 323 321 320 316 314 310 306 298 297 297 297 296 296 300 308 326 325 323 322 323 320 320 322 320 319
318 319 319 319 318 318 317 318 318 318 319 319 317 318 317 314 315 317 319 319 319 318 315 300 294 296 301 305 313 327 327 326 326 327 326 325 323 323 323 324 325 326 324 321 318 313 304 297 296 295 295 295 295 293 295 317 323 320 321 320 318 319 319
316 317 317 317 317 316 315 315 315 315 314 314 313 311 311 313 314 317 318 317 316 315 313 296 296 297 299 301 306 317 326 326 326 326 325 324 323 323 323 323 323 323 321 320 322 321 317 310 299 297 299 299 298 297 294 293 296 321 323 320 321 318 318
314 314 314 314 314 313 312 311 311 311 310 310 310 310 311 311 313 315 316 315 314 313 310 298 296 298 299 300 304 313 326 326 326 326 325 325 325 325 325 324 322 320 321 321 324 326 325 322 320 322 323 322 319 311 302 299 300 301 313 324 323 320 320
311 310 310 309 309 309 309 308 307 307 306 306 305 306 306 306 306 308 311 314 314 312 307 294 295 295 297 301 304 311 326 326 325 325 325 326 325 325 325 325 324 321 320 319 316 315 327 327 326 325 324 322 321 319 318 318 318 321 322 324 324 323 322
309 308 307 307 306 304 304 304 305 305 304 304 304 305 306 306 304 305 306 308 310 310 307 293 294 295 297 300 306 323 324 324 322 321 320 320 321 321 322 322 321 320 319 317 303 295 308 326 325 324 322 321 320 316 311 302 295 297 310 318 319 318 317
308 306 305 304 304 304 303 302 303 304 302 302 302 302 301 302 303 304 305 305 306 305 305 297 294 295 297 301 310 320 319 318 318 317 316 316 314 314 314 315 318 319 319 317 302 295 298 310 324 322 321 320 319 318 315 312 300 295 294 293 292 292 292
307 305 304 303 303 304 304 303 302 303 302 300 300 300 300 300 300 300 300 301 303 304 303 297 294 296 298 299 305 313 311 310 307 305 306 306 307 306 305 304 308 313 313 307 294 297 298 314 320 319 318 318 318 316 314 314 315 309 296 296 294 293 293
306 304 302 302 302 302 302 302 302 303 302 301 300 300 300 298 297 298 298 298 300 300 300 298 293 294 296 299 309 315 312 309 305 302 302 303 304 305 303 300 296 298 302 297 291 294 299 313 320 316 314 313 311 310 308 311 313 314 314 313 310 309 305
304 303 302 302 302 302 302 302 302 301 301 300 299 299 298 297 296 296 297 297 296 297 298 297 294 292 294 295 300 310 309 307 303 304 306 307 306 306 305 303 298 290 290 291 292 292 294 300 314 316 316 314 311 306 309 310 311 311 309 308 307 306 305
303 303 303 302 302 301 301 301 301 301 301 300 299 298 297 297 296 295 296 296 296 296 296 296 294 291 292 293 295 301 308 307 306 306 305 305 307 307 305 302 299 291 290 290 291 292 293 295 301 314 314 311 307 303 304 308 305 302 307 306 306 306 306
303 303 303 302 301 301 301 300 300 300 300 299 298 298 297 297 296 295 296 296 296 295 296 295 296 292 291 292 292 295 302 303 304 305 303 303 302 302 302 300 297 291 289 290 290 291 292 293 295 305 299 291 291 295 306 307 308 309 309 308 307 306 307
301 301 301 301 300 299 300 299 299 300 299 298 297 297 297 297 297 296 296 296 296 296 296 295 292 293 291 291 291 291 292 296 294 303 302 299 298 298 299 297 294 290 289 289 290 291 292 293 297 297 289 291 292 294 300 307 307 307 306 306 306 305 304
300 299 300 300 299 299 299 299 298 298 298 297 296 296 296 296 296 295 295 295 297 297 297 296 294 291 292 290 290 290 290 291 293 298 299 298 298 298 297 296 292 290 290 290 289 290 290 292 295 290 291 291 293 298 306 305 304 305 303 303 303 302 302

ECMWFFLT1_sfc_thetae_096.txt.gz
Theta_e
337 337 338 340 342 340 340 342 343 342 341 341 341 340 339 339 339 338 337 336 338 337 336 335 337 338 337 336 338 338 339 337 335 333 332 332 330 328 336 336 335 335 334 335 333 326 325 324 324 331 333 334 334 334 335 335 335 334 335 335 334 335 335
336 335 336 337 338 339 339 340 340 340 341 341 340 340 340 339 338 338 337 337 336 336 336 335 337 336 334 333 334 336 337 336 337 336 334 330 333 334 333 334 333 332 333 336 335 333 326 321 323 325 326 332 334 334 335 335 334 334 334 334 334 334 336
335 335 336 335 336 338 338 338 339 339 340 339 340 340 338 338 338 338 338 338 336 335 334 336 334 334 334 333 334 335 336 334 335 336 332 337 335 334 332 333 331 330 331 332 333 331 330 328 323 323 327 328 325 328 332 332 334 335 334 335 334 334 334
335 335 334 334 335 335 334 336 338 339 341 340 340 340 338 338 337 339 340 338 334 334 334 334 334 334 336 335 334 334 334 333 333 333 334 338 338 333 329 329 331 332 329 329 329 330 330 327 325 325 327 327 326 326 329 332 334 335 335 335 334 334 334
333 333 333 334 334 334 335 335 336 336 336 339 339 337 337 338 338 339 338 337 335 334 334 335 335 337 337 336 335 335 334 334 333 333 333 334 334 332 332 335 333 335 335 333 330 330 328 328 327 326 326 327 326 326 329 333 334 334 333 333 334 335 335
335 335 334 334 335 334 334 334 335 333 334 335 337 336 338 338 338 337 336 334 334 333 333 333 334 335 334 335 335 333 334 334 335 334 333 335 335 332 332 334 335 334 335 334 330 330 331 332 330 325 326 327 324 324 327 330 329 332 333 333 333 334 334
333 334 334 333 335 337 336 335 334 334 335 336 336 336 337 337 336 336 335 335 334 334 334 333 334 334 333 334 334 334 334 335 336 337 337 337 337 332 337 337 332 333 332 331 332 332 333 332 328 327 327 327 327 323 325 326 328 326 329 333 333 333 334
335 333 332 333 335 336 336 335 334 335 334 336 336 337 336 336 337 335 334 334 335 334 335 335 334 334 334 336 335 335 336 335 335 335 334 332 330 333 331 333 334 333 332 333 333 333 333 333 331 331 328 325 324 325 323 325 326 326 326 329 332 332 332
333 334 334 334 334 335 337 336 335 336 336 335 337 337 336 336 334 332 334 333 335 334 334 333 333 333 335 335 335 334 335 334 333 332 332 333 331 331 333 334 333 333 335 335 333 333 332 334 334 333 331 328 323 320 323 322 324 325 328 326 330 333 331
333 333 333 335 336 336 336 337 336 336 337 336 336 336 335 335 334 333 333 333 334 335 334 334 335 333 335 335 333 334 334 335 334 332 333 332 334 332 333 338 333 333 335 337 334 334 335 335 334 334 332 328 326 322 320 320 323 322 325 329 325 328 331
334 334 335 335 337 336 336 336 336 335 334 335 336 335 334 333 333 334 335 336 334 334 335 337 335 335 336 334 335 336 335 335 333 332 334 336 337 336 336 335 334 337 337 335 339 336 336 337 335 334 333 331 330 325 323 320 321 325 326 330 329 326 330
333 333 334 335 335 334 335 336 336 335 336 335 335 333 333 332 333 335 336 336 334 332 335 337 336 335 335 335 333 332 333 333 331 330 334 336 336 335 332 336 335 334 335 333 336 337 339 338 337 335 333 333 332 332 325 322 319 325 330 327 328 330 330
332 332 332 333 333 332 332 334 334 335 335 335 334 333 333 332 332 333 334 335 334 333 332 334 333 333 336 336 337 336 337 337 333 331 332 334 334 332 332 334 333 334 336 337 336 337 337 338 338 335 334 333 332 333 330 326 323 321 331 329 329 330 330
335 335 334 333 333 333 332 333 333 334 334 335 334 333 333 333 333 333 333 332 332 333 332 333 334 334 331 334 336 337 336 336 333 333 331 333 333 334 332 330 331 334 337 335 335 336 335 336 337 335 334 332 331 334 332 329 325 325 330 334 331 329 330
334 333 334 334 332 331 330 333 334 333 333 335 335 334 334 334 333 331 331 332 336 334 333 333 336 335 335 336 337 336 336 335 333 332 335 333 335 333 333 332 332 334 336 334 336 333 333 334 334 333 332 331 330 332 334 327 327 327 325 329 328 329 328
331 331 332 332 331 331 333 334 334 333 333 334 335 336 336 333 331 331 331 333 334 334 335 335 336 336 335 337 335 335 333 333 332 333 335 335 334 334 334 333 333 335 336 335 336 334 333 333 332 330 331 332 329 331 331 330 327 322 321 323 327 324 326
329 329 329 332 332 331 334 334 333 333 333 335 335 334 332 332 333 332 330 329 330 330 334 336 335 333 336 336 336 335 333 331 331 334 335 335 335 335 335 334 334 336 336 335 335 333 334 333 333 330 330 333 331 332 333 334 330 327 323 322 324 323 325
327 328 329 331 331 333 334 334 333 331 333 334 334 333 333 334 334 333 332 331 330 331 333 331 331 334 332 334 332 330 329 329 331 332 334 336 335 336 335 335 334 335 335 334 336 334 333 335 333 331 331 331 331 332 334 333 332 328 325 323 324 325 327
327 327 328 329 330 332 334 333 332 332 333 333 332 333 332 333 333 334 333 331 329 330 329 332 333 332 334 333 332 331 330 331 331 331 334 334 334 336 337 335 335 335 335 335 336 334 334 334 331 331 329 330 331 332 333 333 333 330 327 324 326 325 327
326 327 328 329 330 330 330 332 332 332 333 333 333 333 333 332 332 333 333 332 330 331 330 331 334 334 333 331 331 330 331 332 332 331 331 334 335 337 337 336 336 336 335 335 334 334 335 334 333 331 332 332 331 332 333 332 330 330 329 326 326 328 327
326 327 327 328 329 330 330 330 331 332 332 331 333 333 333 333 333 333 332 330 331 331 331 332 334 333 332 330 329 330 331 331 330 331 332 333 336 337 337 336 335 335 334 333 333 331 334 335 334 334 334 334 333 332 332 331 330 328 328 327 326 325 326
327 326 326 326 328 328 328 328 328 329 329 330 329 329 332 332 330 328 328 330 329 331 332 333 332 332 331 328 329 330 330 329 328 329 330 330 334 336 337 337 337 337 327 319 309 314 315 319 337 333 334 335 334 333 332 330 330 327 327 326 325 327 326
324 325 325 326 326 326 326 326 327 328 327 328 327 327 326 327 327 328 327 326 326 329 332 330 311 300 306 328 328 328 329 328 327 328 328 328 331 334 336 335 326 314 311 309 305 300 299 301 305 324 333 333 332 330 330 329 327 326 326 324 323 324 322
322 323 324 324 324 325 325 325 325 325 324 325 325 325 326 324 325 327 325 325 326 326 326 315 297 296 300 309 325 328 327 327 327 327 327 328 329 331 331 329 326 318 316 312 307 297 296 296 297 297 296 299 308 333 330 326 326 327 322 322 322 322 321
317 318 320 321 321 322 322 321 320 321 321 321 321 320 321 321 322 323 323 323 324 324 320 299 295 297 300 306 315 328 327 326 327 327 327 327 329 329 329 329 329 328 327 324 320 313 304 296 296 296 296 297 296 294 299 324 328 325 326 323 323 323 323
313 313 314 315 316 316 316 315 315 315 315 317 318 316 316 319 318 319 320 320 320 320 316 295 295 297 300 303 308 318 325 327 327 327 328 327 328 329 329 329 330 328 324 322 323 322 319 314 301 299 301 302 301 300 298 296 299 328 328 326 325 324 323
311 310 311 312 312 312 310 309 310 312 312 312 311 311 310 311 313 316 318 318 316 314 310 297 294 296 300 302 303 308 327 328 329 329 329 330 330 329 328 328 327 326 327 327 327 325 323 324 324 327 328 326 324 318 306 306 306 307 318 329 327 326 326
308 308 309 310 310 309 308 308 307 306 308 308 307 307 308 308 309 311 314 315 314 311 305 294 294 294 297 300 303 313 333 333 332 331 330 329 329 328 328 328 328 328 329 328 330 327 329 328 329 329 329 328 328 324 321 320 320 325 330 330 330 329 328
308 307 308 308 308 307 307 307 306 306 305 305 305 306 306 307 307 308 310 312 311 310 306 293 294 295 296 300 307 330 331 330 329 327 326 326 326 327 327 329 327 326 326 325 307 294 304 329 328 327 326 326 324 320 313 300 294 296 306 317 321 320 314
308 306 306 307 307 307 307 306 307 307 305 304 303 303 303 303 304 304 305 306 307 306 304 296 293 296 298 300 315 328 327 324 322 319 317 316 313 310 310 315 325 325 325 322 298 293 296 299 328 325 324 324 323 323 319 314 298 294 294 293 292 292 293
308 307 305 305 305 306 306 306 306 306 305 304 302 302 302 302 301 301 301 302 303 304 303 297 292 293 295 298 310 321 320 318 315 312 312 312 309 306 305 302 308 313 316 313 292 295 296 311 328 325 324 321 320 319 318 317 314 306 294 294 293 293 294
308 307 306 305 305 305 306 306 306 306 305 304 302 302 302 302 301 300 299 300 300 301 300 298 293 293 294 298 311 317 315 313 312 311 309 310 311 310 306 301 297 296 300 297 291 293 294 309 327 325 324 321 318 316 315 316 315 315 316 318 317 315 310
308 307 305 305 305 304 306 306 306 305 304 303 301 301 301 300 300 299 299 299 298 299 299 298 294 292 294 295 300 313 312 311 308 308 309 309 309 310 308 305 299 291 290 291 292 292 293 295 320 323 323 320 317 313 316 318 319 319 318 315 313 311 311
307 306 305 304 303 302 303 304 303 303 302 302 302 300 300 299 298 298 299 299 298 297 297 298 295 291 292 293 295 302 309 308 309 310 309 307 306 305 305 304 301 292 290 291 292 292 294 294 299 319 319 319 316 314 312 317 313 307 315 312 311 310 311
306 305 304 304 304 303 303 302 302 302 301 301 301 300 300 299 299 298 299 299 299 298 298 295 297 293 291 292 292 295 304 304 306 308 306 305 304 303 301 300 298 292 290 291 291 292 293 294 296 306 302 294 294 298 315 314 314 312 311 311 310 310 311
306 305 305 304 303 302 302 302 301 302 302 301 301 301 301 300 300 299 299 299 298 299 299 297 293 294 291 291 291 292 293 298 296 306 304 302 302 301 301 299 295 291 290 290 291 291 293 294 297 297 292 294 295 296 304 312 311 311 309 308 309 308 309
305 305 304 303 302 301 301 301 301 300 300 299 300 300 300 300 300 299 298 297 298 299 299 300 295 292 293 290 290 291 291 292 295 301 302 302 302 302 300 298 293 290 290 290 290 291 291 292 295 291 293 294 296 300 306 306 305 307 304 304 305 305 305

ECMWFFLT1_sfc_thetae_099.txt.gz
Theta_e
337 337 339 340 342 342 340 342 343 342 343 343 342 341 340 341 341 340 339 340 341 342 342 338 338 339 335 338 340 339 339 336 337 332 332 333 329 333 336 336 334 334 335 331 332 327 325 321 322 330 336 336 334 335 334 336 336 336 337 336 336 337 338
338 338 339 339 339 340 340 341 342 341 342 344 344 341 341 341 341 341 342 341 343 342 341 338 338 339 337 339 340 339 336 335 337 337 333 332 336 335 332 331 329 330 332 332 332 333 328 323 322 324 326 332 334 336 335 337 337 337 338 336 336 336 336
337 337 339 338 338 341 339 340 341 341 341 342 343 343 342 341 340 340 339 341 343 341 340 337 337 337 337 336 338 337 336 340 336 335 334 337 338 338 335 332 329 328 327 328 330 328 328 329 323 323 326 327 323 330 334 335 334 335 335 336 335 336 337
337 337 335 336 337 339 339 339 340 341 341 340 340 342 342 342 340 339 339 340 342 339 337 337 336 336 336 339 340 339 339 338 336 334 337 339 339 337 334 333 331 329 326 326 327 329 326 322 324 326 325 326 326 327 330 332 334 335 335 337 334 335 337
336 334 334 334 335 336 337 337 338 338 340 341 340 338 340 342 341 339 340 341 336 337 337 336 336 337 337 338 340 337 337 336 336 334 336 336 337 334 333 334 334 334 335 333 332 330 327 325 326 324 324 326 326 326 330 336 335 333 334 333 334 334 335
335 335 334 334 336 336 337 338 337 338 338 338 337 338 340 342 341 339 339 338 336 337 336 335 335 337 334 335 335 334 335 332 333 334 337 336 334 333 333 335 336 335 334 334 334 333 330 331 327 327 327 328 325 326 329 331 329 331 332 333 333 335 333
335 335 335 334 335 335 336 337 337 337 338 338 336 338 340 341 340 340 339 338 338 339 337 337 337 336 336 335 335 333 334 337 338 338 335 335 335 333 334 336 335 334 334 334 333 332 330 331 328 326 325 324 326 325 328 328 328 327 328 331 332 332 333
335 334 334 335 335 334 335 335 336 336 335 336 337 338 340 340 341 340 340 339 339 338 336 336 336 337 335 335 336 338 334 336 336 335 334 333 334 332 336 335 334 334 332 334 334 334 333 332 330 330 326 322 324 324 324 326 326 326 327 329 331 331 332
334 333 333 334 335 336 335 334 334 337 334 336 337 337 339 340 339 339 339 338 337 337 336 336 335 334 334 333 334 334 334 334 332 333 332 332 330 332 336 335 332 333 334 335 335 335 334 336 332 332 331 326 322 318 321 321 325 323 329 327 330 332 332
333 333 333 335 335 337 336 335 335 335 335 333 334 337 339 340 340 339 337 337 337 336 336 336 336 336 334 334 332 333 333 334 333 334 335 334 334 335 337 335 333 333 335 336 336 334 335 335 333 334 331 327 326 321 318 318 322 323 327 330 325 329 332
333 334 334 334 336 336 336 337 336 334 333 334 332 335 339 339 339 338 336 337 336 336 335 337 336 336 335 334 333 333 333 333 333 335 333 335 334 335 334 333 333 333 334 335 334 332 334 334 336 332 330 331 330 325 326 320 320 326 326 329 331 328 331
334 334 334 334 336 336 336 337 336 332 332 332 333 333 338 337 338 337 336 336 336 335 334 333 335 336 334 332 332 332 333 334 334 333 334 334 334 334 334 333 334 333 333 335 334 334 336 334 335 334 332 332 332 331 326 324 321 325 331 327 328 331 331
333 333 335 334 334 335 335 334 334 332 331 333 332 334 337 335 336 336 335 335 335 336 337 336 332 331 333 332 331 330 332 334 332 331 333 334 333 334 334 332 333 332 337 337 335 335 335 335 335 333 332 331 332 331 328 325 323 321 330 328 328 329 330
332 333 335 334 334 333 333 331 332 331 332 331 332 336 335 334 335 337 334 333 333 334 333 335 332 333 332 331 333 333 331 332 331 332 333 334 334 334 333 334 332 333 338 336 334 335 334 334 334 335 332 331 332 332 329 327 323 324 329 333 331 329 330
332 332 334 335 333 332 331 331 330 332 331 334 332 331 334 335 336 336 335 335 336 335 335 335 332 332 333 331 331 332 333 330 329 331 332 332 335 333 335 333 332 332 336 334 334 332 333 334 332 332 331 330 329 329 332 327 326 325 325 331 328 329 328
330 332 333 333 332 333 333 332 331 330 332 332 333 335 335 334 335 335 335 335 334 335 334 334 335 332 331 330 329 330 329 331 329 331 331 332 332 334 333 333 331 332 334 333 332 332 333 332 333 330 328 329 330 333 329 328 327 324 324 325 329 325 324
330 331 331 332 332 333 332 332 331 332 332 333 333 334 334 331 333 334 335 334 334 333 333 334 334 333 332 329 328 329 329 330 329 328 331 332 331 332 331 332 332 332 333 331 331 332 331 330 331 328 331 334 334 331 330 332 330 325 325 323 323 321 323
329 330 330 331 332 333 334 331 331 330 333 331 330 331 333 334 334 334 335 334 334 334 333 333 330 330 330 331 331 331 329 330 329 329 332 332 331 329 330 331 331 332 332 331 331 332 331 332 330 332 331 331 331 333 332 332 330 325 322 321 321 324 324
328 328 328 330 330 331 333 330 330 331 330 329 329 331 331 331 330 335 335 334 334 334 334 333 330 328 329 330 331 332 330 329 330 331 330 328 328 330 332 331 331 331 332 332 332 329 331 331 329 331 330 330 331 330 330 328 326 326 323 322 323 321 325
327 327 327 328 329 329 329 331 330 328 331 329 329 329 331 330 332 335 335 334 332 334 333 334 333 331 331 330 329 329 329 328 329 331 332 329 330 329 330 333 333 332 332 332 332 331 334 333 330 330 331 330 332 331 326 329 327 327 324 323 322 323 323
325 327 328 328 327 328 328 328 329 330 330 328 328 329 330 331 331 331 329 329 332 331 329 328 330 331 331 331 329 329 328 328 327 330 331 330 331 329 331 332 334 334 333 332 335 337 337 333 333 330 332 332 331 330 327 326 326 325 324 324 323 322 322
322 323 324 325 324 325 327 327 328 329 328 328 328 328 330 330 328 328 328 329 328 329 329 328 327 324 329 331 330 329 328 327 327 328 331 332 333 333 333 333 332 330 325 319 311 315 316 322 332 330 330 329 328 329 325 325 325 324 323 323 324 324 322
319 320 320 320 320 321 322 323 325 326 326 326 327 329 329 329 328 328 327 327 327 329 326 320 307 299 302 324 327 327 329 327 328 330 330 331 332 333 333 331 323 315 311 308 305 300 299 302 308 328 333 328 328 330 328 327 325 325 324 324 321 320 319
317 317 317 317 318 317 318 319 320 321 322 322 324 326 327 326 327 328 327 328 328 328 318 308 296 295 296 299 318 330 327 328 329 330 329 329 331 332 330 330 327 321 318 314 307 296 296 297 298 297 298 303 314 329 326 327 325 327 322 323 323 322 321
315 314 315 315 315 315 315 315 315 315 316 317 319 321 321 322 323 324 324 323 321 319 315 300 293 295 296 298 302 321 331 327 327 326 326 327 329 330 331 331 331 331 330 325 322 317 306 298 297 297 298 299 298 298 302 324 327 325 326 321 322 323 322
313 313 313 314 314 314 313 312 311 312 311 313 315 315 316 317 318 320 319 317 315 313 310 297 294 296 297 297 296 309 327 326 325 324 326 326 327 329 330 328 329 327 322 324 323 321 320 315 302 301 303 304 305 304 301 300 302 323 328 326 324 323 323
312 312 313 313 313 313 312 310 310 310 309 309 309 308 309 311 313 314 314 314 313 310 304 296 293 295 297 297 297 303 327 325 326 326 327 327 328 329 330 331 327 324 326 326 326 324 322 322 324 326 327 327 327 318 308 305 306 308 318 328 327 324 328
312 312 313 313 313 311 311 310 309 308 308 307 308 306 305 306 307 308 309 310 308 307 303 294 293 294 296 298 298 308 329 325 324 325 324 324 324 324 328 329 327 326 327 323 311 309 326 327 328 328 328 326 322 317 313 312 313 320 328 330 329 328 325
312 312 312 312 311 310 309 308 307 307 307 307 307 307 306 306 304 304 305 306 304 303 302 294 292 293 296 300 307 325 323 323 322 318 319 319 318 318 317 322 328 326 327 322 303 296 301 317 327 326 325 324 321 315 307 297 294 297 308 316 317 316 312
312 311 311 311 310 309 309 307 307 307 306 305 304 304 304 305 305 304 303 303 303 303 301 295 292 293 295 298 311 320 320 317 316 316 316 317 314 310 309 312 318 319 317 313 297 294 296 308 325 323 323 325 324 321 317 312 299 295 295 294 294 294 294
311 311 311 310 309 309 309 308 307 307 305 304 303 303 303 303 303 303 302 302 302 303 302 297 292 292 294 296 308 316 315 314 312 313 313 313 312 309 305 300 305 308 308 305 294 294 296 313 321 323 322 321 321 320 320 319 316 308 296 296 296 295 295
312 311 310 309 309 308 307 306 306 306 305 304 303 303 302 302 301 301 301 301 300 301 301 299 293 292 293 294 306 315 312 310 309 309 309 309 309 309 307 303 297 296 299 296 292 294 294 309 323 323 322 321 318 318 318 319 317 316 315 316 316 317 313
310 310 309 308 307 306 306 305 305 305 304 305 304 303 302 302 301 300 301 300 299 299 299 300 295 291 292 294 296 312 313 310 307 307 308 308 307 307 306 305 300 292 292 292 293 293 294 297 316 320 321 319 317 315 318 318 316 321 319 317 317 318 318
308 308 308 308 307 306 305 304 305 305 305 305 304 303 303 301 300 300 300 300 300 299 298 299 298 291 292 293 294 301 312 311 311 309 308 304 304 303 303 302 301 293 292 292 293 293 294 295 300 311 309 310 310 310 312 317 316 309 316 316 316 316 316
309 308 307 306 304 303 303 303 303 304 304 303 303 303 303 302 300 299 300 300 300 300 300 297 298 294 291 292 292 293 304 306 306 309 306 304 304 303 301 299 297 292 291 292 292 293 294 294 296 306 301 293 294 294 313 315 315 314 313 312 310 310 311
306 306 306 305 304 302 302 302 301 301 300 300 300 300 300 300 300 299 299 299 299 300 300 300 295 296 292 291 291 292 292 297 297 307 306 304 303 302 301 299 296 292 291 291 292 292 293 295 298 298 293 294 294 294 303 310 312 311 310 310 309 309 311
304 304 304 303 303 303 302 302 301 301 300 299 299 298 298 299 299 298 297 298 299 299 300 301 297 294 295 292 292 291 291 291 293 301 303 302 302 301 299 298 294 291 292 292 292 293 293 294 296 293 294 294 295 299 309 309 307 307 304 306 306 306 306

ECMWFFLT1_sfc_thetae_102.txt.gz
Theta_e
337 337 339 340 342 343 343 342 345 345 344 343 341 341 340 340 339 339 339 339 338 339 339 338 336 336 335 333 332 333 334 333 331 328 328 329 325 326 330 329 329 332 333 332 327 322 321 319 321 328 331 330 330 331 332 332 334 333 332 332 333 334 333
339 338 338 338 339 341 340 341 342 342 342 343 343 342 341 340 339 339 339 339 338 338 339 338 336 333 334 333 333 331 331 332 332 330 329 327 328 327 327 327 330 329 332 331 331 329 322 320 320 322 324 329 327 328 331 332 333 330 332 333 334 333 332
338 338 338 337 338 339 338 339 340 339 339 342 341 342 340 340 339 339 339 338 338 338 338 337 336 336 334 334 331 330 331 331 332 332 330 329 328 330 329 328 328 327 327 327 328 327 327 326 320 320 323 323 321 325 330 331 331 332 332 333 331 333 333
336 336 334 334 334 335 335 336 338 339 339 336 337 340 340 340 340 339 339 338 338 337 337 337 336 336 335 334 333 333 332 332 332 331 330 331 330 328 328 329 330 328 326 324 325 327 326 323 322 322 323 325 324 324 328 332 331 331 332 332 330 331 332
336 334 333 332 333 333 333 334 335 338 338 337 336 334 334 339 337 336 339 339 337 335 336 337 336 336 334 334 333 332 330 331 331 330 329 329 329 329 330 332 332 332 331 329 330 329 327 325 324 322 322 326 326 325 329 330 331 330 333 333 331 330 334
337 335 334 333 334 333 333 333 334 334 337 335 335 332 334 335 334 332 336 337 337 336 335 335 336 336 334 333 334 333 333 330 329 331 327 329 330 329 330 333 333 332 332 334 333 330 329 328 325 321 326 328 322 324 328 330 326 330 332 329 332 332 332
335 335 334 333 334 334 334 333 333 333 334 334 334 333 334 335 334 334 334 333 335 335 334 334 335 336 335 333 332 332 332 332 332 331 329 330 329 330 332 331 331 332 333 335 333 332 330 327 325 323 323 324 323 322 324 324 327 326 327 331 332 331 332
334 334 333 333 333 333 333 333 333 333 334 333 335 333 332 332 332 333 334 333 335 335 335 335 335 335 335 334 333 333 332 332 332 330 330 330 330 329 330 331 331 332 333 335 333 331 332 329 327 326 322 318 320 320 320 322 324 325 324 327 331 330 331
335 335 333 334 335 335 334 334 334 335 334 334 334 333 332 331 330 332 332 332 332 332 335 334 333 333 335 332 332 332 329 332 331 329 328 330 330 329 329 332 331 330 332 333 333 332 332 329 329 328 327 323 318 315 319 319 321 322 328 325 328 330 330
333 333 333 333 334 334 333 334 333 332 333 334 332 333 333 332 332 330 331 331 332 334 334 332 332 334 332 333 331 330 330 330 331 330 330 329 330 331 330 331 332 332 333 333 333 333 333 331 330 329 329 325 325 318 316 315 318 319 324 327 323 326 330
331 332 333 333 333 332 333 332 332 330 330 331 331 332 332 331 331 331 330 331 331 332 331 332 334 333 333 331 332 330 331 331 329 329 328 329 329 330 330 330 331 331 333 333 333 334 334 334 333 332 330 326 325 320 320 316 318 323 323 326 325 325 329
331 331 332 333 333 332 332 333 332 331 332 332 331 331 331 329 328 330 331 331 330 330 334 332 330 332 333 330 330 330 330 329 327 327 329 329 329 330 329 329 331 331 332 333 334 334 332 332 332 332 329 328 330 327 321 318 316 323 325 323 326 329 329
330 330 331 331 332 332 331 331 331 331 331 331 331 331 329 329 330 330 330 330 330 330 331 333 334 333 331 330 330 329 329 330 327 326 329 330 332 331 330 329 330 331 332 332 332 332 332 333 332 331 329 329 331 330 321 320 319 319 325 326 326 328 329
329 330 331 331 331 331 331 331 332 332 332 331 330 329 329 330 330 330 329 331 331 329 329 331 332 332 331 329 329 328 329 328 328 328 328 329 332 331 330 329 330 332 333 331 332 333 333 333 333 333 332 330 330 330 326 323 319 320 324 327 327 326 329
328 329 330 331 330 330 330 331 331 331 330 331 331 331 330 330 329 330 331 331 330 330 330 331 331 331 330 329 329 330 328 327 329 327 327 328 330 331 331 329 330 331 333 333 332 331 332 332 330 332 330 327 330 326 331 324 322 321 320 324 326 328 327
328 330 330 330 330 331 330 330 331 330 330 331 331 330 331 331 331 329 329 330 326 328 327 330 329 331 330 329 330 330 330 330 328 327 326 326 327 329 329 327 329 331 333 332 331 332 332 331 330 327 324 326 325 326 328 327 324 321 321 321 326 324 325
328 328 328 328 329 329 330 330 331 330 330 330 329 330 330 330 330 329 329 329 330 330 328 329 330 330 331 329 330 329 328 328 328 329 329 328 328 328 325 325 327 331 331 331 331 331 331 330 326 325 325 326 325 328 326 327 327 324 323 321 324 322 324
326 325 327 327 328 328 329 329 330 329 330 328 328 330 330 330 329 329 329 330 329 329 330 328 330 329 330 330 330 330 330 329 329 330 327 328 327 327 327 327 330 331 330 330 330 330 330 327 328 326 326 327 325 328 327 328 325 325 323 321 321 322 322
321 321 323 324 324 326 327 327 328 328 329 327 328 330 330 329 329 329 329 329 330 328 329 331 330 329 329 330 331 331 330 330 330 329 330 330 330 331 330 330 327 328 326 325 329 329 328 327 328 327 328 327 327 328 327 329 327 325 323 322 320 319 320
319 319 320 321 322 322 323 325 326 326 328 327 327 327 328 328 328 329 328 327 328 329 327 325 325 329 329 329 330 330 330 330 330 329 328 329 330 330 329 328 324 325 324 325 327 325 327 328 326 324 326 327 328 328 326 325 326 323 324 319 319 319 318
318 318 319 319 319 319 319 320 320 323 324 325 326 327 326 327 327 327 326 327 326 323 318 314 312 312 318 328 328 328 330 329 329 329 329 330 330 329 327 328 327 327 326 327 328 329 327 328 327 325 326 327 327 326 323 324 322 322 322 320 318 318 319
317 317 316 316 316 316 316 316 316 318 320 322 324 325 326 327 326 326 326 324 318 315 313 310 306 305 308 314 325 326 327 327 327 327 328 330 329 329 330 330 330 328 329 322 321 322 324 326 331 328 328 328 328 326 324 324 322 322 319 317 320 320 321
315 315 315 314 314 314 313 313 313 313 314 316 317 320 321 322 320 317 316 316 315 312 308 305 301 298 300 305 312 323 328 327 327 327 326 325 328 329 327 325 322 314 311 312 311 308 310 313 319 329 329 327 327 325 323 323 320 319 319 319 318 317 317
314 314 314 313 313 312 312 311 311 311 311 311 312 313 315 317 316 315 313 312 310 309 305 300 296 295 296 298 308 321 329 329 326 324 325 325 325 327 326 324 322 318 315 309 304 299 300 302 302 301 301 306 316 325 323 320 320 321 319 318 318 316 315
313 313 313 312 312 311 310 310 309 309 310 309 309 309 309 311 312 312 311 311 308 306 304 297 294 296 296 297 301 321 324 323 324 326 327 326 324 326 326 324 323 325 325 321 312 308 303 300 298 299 300 300 299 298 303 318 321 320 321 320 318 317 318
312 312 312 312 311 310 309 308 307 307 307 309 308 307 307 307 307 308 308 307 305 304 301 295 294 296 299 303 306 316 323 323 322 320 320 321 323 326 325 326 325 321 324 324 321 317 311 308 303 302 304 305 304 302 298 297 304 323 323 321 319 318 319
312 312 311 311 310 309 308 307 307 306 306 307 306 306 306 305 305 305 306 306 304 302 298 295 294 296 297 300 304 311 319 319 318 315 313 312 313 316 323 323 322 320 316 312 310 316 317 316 317 321 319 315 312 308 303 301 303 310 317 322 321 320 322
311 311 311 310 309 308 307 306 306 305 305 304 304 304 304 303 303 303 304 306 303 302 298 293 293 295 296 299 303 308 317 317 316 313 311 309 308 307 313 323 320 316 313 310 305 302 320 321 324 318 313 310 308 305 303 303 305 314 322 321 316 314 312
310 310 310 309 308 307 306 306 305 305 304 304 304 304 303 303 301 301 301 302 302 300 299 293 293 294 295 296 304 315 316 315 314 313 310 308 306 305 305 310 313 312 310 307 300 297 305 320 322 317 314 312 310 307 303 299 296 300 307 310 309 308 306
309 309 308 307 306 306 306 306 306 306 304 303 303 303 302 301 301 300 300 300 300 300 298 294 292 293 294 295 306 315 314 313 312 310 309 308 306 304 303 304 306 307 306 304 298 297 302 313 322 321 319 316 314 312 309 308 299 296 296 296 296 296 296
308 307 306 306 305 305 306 306 306 306 304 303 302 302 302 301 301 300 299 299 299 299 298 295 292 293 294 294 303 312 311 310 309 308 307 307 306 305 303 300 302 300 301 300 296 298 301 313 319 318 319 317 315 314 314 314 312 306 297 297 297 297 298
306 305 304 303 304 304 305 306 306 306 305 304 303 302 302 301 300 300 300 299 300 299 299 296 293 292 293 293 302 311 310 308 306 305 306 305 304 303 303 300 297 296 298 296 294 296 299 309 315 317 318 316 314 314 314 316 316 315 315 315 315 315 312
304 303 302 302 302 302 303 303 303 304 304 303 302 302 301 300 299 299 300 300 299 299 298 298 295 292 292 293 295 306 309 307 304 304 303 303 301 301 300 299 298 292 293 293 293 294 295 298 308 310 311 311 313 313 316 314 313 315 315 314 314 314 313
304 303 303 303 303 302 302 301 301 301 301 302 302 301 300 299 298 298 299 299 299 299 299 298 297 293 293 293 292 297 304 305 306 304 302 301 300 298 298 297 297 293 292 293 293 293 294 295 297 303 303 303 304 306 309 312 311 307 311 310 310 310 311
304 303 303 303 303 303 303 303 302 301 301 301 300 300 299 299 298 298 298 298 298 299 300 297 297 295 293 293 292 293 298 299 301 304 301 300 299 298 297 297 296 294 292 292 293 293 294 295 296 302 298 294 294 297 306 308 310 309 308 308 308 307 307
303 302 302 302 301 301 301 302 302 302 301 300 300 300 299 299 299 298 299 298 298 298 298 298 294 295 294 293 293 293 292 294 294 300 299 297 297 297 298 297 297 295 293 293 293 293 293 295 297 297 294 295 295 297 301 305 305 306 305 305 305 305 306
304 303 302 301 300 300 300 300 300 301 301 300 299 299 298 299 299 298 297 297 298 297 297 297 295 293 294 292 293 293 292 292 293 297 298 296 297 297 296 296 295 292 293 294 294 294 293 293 295 293 295 296 297 298 304 304 303 303 301 302 303 303 303

ECMWFFLT1_sfc_thetae_105.txt.gz
Theta_e
331 331 332 334 333 335 334 335 333 332 333 333 333 332 332 334 334 332 331 332 333 334 333 333 332 333 333 333 333 332 332 330 329 327 326 328 325 326 329 327 327 328 328 326 325 321 319 318 320 324 326 329 328 328 330 330 330 330 329 329 329 330 330
332 331 332 331 331 332 332 333 333 332 331 333 333 332 333 334 334 332 333 333 333 334 333 332 333 333 332 332 331 329 327 327 327 330 328 327 327 326 326 326 326 325 327 326 327 324 318 317 316 320 322 327 326 325 327 329 331 331 329 329 329 331 330
329 328 329 327 328 328 328 329 330 331 331 331 333 333 333 335 334 332 331 333 333 333 333 333 333 333 331 331 332 330 329 327 329 329 329 329 328 327 327 326 324 323 324 323 324 323 324 322 318 319 322 322 320 323 326 327 328 329 329 330 330 331 329
326 327 325 324 326 326 326 327 328 330 330 331 330 331 333 333 330 330 330 329 330 332 333 332 332 334 332 331 329 328 328 327 328 330 329 329 327 326 327 326 325 324 323 321 322 324 323 320 319 319 322 324 322 320 324 327 328 328 329 329 329 329 330
329 328 326 325 326 326 326 327 328 328 328 329 329 329 329 331 331 331 331 330 330 328 329 330 330 331 330 329 329 329 329 329 329 330 329 328 326 325 326 326 326 327 326 324 325 326 324 323 322 320 321 323 324 324 327 327 329 327 329 329 329 329 330
328 328 327 326 326 326 326 326 327 327 328 328 328 329 329 329 330 329 329 329 329 329 329 329 329 330 331 329 329 329 328 327 328 328 328 328 327 325 325 327 327 328 328 327 328 327 327 326 324 321 322 325 320 320 324 326 325 329 329 329 329 329 330
328 328 328 327 327 328 328 327 327 327 327 327 328 328 330 330 329 329 329 329 330 330 331 330 329 330 331 330 329 328 327 328 328 327 328 328 328 328 328 327 328 327 328 331 330 329 327 325 322 321 321 321 320 320 322 325 326 323 326 328 330 329 330
326 327 327 328 328 328 328 327 327 327 327 328 328 329 330 329 328 328 327 327 328 329 329 328 329 329 330 331 330 329 329 331 328 327 327 327 327 327 328 329 329 330 330 331 331 329 329 326 325 323 321 317 317 317 316 321 323 323 324 326 329 329 329
326 326 326 327 328 327 327 327 327 326 327 327 327 328 328 328 328 328 328 327 328 328 328 330 330 329 329 329 330 330 330 332 329 327 328 328 327 327 327 329 329 329 330 332 331 330 330 328 327 325 323 321 317 313 316 316 318 320 326 323 328 330 329
325 325 325 326 328 328 327 327 327 327 327 327 327 328 327 328 328 328 328 327 327 327 328 328 327 327 328 328 329 330 329 329 330 329 328 326 327 328 327 327 328 329 330 332 331 330 330 329 328 327 326 323 321 317 314 314 316 318 322 325 321 326 330
325 325 325 326 327 327 326 327 327 326 327 328 328 328 328 327 327 328 326 327 327 327 326 326 327 327 327 328 329 328 329 329 327 327 327 327 327 328 327 327 329 328 330 331 331 331 330 328 327 326 326 326 324 319 317 314 315 319 320 324 325 324 327
324 324 325 326 326 326 326 326 326 327 327 327 327 327 327 326 326 326 326 326 326 325 326 326 327 327 329 328 328 326 327 328 326 326 327 327 327 327 327 326 329 329 329 330 331 331 331 329 327 327 327 326 323 322 319 317 313 319 322 320 323 327 327
323 324 326 326 326 326 326 326 326 326 326 327 327 327 326 326 327 327 327 326 325 326 326 326 326 326 326 327 326 325 326 327 326 325 325 327 327 327 327 327 328 328 329 330 331 331 329 329 329 328 326 325 324 324 321 319 316 316 321 322 322 324 328
324 326 326 327 326 326 326 326 327 326 326 326 327 326 326 326 327 328 327 326 327 327 324 323 325 327 326 325 324 325 326 326 325 324 326 325 327 327 327 327 327 329 329 329 330 329 328 327 328 327 325 324 324 323 322 318 317 315 319 324 324 325 327
323 324 325 325 325 325 325 326 327 326 325 326 327 327 327 327 327 328 327 326 324 325 326 327 327 325 325 324 325 326 324 323 325 325 324 324 326 328 327 327 328 329 328 329 328 330 329 328 327 326 326 326 325 323 323 320 319 318 317 321 322 325 325
320 320 321 321 322 324 324 326 327 325 325 325 327 327 328 327 327 327 326 324 323 324 324 325 324 325 324 324 324 323 325 324 324 322 323 323 327 327 327 326 327 327 329 329 326 325 326 328 327 326 325 324 324 323 324 324 320 319 319 319 323 322 323
318 317 318 319 319 320 321 323 325 324 325 326 326 327 327 327 326 325 326 327 326 326 325 325 326 326 326 326 326 326 325 325 325 324 325 325 326 325 324 324 324 325 325 325 324 325 326 325 324 324 323 323 323 323 323 324 324 321 320 319 321 322 323
316 316 316 316 316 317 317 318 320 321 323 325 326 326 326 326 325 324 322 323 321 319 319 321 325 325 326 325 325 326 325 325 324 325 323 325 326 325 324 324 324 324 326 325 322 323 325 323 324 323 322 322 322 324 324 323 324 323 320 320 320 321 322
315 315 315 314 314 315 315 315 316 317 319 321 323 324 324 324 323 318 316 315 315 314 313 314 315 319 325 327 326 325 325 325 325 325 324 326 326 326 325 325 326 325 323 323 323 324 325 323 323 322 322 323 323 324 322 322 322 323 321 321 320 319 319
314 314 314 313 313 313 313 313 313 313 315 316 318 318 317 316 317 316 315 314 313 312 310 310 309 312 317 323 324 325 326 325 325 325 325 324 324 326 326 325 324 324 323 324 323 321 323 323 323 323 323 323 323 322 320 319 320 321 320 320 318 319 318
313 313 313 312 312 312 312 312 312 312 312 312 314 316 314 313 313 312 312 311 310 309 307 306 305 307 310 315 318 322 324 324 325 324 325 324 326 325 326 325 324 324 323 325 323 322 323 324 323 322 323 324 322 320 319 319 320 318 317 316 316 314 317
313 313 312 311 310 310 310 310 311 311 310 309 310 311 312 312 310 309 309 308 308 306 305 304 303 302 305 313 314 319 324 324 324 325 325 325 325 325 325 322 320 322 326 326 321 321 322 323 323 321 322 323 321 320 319 318 318 316 314 314 314 315 315
312 312 311 309 309 309 308 309 309 309 309 308 308 308 308 309 308 307 306 305 305 304 303 302 302 301 302 310 319 323 323 322 323 323 323 323 323 322 320 318 318 317 312 310 308 305 306 308 316 323 323 322 322 320 320 319 317 316 315 314 313 313 313
311 310 310 309 308 307 307 307 307 307 307 306 306 306 306 306 306 307 305 303 302 302 301 299 297 296 299 307 319 320 319 319 320 321 323 322 321 321 321 321 321 322 317 314 307 299 298 297 298 300 301 306 316 323 321 317 316 316 315 314 313 313 313
310 309 309 308 307 307 306 305 305 305 305 304 304 304 303 303 304 305 305 304 302 300 299 297 295 296 298 301 309 316 314 313 313 313 315 319 322 322 321 320 320 320 320 319 313 308 303 300 298 299 298 298 297 296 300 314 316 315 316 315 314 313 314
309 308 308 307 307 306 305 304 303 303 303 304 303 302 301 301 301 303 303 302 301 299 297 295 295 296 298 299 302 310 312 311 309 309 310 312 315 319 318 316 315 314 313 318 318 314 313 312 305 302 303 303 302 299 296 298 307 316 317 315 315 314 315
307 307 307 307 306 306 305 304 303 303 303 302 301 301 300 299 299 300 300 300 300 299 297 295 294 296 298 300 301 306 311 309 308 307 307 307 308 310 313 312 312 311 311 310 309 314 318 314 312 311 309 307 306 305 302 300 304 306 313 319 317 315 316
306 306 306 306 305 305 304 304 303 303 302 301 300 299 299 298 298 298 299 299 298 298 296 293 294 295 297 300 301 304 310 309 307 306 305 305 305 305 306 309 310 309 309 308 305 302 315 313 312 310 308 307 307 305 303 304 310 312 312 313 313 312 312
304 304 305 305 304 304 304 303 302 301 301 300 300 300 299 299 298 298 298 298 298 297 296 293 293 294 296 298 302 309 308 307 305 305 304 304 303 303 304 304 305 307 308 309 304 302 309 315 313 311 310 309 307 306 303 300 298 302 307 310 310 309 307
301 301 301 301 302 302 303 303 302 301 299 298 297 297 297 297 298 298 298 298 298 297 297 294 292 293 295 297 302 306 306 305 304 303 302 302 302 301 301 302 302 303 304 302 298 298 303 311 315 313 311 310 309 308 307 306 299 297 297 297 296 296 296
299 298 298 298 299 299 301 301 301 301 298 297 296 296 296 296 297 297 297 297 297 297 297 295 293 293 294 296 302 305 304 303 302 301 301 301 301 300 301 301 301 299 299 298 294 296 301 311 315 314 313 312 310 310 309 310 310 306 296 296 297 297 298
299 298 298 297 298 297 298 298 299 299 298 297 296 296 296 295 295 296 297 297 299 296 297 297 294 293 293 294 301 305 303 301 300 299 299 299 299 299 299 299 298 296 297 295 293 294 296 306 312 313 312 311 310 310 310 312 312 311 311 311 311 309 307
299 299 298 297 297 297 297 296 297 297 296 296 296 296 296 295 295 296 296 296 296 296 295 296 295 293 293 294 296 302 302 300 299 298 298 298 298 298 299 299 298 292 292 293 293 293 294 296 303 304 307 309 310 309 311 309 308 311 311 310 308 307 306
297 297 297 297 297 297 297 296 296 296 296 296 295 295 296 295 295 295 296 296 296 296 296 295 296 293 293 293 294 297 299 299 298 297 297 297 297 297 297 298 298 294 292 292 293 293 294 294 297 302 300 300 300 302 305 308 306 304 307 306 306 305 305
297 297 297 296 295 295 296 296 297 296 295 294 294 294 295 295 295 294 294 295 295 295 296 296 295 294 293 293 293 293 297 297 297 298 297 297 297 297 297 297 297 295 293 293 292 293 293 294 295 301 297 294 295 296 304 306 306 306 306 305 305 304 304
295 296 295 294 294 294 294 295 295 295 295 295 294 293 293 294 294 293 293 293 293 293 293 295 293 294 293 293 293 293 292 294 294 299 297 297 297 297 298 298 298 295 293 293 293 293 293 294 296 296 293 294 295 296 300 303 302 304 303 303 302 302 302
295 294 294 293 293 293 293 294 294 295 295 295 294 293 293 293 294 293 292 291 292 292 292 292 293 292 293 292 292 292 292 292 293 297 298 297 297 298 297 297 296 293 293 293 294 294 294 294 295 293 294 294 296 297 302 302 301 301 299 300 301 301 301

ECMWFFLT1_sfc_thetae_108.txt.gz
Theta_e
328 327 328 330 329 329 329 330 329 329 330 330 330 330 332 332 332 332 331 330 330 330 332 333 332 332 331 332 333 333 333 332 330 328 327 327 325 325 327 326 325 326 326 324 323 321 318 316 318 324 326 326 326 327 327 327 328 327 327 327 327 328 327
332 330 327 325 328 326 325 326 327 328 328 329 329 329 330 331 332 331 330 329 329 329 331 332 332 333 330 330 331 332 331 331 331 330 329 327 326 325 325 324 325 324 324 323 324 322 318 317 318 319 320 325 327 327 326 327 329 329 328 328 328 329 328
326 326 323 324 325 325 324 325 325 325 327 327 328 330 330 330 330 330 330 329 329 329 331 330 331 330 329 330 331 331 331 330 330 329 328 327 327 326 326 325 323 323 322 321 321 321 321 320 318 319 321 321 320 324 327 326 327 328 328 329 329 329 328
325 325 325 325 325 323 323 324 323 324 325 327 328 329 329 330 330 331 329 328 329 329 329 328 328 328 329 329 330 331 331 329 329 327 326 326 327 326 326 326 323 324 321 320 320 321 321 319 318 319 322 323 322 321 324 326 326 328 328 328 328 329 328
324 326 325 323 323 320 321 322 323 323 324 325 326 326 327 328 329 329 329 328 328 328 328 328 327 327 328 329 327 326 326 327 328 327 326 325 326 326 326 326 326 325 325 323 323 324 322 322 321 320 321 323 323 323 325 325 327 328 328 327 328 329 329
323 323 322 322 322 321 322 322 323 323 324 324 325 325 326 326 327 327 327 328 329 330 330 329 328 327 327 327 327 326 326 325 326 326 325 326 327 326 326 326 326 326 326 326 326 325 325 324 322 319 321 324 320 321 324 323 323 326 328 328 327 329 329
322 322 322 322 323 323 323 322 322 323 324 323 324 324 326 326 327 327 328 328 328 329 329 329 328 327 327 327 327 327 327 328 327 327 326 327 328 328 327 325 325 326 327 327 327 326 325 323 321 320 320 322 320 321 323 323 325 322 325 327 329 329 329
322 321 322 323 323 323 323 323 324 324 323 324 324 325 326 326 326 326 326 327 328 328 328 328 329 329 329 329 328 328 328 328 328 328 327 327 326 326 326 326 326 326 327 328 327 326 327 325 324 322 322 318 317 319 319 322 322 323 323 326 328 328 328
321 321 322 323 324 323 323 323 324 323 324 324 325 325 326 326 326 326 327 328 329 328 327 326 327 327 327 327 327 328 327 329 327 326 326 326 326 326 325 326 325 325 327 328 328 328 327 327 326 325 324 321 317 314 317 316 318 320 326 322 327 329 328
320 320 321 323 324 325 323 323 323 324 324 324 325 326 327 328 327 327 328 328 327 327 327 327 327 327 327 327 326 327 327 329 329 327 327 326 326 327 327 327 326 326 327 328 328 329 328 328 327 326 326 323 321 317 314 314 316 317 322 325 322 326 329
321 323 324 325 326 325 324 324 324 323 324 325 326 327 327 327 327 328 327 326 326 325 326 328 328 327 326 325 325 326 327 328 328 327 327 327 326 327 327 327 327 326 328 328 328 329 329 328 326 326 326 325 324 319 317 315 315 318 319 324 325 323 327
323 324 326 326 325 325 325 325 325 325 326 326 327 327 327 327 327 327 327 326 326 326 327 327 327 326 327 326 327 327 327 327 326 325 326 326 326 326 326 325 326 326 327 328 329 329 328 328 327 327 325 325 324 323 320 318 313 316 322 320 323 326 326
322 323 324 324 324 324 325 325 324 324 325 326 327 327 327 327 327 326 326 326 325 326 327 327 327 326 327 325 324 324 325 326 324 324 324 325 326 325 325 324 325 326 326 327 327 327 328 327 326 325 324 324 323 323 321 319 316 316 320 321 322 324 326
319 319 319 320 320 321 322 323 323 323 325 326 327 327 326 325 325 326 327 326 325 325 325 325 326 326 325 324 322 323 325 324 324 324 325 325 327 326 326 325 325 326 327 326 326 327 326 325 326 325 324 324 323 323 321 319 317 316 317 321 323 324 326
317 316 315 316 316 317 318 319 320 320 322 325 326 326 324 323 321 321 321 320 320 321 323 325 325 325 323 322 322 322 320 320 321 323 322 323 324 326 325 326 325 325 327 326 326 327 326 325 326 324 324 324 322 322 323 320 318 317 316 320 320 324 325
314 313 312 313 314 315 316 317 318 318 319 320 322 323 321 319 317 316 316 315 315 316 316 319 324 325 324 323 323 321 322 322 323 321 321 321 324 324 323 323 323 325 326 325 325 323 325 325 325 324 323 323 322 322 322 323 319 317 318 318 321 321 323
312 312 312 312 313 313 314 315 316 316 317 317 316 316 316 315 315 314 313 313 313 312 313 314 316 323 324 323 323 323 322 322 323 323 323 322 322 323 323 322 322 323 324 322 322 322 323 324 323 324 323 323 323 323 322 322 321 319 319 318 319 320 323
312 311 311 312 312 312 312 312 313 313 314 314 314 313 313 312 311 311 310 310 310 309 309 310 310 313 318 322 323 322 322 322 322 322 323 324 326 323 323 323 323 323 323 322 321 322 323 322 323 323 323 323 323 322 322 322 322 321 319 319 319 320 323
311 311 311 310 311 311 311 311 311 311 311 311 311 311 310 310 310 308 308 308 308 307 308 308 308 308 312 316 320 322 321 321 321 322 322 323 324 324 323 323 323 323 323 321 321 321 322 322 323 322 322 322 322 321 320 321 321 320 320 320 319 317 321
310 310 309 309 310 310 310 309 309 309 309 309 308 308 309 308 308 307 307 307 306 306 306 307 307 307 310 315 318 321 322 321 321 321 321 321 322 324 324 323 322 322 321 321 322 321 321 322 322 321 321 321 321 321 320 320 320 319 319 319 317 319 318
309 309 309 308 308 308 309 308 308 308 307 306 306 306 307 307 307 307 306 305 306 306 305 305 305 306 309 316 319 321 322 322 323 323 323 323 323 322 322 321 321 322 322 322 321 320 321 320 321 321 320 321 321 320 319 319 318 318 318 318 317 316 317
309 308 308 307 306 306 307 307 306 306 305 304 305 304 305 306 306 305 305 304 304 304 303 303 303 304 306 315 318 319 320 321 322 322 321 320 320 319 318 317 318 317 320 319 314 316 319 320 321 320 321 321 320 319 319 318 317 316 316 316 315 315 316
308 307 306 305 305 305 305 305 304 303 303 302 302 303 302 304 304 303 303 303 303 302 302 303 303 301 303 310 314 315 315 316 317 319 320 319 319 319 318 318 319 317 311 310 308 300 300 305 316 320 321 321 320 319 318 317 316 316 316 315 315 314 314
307 306 306 305 304 304 303 303 302 301 301 301 300 301 300 301 301 302 302 301 301 301 301 301 298 297 298 301 311 312 312 312 312 312 313 314 314 314 314 314 314 317 315 311 305 298 297 297 299 302 298 303 314 320 318 316 314 314 314 313 313 313 314
306 306 305 304 303 303 302 301 300 300 300 299 300 300 299 299 300 300 301 301 300 299 300 298 296 298 298 298 303 310 309 309 308 307 308 308 309 311 312 312 313 313 316 316 314 311 306 300 298 298 297 297 295 297 306 315 314 313 313 313 312 313 313
305 304 304 303 302 301 300 300 299 299 298 299 299 298 299 299 299 299 300 300 299 299 298 295 295 297 298 298 298 305 307 306 305 304 304 304 305 306 308 310 311 312 312 316 316 314 312 311 303 302 302 303 302 299 298 304 307 314 314 314 313 313 313
304 304 304 303 301 300 299 298 298 298 298 298 297 297 298 298 298 298 299 299 299 298 297 295 294 296 297 297 297 301 305 304 303 303 302 302 302 302 304 307 308 309 310 311 311 313 312 311 310 310 309 308 307 305 302 301 302 303 310 315 314 314 315
303 303 303 302 301 299 298 297 297 297 296 296 296 296 296 296 297 298 298 299 298 297 296 293 294 295 296 297 297 300 303 303 302 302 302 302 301 301 301 302 305 305 306 306 304 308 313 311 310 309 308 307 306 304 302 301 305 310 311 313 313 313 312
300 301 301 300 299 298 298 296 295 296 296 295 296 296 296 296 296 296 297 297 297 296 296 293 293 294 295 296 298 302 301 301 300 300 301 301 301 301 300 300 300 301 302 302 298 296 302 312 311 310 309 309 309 308 305 300 296 298 302 303 303 303 304
298 298 298 297 296 296 296 295 295 295 294 294 294 294 295 295 296 296 296 296 296 296 295 294 293 294 295 296 298 300 300 299 299 299 299 300 300 300 300 300 299 299 299 298 295 294 297 306 312 311 310 309 309 309 309 310 301 297 296 296 296 295 295
296 296 295 295 295 295 295 295 295 295 294 293 293 294 295 295 295 296 296 296 297 295 295 295 293 293 294 295 298 300 299 298 298 298 298 298 299 299 300 300 301 298 297 296 293 293 296 305 309 310 311 310 310 309 309 311 311 308 302 300 299 297 297
296 295 295 294 295 294 295 295 295 294 294 294 294 294 295 294 294 294 295 295 298 296 295 295 293 293 293 293 298 299 299 298 297 297 297 297 298 298 299 299 298 296 296 295 292 293 294 301 304 304 306 307 307 306 306 308 308 306 306 306 305 305 304
295 294 294 294 294 294 295 294 294 294 294 294 294 293 294 293 292 292 293 293 294 295 294 294 294 292 293 293 294 298 298 298 297 297 297 297 296 297 297 297 297 292 292 292 293 293 293 294 301 301 302 301 302 302 306 306 305 306 305 304 304 304 304
293 293 293 294 294 295 294 293 293 293 293 293 293 293 292 292 292 291 291 291 292 293 294 292 293 292 292 293 293 295 297 297 297 297 297 296 297 296 296 297 297 294 292 292 292 293 293 293 296 300 298 298 298 299 302 305 304 303 304 303 303 303 303
294 294 294 294 294 294 294 294 294 292 292 292 292 291 291 291 290 290 290 290 290 289 292 294 291 292 291 292 292 292 295 296 296 298 297 297 297 297 297 297 296 294 292 292 292 292 293 293 294 298 295 293 294 295 302 303 304 304 303 303 303 302 302
293 293 293 293 292 292 293 293 293 293 292 292 291 291 290 290 289 289 289 289 289 289 289 291 291 291 291 291 291 291 291 293 293 298 296 295 295 296 297 296 296 294 292 292 292 292 292 293 295 294 292 293 294 295 298 301 300 301 300 300 300 300 300
292 291 292 291 291 291 291 292 292 292 291 291 290 290 290 289 289 288 288 288 289 288 288 288 291 291 291 290 290 290 290 291 292 294 295 295 294 294 293 294 294 292 292 292 292 293 292 292 293 292 293 293 294 295 300 299 299 299 297 297 298 298 298

ECMWFFLT1_sfc_thetae_111.txt.gz
Theta_e
324 324 326 327 326 328 326 326 327 328 328 328 327 328 328 328 329 328 328 328 327 327 329 329 329 330 331 332 333 332 332 331 330 327 327 328 325 325 327 326 325 326 325 324 322 320 317 315 318 324 326 327 327 327 328 327 326 325 324 324 325 325 324
325 326 325 322 323 323 323 323 323 324 325 326 327 327 327 328 329 328 328 327 327 327 328 329 329 330 330 330 330 329 329 330 330 330 328 328 327 326 325 325 326 325 325 323 323 320 316 316 316 318 319 325 325 326 327 328 328 326 325 325 325 326 325
323 323 321 322 322 321 321 322 323 323 324 324 325 326 327 328 328 328 328 327 327 327 329 328 329 329 329 329 329 328 329 328 330 329 328 329 328 329 327 326 323 324 322 321 321 320 319 319 315 317 319 319 318 322 326 326 327 327 327 326 325 326 325
321 321 322 322 322 321 321 321 322 323 323 323 324 325 324 325 326 327 327 327 328 329 330 330 329 329 330 329 329 328 328 328 328 329 328 328 328 329 327 327 325 324 321 318 319 320 319 317 316 317 320 321 320 319 323 326 327 328 328 327 325 325 326
318 321 322 322 323 321 319 320 321 321 323 323 323 324 324 325 326 326 326 327 328 328 328 329 329 329 329 328 327 327 327 328 328 328 328 327 326 325 325 325 325 325 323 322 322 322 321 320 319 318 319 322 322 322 325 325 327 328 328 328 328 327 327
318 319 320 322 321 319 319 320 321 322 323 323 324 324 325 326 327 327 327 327 327 328 329 329 329 330 329 327 326 326 327 326 326 326 325 326 326 325 324 325 325 324 324 325 325 323 323 323 321 318 321 323 320 321 324 325 323 327 329 329 329 328 328
318 319 319 320 320 319 320 319 321 322 323 324 325 325 327 327 327 327 327 327 328 328 328 329 329 329 329 327 327 326 326 327 327 326 326 326 326 326 326 325 325 326 326 327 326 324 323 322 320 319 319 321 321 320 323 323 325 322 325 328 330 329 329
318 318 318 319 318 321 322 322 323 324 324 325 325 326 327 327 327 327 328 328 328 328 328 328 328 328 328 327 327 327 326 327 327 327 327 326 326 326 326 326 326 326 326 326 327 324 325 324 322 321 320 316 317 320 319 322 322 322 322 326 329 329 329
319 319 320 320 322 323 324 324 324 324 325 325 326 326 327 327 327 327 328 327 328 328 328 327 327 327 327 326 326 327 326 328 327 327 327 327 326 327 326 327 326 326 326 327 327 327 327 326 325 324 323 321 317 314 318 317 318 320 324 322 326 329 329
323 324 323 322 322 323 324 324 324 324 325 326 326 327 327 327 327 327 327 327 327 327 327 327 327 327 327 327 326 326 326 327 327 327 327 327 327 327 326 326 326 326 326 327 327 327 327 327 326 325 325 322 321 317 314 315 316 318 322 324 321 325 329
323 323 324 324 323 323 324 324 324 323 324 326 327 327 327 325 325 327 326 326 326 326 326 327 327 327 327 326 326 326 326 326 325 326 326 327 327 327 326 326 326 325 326 326 326 327 327 327 326 326 325 325 324 319 317 315 315 319 320 324 325 323 327
319 319 319 321 320 320 320 321 321 321 323 325 326 324 323 321 321 322 322 321 322 323 324 325 326 326 326 325 325 325 325 325 325 325 325 325 326 326 326 325 326 325 326 325 326 327 327 327 326 326 326 326 324 323 319 318 314 317 322 321 324 327 327
316 316 317 317 317 317 318 318 319 319 321 322 323 321 319 318 317 317 318 318 318 318 319 322 324 325 325 324 324 324 324 324 324 323 324 325 325 326 326 325 325 325 326 326 326 327 327 327 327 326 325 324 323 323 321 318 316 315 321 323 323 325 328
314 314 314 315 315 316 316 317 317 318 318 317 317 317 316 316 315 315 315 315 314 314 314 315 318 321 323 322 322 321 322 322 322 323 323 323 326 326 325 324 324 325 326 325 325 326 326 326 326 325 325 324 323 322 321 319 316 316 317 321 323 324 326
312 312 312 312 313 314 314 315 316 316 315 315 315 314 313 313 313 312 312 312 311 311 311 312 313 315 320 322 322 322 321 322 322 320 321 322 323 324 324 324 324 325 326 326 325 326 325 325 325 323 323 323 322 321 322 319 317 316 316 318 320 324 325
311 311 311 312 312 312 312 313 314 313 313 313 313 312 311 311 310 310 310 310 309 309 310 310 311 312 314 317 320 322 322 321 321 320 320 320 321 322 322 321 320 323 325 324 323 323 324 324 324 323 322 322 321 321 322 322 319 316 317 316 320 321 323
311 311 311 311 310 311 311 311 312 311 311 311 310 311 311 310 309 308 308 308 308 308 309 310 310 310 312 314 317 320 322 321 321 320 320 321 321 321 321 320 320 320 321 321 321 321 321 323 323 322 322 321 322 322 321 321 321 318 317 316 318 321 323
310 309 309 310 309 310 309 309 310 309 308 308 308 309 309 309 308 307 307 307 307 307 308 308 309 310 312 316 319 321 321 322 322 322 322 322 324 322 321 321 321 321 321 320 319 319 320 321 322 322 321 321 321 321 321 321 320 320 318 317 316 320 322
308 308 308 308 308 308 308 307 307 307 306 305 305 306 307 307 308 306 306 306 306 306 307 307 307 308 313 318 320 322 323 323 322 322 321 321 320 320 320 320 321 321 321 321 320 320 321 321 322 321 321 321 321 321 321 321 320 319 319 318 317 316 320
307 307 307 307 307 307 306 305 305 304 304 304 303 303 305 305 306 306 305 305 305 306 306 306 306 308 313 316 317 317 318 319 321 320 320 319 319 319 318 318 317 317 319 321 320 320 320 320 320 320 321 321 321 320 317 318 320 319 318 318 317 318 319
306 306 306 306 305 305 304 303 302 302 302 302 302 302 303 304 304 304 304 305 305 306 305 305 304 306 311 314 315 314 313 313 314 315 316 316 316 315 315 316 317 315 314 314 315 320 320 319 319 319 319 320 320 319 317 317 317 317 317 317 317 316 317
306 305 305 304 303 303 302 301 301 301 301 301 302 302 303 303 303 303 303 303 302 303 303 303 304 304 307 311 311 310 309 308 308 308 309 310 312 313 314 314 316 316 315 314 308 306 310 315 319 318 317 318 318 318 317 317 317 317 317 316 315 315 315
305 304 303 302 301 301 300 300 300 299 300 301 301 302 302 303 303 302 301 301 301 301 301 301 302 300 302 307 307 306 306 305 304 304 305 306 307 309 312 313 315 316 314 312 307 301 299 299 304 312 316 319 318 317 317 316 315 316 316 316 316 315 314
303 302 301 300 299 299 299 299 298 298 299 299 299 300 300 300 301 301 301 300 299 300 300 300 297 296 297 300 305 304 304 303 303 303 302 302 303 304 308 311 312 314 314 314 311 303 300 299 298 298 298 301 305 313 317 316 316 315 315 315 314 314 314
300 299 299 298 298 298 298 297 297 297 297 297 298 298 298 298 299 300 300 299 298 298 298 297 295 296 296 296 301 304 303 302 302 302 302 301 302 302 304 306 309 310 311 312 313 311 308 302 300 300 299 299 297 295 296 312 315 314 313 314 313 314 314
300 299 298 297 297 297 296 296 296 296 296 297 297 297 297 297 297 298 298 298 297 297 297 294 294 295 295 295 297 301 302 302 302 302 302 302 301 301 302 303 304 304 305 309 308 310 311 310 305 303 302 303 302 300 295 294 297 311 314 314 313 312 313
301 299 298 297 296 296 295 295 295 295 296 296 295 296 296 296 296 296 297 296 296 296 295 294 293 294 295 295 295 298 301 300 300 300 301 301 301 301 301 300 301 300 301 301 300 303 311 311 310 310 309 308 306 304 300 298 298 299 304 312 312 312 312
299 298 297 296 295 294 294 294 294 294 294 294 294 294 295 295 296 296 296 295 295 295 294 293 293 293 294 295 295 297 300 300 299 299 299 300 300 300 301 301 301 300 300 299 299 299 304 310 311 310 310 309 308 307 304 301 302 303 303 303 304 306 307
296 295 295 294 294 293 293 293 293 294 294 294 294 294 295 295 295 295 295 295 295 294 294 292 292 293 293 294 296 299 298 298 297 297 298 298 298 299 300 300 299 299 298 298 296 295 298 307 311 311 309 309 309 309 308 303 297 298 300 301 301 300 299
295 294 294 294 293 293 293 293 293 294 293 293 293 293 293 294 294 294 295 295 294 294 294 293 292 293 293 294 296 298 298 297 297 296 296 297 298 298 299 299 298 298 297 296 295 293 295 301 304 306 307 307 307 306 306 308 302 299 297 297 297 297 296
294 294 293 293 293 293 293 293 293 294 292 292 292 292 292 292 292 293 293 293 294 293 293 293 292 292 293 293 297 297 297 296 296 296 296 296 297 297 299 299 299 296 295 295 293 293 295 300 301 301 302 304 304 303 304 305 306 305 300 299 299 298 297
293 293 293 292 292 292 292 292 292 292 292 292 291 291 292 290 290 290 291 292 296 292 292 293 292 292 292 293 296 297 297 296 295 295 295 295 296 296 296 298 297 295 295 293 291 292 293 298 299 299 300 300 300 301 303 303 303 303 303 303 304 304 302
293 293 292 292 292 292 292 291 291 291 291 290 290 290 290 289 289 289 289 289 290 291 291 291 292 291 292 292 294 297 296 295 294 294 295 295 295 295 295 295 296 292 291 291 291 291 292 293 298 298 298 297 297 298 302 302 302 303 303 302 302 303 303
292 292 292 292 293 292 291 290 290 290 290 289 289 289 289 289 288 288 288 289 288 290 292 290 292 291 291 292 292 294 295 295 295 294 294 294 293 293 293 294 294 293 291 292 291 291 292 292 294 297 296 296 296 297 299 300 300 300 301 301 301 301 301
293 293 293 293 292 291 291 291 291 289 289 289 288 288 288 288 288 288 288 288 289 288 291 294 291 292 291 291 291 292 293 294 295 295 294 293 293 292 292 292 293 292 291 291 291 291 292 292 293 296 294 292 292 293 299 299 299 299 299 299 299 299 299
292 293 292 292 291 290 290 290 289 289 289 288 288 288 287 287 288 288 288 288 288 288 288 291 292 291 291 291 291 291 291 292 292 295 293 292 291 291 292 292 294 293 291 291 292 291 291 292 293 293 291 292 293 293 296 298 297 298 297 297 297 296 296
290 290 291 291 290 289 289 289 289 289 288 288 288 287 287 287 287 287 287 287 288 288 288 288 291 291 291 291 291 291 291 291 291 293 293 292 291 291 291 291 292 291 291 292 292 292 292 292 292 291 292 292 293 295 298 297 297 297 295 295 296 295 295

ECMWFFLT1_sfc_thetae_114.txt.gz
Theta_e
323 323 323 323 323 325 324 324 324 325 326 326 326 326 327 327 328 327 328 328 329 329 330 329 329 330 330 331 331 331 331 330 330 326 325 327 324 324 327 325 326 326 324 322 322 320 318 315 318 325 327 328 328 328 328 328 327 326 325 326 327 327 327
323 323 322 322 323 322 323 323 324 324 325 325 326 326 326 327 328 327 327 327 327 327 329 329 330 330 330 329 329 329 329 329 330 329 326 325 325 325 326 325 326 324 324 322 322 322 318 316 316 318 320 325 327 327 328 329 329 328 327 326 327 327 327
322 322 321 321 321 321 322 322 323 323 324 325 325 326 326 327 327 327 327 327 327 327 328 328 328 329 329 329 330 329 329 328 329 328 326 326 326 326 326 326 323 322 322 321 321 321 320 320 317 317 319 319 319 323 327 327 328 328 327 327 327 327 327
320 320 320 321 321 321 321 321 322 323 325 325 326 326 327 327 327 328 327 327 328 328 328 328 328 328 329 329 329 329 329 328 328 327 326 326 326 326 326 325 324 324 322 320 320 321 321 318 317 317 320 321 320 320 324 327 328 329 328 327 326 326 326
319 320 319 320 321 321 322 322 323 324 324 325 325 326 326 327 327 327 328 328 328 328 328 329 329 329 329 329 329 328 328 328 328 327 326 326 325 325 325 326 325 325 324 323 324 324 322 321 320 318 318 321 321 322 325 326 329 328 328 327 327 327 327
319 319 319 321 322 323 322 322 322 321 323 323 324 325 326 327 327 327 327 327 327 328 329 329 329 329 329 329 328 328 327 326 326 326 325 325 326 325 325 327 326 326 325 326 325 323 324 323 322 318 319 322 318 320 324 325 323 327 329 328 328 328 327
319 319 320 322 323 323 323 322 322 323 323 324 325 325 327 327 327 328 328 328 328 328 328 328 328 328 328 328 328 327 327 327 327 326 326 325 325 325 326 325 325 325 325 326 326 325 323 322 320 319 319 320 320 319 323 323 325 323 326 329 329 329 328
320 321 322 323 324 324 324 323 323 324 324 325 325 326 327 327 326 327 328 327 327 327 327 327 327 328 328 328 327 327 327 327 327 326 326 326 326 326 326 326 326 326 326 326 326 325 326 324 323 322 320 317 318 320 319 323 323 323 323 326 330 329 328
323 323 323 324 325 325 324 323 323 323 324 325 326 325 326 324 323 323 324 323 323 324 325 325 326 327 327 327 327 327 326 328 327 327 327 327 326 327 327 327 326 326 327 327 327 327 327 326 325 324 323 320 316 314 318 318 320 321 326 324 328 330 330
321 322 322 322 322 323 323 322 321 322 323 324 325 322 321 320 320 320 319 320 320 321 321 322 324 325 326 326 326 326 325 326 326 326 326 326 326 327 327 327 326 327 327 328 328 327 327 327 326 325 325 322 320 316 314 315 317 319 323 326 323 327 330
318 318 319 319 319 319 319 319 320 319 319 320 321 319 318 317 317 318 317 317 317 317 317 318 319 321 323 324 325 325 325 325 325 326 326 326 326 326 326 326 327 326 327 327 327 327 327 327 326 326 325 325 324 319 318 316 317 321 321 325 326 324 328
316 317 317 318 318 317 317 317 318 318 317 316 316 315 315 315 314 314 315 314 314 313 314 315 316 317 320 322 323 324 324 324 323 324 325 325 326 326 326 325 327 326 327 326 327 327 327 327 327 326 326 325 324 323 320 319 315 319 323 321 324 327 327
315 315 315 316 315 315 315 315 316 315 314 314 313 313 313 312 312 312 312 312 312 312 312 313 314 315 317 319 321 322 324 323 323 323 323 324 325 326 325 325 325 325 326 326 326 326 326 327 327 326 326 325 324 324 323 320 317 317 321 323 324 326 328
313 314 313 314 314 313 313 314 314 314 313 312 312 311 311 311 310 310 311 311 310 310 311 311 313 314 315 317 320 322 323 323 322 322 322 322 323 323 324 323 323 324 326 325 326 326 326 327 327 326 326 325 324 324 323 320 317 317 318 321 323 325 328
312 313 312 312 312 312 312 311 312 311 311 311 311 311 310 310 309 309 310 309 309 309 310 310 312 313 316 317 320 322 323 322 322 321 322 322 322 323 323 322 322 322 324 325 325 325 325 325 325 325 325 324 324 323 323 321 319 317 316 318 320 325 326
312 311 311 310 310 310 310 310 310 308 308 309 310 310 310 309 308 308 308 308 308 308 308 309 311 313 317 318 320 322 322 321 320 319 319 319 319 320 320 320 320 321 323 322 323 323 323 324 324 324 323 323 323 322 322 322 319 316 316 316 320 322 324
310 310 309 309 308 308 308 307 308 306 306 307 306 308 309 308 307 307 307 307 307 307 307 308 310 314 317 318 318 319 320 320 319 318 317 316 316 316 316 316 316 317 320 321 321 321 322 323 322 323 323 322 322 321 321 321 321 319 317 316 318 320 323
308 308 308 308 307 306 305 305 306 305 305 305 305 306 307 307 306 306 306 306 306 306 306 306 309 311 314 315 314 314 314 315 315 314 314 315 316 315 315 315 315 314 315 316 318 320 321 321 322 322 321 322 322 322 321 321 321 321 318 316 317 320 322
306 306 306 306 305 303 303 303 303 304 305 304 305 305 305 305 305 304 304 304 304 304 305 306 307 309 310 310 310 309 309 309 310 311 311 312 313 315 314 315 315 314 313 311 312 315 317 320 322 322 322 322 322 322 320 319 320 319 318 318 317 316 320
305 304 304 303 303 302 302 302 303 303 304 304 305 304 304 304 304 304 303 303 303 303 303 304 305 307 308 308 307 306 306 306 307 308 308 308 310 312 314 314 314 314 313 310 309 309 312 316 319 320 321 322 322 321 319 319 319 319 319 318 317 317 318
304 303 303 302 301 301 301 302 302 303 303 303 303 303 303 303 303 303 303 302 302 303 302 302 303 305 307 306 306 306 306 306 305 306 306 306 307 309 311 312 312 312 313 312 309 307 307 310 316 318 318 321 321 320 319 319 317 316 317 317 317 315 316
303 302 301 300 299 299 300 301 301 301 301 302 303 302 303 302 302 301 301 301 301 301 301 301 301 302 304 305 305 305 306 306 306 305 305 306 307 307 308 309 310 311 312 313 310 308 306 306 308 308 309 313 316 320 319 318 317 317 316 316 315 315 315
301 300 299 299 298 298 298 299 299 299 299 300 300 301 301 301 300 299 299 299 299 299 299 299 300 298 299 304 304 305 306 306 306 306 305 306 307 306 306 307 308 311 309 309 307 303 301 301 304 304 304 304 306 312 315 316 316 315 316 315 315 314 313
299 298 298 297 297 297 297 298 298 298 298 298 298 299 299 298 298 298 297 297 297 298 298 298 295 294 295 297 303 303 303 303 303 303 303 303 303 304 304 306 306 308 308 309 309 304 302 300 299 299 299 300 302 302 304 307 310 315 315 315 315 314 313
297 297 297 296 296 296 297 296 296 297 297 297 297 298 297 297 297 297 297 297 296 297 297 296 293 294 295 295 299 301 301 301 301 300 301 301 301 302 302 303 304 304 305 307 309 310 310 304 301 300 300 299 298 296 297 299 302 306 310 313 313 313 313
296 296 296 296 296 296 295 295 295 295 296 297 297 296 296 296 296 297 297 296 296 296 296 294 293 294 294 294 295 299 300 300 299 299 299 299 299 299 300 300 300 301 301 306 305 307 310 312 306 303 303 303 302 300 296 296 297 302 306 307 308 306 304
295 295 295 295 295 295 295 294 294 295 295 296 295 295 296 296 296 296 296 296 295 295 295 294 293 294 294 294 294 297 299 299 299 298 298 298 298 298 298 298 298 298 299 300 300 303 306 308 309 308 308 307 307 305 301 299 298 298 301 303 302 301 301
295 294 294 294 294 294 294 294 294 294 294 294 294 294 294 294 295 295 295 295 295 295 294 293 293 293 293 294 295 296 299 299 298 298 298 298 298 298 297 297 298 298 298 299 298 298 304 305 306 307 306 305 305 305 305 303 302 303 302 302 301 301 301
294 294 294 294 293 293 293 293 293 294 294 293 293 293 293 294 294 294 294 295 294 294 294 292 292 293 293 293 295 299 299 298 298 297 297 298 298 298 298 297 296 296 296 296 295 294 297 303 303 303 303 304 304 304 304 303 298 298 300 301 301 300 300
294 293 293 293 293 292 292 292 293 294 292 292 292 291 291 292 293 293 294 294 293 293 294 293 292 292 293 293 296 298 298 298 297 297 296 297 297 298 298 298 296 296 296 295 293 292 294 299 301 301 301 301 302 302 302 304 301 298 297 297 296 296 296
293 293 293 292 292 292 292 292 292 293 291 291 290 291 291 291 291 292 292 293 294 292 293 293 292 292 292 293 296 297 297 297 296 296 296 296 296 296 297 298 298 295 295 294 292 292 293 299 299 299 299 299 299 299 300 301 303 303 299 298 298 297 296
293 292 292 291 292 291 291 291 291 291 290 290 290 291 292 290 290 291 291 292 295 292 292 293 292 291 292 293 296 297 297 296 295 295 295 295 296 296 296 297 296 294 294 293 291 292 292 297 298 298 298 298 298 298 299 300 300 300 301 301 301 302 300
293 292 291 291 291 291 291 290 289 290 289 290 290 290 291 290 290 290 290 290 291 292 292 292 293 291 292 292 293 296 296 295 294 294 294 294 294 294 295 295 295 291 291 291 291 291 291 292 297 297 297 296 296 296 300 300 300 301 300 300 300 300 300
292 292 292 291 292 291 290 289 289 289 289 289 290 290 290 290 290 290 290 290 290 291 293 292 293 291 291 292 292 294 295 295 294 294 293 293 293 292 293 294 294 292 291 291 291 291 291 291 293 296 295 295 295 296 298 299 299 298 300 299 299 299 299
293 292 292 291 290 290 290 290 289 289 289 289 289 289 290 290 290 290 290 290 290 289 292 294 292 292 291 291 291 291 293 293 294 294 292 292 292 292 292 293 293 292 290 291 290 291 291 291 291 295 293 291 291 292 299 300 300 299 299 299 298 298 297
292 292 291 291 290 289 289 289 289 289 289 289 289 288 288 289 289 289 290 290 290 290 290 292 292 292 291 290 290 290 290 291 291 294 292 291 291 291 292 292 293 292 290 290 290 290 290 291 292 292 290 291 291 292 295 298 298 298 298 297 297 296 296
290 290 291 290 290 289 288 288 289 288 288 288 288 288 288 288 288 288 289 289 290 290 290 290 291 291 291 290 290 290 290 290 290 293 293 291 291 291 291 291 291 290 290 290 290 290 290 290 291 290 290 291 292 293 296 296 296 296 295 295 295 296 296

ECMWFFLT1_sfc_thetae_117.txt.gz
Theta_e
335 332 333 334 335 334 334 334 333 331 331 330 330 330 330 330 331 330 330 330 330 330 330 330 330 331 331 332 333 333 332 332 332 330 327 328 327 328 334 329 326 326 326 328 327 324 322 320 322 329 331 333 333 332 332 333 332 331 330 330 331 332 335
334 334 334 333 333 334 332 331 331 330 330 330 329 329 330 330 330 331 330 330 330 331 330 330 331 331 331 331 330 330 330 331 332 331 330 329 330 328 329 329 329 324 324 324 327 324 320 320 320 323 325 330 332 332 332 333 334 333 331 332 331 331 330
333 333 333 332 331 331 330 329 329 328 328 330 330 330 330 330 330 331 331 331 331 331 332 331 332 332 331 331 331 331 332 331 332 331 330 330 329 331 330 328 325 326 324 321 322 321 322 323 320 322 326 328 325 328 333 332 333 333 333 332 331 331 331
331 331 330 328 328 329 328 327 327 327 329 328 329 329 329 329 330 331 331 331 331 331 332 331 331 331 332 332 332 332 331 333 333 332 332 332 331 328 329 329 326 326 324 322 321 322 322 320 320 320 324 326 327 328 331 332 332 333 335 333 331 330 330
330 328 326 325 326 326 326 325 326 326 327 328 328 328 328 329 329 330 331 330 330 331 330 331 331 331 331 332 332 332 332 332 332 331 330 331 330 330 326 330 329 329 328 327 326 325 320 321 321 321 323 326 327 327 329 331 332 333 334 332 332 331 330
328 327 327 326 326 325 325 325 325 324 326 326 325 326 328 328 328 328 329 328 328 329 328 329 330 330 331 331 331 330 331 330 332 330 328 329 330 327 328 331 331 329 326 332 332 328 327 326 323 321 324 325 322 326 330 330 328 332 334 334 333 331 330
327 327 326 325 326 326 325 325 325 324 324 325 325 325 327 327 327 327 326 327 327 327 327 327 327 329 330 330 330 330 330 331 332 331 331 329 330 331 332 330 330 329 330 332 330 329 326 325 323 323 323 324 325 323 328 328 328 327 331 335 334 332 331
326 327 326 326 326 325 325 324 324 325 325 325 325 326 327 326 324 325 325 325 324 324 324 324 325 326 327 328 329 330 330 331 331 330 331 330 328 329 330 330 327 330 331 330 331 328 330 327 326 325 324 319 320 322 323 327 328 326 327 331 332 331 331
327 327 326 325 325 325 324 324 324 323 323 324 325 325 324 323 323 323 323 323 322 322 321 321 323 324 326 327 329 329 328 330 329 330 331 330 329 329 329 330 330 330 332 332 330 329 328 329 328 327 326 322 317 316 322 322 324 324 329 326 331 333 332
324 323 322 322 323 324 324 323 323 321 321 321 321 322 321 321 320 320 320 319 319 319 319 319 321 323 325 327 327 327 326 328 328 329 330 330 329 329 328 329 331 331 331 332 332 330 329 330 330 329 328 324 324 319 317 318 321 323 326 327 325 330 333
322 321 322 322 323 323 322 321 320 318 318 319 320 320 319 318 318 318 317 317 317 317 318 319 320 321 323 325 326 328 328 327 327 329 329 329 329 329 329 329 329 328 330 331 330 330 330 330 329 327 327 328 326 319 320 318 319 326 324 328 329 329 332
320 320 321 322 323 321 318 318 317 317 317 318 317 317 316 316 315 315 315 315 315 316 317 318 319 321 323 325 326 326 327 327 326 325 327 327 327 327 326 326 327 328 330 329 330 330 331 330 329 329 327 328 327 326 323 321 317 323 328 325 329 333 333
319 320 320 320 319 317 315 316 315 315 315 316 315 315 315 313 313 313 314 314 314 315 316 317 318 320 323 325 326 325 326 324 324 323 324 325 325 325 324 323 323 323 325 327 328 329 331 331 329 327 328 328 328 328 325 323 319 318 328 329 330 330 333
318 318 318 317 316 315 314 314 314 315 315 314 315 314 313 313 313 313 313 314 314 314 315 316 318 320 321 321 322 323 322 321 319 320 320 320 321 322 321 320 319 319 322 323 325 326 327 328 328 327 328 327 326 328 326 323 320 319 323 327 329 329 331
317 316 316 314 313 312 312 312 313 313 312 312 313 312 312 312 312 313 313 312 312 313 315 316 316 317 316 316 316 317 317 316 316 317 317 317 318 319 319 318 317 318 319 320 321 323 324 325 326 325 326 326 325 325 327 324 322 320 319 323 325 329 329
314 313 312 311 311 311 311 311 311 311 311 311 312 312 311 311 312 312 313 311 313 313 313 315 315 314 314 313 313 313 314 314 314 314 314 314 315 317 316 317 316 316 316 316 317 320 323 324 326 326 326 327 325 326 326 325 324 321 320 319 324 324 326
311 311 310 309 310 310 310 310 311 311 311 311 310 311 311 311 311 312 314 312 313 312 313 315 315 314 313 312 312 312 312 312 312 312 312 313 313 314 314 314 314 315 314 314 314 316 319 321 324 325 326 327 325 325 325 325 324 321 321 319 322 323 325
310 309 309 308 308 309 309 309 310 310 311 310 310 310 311 311 312 312 311 312 311 310 311 313 313 312 312 313 312 312 312 312 313 313 312 312 314 313 313 312 313 313 312 311 311 311 313 317 321 322 322 324 325 325 325 325 323 323 321 319 321 323 325
308 307 307 307 307 307 308 308 309 310 310 309 310 310 310 310 310 310 310 310 310 309 308 309 311 311 311 312 313 313 312 313 313 313 312 311 312 312 312 312 312 313 311 309 308 308 309 312 315 315 317 319 322 325 325 326 323 322 321 321 322 322 322
306 306 306 306 306 306 306 308 308 308 309 308 308 308 309 309 309 309 308 308 308 308 308 307 309 311 312 312 312 311 311 312 312 313 312 311 312 312 311 312 312 312 312 310 308 307 307 308 309 309 310 313 317 322 323 323 323 321 321 319 321 321 320
306 306 306 306 306 306 306 307 307 307 307 306 306 307 307 308 308 308 308 307 307 307 307 306 307 310 310 309 309 309 309 309 310 310 310 310 312 312 311 311 311 311 312 311 309 308 307 306 306 306 307 309 312 316 319 320 320 319 319 318 318 319 321
306 306 306 305 305 305 305 305 305 306 305 305 306 307 308 308 307 308 307 306 306 306 305 304 303 304 307 308 308 308 307 307 308 308 308 309 310 310 311 311 311 310 311 312 307 306 307 307 305 303 304 305 307 309 312 313 314 316 317 317 316 318 318
305 306 306 305 305 305 305 305 305 305 305 306 306 307 306 306 305 305 305 305 305 304 303 303 299 297 298 306 308 307 307 306 306 307 307 307 308 308 309 309 310 309 307 307 306 302 301 301 304 305 304 303 303 304 307 310 310 311 312 309 307 308 308
306 305 305 305 305 304 304 305 306 305 305 305 305 305 305 304 305 305 304 304 304 303 302 300 295 294 294 296 305 307 306 305 305 305 305 305 305 306 307 308 308 309 308 308 309 302 300 299 299 299 299 300 302 301 302 304 307 308 307 305 304 304 305
307 305 306 304 305 305 305 305 305 305 305 304 304 305 304 304 304 304 304 304 304 303 302 296 293 294 294 294 299 306 306 305 305 304 304 304 304 304 305 306 306 307 306 307 308 310 308 301 299 299 299 298 297 296 296 299 302 304 304 303 301 300 301
303 304 305 304 305 306 307 304 303 303 302 303 304 303 303 303 303 304 304 303 302 302 302 294 293 294 294 294 295 302 304 305 304 303 304 303 303 303 304 304 305 305 305 306 306 307 309 310 304 301 302 302 301 298 295 295 296 302 304 302 301 300 299
302 302 302 302 303 303 302 301 302 302 303 303 303 302 303 303 303 303 303 303 302 302 301 295 293 294 294 294 294 299 305 304 304 303 303 303 303 303 303 303 303 303 304 304 303 304 308 309 309 309 308 307 306 304 300 298 297 297 301 303 301 299 300
301 301 302 302 302 301 301 301 301 301 302 302 301 301 302 302 302 303 303 303 303 301 299 292 293 293 293 294 295 299 305 304 303 303 303 303 303 303 303 303 303 302 302 302 300 299 306 308 308 308 307 306 305 305 305 304 303 304 304 303 302 301 301
301 301 301 301 301 300 301 301 300 301 301 301 301 302 302 302 302 302 303 303 303 301 299 292 292 293 293 293 296 304 304 303 303 302 302 303 302 302 302 302 302 302 301 300 295 292 297 306 307 306 305 306 305 305 304 302 297 298 303 304 303 303 303
301 301 301 300 300 300 300 300 300 302 301 301 300 300 301 301 302 302 302 303 303 301 300 294 291 292 293 293 299 304 304 303 303 302 302 302 302 301 300 300 301 301 300 299 293 291 292 300 306 305 304 304 304 304 304 305 300 297 296 296 295 295 295
300 300 300 299 299 299 300 300 300 301 301 300 300 300 301 301 301 301 301 301 302 301 300 295 291 292 292 292 298 303 303 302 302 302 301 302 302 302 300 297 298 299 299 297 291 291 292 301 304 304 303 303 302 302 302 305 306 305 298 298 297 296 296
300 299 299 299 299 299 299 299 300 301 301 301 300 301 301 300 300 301 301 301 299 300 300 297 292 291 292 292 299 304 302 301 301 301 301 300 301 301 301 299 295 294 295 293 290 291 291 299 303 302 302 302 301 301 302 303 304 304 305 305 306 306 304
299 299 298 299 299 299 300 300 300 300 301 301 300 300 300 300 300 299 300 300 300 301 300 298 294 291 291 292 293 302 302 300 299 299 300 299 299 300 300 300 297 291 290 290 290 290 291 292 301 301 301 300 300 299 304 304 303 304 304 303 304 305 305
299 299 299 299 299 299 300 300 300 300 300 300 300 300 300 300 299 299 299 300 300 299 299 299 295 290 291 291 291 295 301 300 300 299 299 298 299 299 299 299 298 292 290 290 290 290 291 291 293 300 299 299 299 298 300 304 303 299 303 303 303 303 303
299 299 299 299 298 298 299 300 300 300 300 300 299 299 299 299 299 299 299 299 300 299 298 296 298 292 290 291 290 291 298 298 299 300 298 298 298 299 299 298 297 292 289 290 290 290 290 291 291 298 296 291 291 291 302 303 303 303 302 302 301 301 302
298 298 299 299 299 298 299 299 300 300 300 299 298 298 298 299 298 297 298 298 299 299 299 297 292 295 290 290 290 290 290 294 292 300 299 298 298 298 298 298 296 291 289 290 290 290 290 290 293 293 289 290 292 292 297 302 302 302 301 301 300 300 300
298 298 299 299 298 298 298 299 299 299 299 298 297 296 296 297 297 296 296 295 297 297 298 297 294 291 293 289 290 289 289 289 291 298 299 298 297 296 296 296 293 289 290 290 290 290 290 290 292 289 290 290 292 295 301 301 300 300 299 298 299 299 299